<?xml version="1.0" encoding="UTF-8" standalone="no" ?>
<gpx xmlns="http://www.topografix.com/GPX/1/1" xmlns:xsi="http://www.w3.org/2001/XMLSchema-instance" xsi:schemaLocation="http://www.topografix.com/GPX/1/1 http://www.topografix.com/GPX/1/1/gpx.xsd" version="1.1" creator="VisuGPX - https://www.visugpx.com">
  <metadata>
    <name>sortie du dimanche 22 septembre 2013</name>
    <desc><![CDATA[Sortie vtt de la \"randonnée des feuilles mortes\" à Vernon]]></desc>
  </metadata>
  <trk>
    <name><![CDATA[sortie du dimanche 22 septembre 2013_1]]></name>
    <trkseg>
      <trkpt lat="49.09882" lon="1.48726">
        <ele>18.929161071777</ele>
        <time>2013-09-22T06:05:25.000Z</time>
      </trkpt>
      <trkpt lat="49.09881" lon="1.48725">
        <ele>18.907022476196</ele>
        <time>2013-09-22T06:05:28.000Z</time>
      </trkpt>
      <trkpt lat="49.0988" lon="1.48726">
        <ele>18.887907028198</ele>
        <time>2013-09-22T06:05:30.000Z</time>
      </trkpt>
      <trkpt lat="49.09877" lon="1.48725">
        <ele>18.860504150391</ele>
        <time>2013-09-22T06:05:45.000Z</time>
      </trkpt>
      <trkpt lat="49.09875" lon="1.48723">
        <ele>18.821392059326</ele>
        <time>2013-09-22T06:05:48.000Z</time>
      </trkpt>
      <trkpt lat="49.09872" lon="1.48724">
        <ele>18.753030776977</ele>
        <time>2013-09-22T06:05:50.000Z</time>
      </trkpt>
      <trkpt lat="49.09869" lon="1.48725">
        <ele>18.678060531616</ele>
        <time>2013-09-22T06:05:52.000Z</time>
      </trkpt>
      <trkpt lat="49.09867" lon="1.48728">
        <ele>18.603466033936</ele>
        <time>2013-09-22T06:05:54.000Z</time>
      </trkpt>
      <trkpt lat="49.09863" lon="1.48734">
        <ele>18.537673950195</ele>
        <time>2013-09-22T06:05:57.000Z</time>
      </trkpt>
      <trkpt lat="49.09858" lon="1.48742">
        <ele>18.494304656982</ele>
        <time>2013-09-22T06:06:00.000Z</time>
      </trkpt>
      <trkpt lat="49.09853" lon="1.4875">
        <ele>18.471429824829</ele>
        <time>2013-09-22T06:06:02.000Z</time>
      </trkpt>
      <trkpt lat="49.09848" lon="1.48769">
        <ele>18.543422698975</ele>
        <time>2013-09-22T06:06:05.000Z</time>
      </trkpt>
      <trkpt lat="49.09848" lon="1.48781">
        <ele>18.691188812256</ele>
        <time>2013-09-22T06:06:08.000Z</time>
      </trkpt>
      <trkpt lat="49.09846" lon="1.4879">
        <ele>18.893404006958</ele>
        <time>2013-09-22T06:06:10.000Z</time>
      </trkpt>
      <trkpt lat="49.09844" lon="1.48797">
        <ele>19.137634277344</ele>
        <time>2013-09-22T06:06:12.000Z</time>
      </trkpt>
      <trkpt lat="49.09841" lon="1.48805">
        <ele>19.429075241089</ele>
        <time>2013-09-22T06:06:15.000Z</time>
      </trkpt>
      <trkpt lat="49.09839" lon="1.48809">
        <ele>19.668916702271</ele>
        <time>2013-09-22T06:06:17.000Z</time>
      </trkpt>
      <trkpt lat="49.09835" lon="1.48812">
        <ele>19.866104125977</ele>
        <time>2013-09-22T06:06:20.000Z</time>
      </trkpt>
      <trkpt lat="49.0983" lon="1.48818">
        <ele>20.047609329224</ele>
        <time>2013-09-22T06:06:23.000Z</time>
      </trkpt>
      <trkpt lat="49.09823" lon="1.48836">
        <ele>20.259695053101</ele>
        <time>2013-09-22T06:06:26.000Z</time>
      </trkpt>
      <trkpt lat="49.09819" lon="1.48849">
        <ele>20.386203765869</ele>
        <time>2013-09-22T06:06:28.000Z</time>
      </trkpt>
      <trkpt lat="49.09818" lon="1.48858">
        <ele>20.471845626831</ele>
        <time>2013-09-22T06:06:30.000Z</time>
      </trkpt>
      <trkpt lat="49.09817" lon="1.48866">
        <ele>20.520349502564</ele>
        <time>2013-09-22T06:06:33.000Z</time>
      </trkpt>
      <trkpt lat="49.09819" lon="1.48884">
        <ele>20.519235610962</ele>
        <time>2013-09-22T06:06:36.000Z</time>
      </trkpt>
      <trkpt lat="49.09824" lon="1.4889">
        <ele>20.438213348389</ele>
        <time>2013-09-22T06:06:38.000Z</time>
      </trkpt>
      <trkpt lat="49.09827" lon="1.48892">
        <ele>20.386631011963</ele>
        <time>2013-09-22T06:06:40.000Z</time>
      </trkpt>
      <trkpt lat="49.09837" lon="1.48892">
        <ele>20.33166885376</ele>
        <time>2013-09-22T06:06:43.000Z</time>
      </trkpt>
      <trkpt lat="49.09845" lon="1.48891">
        <ele>20.249731063843</ele>
        <time>2013-09-22T06:06:45.000Z</time>
      </trkpt>
      <trkpt lat="49.09854" lon="1.48894">
        <ele>20.133243560791</ele>
        <time>2013-09-22T06:06:48.000Z</time>
      </trkpt>
      <trkpt lat="49.09858" lon="1.48894">
        <ele>20.002223968506</ele>
        <time>2013-09-22T06:06:50.000Z</time>
      </trkpt>
      <trkpt lat="49.09865" lon="1.48893">
        <ele>19.84375</ele>
        <time>2013-09-22T06:06:53.000Z</time>
      </trkpt>
      <trkpt lat="49.09878" lon="1.48893">
        <ele>19.641906738281</ele>
        <time>2013-09-22T06:06:56.000Z</time>
      </trkpt>
      <trkpt lat="49.09885" lon="1.48893">
        <ele>19.444458007812</ele>
        <time>2013-09-22T06:06:58.000Z</time>
      </trkpt>
      <trkpt lat="49.09897" lon="1.48887">
        <ele>19.256927490234</ele>
        <time>2013-09-22T06:07:01.000Z</time>
      </trkpt>
      <trkpt lat="49.09906" lon="1.48879">
        <ele>19.062866210938</ele>
        <time>2013-09-22T06:07:04.000Z</time>
      </trkpt>
      <trkpt lat="49.09914" lon="1.48874">
        <ele>18.877868652344</ele>
        <time>2013-09-22T06:07:06.000Z</time>
      </trkpt>
      <trkpt lat="49.09922" lon="1.48866">
        <ele>18.773036956787</ele>
        <time>2013-09-22T06:07:08.000Z</time>
      </trkpt>
      <trkpt lat="49.09932" lon="1.48857">
        <ele>18.732843399048</ele>
        <time>2013-09-22T06:07:11.000Z</time>
      </trkpt>
      <trkpt lat="49.09939" lon="1.48852">
        <ele>18.73872756958</ele>
        <time>2013-09-22T06:07:13.000Z</time>
      </trkpt>
      <trkpt lat="49.09946" lon="1.48849">
        <ele>18.770095825195</ele>
        <time>2013-09-22T06:07:15.000Z</time>
      </trkpt>
      <trkpt lat="49.0995" lon="1.48847">
        <ele>18.817783355713</ele>
        <time>2013-09-22T06:07:18.000Z</time>
      </trkpt>
      <trkpt lat="49.09953" lon="1.48844">
        <ele>18.833171844482</ele>
        <time>2013-09-22T06:07:21.000Z</time>
      </trkpt>
      <trkpt lat="49.0996" lon="1.48839">
        <ele>18.788722991943</ele>
        <time>2013-09-22T06:07:23.000Z</time>
      </trkpt>
      <trkpt lat="49.09965" lon="1.48835">
        <ele>18.707302093506</ele>
        <time>2013-09-22T06:07:25.000Z</time>
      </trkpt>
      <trkpt lat="49.09974" lon="1.48829">
        <ele>18.624380111694</ele>
        <time>2013-09-22T06:07:27.000Z</time>
      </trkpt>
      <trkpt lat="49.09983" lon="1.48821">
        <ele>18.579742431641</ele>
        <time>2013-09-22T06:07:30.000Z</time>
      </trkpt>
      <trkpt lat="49.09988" lon="1.48815">
        <ele>18.571725845337</ele>
        <time>2013-09-22T06:07:32.000Z</time>
      </trkpt>
      <trkpt lat="49.1" lon="1.48807">
        <ele>18.64009475708</ele>
        <time>2013-09-22T06:07:35.000Z</time>
      </trkpt>
      <trkpt lat="49.10007" lon="1.48801">
        <ele>18.798984527588</ele>
        <time>2013-09-22T06:07:37.000Z</time>
      </trkpt>
      <trkpt lat="49.10018" lon="1.48789">
        <ele>19.043169021606</ele>
        <time>2013-09-22T06:07:40.000Z</time>
      </trkpt>
      <trkpt lat="49.10025" lon="1.48781">
        <ele>19.291719436646</ele>
        <time>2013-09-22T06:07:42.000Z</time>
      </trkpt>
      <trkpt lat="49.10033" lon="1.4877">
        <ele>19.539123535156</ele>
        <time>2013-09-22T06:07:45.000Z</time>
      </trkpt>
      <trkpt lat="49.10038" lon="1.48762">
        <ele>19.744440078735</ele>
        <time>2013-09-22T06:07:47.000Z</time>
      </trkpt>
      <trkpt lat="49.10044" lon="1.48753">
        <ele>19.878879547119</ele>
        <time>2013-09-22T06:07:49.000Z</time>
      </trkpt>
      <trkpt lat="49.10054" lon="1.48739">
        <ele>19.84361076355</ele>
        <time>2013-09-22T06:07:52.000Z</time>
      </trkpt>
      <trkpt lat="49.10059" lon="1.48729">
        <ele>19.701179504394</ele>
        <time>2013-09-22T06:07:54.000Z</time>
      </trkpt>
      <trkpt lat="49.10063" lon="1.48724">
        <ele>19.497583389282</ele>
        <time>2013-09-22T06:07:56.000Z</time>
      </trkpt>
      <trkpt lat="49.10068" lon="1.48714">
        <ele>19.215114593506</ele>
        <time>2013-09-22T06:07:59.000Z</time>
      </trkpt>
      <trkpt lat="49.10075" lon="1.48703">
        <ele>18.856132507324</ele>
        <time>2013-09-22T06:08:02.000Z</time>
      </trkpt>
      <trkpt lat="49.1008" lon="1.48696">
        <ele>18.517614364624</ele>
        <time>2013-09-22T06:08:04.000Z</time>
      </trkpt>
      <trkpt lat="49.10087" lon="1.48682">
        <ele>18.182079315186</ele>
        <time>2013-09-22T06:08:07.000Z</time>
      </trkpt>
      <trkpt lat="49.1009" lon="1.4867">
        <ele>17.855876922607</ele>
        <time>2013-09-22T06:08:09.000Z</time>
      </trkpt>
      <trkpt lat="49.10093" lon="1.48652">
        <ele>17.576259613037</ele>
        <time>2013-09-22T06:08:12.000Z</time>
      </trkpt>
      <trkpt lat="49.10096" lon="1.48633">
        <ele>17.356740951538</ele>
        <time>2013-09-22T06:08:15.000Z</time>
      </trkpt>
      <trkpt lat="49.10099" lon="1.48618">
        <ele>17.19109916687</ele>
        <time>2013-09-22T06:08:17.000Z</time>
      </trkpt>
      <trkpt lat="49.10099" lon="1.48599">
        <ele>17.050439834595</ele>
        <time>2013-09-22T06:08:20.000Z</time>
      </trkpt>
      <trkpt lat="49.10099" lon="1.48591">
        <ele>16.919860839844</ele>
        <time>2013-09-22T06:08:22.000Z</time>
      </trkpt>
      <trkpt lat="49.101" lon="1.48579">
        <ele>16.809131622314</ele>
        <time>2013-09-22T06:08:24.000Z</time>
      </trkpt>
      <trkpt lat="49.10102" lon="1.48566">
        <ele>16.765789031982</ele>
        <time>2013-09-22T06:08:26.000Z</time>
      </trkpt>
      <trkpt lat="49.10105" lon="1.48547">
        <ele>16.792335510254</ele>
        <time>2013-09-22T06:08:29.000Z</time>
      </trkpt>
      <trkpt lat="49.10108" lon="1.48534">
        <ele>16.902011871338</ele>
        <time>2013-09-22T06:08:31.000Z</time>
      </trkpt>
      <trkpt lat="49.10109" lon="1.48519">
        <ele>17.06321144104</ele>
        <time>2013-09-22T06:08:33.000Z</time>
      </trkpt>
      <trkpt lat="49.10112" lon="1.48504">
        <ele>17.266000747681</ele>
        <time>2013-09-22T06:08:36.000Z</time>
      </trkpt>
      <trkpt lat="49.10115" lon="1.48488">
        <ele>17.416156768799</ele>
        <time>2013-09-22T06:08:39.000Z</time>
      </trkpt>
      <trkpt lat="49.1012" lon="1.4847">
        <ele>17.470510482788</ele>
        <time>2013-09-22T06:08:42.000Z</time>
      </trkpt>
      <trkpt lat="49.10124" lon="1.48459">
        <ele>17.457569122314</ele>
        <time>2013-09-22T06:08:44.000Z</time>
      </trkpt>
      <trkpt lat="49.10125" lon="1.48443">
        <ele>17.360111236572</ele>
        <time>2013-09-22T06:08:47.000Z</time>
      </trkpt>
      <trkpt lat="49.10127" lon="1.48429">
        <ele>17.18083190918</ele>
        <time>2013-09-22T06:08:50.000Z</time>
      </trkpt>
      <trkpt lat="49.1013" lon="1.48417">
        <ele>16.978475570679</ele>
        <time>2013-09-22T06:08:52.000Z</time>
      </trkpt>
      <trkpt lat="49.10132" lon="1.48403">
        <ele>16.789590835571</ele>
        <time>2013-09-22T06:08:55.000Z</time>
      </trkpt>
      <trkpt lat="49.10135" lon="1.48396">
        <ele>16.615840911865</ele>
        <time>2013-09-22T06:08:57.000Z</time>
      </trkpt>
      <trkpt lat="49.10137" lon="1.48387">
        <ele>16.476459503174</ele>
        <time>2013-09-22T06:08:59.000Z</time>
      </trkpt>
      <trkpt lat="49.10139" lon="1.48373">
        <ele>16.354614257812</ele>
        <time>2013-09-22T06:09:02.000Z</time>
      </trkpt>
      <trkpt lat="49.10139" lon="1.48367">
        <ele>16.256011962891</ele>
        <time>2013-09-22T06:09:04.000Z</time>
      </trkpt>
      <trkpt lat="49.10142" lon="1.48352">
        <ele>16.155090332031</ele>
        <time>2013-09-22T06:09:07.000Z</time>
      </trkpt>
      <trkpt lat="49.10145" lon="1.48343">
        <ele>16.052429199219</ele>
        <time>2013-09-22T06:09:09.000Z</time>
      </trkpt>
      <trkpt lat="49.10154" lon="1.48339">
        <ele>15.976715087891</ele>
        <time>2013-09-22T06:09:12.000Z</time>
      </trkpt>
      <trkpt lat="49.10161" lon="1.48339">
        <ele>15.948394775391</ele>
        <time>2013-09-22T06:09:15.000Z</time>
      </trkpt>
      <trkpt lat="49.10166" lon="1.48334">
        <ele>15.933563232422</ele>
        <time>2013-09-22T06:09:18.000Z</time>
      </trkpt>
      <trkpt lat="49.10177" lon="1.48323">
        <ele>16.020027160644</ele>
        <time>2013-09-22T06:09:21.000Z</time>
      </trkpt>
      <trkpt lat="49.10181" lon="1.48318">
        <ele>16.143581390381</ele>
        <time>2013-09-22T06:09:24.000Z</time>
      </trkpt>
      <trkpt lat="49.10191" lon="1.48314">
        <ele>16.297183990479</ele>
        <time>2013-09-22T06:09:27.000Z</time>
      </trkpt>
      <trkpt lat="49.10193" lon="1.48303">
        <ele>16.452472686768</ele>
        <time>2013-09-22T06:09:30.000Z</time>
      </trkpt>
      <trkpt lat="49.10201" lon="1.48296">
        <ele>16.63330078125</ele>
        <time>2013-09-22T06:09:33.000Z</time>
      </trkpt>
      <trkpt lat="49.10204" lon="1.48291">
        <ele>16.751041412354</ele>
        <time>2013-09-22T06:09:35.000Z</time>
      </trkpt>
      <trkpt lat="49.1021" lon="1.48284">
        <ele>16.859060287476</ele>
        <time>2013-09-22T06:09:38.000Z</time>
      </trkpt>
      <trkpt lat="49.10217" lon="1.48276">
        <ele>16.936861038208</ele>
        <time>2013-09-22T06:09:40.000Z</time>
      </trkpt>
      <trkpt lat="49.10225" lon="1.48267">
        <ele>16.998388290405</ele>
        <time>2013-09-22T06:09:43.000Z</time>
      </trkpt>
      <trkpt lat="49.10227" lon="1.48264">
        <ele>17.033382415771</ele>
        <time>2013-09-22T06:09:45.000Z</time>
      </trkpt>
      <trkpt lat="49.10235" lon="1.48256">
        <ele>17.054370880127</ele>
        <time>2013-09-22T06:10:02.000Z</time>
      </trkpt>
      <trkpt lat="49.10238" lon="1.48255">
        <ele>17.06037902832</ele>
        <time>2013-09-22T06:10:05.000Z</time>
      </trkpt>
      <trkpt lat="49.10241" lon="1.4825">
        <ele>17.04887008667</ele>
        <time>2013-09-22T06:10:19.000Z</time>
      </trkpt>
      <trkpt lat="49.10242" lon="1.48248">
        <ele>17.022382736206</ele>
        <time>2013-09-22T06:10:21.000Z</time>
      </trkpt>
      <trkpt lat="49.10244" lon="1.4824">
        <ele>16.961334228516</ele>
        <time>2013-09-22T06:10:24.000Z</time>
      </trkpt>
      <trkpt lat="49.10246" lon="1.48232">
        <ele>16.867380142212</ele>
        <time>2013-09-22T06:10:26.000Z</time>
      </trkpt>
      <trkpt lat="49.1025" lon="1.48221">
        <ele>16.721435546875</ele>
        <time>2013-09-22T06:10:29.000Z</time>
      </trkpt>
      <trkpt lat="49.10254" lon="1.48213">
        <ele>16.572666168213</ele>
        <time>2013-09-22T06:10:32.000Z</time>
      </trkpt>
      <trkpt lat="49.10256" lon="1.48211">
        <ele>16.44469833374</ele>
        <time>2013-09-22T06:10:34.000Z</time>
      </trkpt>
      <trkpt lat="49.10259" lon="1.48209">
        <ele>16.357345581055</ele>
        <time>2013-09-22T06:10:37.000Z</time>
      </trkpt>
      <trkpt lat="49.10264" lon="1.482">
        <ele>16.288898468018</ele>
        <time>2013-09-22T06:10:40.000Z</time>
      </trkpt>
      <trkpt lat="49.10268" lon="1.48194">
        <ele>16.262355804443</ele>
        <time>2013-09-22T06:10:42.000Z</time>
      </trkpt>
      <trkpt lat="49.10278" lon="1.48183">
        <ele>16.206287384033</ele>
        <time>2013-09-22T06:10:45.000Z</time>
      </trkpt>
      <trkpt lat="49.10283" lon="1.48174">
        <ele>16.089246749878</ele>
        <time>2013-09-22T06:10:47.000Z</time>
      </trkpt>
      <trkpt lat="49.10286" lon="1.48167">
        <ele>15.912408828735</ele>
        <time>2013-09-22T06:10:49.000Z</time>
      </trkpt>
      <trkpt lat="49.10292" lon="1.48155">
        <ele>15.71022605896</ele>
        <time>2013-09-22T06:10:52.000Z</time>
      </trkpt>
      <trkpt lat="49.10295" lon="1.48148">
        <ele>15.489109992981</ele>
        <time>2013-09-22T06:10:54.000Z</time>
      </trkpt>
      <trkpt lat="49.10298" lon="1.48142">
        <ele>15.279905319214</ele>
        <time>2013-09-22T06:10:56.000Z</time>
      </trkpt>
      <trkpt lat="49.10302" lon="1.48135">
        <ele>15.091052055359</ele>
        <time>2013-09-22T06:10:59.000Z</time>
      </trkpt>
      <trkpt lat="49.10308" lon="1.48126">
        <ele>14.905276298523</ele>
        <time>2013-09-22T06:11:02.000Z</time>
      </trkpt>
      <trkpt lat="49.10313" lon="1.4812">
        <ele>14.728956222534</ele>
        <time>2013-09-22T06:11:04.000Z</time>
      </trkpt>
      <trkpt lat="49.10318" lon="1.48111">
        <ele>14.523341178894</ele>
        <time>2013-09-22T06:11:07.000Z</time>
      </trkpt>
      <trkpt lat="49.10321" lon="1.48106">
        <ele>14.310252189636</ele>
        <time>2013-09-22T06:11:09.000Z</time>
      </trkpt>
      <trkpt lat="49.10326" lon="1.48098">
        <ele>14.072237014771</ele>
        <time>2013-09-22T06:11:12.000Z</time>
      </trkpt>
      <trkpt lat="49.10329" lon="1.48094">
        <ele>13.850591659546</ele>
        <time>2013-09-22T06:11:14.000Z</time>
      </trkpt>
      <trkpt lat="49.10335" lon="1.48085">
        <ele>13.623888969421</ele>
        <time>2013-09-22T06:11:17.000Z</time>
      </trkpt>
      <trkpt lat="49.10339" lon="1.48079">
        <ele>13.507040023804</ele>
        <time>2013-09-22T06:11:19.000Z</time>
      </trkpt>
      <trkpt lat="49.10343" lon="1.48069">
        <ele>13.484036445618</ele>
        <time>2013-09-22T06:11:22.000Z</time>
      </trkpt>
      <trkpt lat="49.10346" lon="1.48059">
        <ele>13.550361633301</ele>
        <time>2013-09-22T06:11:24.000Z</time>
      </trkpt>
      <trkpt lat="49.10349" lon="1.48043">
        <ele>13.668069839477</ele>
        <time>2013-09-22T06:11:27.000Z</time>
      </trkpt>
      <trkpt lat="49.1035" lon="1.48035">
        <ele>13.835659980774</ele>
        <time>2013-09-22T06:11:29.000Z</time>
      </trkpt>
      <trkpt lat="49.10352" lon="1.48021">
        <ele>13.956583976746</ele>
        <time>2013-09-22T06:11:32.000Z</time>
      </trkpt>
      <trkpt lat="49.10354" lon="1.48011">
        <ele>14.023231506348</ele>
        <time>2013-09-22T06:11:34.000Z</time>
      </trkpt>
      <trkpt lat="49.10355" lon="1.48002">
        <ele>14.052495002747</ele>
        <time>2013-09-22T06:11:36.000Z</time>
      </trkpt>
      <trkpt lat="49.10358" lon="1.47988">
        <ele>14.111246109009</ele>
        <time>2013-09-22T06:11:39.000Z</time>
      </trkpt>
      <trkpt lat="49.10359" lon="1.47978">
        <ele>14.191209793091</ele>
        <time>2013-09-22T06:11:41.000Z</time>
      </trkpt>
      <trkpt lat="49.10361" lon="1.47969">
        <ele>14.290196418762</ele>
        <time>2013-09-22T06:11:43.000Z</time>
      </trkpt>
      <trkpt lat="49.10362" lon="1.47962">
        <ele>14.40318107605</ele>
        <time>2013-09-22T06:11:45.000Z</time>
      </trkpt>
      <trkpt lat="49.10361" lon="1.47951">
        <ele>14.536379814148</ele>
        <time>2013-09-22T06:11:48.000Z</time>
      </trkpt>
      <trkpt lat="49.10362" lon="1.47943">
        <ele>14.6370677948</ele>
        <time>2013-09-22T06:11:50.000Z</time>
      </trkpt>
      <trkpt lat="49.10362" lon="1.47938">
        <ele>14.715741157532</ele>
        <time>2013-09-22T06:11:53.000Z</time>
      </trkpt>
      <trkpt lat="49.10361" lon="1.47931">
        <ele>14.779767036438</ele>
        <time>2013-09-22T06:11:55.000Z</time>
      </trkpt>
      <trkpt lat="49.10361" lon="1.47921">
        <ele>14.842897415161</ele>
        <time>2013-09-22T06:11:58.000Z</time>
      </trkpt>
      <trkpt lat="49.10361" lon="1.47912">
        <ele>14.893255233765</ele>
        <time>2013-09-22T06:12:00.000Z</time>
      </trkpt>
      <trkpt lat="49.1036" lon="1.47901">
        <ele>14.921954154968</ele>
        <time>2013-09-22T06:12:02.000Z</time>
      </trkpt>
      <trkpt lat="49.1036" lon="1.47885">
        <ele>14.929389953613</ele>
        <time>2013-09-22T06:12:05.000Z</time>
      </trkpt>
      <trkpt lat="49.1036" lon="1.47875">
        <ele>14.920679092407</ele>
        <time>2013-09-22T06:12:07.000Z</time>
      </trkpt>
      <trkpt lat="49.1036" lon="1.47862">
        <ele>14.885174751282</ele>
        <time>2013-09-22T06:12:09.000Z</time>
      </trkpt>
      <trkpt lat="49.10361" lon="1.4784">
        <ele>14.828000068664</ele>
        <time>2013-09-22T06:12:12.000Z</time>
      </trkpt>
      <trkpt lat="49.10364" lon="1.47829">
        <ele>14.806304931641</ele>
        <time>2013-09-22T06:12:14.000Z</time>
      </trkpt>
      <trkpt lat="49.10368" lon="1.47819">
        <ele>14.876492500305</ele>
        <time>2013-09-22T06:12:16.000Z</time>
      </trkpt>
      <trkpt lat="49.10374" lon="1.47809">
        <ele>15.015937805176</ele>
        <time>2013-09-22T06:12:19.000Z</time>
      </trkpt>
      <trkpt lat="49.10377" lon="1.47804">
        <ele>15.194061279297</ele>
        <time>2013-09-22T06:12:21.000Z</time>
      </trkpt>
      <trkpt lat="49.10381" lon="1.478">
        <ele>15.407771110535</ele>
        <time>2013-09-22T06:12:23.000Z</time>
      </trkpt>
      <trkpt lat="49.10389" lon="1.47793">
        <ele>15.598348617554</ele>
        <time>2013-09-22T06:12:26.000Z</time>
      </trkpt>
      <trkpt lat="49.10397" lon="1.4779">
        <ele>15.680256843567</ele>
        <time>2013-09-22T06:12:29.000Z</time>
      </trkpt>
      <trkpt lat="49.10406" lon="1.47786">
        <ele>15.666879653931</ele>
        <time>2013-09-22T06:12:32.000Z</time>
      </trkpt>
      <trkpt lat="49.10413" lon="1.47783">
        <ele>15.600500106812</ele>
        <time>2013-09-22T06:12:34.000Z</time>
      </trkpt>
      <trkpt lat="49.10422" lon="1.47779">
        <ele>15.475253105164</ele>
        <time>2013-09-22T06:12:37.000Z</time>
      </trkpt>
      <trkpt lat="49.10432" lon="1.47777">
        <ele>15.289776802063</ele>
        <time>2013-09-22T06:12:40.000Z</time>
      </trkpt>
      <trkpt lat="49.10436" lon="1.47776">
        <ele>15.109994888306</ele>
        <time>2013-09-22T06:12:42.000Z</time>
      </trkpt>
      <trkpt lat="49.1044" lon="1.47773">
        <ele>14.94221496582</ele>
        <time>2013-09-22T06:12:45.000Z</time>
      </trkpt>
      <trkpt lat="49.10444" lon="1.47769">
        <ele>14.776712417602</ele>
        <time>2013-09-22T06:12:47.000Z</time>
      </trkpt>
      <trkpt lat="49.10453" lon="1.47762">
        <ele>14.597017288208</ele>
        <time>2013-09-22T06:12:50.000Z</time>
      </trkpt>
      <trkpt lat="49.10458" lon="1.47758">
        <ele>14.430793762207</ele>
        <time>2013-09-22T06:12:52.000Z</time>
      </trkpt>
      <trkpt lat="49.10462" lon="1.47754">
        <ele>14.251287460327</ele>
        <time>2013-09-22T06:12:54.000Z</time>
      </trkpt>
      <trkpt lat="49.10468" lon="1.4775">
        <ele>14.029626846313</ele>
        <time>2013-09-22T06:12:57.000Z</time>
      </trkpt>
      <trkpt lat="49.10472" lon="1.47746">
        <ele>13.819967269898</ele>
        <time>2013-09-22T06:12:59.000Z</time>
      </trkpt>
      <trkpt lat="49.1048" lon="1.47739">
        <ele>13.643936157227</ele>
        <time>2013-09-22T06:13:02.000Z</time>
      </trkpt>
      <trkpt lat="49.10485" lon="1.47734">
        <ele>13.496874809265</ele>
        <time>2013-09-22T06:13:04.000Z</time>
      </trkpt>
      <trkpt lat="49.1049" lon="1.47729">
        <ele>13.375885009766</ele>
        <time>2013-09-22T06:13:06.000Z</time>
      </trkpt>
      <trkpt lat="49.10494" lon="1.47725">
        <ele>13.307708740234</ele>
        <time>2013-09-22T06:13:08.000Z</time>
      </trkpt>
      <trkpt lat="49.10503" lon="1.47715">
        <ele>13.270693778992</ele>
        <time>2013-09-22T06:13:11.000Z</time>
      </trkpt>
      <trkpt lat="49.10509" lon="1.47707">
        <ele>13.315368652344</ele>
        <time>2013-09-22T06:13:14.000Z</time>
      </trkpt>
      <trkpt lat="49.10514" lon="1.47703">
        <ele>13.402479171753</ele>
        <time>2013-09-22T06:13:16.000Z</time>
      </trkpt>
      <trkpt lat="49.10518" lon="1.47696">
        <ele>13.533561706543</ele>
        <time>2013-09-22T06:13:18.000Z</time>
      </trkpt>
      <trkpt lat="49.10523" lon="1.47689">
        <ele>13.701062202454</ele>
        <time>2013-09-22T06:13:20.000Z</time>
      </trkpt>
      <trkpt lat="49.1053" lon="1.47678">
        <ele>13.867349624634</ele>
        <time>2013-09-22T06:13:23.000Z</time>
      </trkpt>
      <trkpt lat="49.10534" lon="1.47672">
        <ele>13.978164672852</ele>
        <time>2013-09-22T06:13:25.000Z</time>
      </trkpt>
      <trkpt lat="49.10537" lon="1.47666">
        <ele>14.060420036316</ele>
        <time>2013-09-22T06:13:27.000Z</time>
      </trkpt>
      <trkpt lat="49.10542" lon="1.47658">
        <ele>14.151942253113</ele>
        <time>2013-09-22T06:13:30.000Z</time>
      </trkpt>
      <trkpt lat="49.10546" lon="1.47651">
        <ele>14.249406814575</ele>
        <time>2013-09-22T06:13:33.000Z</time>
      </trkpt>
      <trkpt lat="49.10552" lon="1.47645">
        <ele>14.337626457214</ele>
        <time>2013-09-22T06:13:36.000Z</time>
      </trkpt>
      <trkpt lat="49.10557" lon="1.47639">
        <ele>14.436291694641</ele>
        <time>2013-09-22T06:13:38.000Z</time>
      </trkpt>
      <trkpt lat="49.10562" lon="1.4763">
        <ele>14.553300857544</ele>
        <time>2013-09-22T06:13:41.000Z</time>
      </trkpt>
      <trkpt lat="49.10569" lon="1.47623">
        <ele>14.617147445679</ele>
        <time>2013-09-22T06:13:44.000Z</time>
      </trkpt>
      <trkpt lat="49.10575" lon="1.47616">
        <ele>14.637422561646</ele>
        <time>2013-09-22T06:13:47.000Z</time>
      </trkpt>
      <trkpt lat="49.10581" lon="1.4761">
        <ele>14.621607780457</ele>
        <time>2013-09-22T06:13:50.000Z</time>
      </trkpt>
      <trkpt lat="49.10585" lon="1.47606">
        <ele>14.591497421265</ele>
        <time>2013-09-22T06:13:52.000Z</time>
      </trkpt>
      <trkpt lat="49.10589" lon="1.47602">
        <ele>14.572199821472</ele>
        <time>2013-09-22T06:13:54.000Z</time>
      </trkpt>
      <trkpt lat="49.10595" lon="1.47597">
        <ele>14.604074478149</ele>
        <time>2013-09-22T06:13:57.000Z</time>
      </trkpt>
      <trkpt lat="49.10601" lon="1.47592">
        <ele>14.687463760376</ele>
        <time>2013-09-22T06:14:00.000Z</time>
      </trkpt>
      <trkpt lat="49.10607" lon="1.47586">
        <ele>14.835641860962</ele>
        <time>2013-09-22T06:14:03.000Z</time>
      </trkpt>
      <trkpt lat="49.10614" lon="1.47581">
        <ele>15.034555435181</ele>
        <time>2013-09-22T06:14:06.000Z</time>
      </trkpt>
      <trkpt lat="49.10618" lon="1.47576">
        <ele>15.244918823242</ele>
        <time>2013-09-22T06:14:08.000Z</time>
      </trkpt>
      <trkpt lat="49.10627" lon="1.47571">
        <ele>15.471920967102</ele>
        <time>2013-09-22T06:14:11.000Z</time>
      </trkpt>
      <trkpt lat="49.10634" lon="1.47567">
        <ele>15.698997497559</ele>
        <time>2013-09-22T06:14:14.000Z</time>
      </trkpt>
      <trkpt lat="49.1064" lon="1.47563">
        <ele>15.921033859253</ele>
        <time>2013-09-22T06:14:17.000Z</time>
      </trkpt>
      <trkpt lat="49.10645" lon="1.47559">
        <ele>16.11887550354</ele>
        <time>2013-09-22T06:14:20.000Z</time>
      </trkpt>
      <trkpt lat="49.10651" lon="1.47556">
        <ele>16.303646087646</ele>
        <time>2013-09-22T06:14:23.000Z</time>
      </trkpt>
      <trkpt lat="49.10659" lon="1.4755">
        <ele>16.468738555908</ele>
        <time>2013-09-22T06:14:26.000Z</time>
      </trkpt>
      <trkpt lat="49.10669" lon="1.47546">
        <ele>16.612438201904</ele>
        <time>2013-09-22T06:14:29.000Z</time>
      </trkpt>
      <trkpt lat="49.10677" lon="1.47541">
        <ele>16.722246170044</ele>
        <time>2013-09-22T06:14:32.000Z</time>
      </trkpt>
      <trkpt lat="49.10683" lon="1.47537">
        <ele>16.808734893799</ele>
        <time>2013-09-22T06:14:34.000Z</time>
      </trkpt>
      <trkpt lat="49.10688" lon="1.47529">
        <ele>16.879390716553</ele>
        <time>2013-09-22T06:14:37.000Z</time>
      </trkpt>
      <trkpt lat="49.10692" lon="1.47524">
        <ele>16.919490814209</ele>
        <time>2013-09-22T06:14:40.000Z</time>
      </trkpt>
      <trkpt lat="49.10699" lon="1.4752">
        <ele>16.93004989624</ele>
        <time>2013-09-22T06:14:43.000Z</time>
      </trkpt>
      <trkpt lat="49.10702" lon="1.47518">
        <ele>16.932613372803</ele>
        <time>2013-09-22T06:14:45.000Z</time>
      </trkpt>
      <trkpt lat="49.10705" lon="1.47516">
        <ele>16.92989730835</ele>
        <time>2013-09-22T06:14:48.000Z</time>
      </trkpt>
      <trkpt lat="49.10709" lon="1.47513">
        <ele>16.905628204346</ele>
        <time>2013-09-22T06:14:51.000Z</time>
      </trkpt>
      <trkpt lat="49.10713" lon="1.47514">
        <ele>16.856857299805</ele>
        <time>2013-09-22T06:14:54.000Z</time>
      </trkpt>
      <trkpt lat="49.10715" lon="1.47514">
        <ele>16.809713363648</ele>
        <time>2013-09-22T06:14:56.000Z</time>
      </trkpt>
      <trkpt lat="49.10721" lon="1.47512">
        <ele>16.749166488648</ele>
        <time>2013-09-22T06:14:59.000Z</time>
      </trkpt>
      <trkpt lat="49.10731" lon="1.4751">
        <ele>16.652158737183</ele>
        <time>2013-09-22T06:15:02.000Z</time>
      </trkpt>
      <trkpt lat="49.10737" lon="1.47505">
        <ele>16.542781829834</ele>
        <time>2013-09-22T06:15:05.000Z</time>
      </trkpt>
      <trkpt lat="49.10744" lon="1.47498">
        <ele>16.432218551636</ele>
        <time>2013-09-22T06:15:08.000Z</time>
      </trkpt>
      <trkpt lat="49.10749" lon="1.4749">
        <ele>16.344585418701</ele>
        <time>2013-09-22T06:15:11.000Z</time>
      </trkpt>
      <trkpt lat="49.10753" lon="1.47483">
        <ele>16.319675445557</ele>
        <time>2013-09-22T06:15:14.000Z</time>
      </trkpt>
      <trkpt lat="49.10758" lon="1.47481">
        <ele>16.360067367554</ele>
        <time>2013-09-22T06:15:16.000Z</time>
      </trkpt>
      <trkpt lat="49.10766" lon="1.47475">
        <ele>16.476417541504</ele>
        <time>2013-09-22T06:15:19.000Z</time>
      </trkpt>
      <trkpt lat="49.10772" lon="1.47472">
        <ele>16.643613815308</ele>
        <time>2013-09-22T06:15:21.000Z</time>
      </trkpt>
      <trkpt lat="49.10781" lon="1.47469">
        <ele>16.83670425415</ele>
        <time>2013-09-22T06:15:23.000Z</time>
      </trkpt>
      <trkpt lat="49.1079" lon="1.47461">
        <ele>17.032512664795</ele>
        <time>2013-09-22T06:15:26.000Z</time>
      </trkpt>
      <trkpt lat="49.10792" lon="1.47456">
        <ele>17.217548370361</ele>
        <time>2013-09-22T06:15:28.000Z</time>
      </trkpt>
      <trkpt lat="49.10795" lon="1.47451">
        <ele>17.369312286377</ele>
        <time>2013-09-22T06:15:31.000Z</time>
      </trkpt>
      <trkpt lat="49.10799" lon="1.47445">
        <ele>17.507177352905</ele>
        <time>2013-09-22T06:15:33.000Z</time>
      </trkpt>
      <trkpt lat="49.10805" lon="1.4744">
        <ele>17.623874664307</ele>
        <time>2013-09-22T06:15:36.000Z</time>
      </trkpt>
      <trkpt lat="49.10809" lon="1.47435">
        <ele>17.709239959717</ele>
        <time>2013-09-22T06:15:39.000Z</time>
      </trkpt>
      <trkpt lat="49.10811" lon="1.47431">
        <ele>17.78569984436</ele>
        <time>2013-09-22T06:15:41.000Z</time>
      </trkpt>
      <trkpt lat="49.10815" lon="1.47425">
        <ele>17.851699829102</ele>
        <time>2013-09-22T06:15:44.000Z</time>
      </trkpt>
      <trkpt lat="49.10822" lon="1.47413">
        <ele>17.92301940918</ele>
        <time>2013-09-22T06:15:47.000Z</time>
      </trkpt>
      <trkpt lat="49.10831" lon="1.47403">
        <ele>18.025691986084</ele>
        <time>2013-09-22T06:15:50.000Z</time>
      </trkpt>
      <trkpt lat="49.10838" lon="1.47397">
        <ele>18.172075271606</ele>
        <time>2013-09-22T06:15:52.000Z</time>
      </trkpt>
      <trkpt lat="49.10844" lon="1.47393">
        <ele>18.366353988648</ele>
        <time>2013-09-22T06:15:55.000Z</time>
      </trkpt>
      <trkpt lat="49.10848" lon="1.47388">
        <ele>18.592214584351</ele>
        <time>2013-09-22T06:15:57.000Z</time>
      </trkpt>
      <trkpt lat="49.10855" lon="1.47382">
        <ele>18.845720291138</ele>
        <time>2013-09-22T06:16:00.000Z</time>
      </trkpt>
      <trkpt lat="49.10863" lon="1.47376">
        <ele>19.088481903076</ele>
        <time>2013-09-22T06:16:03.000Z</time>
      </trkpt>
      <trkpt lat="49.10868" lon="1.47375">
        <ele>19.290645599365</ele>
        <time>2013-09-22T06:16:05.000Z</time>
      </trkpt>
      <trkpt lat="49.10872" lon="1.47374">
        <ele>19.452102661133</ele>
        <time>2013-09-22T06:16:07.000Z</time>
      </trkpt>
      <trkpt lat="49.1088" lon="1.47367">
        <ele>19.586223602295</ele>
        <time>2013-09-22T06:16:10.000Z</time>
      </trkpt>
      <trkpt lat="49.10883" lon="1.4736">
        <ele>19.661043167114</ele>
        <time>2013-09-22T06:16:13.000Z</time>
      </trkpt>
      <trkpt lat="49.10883" lon="1.47358">
        <ele>19.695049285889</ele>
        <time>2013-09-22T06:16:20.000Z</time>
      </trkpt>
      <trkpt lat="49.10882" lon="1.47354">
        <ele>19.700857162476</ele>
        <time>2013-09-22T06:16:22.000Z</time>
      </trkpt>
      <trkpt lat="49.10877" lon="1.47352">
        <ele>19.686410903931</ele>
        <time>2013-09-22T06:16:25.000Z</time>
      </trkpt>
      <trkpt lat="49.10875" lon="1.47351">
        <ele>19.656597137451</ele>
        <time>2013-09-22T06:16:27.000Z</time>
      </trkpt>
      <trkpt lat="49.10872" lon="1.47351">
        <ele>19.634693145752</ele>
        <time>2013-09-22T06:16:30.000Z</time>
      </trkpt>
      <trkpt lat="49.10874" lon="1.47353">
        <ele>19.616958618164</ele>
        <time>2013-09-22T06:16:32.000Z</time>
      </trkpt>
      <trkpt lat="49.10877" lon="1.4735">
        <ele>19.60880279541</ele>
        <time>2013-09-22T06:16:35.000Z</time>
      </trkpt>
      <trkpt lat="49.10881" lon="1.47347">
        <ele>19.598768234253</ele>
        <time>2013-09-22T06:16:38.000Z</time>
      </trkpt>
      <trkpt lat="49.10889" lon="1.47342">
        <ele>19.571146011352</ele>
        <time>2013-09-22T06:16:41.000Z</time>
      </trkpt>
      <trkpt lat="49.10895" lon="1.4734">
        <ele>19.530780792236</ele>
        <time>2013-09-22T06:16:43.000Z</time>
      </trkpt>
      <trkpt lat="49.10903" lon="1.47336">
        <ele>19.453313827515</ele>
        <time>2013-09-22T06:16:46.000Z</time>
      </trkpt>
      <trkpt lat="49.10909" lon="1.47333">
        <ele>19.345582962036</ele>
        <time>2013-09-22T06:16:48.000Z</time>
      </trkpt>
      <trkpt lat="49.10913" lon="1.47329">
        <ele>19.207509994507</ele>
        <time>2013-09-22T06:16:50.000Z</time>
      </trkpt>
      <trkpt lat="49.10922" lon="1.47321">
        <ele>19.088653564453</ele>
        <time>2013-09-22T06:16:53.000Z</time>
      </trkpt>
      <trkpt lat="49.10929" lon="1.47309">
        <ele>18.981378555298</ele>
        <time>2013-09-22T06:16:56.000Z</time>
      </trkpt>
      <trkpt lat="49.10933" lon="1.47302">
        <ele>18.910684585571</ele>
        <time>2013-09-22T06:16:58.000Z</time>
      </trkpt>
      <trkpt lat="49.10938" lon="1.47292">
        <ele>18.857969284058</ele>
        <time>2013-09-22T06:17:01.000Z</time>
      </trkpt>
      <trkpt lat="49.10944" lon="1.47282">
        <ele>18.844055175781</ele>
        <time>2013-09-22T06:17:04.000Z</time>
      </trkpt>
      <trkpt lat="49.10951" lon="1.47268">
        <ele>18.818237304688</ele>
        <time>2013-09-22T06:17:07.000Z</time>
      </trkpt>
      <trkpt lat="49.10958" lon="1.47259">
        <ele>18.806793212891</ele>
        <time>2013-09-22T06:17:10.000Z</time>
      </trkpt>
      <trkpt lat="49.10964" lon="1.47247">
        <ele>18.757152557373</ele>
        <time>2013-09-22T06:17:13.000Z</time>
      </trkpt>
      <trkpt lat="49.10971" lon="1.47236">
        <ele>18.647333145142</ele>
        <time>2013-09-22T06:17:16.000Z</time>
      </trkpt>
      <trkpt lat="49.10975" lon="1.47228">
        <ele>18.469976425171</ele>
        <time>2013-09-22T06:17:18.000Z</time>
      </trkpt>
      <trkpt lat="49.10981" lon="1.47216">
        <ele>18.197986602783</ele>
        <time>2013-09-22T06:17:21.000Z</time>
      </trkpt>
      <trkpt lat="49.10988" lon="1.47204">
        <ele>17.829162597656</ele>
        <time>2013-09-22T06:17:24.000Z</time>
      </trkpt>
      <trkpt lat="49.10992" lon="1.47194">
        <ele>17.409973144531</ele>
        <time>2013-09-22T06:17:26.000Z</time>
      </trkpt>
      <trkpt lat="49.10995" lon="1.47186">
        <ele>16.986083984375</ele>
        <time>2013-09-22T06:17:28.000Z</time>
      </trkpt>
      <trkpt lat="49.11002" lon="1.47176">
        <ele>16.611560821533</ele>
        <time>2013-09-22T06:17:31.000Z</time>
      </trkpt>
      <trkpt lat="49.11005" lon="1.4717">
        <ele>16.400365829468</ele>
        <time>2013-09-22T06:17:33.000Z</time>
      </trkpt>
      <trkpt lat="49.11012" lon="1.47162">
        <ele>16.437253952026</ele>
        <time>2013-09-22T06:17:36.000Z</time>
      </trkpt>
      <trkpt lat="49.11013" lon="1.47159">
        <ele>16.594278335571</ele>
        <time>2013-09-22T06:17:38.000Z</time>
      </trkpt>
      <trkpt lat="49.11017" lon="1.47152">
        <ele>16.911014556885</ele>
        <time>2013-09-22T06:17:41.000Z</time>
      </trkpt>
      <trkpt lat="49.1102" lon="1.47146">
        <ele>17.275032043457</ele>
        <time>2013-09-22T06:17:43.000Z</time>
      </trkpt>
      <trkpt lat="49.11024" lon="1.47141">
        <ele>17.669925689697</ele>
        <time>2013-09-22T06:17:45.000Z</time>
      </trkpt>
      <trkpt lat="49.11027" lon="1.47133">
        <ele>17.874671936035</ele>
        <time>2013-09-22T06:17:48.000Z</time>
      </trkpt>
      <trkpt lat="49.11031" lon="1.47128">
        <ele>18.11169052124</ele>
        <time>2013-09-22T06:17:50.000Z</time>
      </trkpt>
      <trkpt lat="49.11036" lon="1.47129">
        <ele>18.448446273804</ele>
        <time>2013-09-22T06:17:53.000Z</time>
      </trkpt>
      <trkpt lat="49.1104" lon="1.47126">
        <ele>18.856937408447</ele>
        <time>2013-09-22T06:17:55.000Z</time>
      </trkpt>
      <trkpt lat="49.11047" lon="1.4712">
        <ele>19.274631500244</ele>
        <time>2013-09-22T06:17:58.000Z</time>
      </trkpt>
      <trkpt lat="49.11053" lon="1.47114">
        <ele>19.780851364136</ele>
        <time>2013-09-22T06:18:01.000Z</time>
      </trkpt>
      <trkpt lat="49.11058" lon="1.4711">
        <ele>20.266765594482</ele>
        <time>2013-09-22T06:18:03.000Z</time>
      </trkpt>
      <trkpt lat="49.11066" lon="1.471">
        <ele>20.608020782471</ele>
        <time>2013-09-22T06:18:06.000Z</time>
      </trkpt>
      <trkpt lat="49.11071" lon="1.47094">
        <ele>20.804075241089</ele>
        <time>2013-09-22T06:18:08.000Z</time>
      </trkpt>
      <trkpt lat="49.11077" lon="1.47085">
        <ele>20.834636688232</ele>
        <time>2013-09-22T06:18:11.000Z</time>
      </trkpt>
      <trkpt lat="49.11082" lon="1.47079">
        <ele>20.782863616943</ele>
        <time>2013-09-22T06:18:13.000Z</time>
      </trkpt>
      <trkpt lat="49.1109" lon="1.47072">
        <ele>20.833431243896</ele>
        <time>2013-09-22T06:18:16.000Z</time>
      </trkpt>
      <trkpt lat="49.11098" lon="1.47064">
        <ele>21.004787445068</ele>
        <time>2013-09-22T06:18:19.000Z</time>
      </trkpt>
      <trkpt lat="49.11102" lon="1.47058">
        <ele>21.228740692139</ele>
        <time>2013-09-22T06:18:21.000Z</time>
      </trkpt>
      <trkpt lat="49.11107" lon="1.47049">
        <ele>21.526748657227</ele>
        <time>2013-09-22T06:18:24.000Z</time>
      </trkpt>
      <trkpt lat="49.1111" lon="1.47046">
        <ele>21.897380828857</ele>
        <time>2013-09-22T06:18:26.000Z</time>
      </trkpt>
      <trkpt lat="49.11115" lon="1.47041">
        <ele>22.132495880127</ele>
        <time>2013-09-22T06:18:29.000Z</time>
      </trkpt>
      <trkpt lat="49.11119" lon="1.47034">
        <ele>22.166065216064</ele>
        <time>2013-09-22T06:18:32.000Z</time>
      </trkpt>
      <trkpt lat="49.11128" lon="1.47026">
        <ele>22.266222000122</ele>
        <time>2013-09-22T06:18:35.000Z</time>
      </trkpt>
      <trkpt lat="49.11133" lon="1.47018">
        <ele>22.315414428711</ele>
        <time>2013-09-22T06:18:37.000Z</time>
      </trkpt>
      <trkpt lat="49.11141" lon="1.47008">
        <ele>22.237728118896</ele>
        <time>2013-09-22T06:18:40.000Z</time>
      </trkpt>
      <trkpt lat="49.11146" lon="1.47004">
        <ele>22.135536193848</ele>
        <time>2013-09-22T06:18:42.000Z</time>
      </trkpt>
      <trkpt lat="49.11149" lon="1.47">
        <ele>22.039730072021</ele>
        <time>2013-09-22T06:18:44.000Z</time>
      </trkpt>
      <trkpt lat="49.11155" lon="1.46991">
        <ele>21.86580657959</ele>
        <time>2013-09-22T06:18:47.000Z</time>
      </trkpt>
      <trkpt lat="49.1116" lon="1.46982">
        <ele>21.721080780029</ele>
        <time>2013-09-22T06:18:50.000Z</time>
      </trkpt>
      <trkpt lat="49.11166" lon="1.46973">
        <ele>21.609882354736</ele>
        <time>2013-09-22T06:18:53.000Z</time>
      </trkpt>
      <trkpt lat="49.11172" lon="1.46966">
        <ele>21.727624893189</ele>
        <time>2013-09-22T06:18:56.000Z</time>
      </trkpt>
      <trkpt lat="49.11177" lon="1.46961">
        <ele>22.03847694397</ele>
        <time>2013-09-22T06:18:59.000Z</time>
      </trkpt>
      <trkpt lat="49.11179" lon="1.46957">
        <ele>22.403736114502</ele>
        <time>2013-09-22T06:19:01.000Z</time>
      </trkpt>
      <trkpt lat="49.11184" lon="1.46952">
        <ele>22.940242767334</ele>
        <time>2013-09-22T06:19:04.000Z</time>
      </trkpt>
      <trkpt lat="49.11189" lon="1.46942">
        <ele>23.536630630493</ele>
        <time>2013-09-22T06:19:07.000Z</time>
      </trkpt>
      <trkpt lat="49.11194" lon="1.46935">
        <ele>23.975938796997</ele>
        <time>2013-09-22T06:19:10.000Z</time>
      </trkpt>
      <trkpt lat="49.11199" lon="1.46929">
        <ele>24.360336303711</ele>
        <time>2013-09-22T06:19:13.000Z</time>
      </trkpt>
      <trkpt lat="49.11205" lon="1.46921">
        <ele>24.752208709717</ele>
        <time>2013-09-22T06:19:16.000Z</time>
      </trkpt>
      <trkpt lat="49.1121" lon="1.46913">
        <ele>24.970668792725</ele>
        <time>2013-09-22T06:19:19.000Z</time>
      </trkpt>
      <trkpt lat="49.11216" lon="1.46904">
        <ele>25.231302261352</ele>
        <time>2013-09-22T06:19:22.000Z</time>
      </trkpt>
      <trkpt lat="49.11219" lon="1.46896">
        <ele>25.353273391724</ele>
        <time>2013-09-22T06:19:25.000Z</time>
      </trkpt>
      <trkpt lat="49.11219" lon="1.46894">
        <ele>25.333744049072</ele>
        <time>2013-09-22T06:19:27.000Z</time>
      </trkpt>
      <trkpt lat="49.11224" lon="1.46884">
        <ele>25.131484985352</ele>
        <time>2013-09-22T06:19:30.000Z</time>
      </trkpt>
      <trkpt lat="49.11225" lon="1.46874">
        <ele>24.72015953064</ele>
        <time>2013-09-22T06:19:33.000Z</time>
      </trkpt>
      <trkpt lat="49.11226" lon="1.46869">
        <ele>24.157291412354</ele>
        <time>2013-09-22T06:19:35.000Z</time>
      </trkpt>
      <trkpt lat="49.11231" lon="1.46859">
        <ele>23.497243881226</ele>
        <time>2013-09-22T06:19:38.000Z</time>
      </trkpt>
      <trkpt lat="49.11235" lon="1.46853">
        <ele>22.793725967407</ele>
        <time>2013-09-22T06:19:40.000Z</time>
      </trkpt>
      <trkpt lat="49.1124" lon="1.46846">
        <ele>22.139184951782</ele>
        <time>2013-09-22T06:19:43.000Z</time>
      </trkpt>
      <trkpt lat="49.11246" lon="1.46839">
        <ele>21.600093841553</ele>
        <time>2013-09-22T06:19:46.000Z</time>
      </trkpt>
      <trkpt lat="49.1125" lon="1.46826">
        <ele>20.912826538086</ele>
        <time>2013-09-22T06:19:49.000Z</time>
      </trkpt>
      <trkpt lat="49.11249" lon="1.46815">
        <ele>20.197063446045</ele>
        <time>2013-09-22T06:19:51.000Z</time>
      </trkpt>
      <trkpt lat="49.1125" lon="1.46799">
        <ele>19.305889129639</ele>
        <time>2013-09-22T06:19:54.000Z</time>
      </trkpt>
      <trkpt lat="49.1125" lon="1.46783">
        <ele>18.238464355469</ele>
        <time>2013-09-22T06:19:57.000Z</time>
      </trkpt>
      <trkpt lat="49.11249" lon="1.46772">
        <ele>17.078296661377</ele>
        <time>2013-09-22T06:19:59.000Z</time>
      </trkpt>
      <trkpt lat="49.11252" lon="1.46762">
        <ele>16.077991485596</ele>
        <time>2013-09-22T06:20:02.000Z</time>
      </trkpt>
      <trkpt lat="49.11256" lon="1.46758">
        <ele>15.354461669922</ele>
        <time>2013-09-22T06:20:05.000Z</time>
      </trkpt>
      <trkpt lat="49.1126" lon="1.46748">
        <ele>14.837292671204</ele>
        <time>2013-09-22T06:20:08.000Z</time>
      </trkpt>
      <trkpt lat="49.11265" lon="1.46739">
        <ele>14.661720275879</ele>
        <time>2013-09-22T06:20:11.000Z</time>
      </trkpt>
      <trkpt lat="49.11269" lon="1.46733">
        <ele>14.757097244263</ele>
        <time>2013-09-22T06:20:13.000Z</time>
      </trkpt>
      <trkpt lat="49.11271" lon="1.46729">
        <ele>14.951090812683</ele>
        <time>2013-09-22T06:20:15.000Z</time>
      </trkpt>
      <trkpt lat="49.11272" lon="1.46718">
        <ele>15.020532608032</ele>
        <time>2013-09-22T06:20:18.000Z</time>
      </trkpt>
      <trkpt lat="49.11275" lon="1.46707">
        <ele>15.127462387085</ele>
        <time>2013-09-22T06:20:21.000Z</time>
      </trkpt>
      <trkpt lat="49.1128" lon="1.46698">
        <ele>15.162182807922</ele>
        <time>2013-09-22T06:20:24.000Z</time>
      </trkpt>
      <trkpt lat="49.11284" lon="1.46693">
        <ele>15.156713485718</ele>
        <time>2013-09-22T06:20:26.000Z</time>
      </trkpt>
      <trkpt lat="49.11289" lon="1.46684">
        <ele>15.13853931427</ele>
        <time>2013-09-22T06:20:29.000Z</time>
      </trkpt>
      <trkpt lat="49.11295" lon="1.46675">
        <ele>15.180946350098</ele>
        <time>2013-09-22T06:20:32.000Z</time>
      </trkpt>
      <trkpt lat="49.11298" lon="1.46668">
        <ele>15.205972671509</ele>
        <time>2013-09-22T06:20:35.000Z</time>
      </trkpt>
      <trkpt lat="49.11303" lon="1.46664">
        <ele>15.282495498657</ele>
        <time>2013-09-22T06:20:37.000Z</time>
      </trkpt>
      <trkpt lat="49.11306" lon="1.46658">
        <ele>15.40251159668</ele>
        <time>2013-09-22T06:20:39.000Z</time>
      </trkpt>
      <trkpt lat="49.1131" lon="1.46648">
        <ele>15.632522583008</ele>
        <time>2013-09-22T06:20:42.000Z</time>
      </trkpt>
      <trkpt lat="49.11316" lon="1.46639">
        <ele>16.009777069092</ele>
        <time>2013-09-22T06:20:45.000Z</time>
      </trkpt>
      <trkpt lat="49.11319" lon="1.46633">
        <ele>16.517950057983</ele>
        <time>2013-09-22T06:20:47.000Z</time>
      </trkpt>
      <trkpt lat="49.11322" lon="1.46625">
        <ele>17.055107116699</ele>
        <time>2013-09-22T06:20:49.000Z</time>
      </trkpt>
      <trkpt lat="49.11327" lon="1.46613">
        <ele>17.710536956787</ele>
        <time>2013-09-22T06:20:52.000Z</time>
      </trkpt>
      <trkpt lat="49.11329" lon="1.46605">
        <ele>18.366891860962</ele>
        <time>2013-09-22T06:20:54.000Z</time>
      </trkpt>
      <trkpt lat="49.11336" lon="1.46597">
        <ele>19.049144744873</ele>
        <time>2013-09-22T06:20:57.000Z</time>
      </trkpt>
      <trkpt lat="49.1134" lon="1.46588">
        <ele>19.696531295776</ele>
        <time>2013-09-22T06:21:00.000Z</time>
      </trkpt>
      <trkpt lat="49.11343" lon="1.46582">
        <ele>20.262031555176</ele>
        <time>2013-09-22T06:21:02.000Z</time>
      </trkpt>
      <trkpt lat="49.11346" lon="1.46573">
        <ele>20.625106811523</ele>
        <time>2013-09-22T06:21:05.000Z</time>
      </trkpt>
      <trkpt lat="49.1135" lon="1.46568">
        <ele>20.855861663818</ele>
        <time>2013-09-22T06:21:07.000Z</time>
      </trkpt>
      <trkpt lat="49.11356" lon="1.46559">
        <ele>20.872055053711</ele>
        <time>2013-09-22T06:21:10.000Z</time>
      </trkpt>
      <trkpt lat="49.11367" lon="1.46558">
        <ele>20.791551589966</ele>
        <time>2013-09-22T06:21:13.000Z</time>
      </trkpt>
      <trkpt lat="49.11372" lon="1.46556">
        <ele>20.669664382935</ele>
        <time>2013-09-22T06:21:15.000Z</time>
      </trkpt>
      <trkpt lat="49.11377" lon="1.46553">
        <ele>20.530681610107</ele>
        <time>2013-09-22T06:21:17.000Z</time>
      </trkpt>
      <trkpt lat="49.11381" lon="1.46542">
        <ele>20.336050033569</ele>
        <time>2013-09-22T06:21:20.000Z</time>
      </trkpt>
      <trkpt lat="49.11387" lon="1.46535">
        <ele>20.101022720337</ele>
        <time>2013-09-22T06:21:23.000Z</time>
      </trkpt>
      <trkpt lat="49.1139" lon="1.4653">
        <ele>19.848257064819</ele>
        <time>2013-09-22T06:21:25.000Z</time>
      </trkpt>
      <trkpt lat="49.11393" lon="1.46525">
        <ele>19.570011138916</ele>
        <time>2013-09-22T06:21:27.000Z</time>
      </trkpt>
      <trkpt lat="49.11396" lon="1.46522">
        <ele>19.286373138428</ele>
        <time>2013-09-22T06:21:29.000Z</time>
      </trkpt>
      <trkpt lat="49.11399" lon="1.46517">
        <ele>19.006267547607</ele>
        <time>2013-09-22T06:21:32.000Z</time>
      </trkpt>
      <trkpt lat="49.11402" lon="1.46511">
        <ele>18.731441497803</ele>
        <time>2013-09-22T06:21:34.000Z</time>
      </trkpt>
      <trkpt lat="49.11405" lon="1.46502">
        <ele>18.41265296936</ele>
        <time>2013-09-22T06:21:37.000Z</time>
      </trkpt>
      <trkpt lat="49.11408" lon="1.46494">
        <ele>18.171337127686</ele>
        <time>2013-09-22T06:21:40.000Z</time>
      </trkpt>
      <trkpt lat="49.11415" lon="1.46488">
        <ele>18.020320892334</ele>
        <time>2013-09-22T06:21:43.000Z</time>
      </trkpt>
      <trkpt lat="49.1142" lon="1.46483">
        <ele>18.027500152588</ele>
        <time>2013-09-22T06:21:45.000Z</time>
      </trkpt>
      <trkpt lat="49.11426" lon="1.46476">
        <ele>18.230033874512</ele>
        <time>2013-09-22T06:21:48.000Z</time>
      </trkpt>
      <trkpt lat="49.11431" lon="1.46466">
        <ele>18.655872344971</ele>
        <time>2013-09-22T06:21:51.000Z</time>
      </trkpt>
      <trkpt lat="49.11437" lon="1.46456">
        <ele>19.145179748535</ele>
        <time>2013-09-22T06:21:54.000Z</time>
      </trkpt>
      <trkpt lat="49.11441" lon="1.46446">
        <ele>19.642742156982</ele>
        <time>2013-09-22T06:21:56.000Z</time>
      </trkpt>
      <trkpt lat="49.11446" lon="1.46433">
        <ele>20.072681427002</ele>
        <time>2013-09-22T06:21:59.000Z</time>
      </trkpt>
      <trkpt lat="49.1145" lon="1.46424">
        <ele>20.375946044922</ele>
        <time>2013-09-22T06:22:01.000Z</time>
      </trkpt>
      <trkpt lat="49.11452" lon="1.46412">
        <ele>20.483963012695</ele>
        <time>2013-09-22T06:22:03.000Z</time>
      </trkpt>
      <trkpt lat="49.11458" lon="1.46397">
        <ele>20.251941680908</ele>
        <time>2013-09-22T06:22:06.000Z</time>
      </trkpt>
      <trkpt lat="49.11469" lon="1.46385">
        <ele>19.710264205933</ele>
        <time>2013-09-22T06:22:09.000Z</time>
      </trkpt>
      <trkpt lat="49.11475" lon="1.46376">
        <ele>19.025426864624</ele>
        <time>2013-09-22T06:22:11.000Z</time>
      </trkpt>
      <trkpt lat="49.11487" lon="1.46365">
        <ele>18.186422348023</ele>
        <time>2013-09-22T06:22:14.000Z</time>
      </trkpt>
      <trkpt lat="49.11495" lon="1.46357">
        <ele>17.34981918335</ele>
        <time>2013-09-22T06:22:16.000Z</time>
      </trkpt>
      <trkpt lat="49.11502" lon="1.46344">
        <ele>16.765064239502</ele>
        <time>2013-09-22T06:22:19.000Z</time>
      </trkpt>
      <trkpt lat="49.11507" lon="1.46338">
        <ele>16.477752685547</ele>
        <time>2013-09-22T06:22:21.000Z</time>
      </trkpt>
      <trkpt lat="49.11514" lon="1.46332">
        <ele>16.355173110962</ele>
        <time>2013-09-22T06:22:23.000Z</time>
      </trkpt>
      <trkpt lat="49.11518" lon="1.46325">
        <ele>16.374090194702</ele>
        <time>2013-09-22T06:22:25.000Z</time>
      </trkpt>
      <trkpt lat="49.11523" lon="1.46314">
        <ele>16.431457519531</ele>
        <time>2013-09-22T06:22:28.000Z</time>
      </trkpt>
      <trkpt lat="49.11531" lon="1.46308">
        <ele>16.518758773804</ele>
        <time>2013-09-22T06:22:30.000Z</time>
      </trkpt>
      <trkpt lat="49.11537" lon="1.46303">
        <ele>16.576965332031</ele>
        <time>2013-09-22T06:22:32.000Z</time>
      </trkpt>
      <trkpt lat="49.11543" lon="1.463">
        <ele>16.624664306641</ele>
        <time>2013-09-22T06:22:34.000Z</time>
      </trkpt>
      <trkpt lat="49.11549" lon="1.46292">
        <ele>16.679016113281</ele>
        <time>2013-09-22T06:22:37.000Z</time>
      </trkpt>
      <trkpt lat="49.11552" lon="1.46289">
        <ele>16.770660400391</ele>
        <time>2013-09-22T06:22:39.000Z</time>
      </trkpt>
      <trkpt lat="49.11559" lon="1.46284">
        <ele>16.860626220703</ele>
        <time>2013-09-22T06:22:42.000Z</time>
      </trkpt>
      <trkpt lat="49.11564" lon="1.46277">
        <ele>16.930114746094</ele>
        <time>2013-09-22T06:22:44.000Z</time>
      </trkpt>
      <trkpt lat="49.11571" lon="1.46269">
        <ele>16.978485107422</ele>
        <time>2013-09-22T06:22:47.000Z</time>
      </trkpt>
      <trkpt lat="49.11575" lon="1.46266">
        <ele>17.048614501953</ele>
        <time>2013-09-22T06:22:49.000Z</time>
      </trkpt>
      <trkpt lat="49.11579" lon="1.4626">
        <ele>17.105773925781</ele>
        <time>2013-09-22T06:22:51.000Z</time>
      </trkpt>
      <trkpt lat="49.11584" lon="1.46254">
        <ele>17.141063690186</ele>
        <time>2013-09-22T06:22:54.000Z</time>
      </trkpt>
      <trkpt lat="49.11594" lon="1.46243">
        <ele>17.275356292725</ele>
        <time>2013-09-22T06:22:57.000Z</time>
      </trkpt>
      <trkpt lat="49.11601" lon="1.46233">
        <ele>17.462520599365</ele>
        <time>2013-09-22T06:23:00.000Z</time>
      </trkpt>
      <trkpt lat="49.11605" lon="1.46227">
        <ele>17.673837661743</ele>
        <time>2013-09-22T06:23:02.000Z</time>
      </trkpt>
      <trkpt lat="49.11609" lon="1.46223">
        <ele>17.914957046509</ele>
        <time>2013-09-22T06:23:04.000Z</time>
      </trkpt>
      <trkpt lat="49.11614" lon="1.46219">
        <ele>18.176942825317</ele>
        <time>2013-09-22T06:23:06.000Z</time>
      </trkpt>
      <trkpt lat="49.1162" lon="1.46213">
        <ele>18.365386962891</ele>
        <time>2013-09-22T06:23:09.000Z</time>
      </trkpt>
      <trkpt lat="49.11626" lon="1.46204">
        <ele>18.490863800049</ele>
        <time>2013-09-22T06:23:12.000Z</time>
      </trkpt>
      <trkpt lat="49.1163" lon="1.46199">
        <ele>18.574237823486</ele>
        <time>2013-09-22T06:23:14.000Z</time>
      </trkpt>
      <trkpt lat="49.11633" lon="1.46195">
        <ele>18.620981216431</ele>
        <time>2013-09-22T06:23:16.000Z</time>
      </trkpt>
      <trkpt lat="49.11639" lon="1.46189">
        <ele>18.632444381714</ele>
        <time>2013-09-22T06:23:19.000Z</time>
      </trkpt>
      <trkpt lat="49.11644" lon="1.46185">
        <ele>18.607400894165</ele>
        <time>2013-09-22T06:23:21.000Z</time>
      </trkpt>
      <trkpt lat="49.11652" lon="1.46178">
        <ele>18.548324584961</ele>
        <time>2013-09-22T06:23:24.000Z</time>
      </trkpt>
      <trkpt lat="49.11658" lon="1.4617">
        <ele>18.428771972656</ele>
        <time>2013-09-22T06:23:27.000Z</time>
      </trkpt>
      <trkpt lat="49.11662" lon="1.46165">
        <ele>18.291446685791</ele>
        <time>2013-09-22T06:23:29.000Z</time>
      </trkpt>
      <trkpt lat="49.11666" lon="1.4616">
        <ele>18.157745361328</ele>
        <time>2013-09-22T06:23:31.000Z</time>
      </trkpt>
      <trkpt lat="49.1167" lon="1.46154">
        <ele>18.065475463867</ele>
        <time>2013-09-22T06:23:33.000Z</time>
      </trkpt>
      <trkpt lat="49.11675" lon="1.46149">
        <ele>18.032354354858</ele>
        <time>2013-09-22T06:23:35.000Z</time>
      </trkpt>
      <trkpt lat="49.11678" lon="1.46145">
        <ele>18.078533172607</ele>
        <time>2013-09-22T06:23:37.000Z</time>
      </trkpt>
      <trkpt lat="49.11685" lon="1.46138">
        <ele>18.166286468506</ele>
        <time>2013-09-22T06:23:40.000Z</time>
      </trkpt>
      <trkpt lat="49.1169" lon="1.46132">
        <ele>18.247884750366</ele>
        <time>2013-09-22T06:23:42.000Z</time>
      </trkpt>
      <trkpt lat="49.11697" lon="1.46123">
        <ele>18.266527175903</ele>
        <time>2013-09-22T06:23:45.000Z</time>
      </trkpt>
      <trkpt lat="49.11703" lon="1.46116">
        <ele>18.203777313232</ele>
        <time>2013-09-22T06:23:47.000Z</time>
      </trkpt>
      <trkpt lat="49.11713" lon="1.46105">
        <ele>18.007053375244</ele>
        <time>2013-09-22T06:23:50.000Z</time>
      </trkpt>
      <trkpt lat="49.11719" lon="1.46099">
        <ele>17.715015411377</ele>
        <time>2013-09-22T06:23:52.000Z</time>
      </trkpt>
      <trkpt lat="49.11727" lon="1.4609">
        <ele>17.266555786133</ele>
        <time>2013-09-22T06:23:55.000Z</time>
      </trkpt>
      <trkpt lat="49.11731" lon="1.46084">
        <ele>16.744016647339</ele>
        <time>2013-09-22T06:23:57.000Z</time>
      </trkpt>
      <trkpt lat="49.1174" lon="1.46073">
        <ele>16.168003082275</ele>
        <time>2013-09-22T06:24:00.000Z</time>
      </trkpt>
      <trkpt lat="49.11749" lon="1.46063">
        <ele>15.617050170898</ele>
        <time>2013-09-22T06:24:03.000Z</time>
      </trkpt>
      <trkpt lat="49.11757" lon="1.46053">
        <ele>15.200047492981</ele>
        <time>2013-09-22T06:24:06.000Z</time>
      </trkpt>
      <trkpt lat="49.11763" lon="1.46046">
        <ele>15.000028610229</ele>
        <time>2013-09-22T06:24:09.000Z</time>
      </trkpt>
      <trkpt lat="49.11769" lon="1.46041">
        <ele>14.95760345459</ele>
        <time>2013-09-22T06:24:12.000Z</time>
      </trkpt>
      <trkpt lat="49.11774" lon="1.46037">
        <ele>15.063600540161</ele>
        <time>2013-09-22T06:24:15.000Z</time>
      </trkpt>
      <trkpt lat="49.11775" lon="1.46036">
        <ele>15.269152641296</ele>
        <time>2013-09-22T06:24:18.000Z</time>
      </trkpt>
      <trkpt lat="49.11782" lon="1.46027">
        <ele>15.452407836914</ele>
        <time>2013-09-22T06:24:21.000Z</time>
      </trkpt>
      <trkpt lat="49.11787" lon="1.46018">
        <ele>15.558296203613</ele>
        <time>2013-09-22T06:24:23.000Z</time>
      </trkpt>
      <trkpt lat="49.11793" lon="1.46011">
        <ele>15.608907699585</ele>
        <time>2013-09-22T06:24:25.000Z</time>
      </trkpt>
      <trkpt lat="49.11803" lon="1.45997">
        <ele>15.607086181641</ele>
        <time>2013-09-22T06:24:28.000Z</time>
      </trkpt>
      <trkpt lat="49.11811" lon="1.45989">
        <ele>15.657440185547</ele>
        <time>2013-09-22T06:24:30.000Z</time>
      </trkpt>
      <trkpt lat="49.11823" lon="1.45976">
        <ele>15.72888469696</ele>
        <time>2013-09-22T06:24:33.000Z</time>
      </trkpt>
      <trkpt lat="49.1183" lon="1.45968">
        <ele>15.834787368774</ele>
        <time>2013-09-22T06:24:35.000Z</time>
      </trkpt>
      <trkpt lat="49.11837" lon="1.4596">
        <ele>15.972659111023</ele>
        <time>2013-09-22T06:24:37.000Z</time>
      </trkpt>
      <trkpt lat="49.11847" lon="1.45948">
        <ele>16.163206100464</ele>
        <time>2013-09-22T06:24:40.000Z</time>
      </trkpt>
      <trkpt lat="49.11853" lon="1.45938">
        <ele>16.275329589844</ele>
        <time>2013-09-22T06:24:42.000Z</time>
      </trkpt>
      <trkpt lat="49.11859" lon="1.45928">
        <ele>16.290481567383</ele>
        <time>2013-09-22T06:24:44.000Z</time>
      </trkpt>
      <trkpt lat="49.11869" lon="1.45914">
        <ele>16.240875244141</ele>
        <time>2013-09-22T06:24:47.000Z</time>
      </trkpt>
      <trkpt lat="49.11879" lon="1.45902">
        <ele>16.236820220947</ele>
        <time>2013-09-22T06:24:50.000Z</time>
      </trkpt>
      <trkpt lat="49.1189" lon="1.45887">
        <ele>16.257255554199</ele>
        <time>2013-09-22T06:24:53.000Z</time>
      </trkpt>
      <trkpt lat="49.11896" lon="1.45878">
        <ele>16.326351165771</ele>
        <time>2013-09-22T06:24:55.000Z</time>
      </trkpt>
      <trkpt lat="49.11903" lon="1.45869">
        <ele>16.466464996338</ele>
        <time>2013-09-22T06:24:57.000Z</time>
      </trkpt>
      <trkpt lat="49.11915" lon="1.45854">
        <ele>16.687196731567</ele>
        <time>2013-09-22T06:25:00.000Z</time>
      </trkpt>
      <trkpt lat="49.11923" lon="1.45843">
        <ele>16.946346282959</ele>
        <time>2013-09-22T06:25:02.000Z</time>
      </trkpt>
      <trkpt lat="49.11929" lon="1.45835">
        <ele>17.213037490845</ele>
        <time>2013-09-22T06:25:04.000Z</time>
      </trkpt>
      <trkpt lat="49.11943" lon="1.45822">
        <ele>17.533367156982</ele>
        <time>2013-09-22T06:25:07.000Z</time>
      </trkpt>
      <trkpt lat="49.11956" lon="1.45807">
        <ele>17.850433349609</ele>
        <time>2013-09-22T06:25:10.000Z</time>
      </trkpt>
      <trkpt lat="49.11967" lon="1.45792">
        <ele>18.10841178894</ele>
        <time>2013-09-22T06:25:13.000Z</time>
      </trkpt>
      <trkpt lat="49.1198" lon="1.45781">
        <ele>18.242498397827</ele>
        <time>2013-09-22T06:25:16.000Z</time>
      </trkpt>
      <trkpt lat="49.11994" lon="1.45766">
        <ele>18.243133544922</ele>
        <time>2013-09-22T06:25:19.000Z</time>
      </trkpt>
      <trkpt lat="49.12003" lon="1.45758">
        <ele>18.191637039185</ele>
        <time>2013-09-22T06:25:21.000Z</time>
      </trkpt>
      <trkpt lat="49.12016" lon="1.45751">
        <ele>18.397048950195</ele>
        <time>2013-09-22T06:25:24.000Z</time>
      </trkpt>
      <trkpt lat="49.12027" lon="1.45742">
        <ele>18.900194168091</ele>
        <time>2013-09-22T06:25:27.000Z</time>
      </trkpt>
      <trkpt lat="49.12033" lon="1.45738">
        <ele>19.531246185303</ele>
        <time>2013-09-22T06:25:29.000Z</time>
      </trkpt>
      <trkpt lat="49.12043" lon="1.45731">
        <ele>20.402082443237</ele>
        <time>2013-09-22T06:25:32.000Z</time>
      </trkpt>
      <trkpt lat="49.12053" lon="1.45724">
        <ele>21.393383026123</ele>
        <time>2013-09-22T06:25:35.000Z</time>
      </trkpt>
      <trkpt lat="49.12063" lon="1.45715">
        <ele>22.185932159424</ele>
        <time>2013-09-22T06:25:38.000Z</time>
      </trkpt>
      <trkpt lat="49.12071" lon="1.45704">
        <ele>22.665554046631</ele>
        <time>2013-09-22T06:25:40.000Z</time>
      </trkpt>
      <trkpt lat="49.12082" lon="1.45692">
        <ele>22.968193054199</ele>
        <time>2013-09-22T06:25:43.000Z</time>
      </trkpt>
      <trkpt lat="49.12094" lon="1.4568">
        <ele>23.167112350464</ele>
        <time>2013-09-22T06:25:46.000Z</time>
      </trkpt>
      <trkpt lat="49.12103" lon="1.45666">
        <ele>23.161649703979</ele>
        <time>2013-09-22T06:25:48.000Z</time>
      </trkpt>
      <trkpt lat="49.12109" lon="1.45657">
        <ele>23.203639984131</ele>
        <time>2013-09-22T06:25:50.000Z</time>
      </trkpt>
      <trkpt lat="49.1212" lon="1.45643">
        <ele>23.453098297119</ele>
        <time>2013-09-22T06:25:53.000Z</time>
      </trkpt>
      <trkpt lat="49.12129" lon="1.45626">
        <ele>23.835639953613</ele>
        <time>2013-09-22T06:25:56.000Z</time>
      </trkpt>
      <trkpt lat="49.12138" lon="1.45611">
        <ele>24.172983169556</ele>
        <time>2013-09-22T06:25:58.000Z</time>
      </trkpt>
      <trkpt lat="49.12152" lon="1.45589">
        <ele>24.579271316528</ele>
        <time>2013-09-22T06:26:01.000Z</time>
      </trkpt>
      <trkpt lat="49.12165" lon="1.45569">
        <ele>24.741172790527</ele>
        <time>2013-09-22T06:26:04.000Z</time>
      </trkpt>
      <trkpt lat="49.12172" lon="1.45556">
        <ele>24.670246124268</ele>
        <time>2013-09-22T06:26:06.000Z</time>
      </trkpt>
      <trkpt lat="49.12182" lon="1.45532">
        <ele>24.344747543335</ele>
        <time>2013-09-22T06:26:09.000Z</time>
      </trkpt>
      <trkpt lat="49.12188" lon="1.45521">
        <ele>23.900737762451</ele>
        <time>2013-09-22T06:26:11.000Z</time>
      </trkpt>
      <trkpt lat="49.12198" lon="1.45505">
        <ele>23.358627319336</ele>
        <time>2013-09-22T06:26:14.000Z</time>
      </trkpt>
      <trkpt lat="49.12205" lon="1.45496">
        <ele>22.927242279053</ele>
        <time>2013-09-22T06:26:16.000Z</time>
      </trkpt>
      <trkpt lat="49.12215" lon="1.45484">
        <ele>22.674823760986</ele>
        <time>2013-09-22T06:26:18.000Z</time>
      </trkpt>
      <trkpt lat="49.12228" lon="1.45464">
        <ele>22.643970489502</ele>
        <time>2013-09-22T06:26:21.000Z</time>
      </trkpt>
      <trkpt lat="49.12235" lon="1.45449">
        <ele>22.645135879517</ele>
        <time>2013-09-22T06:26:24.000Z</time>
      </trkpt>
      <trkpt lat="49.12242" lon="1.45437">
        <ele>22.708257675171</ele>
        <time>2013-09-22T06:26:26.000Z</time>
      </trkpt>
      <trkpt lat="49.12251" lon="1.45418">
        <ele>22.683692932129</ele>
        <time>2013-09-22T06:26:29.000Z</time>
      </trkpt>
      <trkpt lat="49.12258" lon="1.454">
        <ele>22.515508651733</ele>
        <time>2013-09-22T06:26:32.000Z</time>
      </trkpt>
      <trkpt lat="49.12262" lon="1.45389">
        <ele>22.270933151245</ele>
        <time>2013-09-22T06:26:34.000Z</time>
      </trkpt>
      <trkpt lat="49.12268" lon="1.45376">
        <ele>22.053817749023</ele>
        <time>2013-09-22T06:26:37.000Z</time>
      </trkpt>
      <trkpt lat="49.12276" lon="1.45361">
        <ele>21.847301483154</ele>
        <time>2013-09-22T06:26:40.000Z</time>
      </trkpt>
      <trkpt lat="49.12286" lon="1.45343">
        <ele>21.720945358276</ele>
        <time>2013-09-22T06:26:43.000Z</time>
      </trkpt>
      <trkpt lat="49.12294" lon="1.45327">
        <ele>21.619312286377</ele>
        <time>2013-09-22T06:26:46.000Z</time>
      </trkpt>
      <trkpt lat="49.12297" lon="1.4532">
        <ele>21.568138122559</ele>
        <time>2013-09-22T06:26:48.000Z</time>
      </trkpt>
      <trkpt lat="49.12303" lon="1.45307">
        <ele>21.528379440308</ele>
        <time>2013-09-22T06:26:51.000Z</time>
      </trkpt>
      <trkpt lat="49.12305" lon="1.45296">
        <ele>21.441745758057</ele>
        <time>2013-09-22T06:26:53.000Z</time>
      </trkpt>
      <trkpt lat="49.12312" lon="1.45273">
        <ele>21.268840789795</ele>
        <time>2013-09-22T06:26:56.000Z</time>
      </trkpt>
      <trkpt lat="49.12314" lon="1.45262">
        <ele>21.023691177368</ele>
        <time>2013-09-22T06:26:58.000Z</time>
      </trkpt>
      <trkpt lat="49.1232" lon="1.45249">
        <ele>20.715860366821</ele>
        <time>2013-09-22T06:27:01.000Z</time>
      </trkpt>
      <trkpt lat="49.12327" lon="1.45234">
        <ele>20.457805633545</ele>
        <time>2013-09-22T06:27:04.000Z</time>
      </trkpt>
      <trkpt lat="49.12334" lon="1.45221">
        <ele>20.287265777588</ele>
        <time>2013-09-22T06:27:06.000Z</time>
      </trkpt>
      <trkpt lat="49.12344" lon="1.45202">
        <ele>20.244943618774</ele>
        <time>2013-09-22T06:27:09.000Z</time>
      </trkpt>
      <trkpt lat="49.12355" lon="1.45185">
        <ele>20.266132354736</ele>
        <time>2013-09-22T06:27:12.000Z</time>
      </trkpt>
      <trkpt lat="49.12362" lon="1.45177">
        <ele>20.305810928345</ele>
        <time>2013-09-22T06:27:14.000Z</time>
      </trkpt>
      <trkpt lat="49.12369" lon="1.45164">
        <ele>20.212564468384</ele>
        <time>2013-09-22T06:27:16.000Z</time>
      </trkpt>
      <trkpt lat="49.12373" lon="1.45151">
        <ele>19.993036270142</ele>
        <time>2013-09-22T06:27:18.000Z</time>
      </trkpt>
      <trkpt lat="49.12379" lon="1.45138">
        <ele>19.641757965088</ele>
        <time>2013-09-22T06:27:20.000Z</time>
      </trkpt>
      <trkpt lat="49.12389" lon="1.45122">
        <ele>19.170331954956</ele>
        <time>2013-09-22T06:27:23.000Z</time>
      </trkpt>
      <trkpt lat="49.12397" lon="1.45109">
        <ele>18.606163024902</ele>
        <time>2013-09-22T06:27:25.000Z</time>
      </trkpt>
      <trkpt lat="49.12407" lon="1.45095">
        <ele>18.000558853149</ele>
        <time>2013-09-22T06:27:27.000Z</time>
      </trkpt>
      <trkpt lat="49.12413" lon="1.45088">
        <ele>17.404397964477</ele>
        <time>2013-09-22T06:27:29.000Z</time>
      </trkpt>
      <trkpt lat="49.12418" lon="1.45087">
        <ele>16.920356750488</ele>
        <time>2013-09-22T06:27:32.000Z</time>
      </trkpt>
      <trkpt lat="49.12431" lon="1.45079">
        <ele>16.669345855713</ele>
        <time>2013-09-22T06:27:35.000Z</time>
      </trkpt>
      <trkpt lat="49.12446" lon="1.45069">
        <ele>16.637201309204</ele>
        <time>2013-09-22T06:27:38.000Z</time>
      </trkpt>
      <trkpt lat="49.1246" lon="1.45054">
        <ele>16.7678565979</ele>
        <time>2013-09-22T06:27:41.000Z</time>
      </trkpt>
      <trkpt lat="49.1247" lon="1.45044">
        <ele>16.982339859009</ele>
        <time>2013-09-22T06:27:43.000Z</time>
      </trkpt>
      <trkpt lat="49.12485" lon="1.4503">
        <ele>17.169345855713</ele>
        <time>2013-09-22T06:27:46.000Z</time>
      </trkpt>
      <trkpt lat="49.12495" lon="1.45021">
        <ele>17.237255096436</ele>
        <time>2013-09-22T06:27:48.000Z</time>
      </trkpt>
      <trkpt lat="49.12508" lon="1.45009">
        <ele>17.185022354126</ele>
        <time>2013-09-22T06:27:51.000Z</time>
      </trkpt>
      <trkpt lat="49.12514" lon="1.45005">
        <ele>17.127527236939</ele>
        <time>2013-09-22T06:27:53.000Z</time>
      </trkpt>
      <trkpt lat="49.12528" lon="1.44988">
        <ele>17.076307296753</ele>
        <time>2013-09-22T06:27:56.000Z</time>
      </trkpt>
      <trkpt lat="49.12536" lon="1.44975">
        <ele>17.038152694702</ele>
        <time>2013-09-22T06:27:58.000Z</time>
      </trkpt>
      <trkpt lat="49.12545" lon="1.4496">
        <ele>17.003824234009</ele>
        <time>2013-09-22T06:28:01.000Z</time>
      </trkpt>
      <trkpt lat="49.12556" lon="1.44947">
        <ele>16.962478637695</ele>
        <time>2013-09-22T06:28:04.000Z</time>
      </trkpt>
      <trkpt lat="49.12565" lon="1.44932">
        <ele>16.830265045166</ele>
        <time>2013-09-22T06:28:07.000Z</time>
      </trkpt>
      <trkpt lat="49.12571" lon="1.44923">
        <ele>16.641403198242</ele>
        <time>2013-09-22T06:28:09.000Z</time>
      </trkpt>
      <trkpt lat="49.12581" lon="1.44913">
        <ele>16.410562515259</ele>
        <time>2013-09-22T06:28:12.000Z</time>
      </trkpt>
      <trkpt lat="49.12588" lon="1.44906">
        <ele>16.268186569214</ele>
        <time>2013-09-22T06:28:14.000Z</time>
      </trkpt>
      <trkpt lat="49.12601" lon="1.44892">
        <ele>16.299289703369</ele>
        <time>2013-09-22T06:28:17.000Z</time>
      </trkpt>
      <trkpt lat="49.1261" lon="1.4488">
        <ele>16.476835250854</ele>
        <time>2013-09-22T06:28:20.000Z</time>
      </trkpt>
      <trkpt lat="49.12622" lon="1.44868">
        <ele>16.798286437988</ele>
        <time>2013-09-22T06:28:23.000Z</time>
      </trkpt>
      <trkpt lat="49.12632" lon="1.44856">
        <ele>17.215970993042</ele>
        <time>2013-09-22T06:28:25.000Z</time>
      </trkpt>
      <trkpt lat="49.12645" lon="1.44837">
        <ele>17.551076889038</ele>
        <time>2013-09-22T06:28:28.000Z</time>
      </trkpt>
      <trkpt lat="49.12648" lon="1.44826">
        <ele>17.737096786499</ele>
        <time>2013-09-22T06:28:30.000Z</time>
      </trkpt>
      <trkpt lat="49.12651" lon="1.44816">
        <ele>17.873138427734</ele>
        <time>2013-09-22T06:28:32.000Z</time>
      </trkpt>
      <trkpt lat="49.12659" lon="1.44804">
        <ele>17.974376678467</ele>
        <time>2013-09-22T06:28:35.000Z</time>
      </trkpt>
      <trkpt lat="49.12663" lon="1.44794">
        <ele>18.048645019531</ele>
        <time>2013-09-22T06:28:37.000Z</time>
      </trkpt>
      <trkpt lat="49.1267" lon="1.44788">
        <ele>18.248361587524</ele>
        <time>2013-09-22T06:28:40.000Z</time>
      </trkpt>
      <trkpt lat="49.1268" lon="1.44774">
        <ele>18.625186920166</ele>
        <time>2013-09-22T06:28:43.000Z</time>
      </trkpt>
      <trkpt lat="49.12687" lon="1.44765">
        <ele>19.078670501709</ele>
        <time>2013-09-22T06:28:45.000Z</time>
      </trkpt>
      <trkpt lat="49.127" lon="1.44748">
        <ele>19.575832366943</ele>
        <time>2013-09-22T06:28:48.000Z</time>
      </trkpt>
      <trkpt lat="49.12709" lon="1.44735">
        <ele>20.072710037231</ele>
        <time>2013-09-22T06:28:50.000Z</time>
      </trkpt>
      <trkpt lat="49.12719" lon="1.44718">
        <ele>20.430065155029</ele>
        <time>2013-09-22T06:28:53.000Z</time>
      </trkpt>
      <trkpt lat="49.12721" lon="1.44712">
        <ele>20.586782455444</ele>
        <time>2013-09-22T06:28:55.000Z</time>
      </trkpt>
      <trkpt lat="49.12733" lon="1.44678">
        <ele>20.359991073608</ele>
        <time>2013-09-22T06:28:59.000Z</time>
      </trkpt>
      <trkpt lat="49.1274" lon="1.44665">
        <ele>19.935785293579</ele>
        <time>2013-09-22T06:29:01.000Z</time>
      </trkpt>
      <trkpt lat="49.12744" lon="1.44654">
        <ele>19.410133361816</ele>
        <time>2013-09-22T06:29:03.000Z</time>
      </trkpt>
      <trkpt lat="49.1275" lon="1.44639">
        <ele>18.818407058716</ele>
        <time>2013-09-22T06:29:06.000Z</time>
      </trkpt>
      <trkpt lat="49.12755" lon="1.44635">
        <ele>18.271427154541</ele>
        <time>2013-09-22T06:29:09.000Z</time>
      </trkpt>
      <trkpt lat="49.12757" lon="1.44634">
        <ele>18.033599853516</ele>
        <time>2013-09-22T06:29:11.000Z</time>
      </trkpt>
      <trkpt lat="49.12758" lon="1.44632">
        <ele>17.889204025269</ele>
        <time>2013-09-22T06:29:13.000Z</time>
      </trkpt>
      <trkpt lat="49.12758" lon="1.4463">
        <ele>17.801122665405</ele>
        <time>2013-09-22T06:29:21.000Z</time>
      </trkpt>
      <trkpt lat="49.12756" lon="1.44631">
        <ele>17.795488357544</ele>
        <time>2013-09-22T06:29:24.000Z</time>
      </trkpt>
      <trkpt lat="49.12756" lon="1.44633">
        <ele>17.789096832275</ele>
        <time>2013-09-22T06:29:27.000Z</time>
      </trkpt>
      <trkpt lat="49.12756" lon="1.44626">
        <ele>17.690402984619</ele>
        <time>2013-09-22T06:29:32.000Z</time>
      </trkpt>
      <trkpt lat="49.12756" lon="1.44624">
        <ele>17.576831817627</ele>
        <time>2013-09-22T06:29:35.000Z</time>
      </trkpt>
      <trkpt lat="49.12756" lon="1.44622">
        <ele>17.468027114868</ele>
        <time>2013-09-22T06:29:37.000Z</time>
      </trkpt>
      <trkpt lat="49.12756" lon="1.44617">
        <ele>17.317455291748</ele>
        <time>2013-09-22T06:29:40.000Z</time>
      </trkpt>
      <trkpt lat="49.12756" lon="1.44615">
        <ele>17.134922027588</ele>
        <time>2013-09-22T06:29:43.000Z</time>
      </trkpt>
      <trkpt lat="49.12762" lon="1.44624">
        <ele>17.182195663452</ele>
        <time>2013-09-22T06:29:46.000Z</time>
      </trkpt>
      <trkpt lat="49.12767" lon="1.44626">
        <ele>17.336133956909</ele>
        <time>2013-09-22T06:29:48.000Z</time>
      </trkpt>
      <trkpt lat="49.12773" lon="1.44628">
        <ele>17.608316421509</ele>
        <time>2013-09-22T06:29:50.000Z</time>
      </trkpt>
      <trkpt lat="49.1278" lon="1.44628">
        <ele>18.020523071289</ele>
        <time>2013-09-22T06:29:52.000Z</time>
      </trkpt>
      <trkpt lat="49.12789" lon="1.44626">
        <ele>18.546136856079</ele>
        <time>2013-09-22T06:29:55.000Z</time>
      </trkpt>
      <trkpt lat="49.12795" lon="1.44626">
        <ele>18.96960067749</ele>
        <time>2013-09-22T06:29:57.000Z</time>
      </trkpt>
      <trkpt lat="49.12801" lon="1.44625">
        <ele>19.361763000488</ele>
        <time>2013-09-22T06:29:59.000Z</time>
      </trkpt>
      <trkpt lat="49.12809" lon="1.44624">
        <ele>19.736347198486</ele>
        <time>2013-09-22T06:30:02.000Z</time>
      </trkpt>
      <trkpt lat="49.12819" lon="1.44621">
        <ele>20.091503143311</ele>
        <time>2013-09-22T06:30:05.000Z</time>
      </trkpt>
      <trkpt lat="49.12828" lon="1.44616">
        <ele>20.376663208008</ele>
        <time>2013-09-22T06:30:08.000Z</time>
      </trkpt>
      <trkpt lat="49.12835" lon="1.44613">
        <ele>20.621046066284</ele>
        <time>2013-09-22T06:30:10.000Z</time>
      </trkpt>
      <trkpt lat="49.12846" lon="1.4461">
        <ele>20.875366210938</ele>
        <time>2013-09-22T06:30:13.000Z</time>
      </trkpt>
      <trkpt lat="49.12857" lon="1.44602">
        <ele>21.100078582764</ele>
        <time>2013-09-22T06:30:16.000Z</time>
      </trkpt>
      <trkpt lat="49.12864" lon="1.44598">
        <ele>21.315784454346</ele>
        <time>2013-09-22T06:30:18.000Z</time>
      </trkpt>
      <trkpt lat="49.12871" lon="1.44599">
        <ele>21.620048522949</ele>
        <time>2013-09-22T06:30:20.000Z</time>
      </trkpt>
      <trkpt lat="49.12878" lon="1.44601">
        <ele>22.03014755249</ele>
        <time>2013-09-22T06:30:22.000Z</time>
      </trkpt>
      <trkpt lat="49.12883" lon="1.44604">
        <ele>22.484928131104</ele>
        <time>2013-09-22T06:30:25.000Z</time>
      </trkpt>
      <trkpt lat="49.12889" lon="1.44609">
        <ele>22.999320983887</ele>
        <time>2013-09-22T06:30:28.000Z</time>
      </trkpt>
      <trkpt lat="49.12893" lon="1.44614">
        <ele>23.546312332153</ele>
        <time>2013-09-22T06:30:30.000Z</time>
      </trkpt>
      <trkpt lat="49.12895" lon="1.4462">
        <ele>24.037094116211</ele>
        <time>2013-09-22T06:30:32.000Z</time>
      </trkpt>
      <trkpt lat="49.12897" lon="1.44628">
        <ele>24.460689544678</ele>
        <time>2013-09-22T06:30:34.000Z</time>
      </trkpt>
      <trkpt lat="49.12902" lon="1.44638">
        <ele>24.847148895264</ele>
        <time>2013-09-22T06:30:37.000Z</time>
      </trkpt>
      <trkpt lat="49.12904" lon="1.44641">
        <ele>25.140239715576</ele>
        <time>2013-09-22T06:30:39.000Z</time>
      </trkpt>
      <trkpt lat="49.12906" lon="1.44646">
        <ele>25.375652313232</ele>
        <time>2013-09-22T06:30:42.000Z</time>
      </trkpt>
      <trkpt lat="49.12908" lon="1.4465">
        <ele>25.572217941284</ele>
        <time>2013-09-22T06:30:44.000Z</time>
      </trkpt>
      <trkpt lat="49.12913" lon="1.44656">
        <ele>25.733013153076</ele>
        <time>2013-09-22T06:30:47.000Z</time>
      </trkpt>
      <trkpt lat="49.12917" lon="1.44662">
        <ele>25.836109161377</ele>
        <time>2013-09-22T06:30:49.000Z</time>
      </trkpt>
      <trkpt lat="49.12923" lon="1.44668">
        <ele>26.02982711792</ele>
        <time>2013-09-22T06:30:52.000Z</time>
      </trkpt>
      <trkpt lat="49.12926" lon="1.44673">
        <ele>26.264194488525</ele>
        <time>2013-09-22T06:30:54.000Z</time>
      </trkpt>
      <trkpt lat="49.12931" lon="1.44678">
        <ele>26.592977523804</ele>
        <time>2013-09-22T06:30:57.000Z</time>
      </trkpt>
      <trkpt lat="49.12936" lon="1.44681">
        <ele>26.989465713501</ele>
        <time>2013-09-22T06:30:59.000Z</time>
      </trkpt>
      <trkpt lat="49.12942" lon="1.44687">
        <ele>27.49723815918</ele>
        <time>2013-09-22T06:31:02.000Z</time>
      </trkpt>
      <trkpt lat="49.12946" lon="1.44691">
        <ele>27.97211265564</ele>
        <time>2013-09-22T06:31:04.000Z</time>
      </trkpt>
      <trkpt lat="49.12951" lon="1.44696">
        <ele>28.475849151611</ele>
        <time>2013-09-22T06:31:07.000Z</time>
      </trkpt>
      <trkpt lat="49.12953" lon="1.447">
        <ele>28.919387817383</ele>
        <time>2013-09-22T06:31:09.000Z</time>
      </trkpt>
      <trkpt lat="49.12956" lon="1.44704">
        <ele>29.330575942993</ele>
        <time>2013-09-22T06:31:12.000Z</time>
      </trkpt>
      <trkpt lat="49.1296" lon="1.44709">
        <ele>29.691234588623</ele>
        <time>2013-09-22T06:31:15.000Z</time>
      </trkpt>
      <trkpt lat="49.12963" lon="1.44714">
        <ele>30.036371231079</ele>
        <time>2013-09-22T06:31:17.000Z</time>
      </trkpt>
      <trkpt lat="49.12967" lon="1.4472">
        <ele>30.367273330689</ele>
        <time>2013-09-22T06:31:20.000Z</time>
      </trkpt>
      <trkpt lat="49.12968" lon="1.44724">
        <ele>30.678417205811</ele>
        <time>2013-09-22T06:31:22.000Z</time>
      </trkpt>
      <trkpt lat="49.1297" lon="1.44727">
        <ele>30.979934692383</ele>
        <time>2013-09-22T06:31:24.000Z</time>
      </trkpt>
      <trkpt lat="49.12976" lon="1.44738">
        <ele>31.32216835022</ele>
        <time>2013-09-22T06:31:27.000Z</time>
      </trkpt>
      <trkpt lat="49.12981" lon="1.44745">
        <ele>31.703851699829</ele>
        <time>2013-09-22T06:31:29.000Z</time>
      </trkpt>
      <trkpt lat="49.12984" lon="1.44751">
        <ele>32.06595993042</ele>
        <time>2013-09-22T06:31:31.000Z</time>
      </trkpt>
      <trkpt lat="49.12988" lon="1.4476">
        <ele>32.454460144043</ele>
        <time>2013-09-22T06:31:34.000Z</time>
      </trkpt>
      <trkpt lat="49.12988" lon="1.44767">
        <ele>32.808433532715</ele>
        <time>2013-09-22T06:31:37.000Z</time>
      </trkpt>
      <trkpt lat="49.12987" lon="1.44775">
        <ele>33.037254333496</ele>
        <time>2013-09-22T06:31:40.000Z</time>
      </trkpt>
      <trkpt lat="49.12986" lon="1.44782">
        <ele>33.172340393066</ele>
        <time>2013-09-22T06:31:43.000Z</time>
      </trkpt>
      <trkpt lat="49.12985" lon="1.44786">
        <ele>33.238342285156</ele>
        <time>2013-09-22T06:31:46.000Z</time>
      </trkpt>
      <trkpt lat="49.12983" lon="1.44794">
        <ele>33.245067596435</ele>
        <time>2013-09-22T06:31:49.000Z</time>
      </trkpt>
      <trkpt lat="49.12984" lon="1.44811">
        <ele>33.271770477295</ele>
        <time>2013-09-22T06:31:52.000Z</time>
      </trkpt>
      <trkpt lat="49.12985" lon="1.44827">
        <ele>33.342155456543</ele>
        <time>2013-09-22T06:31:55.000Z</time>
      </trkpt>
      <trkpt lat="49.12985" lon="1.44836">
        <ele>33.415126800537</ele>
        <time>2013-09-22T06:31:57.000Z</time>
      </trkpt>
      <trkpt lat="49.12986" lon="1.44848">
        <ele>33.483783721924</ele>
        <time>2013-09-22T06:31:59.000Z</time>
      </trkpt>
      <trkpt lat="49.12988" lon="1.44859">
        <ele>33.544090270996</ele>
        <time>2013-09-22T06:32:01.000Z</time>
      </trkpt>
      <trkpt lat="49.1299" lon="1.4487">
        <ele>33.559226989746</ele>
        <time>2013-09-22T06:32:03.000Z</time>
      </trkpt>
      <trkpt lat="49.12994" lon="1.44885">
        <ele>33.516532897949</ele>
        <time>2013-09-22T06:32:06.000Z</time>
      </trkpt>
      <trkpt lat="49.12996" lon="1.44893">
        <ele>33.450073242188</ele>
        <time>2013-09-22T06:32:08.000Z</time>
      </trkpt>
      <trkpt lat="49.12999" lon="1.44903">
        <ele>33.36999130249</ele>
        <time>2013-09-22T06:32:10.000Z</time>
      </trkpt>
      <trkpt lat="49.13002" lon="1.44917">
        <ele>33.281280517578</ele>
        <time>2013-09-22T06:32:13.000Z</time>
      </trkpt>
      <trkpt lat="49.13003" lon="1.44926">
        <ele>33.260746002197</ele>
        <time>2013-09-22T06:32:15.000Z</time>
      </trkpt>
      <trkpt lat="49.13004" lon="1.44934">
        <ele>33.306640625</ele>
        <time>2013-09-22T06:32:17.000Z</time>
      </trkpt>
      <trkpt lat="49.13005" lon="1.44946">
        <ele>33.429294586182</ele>
        <time>2013-09-22T06:32:20.000Z</time>
      </trkpt>
      <trkpt lat="49.13006" lon="1.44957">
        <ele>33.632339477539</ele>
        <time>2013-09-22T06:32:22.000Z</time>
      </trkpt>
      <trkpt lat="49.13008" lon="1.44968">
        <ele>33.914386749268</ele>
        <time>2013-09-22T06:32:24.000Z</time>
      </trkpt>
      <trkpt lat="49.1301" lon="1.44985">
        <ele>34.218925476074</ele>
        <time>2013-09-22T06:32:27.000Z</time>
      </trkpt>
      <trkpt lat="49.13011" lon="1.44994">
        <ele>34.526439666748</ele>
        <time>2013-09-22T06:32:29.000Z</time>
      </trkpt>
      <trkpt lat="49.13012" lon="1.45004">
        <ele>34.814117431641</ele>
        <time>2013-09-22T06:32:31.000Z</time>
      </trkpt>
      <trkpt lat="49.13013" lon="1.45018">
        <ele>35.08145904541</ele>
        <time>2013-09-22T06:32:34.000Z</time>
      </trkpt>
      <trkpt lat="49.13015" lon="1.45031">
        <ele>35.327602386475</ele>
        <time>2013-09-22T06:32:37.000Z</time>
      </trkpt>
      <trkpt lat="49.13017" lon="1.4504">
        <ele>35.523490905762</ele>
        <time>2013-09-22T06:32:39.000Z</time>
      </trkpt>
      <trkpt lat="49.13019" lon="1.4505">
        <ele>35.706329345703</ele>
        <time>2013-09-22T06:32:41.000Z</time>
      </trkpt>
      <trkpt lat="49.13022" lon="1.45066">
        <ele>35.900512695312</ele>
        <time>2013-09-22T06:32:44.000Z</time>
      </trkpt>
      <trkpt lat="49.13027" lon="1.45083">
        <ele>36.122680664062</ele>
        <time>2013-09-22T06:32:47.000Z</time>
      </trkpt>
      <trkpt lat="49.13029" lon="1.45093">
        <ele>36.26517868042</ele>
        <time>2013-09-22T06:32:49.000Z</time>
      </trkpt>
      <trkpt lat="49.13031" lon="1.45103">
        <ele>36.33617401123</ele>
        <time>2013-09-22T06:32:52.000Z</time>
      </trkpt>
      <trkpt lat="49.13031" lon="1.45111">
        <ele>36.323818206787</ele>
        <time>2013-09-22T06:32:54.000Z</time>
      </trkpt>
      <trkpt lat="49.13031" lon="1.45126">
        <ele>36.180469512939</ele>
        <time>2013-09-22T06:32:57.000Z</time>
      </trkpt>
      <trkpt lat="49.13031" lon="1.4514">
        <ele>35.891151428223</ele>
        <time>2013-09-22T06:33:00.000Z</time>
      </trkpt>
      <trkpt lat="49.13029" lon="1.45162">
        <ele>35.510437011719</ele>
        <time>2013-09-22T06:33:03.000Z</time>
      </trkpt>
      <trkpt lat="49.13032" lon="1.45189">
        <ele>35.222320556641</ele>
        <time>2013-09-22T06:33:06.000Z</time>
      </trkpt>
      <trkpt lat="49.13037" lon="1.45215">
        <ele>35.09720993042</ele>
        <time>2013-09-22T06:33:09.000Z</time>
      </trkpt>
      <trkpt lat="49.13041" lon="1.45228">
        <ele>35.120056152344</ele>
        <time>2013-09-22T06:33:12.000Z</time>
      </trkpt>
      <trkpt lat="49.13049" lon="1.4525">
        <ele>35.350151062012</ele>
        <time>2013-09-22T06:33:14.000Z</time>
      </trkpt>
      <trkpt lat="49.13052" lon="1.45259">
        <ele>35.783226013184</ele>
        <time>2013-09-22T06:33:16.000Z</time>
      </trkpt>
      <trkpt lat="49.13057" lon="1.4527">
        <ele>36.253944396973</ele>
        <time>2013-09-22T06:33:19.000Z</time>
      </trkpt>
      <trkpt lat="49.1306" lon="1.45275">
        <ele>36.656646728516</ele>
        <time>2013-09-22T06:33:21.000Z</time>
      </trkpt>
      <trkpt lat="49.1306" lon="1.45285">
        <ele>37.039379119873</ele>
        <time>2013-09-22T06:33:24.000Z</time>
      </trkpt>
      <trkpt lat="49.13061" lon="1.45295">
        <ele>37.338527679443</ele>
        <time>2013-09-22T06:33:26.000Z</time>
      </trkpt>
      <trkpt lat="49.13059" lon="1.45306">
        <ele>37.59135055542</ele>
        <time>2013-09-22T06:33:32.000Z</time>
      </trkpt>
      <trkpt lat="49.13059" lon="1.45314">
        <ele>37.78681564331</ele>
        <time>2013-09-22T06:33:32.000Z</time>
      </trkpt>
      <trkpt lat="49.13058" lon="1.45328">
        <ele>37.98847579956</ele>
        <time>2013-09-22T06:33:34.000Z</time>
      </trkpt>
      <trkpt lat="49.13059" lon="1.45336">
        <ele>38.172466278076</ele>
        <time>2013-09-22T06:33:36.000Z</time>
      </trkpt>
      <trkpt lat="49.13059" lon="1.45348">
        <ele>38.333198547363</ele>
        <time>2013-09-22T06:33:39.000Z</time>
      </trkpt>
      <trkpt lat="49.1306" lon="1.45362">
        <ele>38.50235748291</ele>
        <time>2013-09-22T06:33:42.000Z</time>
      </trkpt>
      <trkpt lat="49.1306" lon="1.45371">
        <ele>38.667442321777</ele>
        <time>2013-09-22T06:33:44.000Z</time>
      </trkpt>
      <trkpt lat="49.1306" lon="1.45382">
        <ele>38.798877716064</ele>
        <time>2013-09-22T06:33:46.000Z</time>
      </trkpt>
      <trkpt lat="49.13061" lon="1.45397">
        <ele>38.934238433838</ele>
        <time>2013-09-22T06:33:49.000Z</time>
      </trkpt>
      <trkpt lat="49.13061" lon="1.45406">
        <ele>39.067005157471</ele>
        <time>2013-09-22T06:33:51.000Z</time>
      </trkpt>
      <trkpt lat="49.13062" lon="1.45415">
        <ele>39.200000762939</ele>
        <time>2013-09-22T06:33:53.000Z</time>
      </trkpt>
      <trkpt lat="49.13063" lon="1.45428">
        <ele>39.345283508301</ele>
        <time>2013-09-22T06:33:56.000Z</time>
      </trkpt>
      <trkpt lat="49.13065" lon="1.45439">
        <ele>39.505653381348</ele>
        <time>2013-09-22T06:33:59.000Z</time>
      </trkpt>
      <trkpt lat="49.13068" lon="1.45448">
        <ele>39.681880950928</ele>
        <time>2013-09-22T06:34:03.000Z</time>
      </trkpt>
      <trkpt lat="49.1307" lon="1.45449">
        <ele>39.861103057861</ele>
        <time>2013-09-22T06:34:16.000Z</time>
      </trkpt>
      <trkpt lat="49.13071" lon="1.45456">
        <ele>40.024547576904</ele>
        <time>2013-09-22T06:34:19.000Z</time>
      </trkpt>
      <trkpt lat="49.13071" lon="1.45461">
        <ele>40.158130645752</ele>
        <time>2013-09-22T06:34:21.000Z</time>
      </trkpt>
      <trkpt lat="49.13073" lon="1.45472">
        <ele>40.284828186035</ele>
        <time>2013-09-22T06:34:24.000Z</time>
      </trkpt>
      <trkpt lat="49.13074" lon="1.45486">
        <ele>40.38960647583</ele>
        <time>2013-09-22T06:34:27.000Z</time>
      </trkpt>
      <trkpt lat="49.13076" lon="1.45498">
        <ele>40.499042510986</ele>
        <time>2013-09-22T06:34:30.000Z</time>
      </trkpt>
      <trkpt lat="49.13078" lon="1.45505">
        <ele>40.613460540771</ele>
        <time>2013-09-22T06:34:32.000Z</time>
      </trkpt>
      <trkpt lat="49.13078" lon="1.45513">
        <ele>40.745277404785</ele>
        <time>2013-09-22T06:34:34.000Z</time>
      </trkpt>
      <trkpt lat="49.13079" lon="1.45526">
        <ele>40.892559051514</ele>
        <time>2013-09-22T06:34:37.000Z</time>
      </trkpt>
      <trkpt lat="49.1308" lon="1.45537">
        <ele>41.047378540039</ele>
        <time>2013-09-22T06:34:40.000Z</time>
      </trkpt>
      <trkpt lat="49.13083" lon="1.45553">
        <ele>41.223609924316</ele>
        <time>2013-09-22T06:34:43.000Z</time>
      </trkpt>
      <trkpt lat="49.13084" lon="1.45563">
        <ele>41.408531188965</ele>
        <time>2013-09-22T06:34:45.000Z</time>
      </trkpt>
      <trkpt lat="49.13087" lon="1.45577">
        <ele>41.616020202637</ele>
        <time>2013-09-22T06:34:48.000Z</time>
      </trkpt>
      <trkpt lat="49.13089" lon="1.45586">
        <ele>41.850612640381</ele>
        <time>2013-09-22T06:34:50.000Z</time>
      </trkpt>
      <trkpt lat="49.13093" lon="1.456">
        <ele>42.294639587402</ele>
        <time>2013-09-22T06:34:53.000Z</time>
      </trkpt>
      <trkpt lat="49.13095" lon="1.45609">
        <ele>42.8473777771</ele>
        <time>2013-09-22T06:34:55.000Z</time>
      </trkpt>
      <trkpt lat="49.13099" lon="1.45621">
        <ele>43.59589767456</ele>
        <time>2013-09-22T06:34:58.000Z</time>
      </trkpt>
      <trkpt lat="49.13101" lon="1.4563">
        <ele>44.460517883301</ele>
        <time>2013-09-22T06:35:00.000Z</time>
      </trkpt>
      <trkpt lat="49.13102" lon="1.45636">
        <ele>45.370700836182</ele>
        <time>2013-09-22T06:35:02.000Z</time>
      </trkpt>
      <trkpt lat="49.13105" lon="1.45652">
        <ele>46.316036224365</ele>
        <time>2013-09-22T06:35:05.000Z</time>
      </trkpt>
      <trkpt lat="49.13107" lon="1.45665">
        <ele>47.340152740479</ele>
        <time>2013-09-22T06:35:07.000Z</time>
      </trkpt>
      <trkpt lat="49.13107" lon="1.45677">
        <ele>48.287414550781</ele>
        <time>2013-09-22T06:35:10.000Z</time>
      </trkpt>
      <trkpt lat="49.13108" lon="1.45689">
        <ele>49.22420501709</ele>
        <time>2013-09-22T06:35:13.000Z</time>
      </trkpt>
      <trkpt lat="49.1311" lon="1.45701">
        <ele>50.206909179688</ele>
        <time>2013-09-22T06:35:16.000Z</time>
      </trkpt>
      <trkpt lat="49.1311" lon="1.45709">
        <ele>51.000801086426</ele>
        <time>2013-09-22T06:35:18.000Z</time>
      </trkpt>
      <trkpt lat="49.13111" lon="1.45721">
        <ele>51.705871582031</ele>
        <time>2013-09-22T06:35:21.000Z</time>
      </trkpt>
      <trkpt lat="49.13112" lon="1.45732">
        <ele>52.39022064209</ele>
        <time>2013-09-22T06:35:24.000Z</time>
      </trkpt>
      <trkpt lat="49.13112" lon="1.4574">
        <ele>53.013877868652</ele>
        <time>2013-09-22T06:35:26.000Z</time>
      </trkpt>
      <trkpt lat="49.13113" lon="1.45752">
        <ele>53.604419708252</ele>
        <time>2013-09-22T06:35:29.000Z</time>
      </trkpt>
      <trkpt lat="49.13115" lon="1.45767">
        <ele>54.175647735596</ele>
        <time>2013-09-22T06:35:32.000Z</time>
      </trkpt>
      <trkpt lat="49.13116" lon="1.45775">
        <ele>54.643341064453</ele>
        <time>2013-09-22T06:35:34.000Z</time>
      </trkpt>
      <trkpt lat="49.13116" lon="1.45787">
        <ele>55.016624450684</ele>
        <time>2013-09-22T06:35:37.000Z</time>
      </trkpt>
      <trkpt lat="49.13115" lon="1.45798">
        <ele>55.325294494629</ele>
        <time>2013-09-22T06:35:40.000Z</time>
      </trkpt>
      <trkpt lat="49.13115" lon="1.45805">
        <ele>55.531188964844</ele>
        <time>2013-09-22T06:35:42.000Z</time>
      </trkpt>
      <trkpt lat="49.13118" lon="1.4582">
        <ele>55.746959686279</ele>
        <time>2013-09-22T06:35:45.000Z</time>
      </trkpt>
      <trkpt lat="49.1312" lon="1.45834">
        <ele>55.989501953125</ele>
        <time>2013-09-22T06:35:47.000Z</time>
      </trkpt>
      <trkpt lat="49.13121" lon="1.45845">
        <ele>56.247791290283</ele>
        <time>2013-09-22T06:35:49.000Z</time>
      </trkpt>
      <trkpt lat="49.13124" lon="1.4586">
        <ele>56.553295135498</ele>
        <time>2013-09-22T06:35:52.000Z</time>
      </trkpt>
      <trkpt lat="49.13127" lon="1.45876">
        <ele>56.919067382812</ele>
        <time>2013-09-22T06:35:55.000Z</time>
      </trkpt>
      <trkpt lat="49.13129" lon="1.45885">
        <ele>57.251617431641</ele>
        <time>2013-09-22T06:35:57.000Z</time>
      </trkpt>
      <trkpt lat="49.1313" lon="1.45899">
        <ele>57.560638427734</ele>
        <time>2013-09-22T06:36:00.000Z</time>
      </trkpt>
      <trkpt lat="49.13133" lon="1.45916">
        <ele>57.9052734375</ele>
        <time>2013-09-22T06:36:03.000Z</time>
      </trkpt>
      <trkpt lat="49.13134" lon="1.45929">
        <ele>58.169506072998</ele>
        <time>2013-09-22T06:36:06.000Z</time>
      </trkpt>
      <trkpt lat="49.13136" lon="1.45943">
        <ele>58.360237121582</ele>
        <time>2013-09-22T06:36:09.000Z</time>
      </trkpt>
      <trkpt lat="49.13139" lon="1.45954">
        <ele>58.511009216309</ele>
        <time>2013-09-22T06:36:11.000Z</time>
      </trkpt>
      <trkpt lat="49.1314" lon="1.45968">
        <ele>58.621543884277</ele>
        <time>2013-09-22T06:36:14.000Z</time>
      </trkpt>
      <trkpt lat="49.13141" lon="1.45975">
        <ele>58.638236999512</ele>
        <time>2013-09-22T06:36:16.000Z</time>
      </trkpt>
      <trkpt lat="49.13141" lon="1.45987">
        <ele>58.639636993408</ele>
        <time>2013-09-22T06:36:19.000Z</time>
      </trkpt>
      <trkpt lat="49.13142" lon="1.45994">
        <ele>58.626518249512</ele>
        <time>2013-09-22T06:36:21.000Z</time>
      </trkpt>
      <trkpt lat="49.13142" lon="1.46002">
        <ele>58.596534729004</ele>
        <time>2013-09-22T06:36:23.000Z</time>
      </trkpt>
      <trkpt lat="49.13142" lon="1.46019">
        <ele>58.513683319092</ele>
        <time>2013-09-22T06:36:26.000Z</time>
      </trkpt>
      <trkpt lat="49.13141" lon="1.4603">
        <ele>58.405128479004</ele>
        <time>2013-09-22T06:36:28.000Z</time>
      </trkpt>
      <trkpt lat="49.13142" lon="1.46041">
        <ele>58.2939453125</ele>
        <time>2013-09-22T06:36:30.000Z</time>
      </trkpt>
      <trkpt lat="49.1314" lon="1.46061">
        <ele>58.123107910156</ele>
        <time>2013-09-22T06:36:33.000Z</time>
      </trkpt>
      <trkpt lat="49.13137" lon="1.46073">
        <ele>57.89111328125</ele>
        <time>2013-09-22T06:36:36.000Z</time>
      </trkpt>
      <trkpt lat="49.13136" lon="1.46084">
        <ele>57.663494110107</ele>
        <time>2013-09-22T06:36:38.000Z</time>
      </trkpt>
      <trkpt lat="49.13134" lon="1.46092">
        <ele>57.473167419434</ele>
        <time>2013-09-22T06:36:40.000Z</time>
      </trkpt>
      <trkpt lat="49.13134" lon="1.46108">
        <ele>57.334297180176</ele>
        <time>2013-09-22T06:36:43.000Z</time>
      </trkpt>
      <trkpt lat="49.13133" lon="1.46117">
        <ele>57.267780303955</ele>
        <time>2013-09-22T06:36:45.000Z</time>
      </trkpt>
      <trkpt lat="49.13132" lon="1.46126">
        <ele>57.276306152344</ele>
        <time>2013-09-22T06:36:47.000Z</time>
      </trkpt>
      <trkpt lat="49.1313" lon="1.46137">
        <ele>57.336791992188</ele>
        <time>2013-09-22T06:36:50.000Z</time>
      </trkpt>
      <trkpt lat="49.13129" lon="1.46152">
        <ele>57.424194335938</ele>
        <time>2013-09-22T06:36:53.000Z</time>
      </trkpt>
      <trkpt lat="49.13129" lon="1.46162">
        <ele>57.503295898438</ele>
        <time>2013-09-22T06:36:55.000Z</time>
      </trkpt>
      <trkpt lat="49.13128" lon="1.46173">
        <ele>57.615119934082</ele>
        <time>2013-09-22T06:36:57.000Z</time>
      </trkpt>
      <trkpt lat="49.13128" lon="1.46195">
        <ele>57.860889434814</ele>
        <time>2013-09-22T06:37:00.000Z</time>
      </trkpt>
      <trkpt lat="49.13127" lon="1.46208">
        <ele>58.185523986816</ele>
        <time>2013-09-22T06:37:02.000Z</time>
      </trkpt>
      <trkpt lat="49.13125" lon="1.46228">
        <ele>58.609565734863</ele>
        <time>2013-09-22T06:37:05.000Z</time>
      </trkpt>
      <trkpt lat="49.13123" lon="1.46238">
        <ele>59.070137023926</ele>
        <time>2013-09-22T06:37:07.000Z</time>
      </trkpt>
      <trkpt lat="49.13123" lon="1.46249">
        <ele>59.557151794434</ele>
        <time>2013-09-22T06:37:09.000Z</time>
      </trkpt>
      <trkpt lat="49.13121" lon="1.46269">
        <ele>59.806499481201</ele>
        <time>2013-09-22T06:37:12.000Z</time>
      </trkpt>
      <trkpt lat="49.13121" lon="1.4628">
        <ele>59.911598205566</ele>
        <time>2013-09-22T06:37:14.000Z</time>
      </trkpt>
      <trkpt lat="49.13122" lon="1.46299">
        <ele>59.791851043701</ele>
        <time>2013-09-22T06:37:17.000Z</time>
      </trkpt>
      <trkpt lat="49.13122" lon="1.46311">
        <ele>59.551368713379</ele>
        <time>2013-09-22T06:37:19.000Z</time>
      </trkpt>
      <trkpt lat="49.13122" lon="1.46329">
        <ele>59.155506134033</ele>
        <time>2013-09-22T06:37:22.000Z</time>
      </trkpt>
      <trkpt lat="49.13122" lon="1.46339">
        <ele>58.837440490723</ele>
        <time>2013-09-22T06:37:24.000Z</time>
      </trkpt>
      <trkpt lat="49.13122" lon="1.46357">
        <ele>58.593883514404</ele>
        <time>2013-09-22T06:37:27.000Z</time>
      </trkpt>
      <trkpt lat="49.13123" lon="1.4637">
        <ele>58.473583221435</ele>
        <time>2013-09-22T06:37:29.000Z</time>
      </trkpt>
      <trkpt lat="49.13124" lon="1.46382">
        <ele>58.453601837158</ele>
        <time>2013-09-22T06:37:31.000Z</time>
      </trkpt>
      <trkpt lat="49.13125" lon="1.46393">
        <ele>58.557647705078</ele>
        <time>2013-09-22T06:37:33.000Z</time>
      </trkpt>
      <trkpt lat="49.13126" lon="1.46403">
        <ele>58.702049255371</ele>
        <time>2013-09-22T06:37:35.000Z</time>
      </trkpt>
      <trkpt lat="49.13125" lon="1.46413">
        <ele>58.83296585083</ele>
        <time>2013-09-22T06:37:38.000Z</time>
      </trkpt>
      <trkpt lat="49.13127" lon="1.46427">
        <ele>59.110034942627</ele>
        <time>2013-09-22T06:37:41.000Z</time>
      </trkpt>
      <trkpt lat="49.13128" lon="1.46435">
        <ele>59.491020202637</ele>
        <time>2013-09-22T06:37:43.000Z</time>
      </trkpt>
      <trkpt lat="49.13129" lon="1.46448">
        <ele>60.037750244141</ele>
        <time>2013-09-22T06:37:46.000Z</time>
      </trkpt>
      <trkpt lat="49.13127" lon="1.46456">
        <ele>60.647087097168</ele>
        <time>2013-09-22T06:37:48.000Z</time>
      </trkpt>
      <trkpt lat="49.13128" lon="1.46468">
        <ele>61.425060272217</ele>
        <time>2013-09-22T06:37:51.000Z</time>
      </trkpt>
      <trkpt lat="49.13128" lon="1.46486">
        <ele>62.287498474121</ele>
        <time>2013-09-22T06:37:54.000Z</time>
      </trkpt>
      <trkpt lat="49.13128" lon="1.46497">
        <ele>63.162956237793</ele>
        <time>2013-09-22T06:37:56.000Z</time>
      </trkpt>
      <trkpt lat="49.13127" lon="1.46512">
        <ele>63.943744659424</ele>
        <time>2013-09-22T06:37:59.000Z</time>
      </trkpt>
      <trkpt lat="49.13128" lon="1.46525">
        <ele>64.752883911133</ele>
        <time>2013-09-22T06:38:01.000Z</time>
      </trkpt>
      <trkpt lat="49.13129" lon="1.46543">
        <ele>65.558067321777</ele>
        <time>2013-09-22T06:38:04.000Z</time>
      </trkpt>
      <trkpt lat="49.1313" lon="1.46555">
        <ele>66.193832397461</ele>
        <time>2013-09-22T06:38:06.000Z</time>
      </trkpt>
      <trkpt lat="49.13131" lon="1.46569">
        <ele>66.808219909668</ele>
        <time>2013-09-22T06:38:09.000Z</time>
      </trkpt>
      <trkpt lat="49.13132" lon="1.46589">
        <ele>67.488334655762</ele>
        <time>2013-09-22T06:38:12.000Z</time>
      </trkpt>
      <trkpt lat="49.13133" lon="1.46601">
        <ele>68.156127929688</ele>
        <time>2013-09-22T06:38:14.000Z</time>
      </trkpt>
      <trkpt lat="49.13133" lon="1.46615">
        <ele>68.766830444336</ele>
        <time>2013-09-22T06:38:17.000Z</time>
      </trkpt>
      <trkpt lat="49.13132" lon="1.46628">
        <ele>69.363784790039</ele>
        <time>2013-09-22T06:38:20.000Z</time>
      </trkpt>
      <trkpt lat="49.13131" lon="1.46647">
        <ele>69.959892272949</ele>
        <time>2013-09-22T06:38:23.000Z</time>
      </trkpt>
      <trkpt lat="49.1313" lon="1.46662">
        <ele>70.456283569336</ele>
        <time>2013-09-22T06:38:26.000Z</time>
      </trkpt>
      <trkpt lat="49.13129" lon="1.46678">
        <ele>70.937065124512</ele>
        <time>2013-09-22T06:38:29.000Z</time>
      </trkpt>
      <trkpt lat="49.13128" lon="1.46689">
        <ele>71.347671508789</ele>
        <time>2013-09-22T06:38:31.000Z</time>
      </trkpt>
      <trkpt lat="49.13126" lon="1.46705">
        <ele>71.738037109375</ele>
        <time>2013-09-22T06:38:34.000Z</time>
      </trkpt>
      <trkpt lat="49.13125" lon="1.46717">
        <ele>72.040145874023</ele>
        <time>2013-09-22T06:38:36.000Z</time>
      </trkpt>
      <trkpt lat="49.13122" lon="1.46733">
        <ele>72.268043518066</ele>
        <time>2013-09-22T06:38:39.000Z</time>
      </trkpt>
      <trkpt lat="49.1312" lon="1.46752">
        <ele>72.421096801758</ele>
        <time>2013-09-22T06:38:42.000Z</time>
      </trkpt>
      <trkpt lat="49.13115" lon="1.46776">
        <ele>72.381202697754</ele>
        <time>2013-09-22T06:38:45.000Z</time>
      </trkpt>
      <trkpt lat="49.13111" lon="1.4679">
        <ele>72.170631408691</ele>
        <time>2013-09-22T06:38:47.000Z</time>
      </trkpt>
      <trkpt lat="49.13108" lon="1.46803">
        <ele>71.813827514648</ele>
        <time>2013-09-22T06:38:49.000Z</time>
      </trkpt>
      <trkpt lat="49.13103" lon="1.46818">
        <ele>71.3291015625</ele>
        <time>2013-09-22T06:38:52.000Z</time>
      </trkpt>
      <trkpt lat="49.131" lon="1.46839">
        <ele>70.742050170898</ele>
        <time>2013-09-22T06:38:55.000Z</time>
      </trkpt>
      <trkpt lat="49.131" lon="1.46859">
        <ele>70.297805786133</ele>
        <time>2013-09-22T06:38:58.000Z</time>
      </trkpt>
      <trkpt lat="49.13105" lon="1.46889">
        <ele>70.073287963867</ele>
        <time>2013-09-22T06:39:01.000Z</time>
      </trkpt>
      <trkpt lat="49.13109" lon="1.46916">
        <ele>70.05069732666</ele>
        <time>2013-09-22T06:39:06.000Z</time>
      </trkpt>
      <trkpt lat="49.13111" lon="1.46934">
        <ele>70.210838317871</ele>
        <time>2013-09-22T06:39:06.000Z</time>
      </trkpt>
      <trkpt lat="49.13115" lon="1.46954">
        <ele>70.515853881836</ele>
        <time>2013-09-22T06:39:09.000Z</time>
      </trkpt>
      <trkpt lat="49.13115" lon="1.46956">
        <ele>70.827575683594</ele>
        <time>2013-09-22T06:39:12.000Z</time>
      </trkpt>
      <trkpt lat="49.13115" lon="1.4696">
        <ele>71.036544799805</ele>
        <time>2013-09-22T06:39:14.000Z</time>
      </trkpt>
      <trkpt lat="49.13116" lon="1.46962">
        <ele>71.158180236816</ele>
        <time>2013-09-22T06:39:17.000Z</time>
      </trkpt>
      <trkpt lat="49.13118" lon="1.46967">
        <ele>71.269302368164</ele>
        <time>2013-09-22T06:39:20.000Z</time>
      </trkpt>
      <trkpt lat="49.13123" lon="1.46972">
        <ele>71.393989562988</ele>
        <time>2013-09-22T06:39:23.000Z</time>
      </trkpt>
      <trkpt lat="49.13124" lon="1.46974">
        <ele>71.537185668945</ele>
        <time>2013-09-22T06:39:26.000Z</time>
      </trkpt>
      <trkpt lat="49.13127" lon="1.46974">
        <ele>71.718276977539</ele>
        <time>2013-09-22T06:39:28.000Z</time>
      </trkpt>
      <trkpt lat="49.13133" lon="1.46983">
        <ele>71.945762634277</ele>
        <time>2013-09-22T06:39:31.000Z</time>
      </trkpt>
      <trkpt lat="49.13133" lon="1.46991">
        <ele>72.09154510498</ele>
        <time>2013-09-22T06:39:34.000Z</time>
      </trkpt>
      <trkpt lat="49.13134" lon="1.46996">
        <ele>72.150512695312</ele>
        <time>2013-09-22T06:39:37.000Z</time>
      </trkpt>
      <trkpt lat="49.13136" lon="1.47002">
        <ele>72.209609985352</ele>
        <time>2013-09-22T06:39:40.000Z</time>
      </trkpt>
      <trkpt lat="49.13139" lon="1.47008">
        <ele>72.26065826416</ele>
        <time>2013-09-22T06:39:42.000Z</time>
      </trkpt>
      <trkpt lat="49.13141" lon="1.47012">
        <ele>72.276695251465</ele>
        <time>2013-09-22T06:39:44.000Z</time>
      </trkpt>
      <trkpt lat="49.13144" lon="1.47018">
        <ele>72.346717834473</ele>
        <time>2013-09-22T06:39:46.000Z</time>
      </trkpt>
      <trkpt lat="49.13145" lon="1.47027">
        <ele>72.438095092773</ele>
        <time>2013-09-22T06:39:49.000Z</time>
      </trkpt>
      <trkpt lat="49.13151" lon="1.47035">
        <ele>72.516159057617</ele>
        <time>2013-09-22T06:39:52.000Z</time>
      </trkpt>
      <trkpt lat="49.13153" lon="1.4704">
        <ele>72.550399780273</ele>
        <time>2013-09-22T06:39:55.000Z</time>
      </trkpt>
      <trkpt lat="49.13157" lon="1.47047">
        <ele>72.529907226562</ele>
        <time>2013-09-22T06:39:58.000Z</time>
      </trkpt>
      <trkpt lat="49.1316" lon="1.47052">
        <ele>72.459442138672</ele>
        <time>2013-09-22T06:40:00.000Z</time>
      </trkpt>
      <trkpt lat="49.13167" lon="1.47064">
        <ele>72.30916595459</ele>
        <time>2013-09-22T06:40:03.000Z</time>
      </trkpt>
      <trkpt lat="49.1317" lon="1.47073">
        <ele>72.170547485352</ele>
        <time>2013-09-22T06:40:06.000Z</time>
      </trkpt>
      <trkpt lat="49.13172" lon="1.47084">
        <ele>72.054870605469</ele>
        <time>2013-09-22T06:40:09.000Z</time>
      </trkpt>
      <trkpt lat="49.13174" lon="1.4709">
        <ele>72.097198486328</ele>
        <time>2013-09-22T06:40:11.000Z</time>
      </trkpt>
      <trkpt lat="49.13179" lon="1.47103">
        <ele>72.432861328125</ele>
        <time>2013-09-22T06:40:14.000Z</time>
      </trkpt>
      <trkpt lat="49.13187" lon="1.47117">
        <ele>73.116104125977</ele>
        <time>2013-09-22T06:40:17.000Z</time>
      </trkpt>
      <trkpt lat="49.13194" lon="1.47132">
        <ele>73.98331451416</ele>
        <time>2013-09-22T06:40:20.000Z</time>
      </trkpt>
      <trkpt lat="49.13199" lon="1.47142">
        <ele>74.927864074707</ele>
        <time>2013-09-22T06:40:22.000Z</time>
      </trkpt>
      <trkpt lat="49.13203" lon="1.47151">
        <ele>75.798065185547</ele>
        <time>2013-09-22T06:40:24.000Z</time>
      </trkpt>
      <trkpt lat="49.13208" lon="1.47161">
        <ele>76.429336547852</ele>
        <time>2013-09-22T06:40:27.000Z</time>
      </trkpt>
      <trkpt lat="49.13215" lon="1.47178">
        <ele>76.94938659668</ele>
        <time>2013-09-22T06:40:30.000Z</time>
      </trkpt>
      <trkpt lat="49.13218" lon="1.47191">
        <ele>77.429565429688</ele>
        <time>2013-09-22T06:40:32.000Z</time>
      </trkpt>
      <trkpt lat="49.13223" lon="1.47213">
        <ele>78.029724121094</ele>
        <time>2013-09-22T06:40:35.000Z</time>
      </trkpt>
      <trkpt lat="49.13226" lon="1.47228">
        <ele>78.706336975098</ele>
        <time>2013-09-22T06:40:38.000Z</time>
      </trkpt>
      <trkpt lat="49.13224" lon="1.47237">
        <ele>79.475654602051</ele>
        <time>2013-09-22T06:40:40.000Z</time>
      </trkpt>
      <trkpt lat="49.13225" lon="1.47251">
        <ele>80.20930480957</ele>
        <time>2013-09-22T06:40:43.000Z</time>
      </trkpt>
      <trkpt lat="49.13229" lon="1.47261">
        <ele>80.819381713867</ele>
        <time>2013-09-22T06:40:45.000Z</time>
      </trkpt>
      <trkpt lat="49.13235" lon="1.47274">
        <ele>81.261894226074</ele>
        <time>2013-09-22T06:40:48.000Z</time>
      </trkpt>
      <trkpt lat="49.13239" lon="1.47288">
        <ele>81.647117614746</ele>
        <time>2013-09-22T06:40:52.000Z</time>
      </trkpt>
      <trkpt lat="49.13247" lon="1.47305">
        <ele>81.879318237305</ele>
        <time>2013-09-22T06:40:54.000Z</time>
      </trkpt>
      <trkpt lat="49.13252" lon="1.47319">
        <ele>82.100067138672</ele>
        <time>2013-09-22T06:40:56.000Z</time>
      </trkpt>
      <trkpt lat="49.13256" lon="1.47329">
        <ele>82.471054077148</ele>
        <time>2013-09-22T06:40:58.000Z</time>
      </trkpt>
      <trkpt lat="49.13263" lon="1.47343">
        <ele>83.117309570312</ele>
        <time>2013-09-22T06:41:01.000Z</time>
      </trkpt>
      <trkpt lat="49.13268" lon="1.47352">
        <ele>83.892219543457</ele>
        <time>2013-09-22T06:41:04.000Z</time>
      </trkpt>
      <trkpt lat="49.13271" lon="1.47359">
        <ele>84.839385986328</ele>
        <time>2013-09-22T06:41:06.000Z</time>
      </trkpt>
      <trkpt lat="49.13277" lon="1.47369">
        <ele>85.845809936523</ele>
        <time>2013-09-22T06:41:09.000Z</time>
      </trkpt>
      <trkpt lat="49.13281" lon="1.47377">
        <ele>86.780723571777</ele>
        <time>2013-09-22T06:41:11.000Z</time>
      </trkpt>
      <trkpt lat="49.13286" lon="1.47389">
        <ele>87.512901306152</ele>
        <time>2013-09-22T06:41:14.000Z</time>
      </trkpt>
      <trkpt lat="49.13292" lon="1.47399">
        <ele>88.100318908691</ele>
        <time>2013-09-22T06:41:17.000Z</time>
      </trkpt>
      <trkpt lat="49.13295" lon="1.47405">
        <ele>88.571128845215</ele>
        <time>2013-09-22T06:41:19.000Z</time>
      </trkpt>
      <trkpt lat="49.13299" lon="1.47413">
        <ele>88.883285522461</ele>
        <time>2013-09-22T06:41:22.000Z</time>
      </trkpt>
      <trkpt lat="49.13301" lon="1.47419">
        <ele>89.104019165039</ele>
        <time>2013-09-22T06:41:24.000Z</time>
      </trkpt>
      <trkpt lat="49.13304" lon="1.47427">
        <ele>89.268264770508</ele>
        <time>2013-09-22T06:41:26.000Z</time>
      </trkpt>
      <trkpt lat="49.13308" lon="1.47436">
        <ele>89.433120727539</ele>
        <time>2013-09-22T06:41:29.000Z</time>
      </trkpt>
      <trkpt lat="49.13311" lon="1.47443">
        <ele>89.596702575684</ele>
        <time>2013-09-22T06:41:31.000Z</time>
      </trkpt>
      <trkpt lat="49.13315" lon="1.47449">
        <ele>89.744300842285</ele>
        <time>2013-09-22T06:41:33.000Z</time>
      </trkpt>
      <trkpt lat="49.13318" lon="1.47456">
        <ele>89.853546142578</ele>
        <time>2013-09-22T06:41:35.000Z</time>
      </trkpt>
      <trkpt lat="49.13323" lon="1.47464">
        <ele>89.86067199707</ele>
        <time>2013-09-22T06:41:38.000Z</time>
      </trkpt>
      <trkpt lat="49.13327" lon="1.47473">
        <ele>89.759613037109</ele>
        <time>2013-09-22T06:41:41.000Z</time>
      </trkpt>
      <trkpt lat="49.13333" lon="1.47481">
        <ele>89.52995300293</ele>
        <time>2013-09-22T06:41:44.000Z</time>
      </trkpt>
      <trkpt lat="49.13336" lon="1.47485">
        <ele>89.365867614746</ele>
        <time>2013-09-22T06:41:46.000Z</time>
      </trkpt>
      <trkpt lat="49.13339" lon="1.47491">
        <ele>89.28239440918</ele>
        <time>2013-09-22T06:41:49.000Z</time>
      </trkpt>
      <trkpt lat="49.13343" lon="1.47495">
        <ele>89.328140258789</ele>
        <time>2013-09-22T06:41:51.000Z</time>
      </trkpt>
      <trkpt lat="49.1335" lon="1.475">
        <ele>89.525886535645</ele>
        <time>2013-09-22T06:41:53.000Z</time>
      </trkpt>
      <trkpt lat="49.13355" lon="1.47507">
        <ele>90.088592529297</ele>
        <time>2013-09-22T06:41:56.000Z</time>
      </trkpt>
      <trkpt lat="49.13364" lon="1.47513">
        <ele>90.814666748047</ele>
        <time>2013-09-22T06:41:59.000Z</time>
      </trkpt>
      <trkpt lat="49.13371" lon="1.47516">
        <ele>91.613754272461</ele>
        <time>2013-09-22T06:42:02.000Z</time>
      </trkpt>
      <trkpt lat="49.13375" lon="1.47522">
        <ele>92.459770202637</ele>
        <time>2013-09-22T06:42:05.000Z</time>
      </trkpt>
      <trkpt lat="49.13379" lon="1.47527">
        <ele>93.294311523438</ele>
        <time>2013-09-22T06:42:07.000Z</time>
      </trkpt>
      <trkpt lat="49.13382" lon="1.47533">
        <ele>93.970733642578</ele>
        <time>2013-09-22T06:42:10.000Z</time>
      </trkpt>
      <trkpt lat="49.13384" lon="1.47538">
        <ele>94.476455688477</ele>
        <time>2013-09-22T06:42:12.000Z</time>
      </trkpt>
      <trkpt lat="49.13387" lon="1.47548">
        <ele>94.950973510742</ele>
        <time>2013-09-22T06:42:15.000Z</time>
      </trkpt>
      <trkpt lat="49.13391" lon="1.47559">
        <ele>95.367874145508</ele>
        <time>2013-09-22T06:42:18.000Z</time>
      </trkpt>
      <trkpt lat="49.13395" lon="1.4757">
        <ele>95.734390258789</ele>
        <time>2013-09-22T06:42:21.000Z</time>
      </trkpt>
      <trkpt lat="49.13398" lon="1.47576">
        <ele>96.007362365723</ele>
        <time>2013-09-22T06:42:27.000Z</time>
      </trkpt>
      <trkpt lat="49.134" lon="1.47584">
        <ele>96.241317749023</ele>
        <time>2013-09-22T06:42:28.000Z</time>
      </trkpt>
      <trkpt lat="49.13402" lon="1.47595">
        <ele>96.512435913086</ele>
        <time>2013-09-22T06:42:29.000Z</time>
      </trkpt>
      <trkpt lat="49.13403" lon="1.47602">
        <ele>96.797340393066</ele>
        <time>2013-09-22T06:42:30.000Z</time>
      </trkpt>
      <trkpt lat="49.13409" lon="1.4761">
        <ele>97.028900146484</ele>
        <time>2013-09-22T06:42:33.000Z</time>
      </trkpt>
      <trkpt lat="49.13414" lon="1.47619">
        <ele>97.259002685547</ele>
        <time>2013-09-22T06:42:36.000Z</time>
      </trkpt>
      <trkpt lat="49.13418" lon="1.47628">
        <ele>97.538497924805</ele>
        <time>2013-09-22T06:42:40.000Z</time>
      </trkpt>
      <trkpt lat="49.13421" lon="1.47638">
        <ele>97.855964660645</ele>
        <time>2013-09-22T06:42:42.000Z</time>
      </trkpt>
      <trkpt lat="49.13424" lon="1.47644">
        <ele>98.214027404785</ele>
        <time>2013-09-22T06:42:44.000Z</time>
      </trkpt>
      <trkpt lat="49.13427" lon="1.47655">
        <ele>98.751510620117</ele>
        <time>2013-09-22T06:42:47.000Z</time>
      </trkpt>
      <trkpt lat="49.13431" lon="1.47664">
        <ele>99.433280944824</ele>
        <time>2013-09-22T06:42:50.000Z</time>
      </trkpt>
      <trkpt lat="49.13433" lon="1.47675">
        <ele>100.18030548096</ele>
        <time>2013-09-22T06:42:53.000Z</time>
      </trkpt>
      <trkpt lat="49.13436" lon="1.47684">
        <ele>100.83760070801</ele>
        <time>2013-09-22T06:42:55.000Z</time>
      </trkpt>
      <trkpt lat="49.13438" lon="1.47695">
        <ele>101.46873474121</ele>
        <time>2013-09-22T06:42:58.000Z</time>
      </trkpt>
      <trkpt lat="49.13441" lon="1.47702">
        <ele>101.98960876465</ele>
        <time>2013-09-22T06:43:00.000Z</time>
      </trkpt>
      <trkpt lat="49.13445" lon="1.47713">
        <ele>102.42138671875</ele>
        <time>2013-09-22T06:43:03.000Z</time>
      </trkpt>
      <trkpt lat="49.13446" lon="1.4772">
        <ele>102.75508880615</ele>
        <time>2013-09-22T06:43:05.000Z</time>
      </trkpt>
      <trkpt lat="49.1345" lon="1.47732">
        <ele>103.016746521</ele>
        <time>2013-09-22T06:43:08.000Z</time>
      </trkpt>
      <trkpt lat="49.13455" lon="1.47741">
        <ele>103.13917541504</ele>
        <time>2013-09-22T06:43:11.000Z</time>
      </trkpt>
      <trkpt lat="49.13459" lon="1.4775">
        <ele>103.16661071777</ele>
        <time>2013-09-22T06:43:14.000Z</time>
      </trkpt>
      <trkpt lat="49.13462" lon="1.47757">
        <ele>103.13861083984</ele>
        <time>2013-09-22T06:43:16.000Z</time>
      </trkpt>
      <trkpt lat="49.13465" lon="1.47766">
        <ele>103.08044433594</ele>
        <time>2013-09-22T06:43:19.000Z</time>
      </trkpt>
      <trkpt lat="49.13469" lon="1.47775">
        <ele>102.98823547363</ele>
        <time>2013-09-22T06:43:22.000Z</time>
      </trkpt>
      <trkpt lat="49.13472" lon="1.47781">
        <ele>102.91621398926</ele>
        <time>2013-09-22T06:43:24.000Z</time>
      </trkpt>
      <trkpt lat="49.13474" lon="1.47789">
        <ele>102.86838531494</ele>
        <time>2013-09-22T06:43:27.000Z</time>
      </trkpt>
      <trkpt lat="49.13478" lon="1.47796">
        <ele>102.75634765625</ele>
        <time>2013-09-22T06:43:30.000Z</time>
      </trkpt>
      <trkpt lat="49.13481" lon="1.47803">
        <ele>102.62058258057</ele>
        <time>2013-09-22T06:43:36.000Z</time>
      </trkpt>
      <trkpt lat="49.13482" lon="1.47807">
        <ele>102.48136138916</ele>
        <time>2013-09-22T06:43:36.000Z</time>
      </trkpt>
      <trkpt lat="49.13485" lon="1.47814">
        <ele>102.31112670898</ele>
        <time>2013-09-22T06:43:38.000Z</time>
      </trkpt>
      <trkpt lat="49.13487" lon="1.47818">
        <ele>102.10300445557</ele>
        <time>2013-09-22T06:43:40.000Z</time>
      </trkpt>
      <trkpt lat="49.1349" lon="1.47821">
        <ele>101.90166473389</ele>
        <time>2013-09-22T06:43:42.000Z</time>
      </trkpt>
      <trkpt lat="49.13493" lon="1.47825">
        <ele>101.62983703613</ele>
        <time>2013-09-22T06:43:45.000Z</time>
      </trkpt>
      <trkpt lat="49.13498" lon="1.4783">
        <ele>101.25531005859</ele>
        <time>2013-09-22T06:43:48.000Z</time>
      </trkpt>
      <trkpt lat="49.13502" lon="1.47835">
        <ele>100.92166900635</ele>
        <time>2013-09-22T06:43:51.000Z</time>
      </trkpt>
      <trkpt lat="49.13504" lon="1.47838">
        <ele>100.71705627441</ele>
        <time>2013-09-22T06:43:53.000Z</time>
      </trkpt>
      <trkpt lat="49.13506" lon="1.47841">
        <ele>100.64686584473</ele>
        <time>2013-09-22T06:43:55.000Z</time>
      </trkpt>
      <trkpt lat="49.13508" lon="1.47845">
        <ele>100.74531555176</ele>
        <time>2013-09-22T06:43:57.000Z</time>
      </trkpt>
      <trkpt lat="49.1351" lon="1.47848">
        <ele>101.03939056397</ele>
        <time>2013-09-22T06:44:00.000Z</time>
      </trkpt>
      <trkpt lat="49.13512" lon="1.47849">
        <ele>101.40327453613</ele>
        <time>2013-09-22T06:44:02.000Z</time>
      </trkpt>
      <trkpt lat="49.13515" lon="1.4785">
        <ele>101.7638092041</ele>
        <time>2013-09-22T06:44:04.000Z</time>
      </trkpt>
      <trkpt lat="49.13517" lon="1.47852">
        <ele>102.10197448731</ele>
        <time>2013-09-22T06:44:07.000Z</time>
      </trkpt>
      <trkpt lat="49.1352" lon="1.47855">
        <ele>102.43929290772</ele>
        <time>2013-09-22T06:44:09.000Z</time>
      </trkpt>
      <trkpt lat="49.13521" lon="1.47856">
        <ele>102.73583984375</ele>
        <time>2013-09-22T06:44:12.000Z</time>
      </trkpt>
      <trkpt lat="49.13526" lon="1.47858">
        <ele>103.0927734375</ele>
        <time>2013-09-22T06:44:15.000Z</time>
      </trkpt>
      <trkpt lat="49.13529" lon="1.4786">
        <ele>103.45925140381</ele>
        <time>2013-09-22T06:44:17.000Z</time>
      </trkpt>
      <trkpt lat="49.13534" lon="1.47865">
        <ele>103.91872406006</ele>
        <time>2013-09-22T06:44:20.000Z</time>
      </trkpt>
      <trkpt lat="49.13538" lon="1.47869">
        <ele>104.41345214844</ele>
        <time>2013-09-22T06:44:23.000Z</time>
      </trkpt>
      <trkpt lat="49.13542" lon="1.47874">
        <ele>104.99568176269</ele>
        <time>2013-09-22T06:44:26.000Z</time>
      </trkpt>
      <trkpt lat="49.13546" lon="1.47875">
        <ele>105.54392242432</ele>
        <time>2013-09-22T06:44:28.000Z</time>
      </trkpt>
      <trkpt lat="49.13548" lon="1.47876">
        <ele>106.06329345703</ele>
        <time>2013-09-22T06:44:30.000Z</time>
      </trkpt>
      <trkpt lat="49.1355" lon="1.47877">
        <ele>106.48229980469</ele>
        <time>2013-09-22T06:44:33.000Z</time>
      </trkpt>
      <trkpt lat="49.13552" lon="1.47877">
        <ele>106.83927154541</ele>
        <time>2013-09-22T06:44:35.000Z</time>
      </trkpt>
      <trkpt lat="49.13555" lon="1.47879">
        <ele>107.13017272949</ele>
        <time>2013-09-22T06:44:37.000Z</time>
      </trkpt>
      <trkpt lat="49.13558" lon="1.47881">
        <ele>107.40969085693</ele>
        <time>2013-09-22T06:44:40.000Z</time>
      </trkpt>
      <trkpt lat="49.13562" lon="1.47882">
        <ele>107.71907806397</ele>
        <time>2013-09-22T06:44:43.000Z</time>
      </trkpt>
      <trkpt lat="49.13565" lon="1.47882">
        <ele>108.04106140137</ele>
        <time>2013-09-22T06:44:45.000Z</time>
      </trkpt>
      <trkpt lat="49.13567" lon="1.47882">
        <ele>108.34749603272</ele>
        <time>2013-09-22T06:44:47.000Z</time>
      </trkpt>
      <trkpt lat="49.13572" lon="1.47883">
        <ele>108.68434906006</ele>
        <time>2013-09-22T06:44:49.000Z</time>
      </trkpt>
      <trkpt lat="49.13578" lon="1.47886">
        <ele>109.08479309082</ele>
        <time>2013-09-22T06:44:52.000Z</time>
      </trkpt>
      <trkpt lat="49.13583" lon="1.47886">
        <ele>109.50313568115</ele>
        <time>2013-09-22T06:44:54.000Z</time>
      </trkpt>
      <trkpt lat="49.13591" lon="1.47889">
        <ele>109.96638488769</ele>
        <time>2013-09-22T06:44:57.000Z</time>
      </trkpt>
      <trkpt lat="49.13598" lon="1.47892">
        <ele>110.50601959228</ele>
        <time>2013-09-22T06:45:00.000Z</time>
      </trkpt>
      <trkpt lat="49.13602" lon="1.47893">
        <ele>111.01849365234</ele>
        <time>2013-09-22T06:45:03.000Z</time>
      </trkpt>
      <trkpt lat="49.13605" lon="1.47894">
        <ele>111.41914367676</ele>
        <time>2013-09-22T06:45:06.000Z</time>
      </trkpt>
      <trkpt lat="49.1361" lon="1.47894">
        <ele>111.77879333496</ele>
        <time>2013-09-22T06:45:09.000Z</time>
      </trkpt>
      <trkpt lat="49.1362" lon="1.47895">
        <ele>112.13748931885</ele>
        <time>2013-09-22T06:45:12.000Z</time>
      </trkpt>
      <trkpt lat="49.13622" lon="1.47896">
        <ele>112.41841888428</ele>
        <time>2013-09-22T06:45:14.000Z</time>
      </trkpt>
      <trkpt lat="49.13628" lon="1.47898">
        <ele>112.70302581787</ele>
        <time>2013-09-22T06:45:17.000Z</time>
      </trkpt>
      <trkpt lat="49.13635" lon="1.47897">
        <ele>113.02514648438</ele>
        <time>2013-09-22T06:45:19.000Z</time>
      </trkpt>
      <trkpt lat="49.13641" lon="1.47899">
        <ele>113.34635162353</ele>
        <time>2013-09-22T06:45:22.000Z</time>
      </trkpt>
      <trkpt lat="49.13646" lon="1.47901">
        <ele>113.61793518066</ele>
        <time>2013-09-22T06:45:25.000Z</time>
      </trkpt>
      <trkpt lat="49.13649" lon="1.47905">
        <ele>113.89406585693</ele>
        <time>2013-09-22T06:45:27.000Z</time>
      </trkpt>
      <trkpt lat="49.13652" lon="1.47909">
        <ele>114.13149261475</ele>
        <time>2013-09-22T06:45:29.000Z</time>
      </trkpt>
      <trkpt lat="49.13656" lon="1.47916">
        <ele>114.32930755615</ele>
        <time>2013-09-22T06:45:32.000Z</time>
      </trkpt>
      <trkpt lat="49.13663" lon="1.47923">
        <ele>114.70292663574</ele>
        <time>2013-09-22T06:45:35.000Z</time>
      </trkpt>
      <trkpt lat="49.13669" lon="1.47928">
        <ele>115.23829650879</ele>
        <time>2013-09-22T06:45:38.000Z</time>
      </trkpt>
      <trkpt lat="49.13675" lon="1.47932">
        <ele>115.87766265869</ele>
        <time>2013-09-22T06:45:41.000Z</time>
      </trkpt>
      <trkpt lat="49.13681" lon="1.47937">
        <ele>116.64221191406</ele>
        <time>2013-09-22T06:45:44.000Z</time>
      </trkpt>
      <trkpt lat="49.13687" lon="1.47942">
        <ele>117.51894378662</ele>
        <time>2013-09-22T06:45:47.000Z</time>
      </trkpt>
      <trkpt lat="49.13692" lon="1.47947">
        <ele>118.27866363525</ele>
        <time>2013-09-22T06:45:49.000Z</time>
      </trkpt>
      <trkpt lat="49.13699" lon="1.47953">
        <ele>118.94260406494</ele>
        <time>2013-09-22T06:45:52.000Z</time>
      </trkpt>
      <trkpt lat="49.13705" lon="1.47961">
        <ele>119.58666992188</ele>
        <time>2013-09-22T06:45:55.000Z</time>
      </trkpt>
      <trkpt lat="49.1371" lon="1.4797">
        <ele>120.20745849609</ele>
        <time>2013-09-22T06:45:58.000Z</time>
      </trkpt>
      <trkpt lat="49.13711" lon="1.47978">
        <ele>120.79638671875</ele>
        <time>2013-09-22T06:46:00.000Z</time>
      </trkpt>
      <trkpt lat="49.13714" lon="1.47985">
        <ele>121.34703063965</ele>
        <time>2013-09-22T06:46:03.000Z</time>
      </trkpt>
      <trkpt lat="49.13721" lon="1.47995">
        <ele>121.79689788818</ele>
        <time>2013-09-22T06:46:06.000Z</time>
      </trkpt>
      <trkpt lat="49.13725" lon="1.48002">
        <ele>122.17391204834</ele>
        <time>2013-09-22T06:46:08.000Z</time>
      </trkpt>
      <trkpt lat="49.13728" lon="1.48009">
        <ele>122.47408294678</ele>
        <time>2013-09-22T06:46:10.000Z</time>
      </trkpt>
      <trkpt lat="49.13735" lon="1.48018">
        <ele>122.70919036865</ele>
        <time>2013-09-22T06:46:13.000Z</time>
      </trkpt>
      <trkpt lat="49.13737" lon="1.48024">
        <ele>122.95048522949</ele>
        <time>2013-09-22T06:46:15.000Z</time>
      </trkpt>
      <trkpt lat="49.13739" lon="1.48028">
        <ele>123.20239257812</ele>
        <time>2013-09-22T06:46:18.000Z</time>
      </trkpt>
      <trkpt lat="49.13741" lon="1.48035">
        <ele>123.5126953125</ele>
        <time>2013-09-22T06:46:20.000Z</time>
      </trkpt>
      <trkpt lat="49.13742" lon="1.48042">
        <ele>123.888671875</ele>
        <time>2013-09-22T06:46:24.000Z</time>
      </trkpt>
      <trkpt lat="49.13747" lon="1.4805">
        <ele>124.28393554688</ele>
        <time>2013-09-22T06:46:25.000Z</time>
      </trkpt>
      <trkpt lat="49.13752" lon="1.48059">
        <ele>124.68507385254</ele>
        <time>2013-09-22T06:46:28.000Z</time>
      </trkpt>
      <trkpt lat="49.13755" lon="1.48071">
        <ele>125.25730133057</ele>
        <time>2013-09-22T06:46:31.000Z</time>
      </trkpt>
      <trkpt lat="49.13761" lon="1.48079">
        <ele>125.80537414551</ele>
        <time>2013-09-22T06:46:33.000Z</time>
      </trkpt>
      <trkpt lat="49.13764" lon="1.48085">
        <ele>126.29606628418</ele>
        <time>2013-09-22T06:46:35.000Z</time>
      </trkpt>
      <trkpt lat="49.13769" lon="1.48092">
        <ele>126.79699707031</ele>
        <time>2013-09-22T06:46:38.000Z</time>
      </trkpt>
      <trkpt lat="49.13771" lon="1.48096">
        <ele>127.26332092285</ele>
        <time>2013-09-22T06:46:40.000Z</time>
      </trkpt>
      <trkpt lat="49.13771" lon="1.48101">
        <ele>127.60832214356</ele>
        <time>2013-09-22T06:46:43.000Z</time>
      </trkpt>
      <trkpt lat="49.13775" lon="1.48108">
        <ele>127.95239257812</ele>
        <time>2013-09-22T06:46:45.000Z</time>
      </trkpt>
      <trkpt lat="49.13777" lon="1.48115">
        <ele>128.32540893555</ele>
        <time>2013-09-22T06:46:48.000Z</time>
      </trkpt>
      <trkpt lat="49.13778" lon="1.48117">
        <ele>128.6559753418</ele>
        <time>2013-09-22T06:46:50.000Z</time>
      </trkpt>
      <trkpt lat="49.1378" lon="1.48124">
        <ele>129.0224609375</ele>
        <time>2013-09-22T06:46:52.000Z</time>
      </trkpt>
      <trkpt lat="49.1378" lon="1.48129">
        <ele>129.40644836426</ele>
        <time>2013-09-22T06:46:55.000Z</time>
      </trkpt>
      <trkpt lat="49.13784" lon="1.48137">
        <ele>129.77896118164</ele>
        <time>2013-09-22T06:46:58.000Z</time>
      </trkpt>
      <trkpt lat="49.13786" lon="1.4814">
        <ele>130.09761047363</ele>
        <time>2013-09-22T06:47:01.000Z</time>
      </trkpt>
      <trkpt lat="49.13791" lon="1.48143">
        <ele>130.36471557617</ele>
        <time>2013-09-22T06:47:10.000Z</time>
      </trkpt>
      <trkpt lat="49.13794" lon="1.48143">
        <ele>130.4850769043</ele>
        <time>2013-09-22T06:47:13.000Z</time>
      </trkpt>
      <trkpt lat="49.13792" lon="1.48143">
        <ele>130.53813171387</ele>
        <time>2013-09-22T06:47:19.000Z</time>
      </trkpt>
      <trkpt lat="49.13796" lon="1.48148">
        <ele>130.54092407227</ele>
        <time>2013-09-22T06:47:27.000Z</time>
      </trkpt>
      <trkpt lat="49.13798" lon="1.48152">
        <ele>130.5481262207</ele>
        <time>2013-09-22T06:47:30.000Z</time>
      </trkpt>
      <trkpt lat="49.138" lon="1.48153">
        <ele>130.56413269043</ele>
        <time>2013-09-22T06:47:32.000Z</time>
      </trkpt>
      <trkpt lat="49.13805" lon="1.48155">
        <ele>130.60043334961</ele>
        <time>2013-09-22T06:47:35.000Z</time>
      </trkpt>
      <trkpt lat="49.13809" lon="1.48159">
        <ele>130.58538818359</ele>
        <time>2013-09-22T06:47:37.000Z</time>
      </trkpt>
      <trkpt lat="49.13813" lon="1.48163">
        <ele>130.55136108398</ele>
        <time>2013-09-22T06:47:40.000Z</time>
      </trkpt>
      <trkpt lat="49.13815" lon="1.48165">
        <ele>130.4748840332</ele>
        <time>2013-09-22T06:47:42.000Z</time>
      </trkpt>
      <trkpt lat="49.13823" lon="1.4817">
        <ele>130.36674499512</ele>
        <time>2013-09-22T06:47:45.000Z</time>
      </trkpt>
      <trkpt lat="49.13828" lon="1.48172">
        <ele>130.24914550781</ele>
        <time>2013-09-22T06:47:49.000Z</time>
      </trkpt>
      <trkpt lat="49.13831" lon="1.48172">
        <ele>130.09487915039</ele>
        <time>2013-09-22T06:47:52.000Z</time>
      </trkpt>
      <trkpt lat="49.13836" lon="1.48174">
        <ele>129.93229675293</ele>
        <time>2013-09-22T06:47:55.000Z</time>
      </trkpt>
      <trkpt lat="49.13837" lon="1.48176">
        <ele>129.81767272949</ele>
        <time>2013-09-22T06:47:58.000Z</time>
      </trkpt>
      <trkpt lat="49.13839" lon="1.48177">
        <ele>129.76211547852</ele>
        <time>2013-09-22T06:48:00.000Z</time>
      </trkpt>
      <trkpt lat="49.1384" lon="1.48178">
        <ele>129.76858520508</ele>
        <time>2013-09-22T06:48:04.000Z</time>
      </trkpt>
      <trkpt lat="49.1384" lon="1.48176">
        <ele>129.80876159668</ele>
        <time>2013-09-22T06:48:06.000Z</time>
      </trkpt>
      <trkpt lat="49.13846" lon="1.48173">
        <ele>129.80061340332</ele>
        <time>2013-09-22T06:48:09.000Z</time>
      </trkpt>
      <trkpt lat="49.13847" lon="1.48172">
        <ele>129.72854614258</ele>
        <time>2013-09-22T06:48:12.000Z</time>
      </trkpt>
      <trkpt lat="49.1385" lon="1.48166">
        <ele>129.54995727539</ele>
        <time>2013-09-22T06:48:14.000Z</time>
      </trkpt>
      <trkpt lat="49.13856" lon="1.48166">
        <ele>129.34407043457</ele>
        <time>2013-09-22T06:48:17.000Z</time>
      </trkpt>
      <trkpt lat="49.13856" lon="1.48165">
        <ele>129.14541625977</ele>
        <time>2013-09-22T06:48:20.000Z</time>
      </trkpt>
      <trkpt lat="49.13857" lon="1.48166">
        <ele>129.03016662598</ele>
        <time>2013-09-22T06:48:24.000Z</time>
      </trkpt>
      <trkpt lat="49.13861" lon="1.48178">
        <ele>129.1438293457</ele>
        <time>2013-09-22T06:48:27.000Z</time>
      </trkpt>
      <trkpt lat="49.13863" lon="1.4818">
        <ele>129.38989257812</ele>
        <time>2013-09-22T06:48:35.000Z</time>
      </trkpt>
      <trkpt lat="49.13862" lon="1.48184">
        <ele>129.71310424805</ele>
        <time>2013-09-22T06:48:38.000Z</time>
      </trkpt>
      <trkpt lat="49.13861" lon="1.48189">
        <ele>130.1404876709</ele>
        <time>2013-09-22T06:48:40.000Z</time>
      </trkpt>
      <trkpt lat="49.13862" lon="1.48192">
        <ele>130.59655761719</ele>
        <time>2013-09-22T06:48:42.000Z</time>
      </trkpt>
      <trkpt lat="49.13861" lon="1.48197">
        <ele>130.92781066894</ele>
        <time>2013-09-22T06:48:45.000Z</time>
      </trkpt>
      <trkpt lat="49.13863" lon="1.48201">
        <ele>131.29338073731</ele>
        <time>2013-09-22T06:48:48.000Z</time>
      </trkpt>
      <trkpt lat="49.13863" lon="1.48205">
        <ele>131.65303039551</ele>
        <time>2013-09-22T06:48:50.000Z</time>
      </trkpt>
      <trkpt lat="49.13864" lon="1.48206">
        <ele>131.9606628418</ele>
        <time>2013-09-22T06:48:52.000Z</time>
      </trkpt>
      <trkpt lat="49.13864" lon="1.48208">
        <ele>132.24499511719</ele>
        <time>2013-09-22T06:48:55.000Z</time>
      </trkpt>
      <trkpt lat="49.13865" lon="1.4821">
        <ele>132.47595214844</ele>
        <time>2013-09-22T06:48:58.000Z</time>
      </trkpt>
      <trkpt lat="49.13867" lon="1.48211">
        <ele>132.65960693359</ele>
        <time>2013-09-22T06:49:01.000Z</time>
      </trkpt>
      <trkpt lat="49.13869" lon="1.48215">
        <ele>132.85154724121</ele>
        <time>2013-09-22T06:49:04.000Z</time>
      </trkpt>
      <trkpt lat="49.13871" lon="1.48218">
        <ele>133.07197570801</ele>
        <time>2013-09-22T06:49:07.000Z</time>
      </trkpt>
      <trkpt lat="49.13875" lon="1.48222">
        <ele>133.32493591309</ele>
        <time>2013-09-22T06:49:10.000Z</time>
      </trkpt>
      <trkpt lat="49.13876" lon="1.48224">
        <ele>133.59103393555</ele>
        <time>2013-09-22T06:49:13.000Z</time>
      </trkpt>
      <trkpt lat="49.13877" lon="1.48225">
        <ele>133.85447692871</ele>
        <time>2013-09-22T06:49:16.000Z</time>
      </trkpt>
      <trkpt lat="49.13881" lon="1.48229">
        <ele>134.11840820312</ele>
        <time>2013-09-22T06:49:18.000Z</time>
      </trkpt>
      <trkpt lat="49.13885" lon="1.48232">
        <ele>134.39172363281</ele>
        <time>2013-09-22T06:49:21.000Z</time>
      </trkpt>
      <trkpt lat="49.13886" lon="1.48234">
        <ele>134.63101196289</ele>
        <time>2013-09-22T06:49:24.000Z</time>
      </trkpt>
      <trkpt lat="49.13888" lon="1.48236">
        <ele>134.88482666016</ele>
        <time>2013-09-22T06:49:27.000Z</time>
      </trkpt>
      <trkpt lat="49.13889" lon="1.48238">
        <ele>135.13729858398</ele>
        <time>2013-09-22T06:49:29.000Z</time>
      </trkpt>
      <trkpt lat="49.13894" lon="1.48249">
        <ele>135.54139709473</ele>
        <time>2013-09-22T06:49:32.000Z</time>
      </trkpt>
      <trkpt lat="49.13899" lon="1.48255">
        <ele>135.96228027344</ele>
        <time>2013-09-22T06:49:35.000Z</time>
      </trkpt>
      <trkpt lat="49.13903" lon="1.48258">
        <ele>136.39633178711</ele>
        <time>2013-09-22T06:49:37.000Z</time>
      </trkpt>
      <trkpt lat="49.13905" lon="1.4826">
        <ele>136.80838012695</ele>
        <time>2013-09-22T06:49:39.000Z</time>
      </trkpt>
      <trkpt lat="49.13909" lon="1.48267">
        <ele>137.27963256836</ele>
        <time>2013-09-22T06:49:42.000Z</time>
      </trkpt>
      <trkpt lat="49.13911" lon="1.48271">
        <ele>137.58750915527</ele>
        <time>2013-09-22T06:49:44.000Z</time>
      </trkpt>
      <trkpt lat="49.13915" lon="1.48276">
        <ele>137.87214660644</ele>
        <time>2013-09-22T06:49:47.000Z</time>
      </trkpt>
      <trkpt lat="49.13919" lon="1.48281">
        <ele>138.18408203125</ele>
        <time>2013-09-22T06:49:50.000Z</time>
      </trkpt>
      <trkpt lat="49.13922" lon="1.48285">
        <ele>138.5153503418</ele>
        <time>2013-09-22T06:49:52.000Z</time>
      </trkpt>
      <trkpt lat="49.13925" lon="1.4829">
        <ele>138.8219909668</ele>
        <time>2013-09-22T06:49:54.000Z</time>
      </trkpt>
      <trkpt lat="49.13931" lon="1.48297">
        <ele>139.13296508789</ele>
        <time>2013-09-22T06:49:57.000Z</time>
      </trkpt>
      <trkpt lat="49.13934" lon="1.48301">
        <ele>139.41421508789</ele>
        <time>2013-09-22T06:49:59.000Z</time>
      </trkpt>
      <trkpt lat="49.1394" lon="1.48308">
        <ele>139.6692199707</ele>
        <time>2013-09-22T06:50:02.000Z</time>
      </trkpt>
      <trkpt lat="49.13945" lon="1.48312">
        <ele>139.89001464844</ele>
        <time>2013-09-22T06:50:04.000Z</time>
      </trkpt>
      <trkpt lat="49.1395" lon="1.48317">
        <ele>140.06433105469</ele>
        <time>2013-09-22T06:50:07.000Z</time>
      </trkpt>
      <trkpt lat="49.13955" lon="1.4832">
        <ele>140.16918945312</ele>
        <time>2013-09-22T06:50:10.000Z</time>
      </trkpt>
      <trkpt lat="49.13956" lon="1.48322">
        <ele>140.24235534668</ele>
        <time>2013-09-22T06:50:12.000Z</time>
      </trkpt>
      <trkpt lat="49.13959" lon="1.48324">
        <ele>140.26702880859</ele>
        <time>2013-09-22T06:50:15.000Z</time>
      </trkpt>
      <trkpt lat="49.13964" lon="1.48319">
        <ele>140.22291564941</ele>
        <time>2013-09-22T06:50:18.000Z</time>
      </trkpt>
      <trkpt lat="49.13968" lon="1.48314">
        <ele>140.13484191894</ele>
        <time>2013-09-22T06:50:23.000Z</time>
      </trkpt>
      <trkpt lat="49.13967" lon="1.48313">
        <ele>140.05467224121</ele>
        <time>2013-09-22T06:50:37.000Z</time>
      </trkpt>
      <trkpt lat="49.13967" lon="1.48311">
        <ele>139.96115112305</ele>
        <time>2013-09-22T06:50:41.000Z</time>
      </trkpt>
      <trkpt lat="49.13968" lon="1.48306">
        <ele>139.85530090332</ele>
        <time>2013-09-22T06:50:47.000Z</time>
      </trkpt>
      <trkpt lat="49.13974" lon="1.48306">
        <ele>139.78121948242</ele>
        <time>2013-09-22T06:51:00.000Z</time>
      </trkpt>
      <trkpt lat="49.13976" lon="1.48305">
        <ele>139.73474121094</ele>
        <time>2013-09-22T06:51:03.000Z</time>
      </trkpt>
      <trkpt lat="49.13976" lon="1.48305">
        <ele>139.73474121094</ele>
        <time>2013-09-22T06:51:23.000Z</time>
      </trkpt>
      <trkpt lat="49.13972" lon="1.4831">
        <ele>139.70590209961</ele>
        <time>2013-09-22T06:51:25.000Z</time>
      </trkpt>
      <trkpt lat="49.13972" lon="1.48306">
        <ele>139.67794799805</ele>
        <time>2013-09-22T06:51:40.000Z</time>
      </trkpt>
      <trkpt lat="49.13971" lon="1.48304">
        <ele>139.66439819336</ele>
        <time>2013-09-22T06:51:48.000Z</time>
      </trkpt>
      <trkpt lat="49.1397" lon="1.48304">
        <ele>139.67146301269</ele>
        <time>2013-09-22T06:51:51.000Z</time>
      </trkpt>
      <trkpt lat="49.1397" lon="1.48303">
        <ele>139.67935180664</ele>
        <time>2013-09-22T06:51:56.000Z</time>
      </trkpt>
      <trkpt lat="49.1397" lon="1.48303">
        <ele>139.67935180664</ele>
        <time>2013-09-22T06:52:16.000Z</time>
      </trkpt>
      <trkpt lat="49.1397" lon="1.48305">
        <ele>139.67269897461</ele>
        <time>2013-09-22T06:52:18.000Z</time>
      </trkpt>
      <trkpt lat="49.1397" lon="1.48305">
        <ele>139.67269897461</ele>
        <time>2013-09-22T06:52:38.000Z</time>
      </trkpt>
      <trkpt lat="49.13974" lon="1.48299">
        <ele>139.65327453613</ele>
        <time>2013-09-22T06:52:39.000Z</time>
      </trkpt>
      <trkpt lat="49.13976" lon="1.483">
        <ele>139.63572692871</ele>
        <time>2013-09-22T06:52:48.000Z</time>
      </trkpt>
      <trkpt lat="49.13976" lon="1.48302">
        <ele>139.61767578125</ele>
        <time>2013-09-22T06:52:59.000Z</time>
      </trkpt>
      <trkpt lat="49.13976" lon="1.48302">
        <ele>139.61767578125</ele>
        <time>2013-09-22T06:53:19.000Z</time>
      </trkpt>
      <trkpt lat="49.13976" lon="1.48304">
        <ele>139.60614013672</ele>
        <time>2013-09-22T06:53:50.000Z</time>
      </trkpt>
      <trkpt lat="49.13976" lon="1.48305">
        <ele>139.59220886231</ele>
        <time>2013-09-22T06:53:52.000Z</time>
      </trkpt>
      <trkpt lat="49.13972" lon="1.48314">
        <ele>139.62759399414</ele>
        <time>2013-09-22T06:53:55.000Z</time>
      </trkpt>
      <trkpt lat="49.13972" lon="1.48315">
        <ele>139.66983032227</ele>
        <time>2013-09-22T06:53:59.000Z</time>
      </trkpt>
      <trkpt lat="49.13972" lon="1.48315">
        <ele>139.66983032227</ele>
        <time>2013-09-22T06:54:19.000Z</time>
      </trkpt>
      <trkpt lat="49.13972" lon="1.4831">
        <ele>139.69546508789</ele>
        <time>2013-09-22T06:54:26.000Z</time>
      </trkpt>
      <trkpt lat="49.13972" lon="1.48306">
        <ele>139.71063232422</ele>
        <time>2013-09-22T06:54:42.000Z</time>
      </trkpt>
      <trkpt lat="49.13972" lon="1.48301">
        <ele>139.71078491211</ele>
        <time>2013-09-22T06:54:48.000Z</time>
      </trkpt>
      <trkpt lat="49.13972" lon="1.483">
        <ele>139.67971801758</ele>
        <time>2013-09-22T06:54:52.000Z</time>
      </trkpt>
      <trkpt lat="49.1397" lon="1.48304">
        <ele>139.65559387207</ele>
        <time>2013-09-22T06:55:02.000Z</time>
      </trkpt>
      <trkpt lat="49.13971" lon="1.48308">
        <ele>139.65588378906</ele>
        <time>2013-09-22T06:55:19.000Z</time>
      </trkpt>
      <trkpt lat="49.13966" lon="1.48312">
        <ele>139.68913269043</ele>
        <time>2013-09-22T06:55:38.000Z</time>
      </trkpt>
      <trkpt lat="49.13966" lon="1.48309">
        <ele>139.72676086426</ele>
        <time>2013-09-22T06:55:47.000Z</time>
      </trkpt>
      <trkpt lat="49.13965" lon="1.48306">
        <ele>139.75732421875</ele>
        <time>2013-09-22T06:55:53.000Z</time>
      </trkpt>
      <trkpt lat="49.13964" lon="1.48305">
        <ele>139.77267456055</ele>
        <time>2013-09-22T06:55:55.000Z</time>
      </trkpt>
      <trkpt lat="49.13961" lon="1.48298">
        <ele>139.75721740723</ele>
        <time>2013-09-22T06:56:01.000Z</time>
      </trkpt>
      <trkpt lat="49.13961" lon="1.48298">
        <ele>139.75721740723</ele>
        <time>2013-09-22T06:56:21.000Z</time>
      </trkpt>
      <trkpt lat="49.13966" lon="1.48298">
        <ele>139.71011352539</ele>
        <time>2013-09-22T06:56:28.000Z</time>
      </trkpt>
      <trkpt lat="49.13967" lon="1.48304">
        <ele>139.68965148926</ele>
        <time>2013-09-22T06:56:37.000Z</time>
      </trkpt>
      <trkpt lat="49.13967" lon="1.48305">
        <ele>139.68301391602</ele>
        <time>2013-09-22T06:56:39.000Z</time>
      </trkpt>
      <trkpt lat="49.13969" lon="1.48312">
        <ele>139.6941986084</ele>
        <time>2013-09-22T06:56:43.000Z</time>
      </trkpt>
      <trkpt lat="49.13972" lon="1.48319">
        <ele>139.73454284668</ele>
        <time>2013-09-22T06:56:50.000Z</time>
      </trkpt>
      <trkpt lat="49.13974" lon="1.48324">
        <ele>139.78073120117</ele>
        <time>2013-09-22T06:56:56.000Z</time>
      </trkpt>
      <trkpt lat="49.13977" lon="1.48328">
        <ele>139.7967376709</ele>
        <time>2013-09-22T06:56:59.000Z</time>
      </trkpt>
      <trkpt lat="49.13982" lon="1.48331">
        <ele>139.78401184082</ele>
        <time>2013-09-22T06:57:02.000Z</time>
      </trkpt>
      <trkpt lat="49.13987" lon="1.48339">
        <ele>139.78657531738</ele>
        <time>2013-09-22T06:57:05.000Z</time>
      </trkpt>
      <trkpt lat="49.13991" lon="1.48344">
        <ele>139.822265625</ele>
        <time>2013-09-22T06:57:07.000Z</time>
      </trkpt>
      <trkpt lat="49.13999" lon="1.48352">
        <ele>139.92333984375</ele>
        <time>2013-09-22T06:57:10.000Z</time>
      </trkpt>
      <trkpt lat="49.14005" lon="1.48356">
        <ele>140.01333618164</ele>
        <time>2013-09-22T06:57:12.000Z</time>
      </trkpt>
      <trkpt lat="49.14011" lon="1.48363">
        <ele>140.11024475098</ele>
        <time>2013-09-22T06:57:15.000Z</time>
      </trkpt>
      <trkpt lat="49.14019" lon="1.48371">
        <ele>140.15310668945</ele>
        <time>2013-09-22T06:57:18.000Z</time>
      </trkpt>
      <trkpt lat="49.14024" lon="1.48375">
        <ele>140.15594482422</ele>
        <time>2013-09-22T06:57:20.000Z</time>
      </trkpt>
      <trkpt lat="49.1403" lon="1.48381">
        <ele>140.0915222168</ele>
        <time>2013-09-22T06:57:22.000Z</time>
      </trkpt>
      <trkpt lat="49.14037" lon="1.48389">
        <ele>140.05012512207</ele>
        <time>2013-09-22T06:57:25.000Z</time>
      </trkpt>
      <trkpt lat="49.14043" lon="1.48401">
        <ele>140.13688659668</ele>
        <time>2013-09-22T06:57:28.000Z</time>
      </trkpt>
      <trkpt lat="49.1405" lon="1.48412">
        <ele>140.33259582519</ele>
        <time>2013-09-22T06:57:31.000Z</time>
      </trkpt>
      <trkpt lat="49.14056" lon="1.4842">
        <ele>140.58407592773</ele>
        <time>2013-09-22T06:57:33.000Z</time>
      </trkpt>
      <trkpt lat="49.14066" lon="1.48434">
        <ele>141.01310729981</ele>
        <time>2013-09-22T06:57:36.000Z</time>
      </trkpt>
      <trkpt lat="49.14072" lon="1.48442">
        <ele>141.57727050781</ele>
        <time>2013-09-22T06:57:38.000Z</time>
      </trkpt>
      <trkpt lat="49.14077" lon="1.4845">
        <ele>142.17837524414</ele>
        <time>2013-09-22T06:57:40.000Z</time>
      </trkpt>
      <trkpt lat="49.14086" lon="1.48462">
        <ele>142.90803527832</ele>
        <time>2013-09-22T06:57:43.000Z</time>
      </trkpt>
      <trkpt lat="49.14093" lon="1.48466">
        <ele>143.52865600586</ele>
        <time>2013-09-22T06:57:45.000Z</time>
      </trkpt>
      <trkpt lat="49.14102" lon="1.48479">
        <ele>144.03887939453</ele>
        <time>2013-09-22T06:57:48.000Z</time>
      </trkpt>
      <trkpt lat="49.14108" lon="1.48488">
        <ele>144.47267150879</ele>
        <time>2013-09-22T06:57:50.000Z</time>
      </trkpt>
      <trkpt lat="49.14117" lon="1.48497">
        <ele>144.72640991211</ele>
        <time>2013-09-22T06:57:53.000Z</time>
      </trkpt>
      <trkpt lat="49.1413" lon="1.48512">
        <ele>144.60986328125</ele>
        <time>2013-09-22T06:57:56.000Z</time>
      </trkpt>
      <trkpt lat="49.14144" lon="1.48523">
        <ele>144.35018920898</ele>
        <time>2013-09-22T06:57:59.000Z</time>
      </trkpt>
      <trkpt lat="49.14157" lon="1.48537">
        <ele>143.94226074219</ele>
        <time>2013-09-22T06:58:02.000Z</time>
      </trkpt>
      <trkpt lat="49.14166" lon="1.48547">
        <ele>143.4649810791</ele>
        <time>2013-09-22T06:58:04.000Z</time>
      </trkpt>
      <trkpt lat="49.14185" lon="1.48565">
        <ele>142.92817687988</ele>
        <time>2013-09-22T06:58:07.000Z</time>
      </trkpt>
      <trkpt lat="49.14199" lon="1.48576">
        <ele>142.42236328125</ele>
        <time>2013-09-22T06:58:10.000Z</time>
      </trkpt>
      <trkpt lat="49.14211" lon="1.48587">
        <ele>141.94052124023</ele>
        <time>2013-09-22T06:58:13.000Z</time>
      </trkpt>
      <trkpt lat="49.14225" lon="1.48599">
        <ele>141.21549987793</ele>
        <time>2013-09-22T06:58:16.000Z</time>
      </trkpt>
      <trkpt lat="49.14233" lon="1.48606">
        <ele>140.34852600098</ele>
        <time>2013-09-22T06:58:18.000Z</time>
      </trkpt>
      <trkpt lat="49.14243" lon="1.48616">
        <ele>139.41146850586</ele>
        <time>2013-09-22T06:58:21.000Z</time>
      </trkpt>
      <trkpt lat="49.14248" lon="1.48622">
        <ele>138.52297973633</ele>
        <time>2013-09-22T06:58:23.000Z</time>
      </trkpt>
      <trkpt lat="49.14257" lon="1.48631">
        <ele>137.82234191894</ele>
        <time>2013-09-22T06:58:26.000Z</time>
      </trkpt>
      <trkpt lat="49.14264" lon="1.48638">
        <ele>137.48373413086</ele>
        <time>2013-09-22T06:58:28.000Z</time>
      </trkpt>
      <trkpt lat="49.1427" lon="1.48644">
        <ele>137.33067321777</ele>
        <time>2013-09-22T06:58:30.000Z</time>
      </trkpt>
      <trkpt lat="49.14278" lon="1.48652">
        <ele>137.37724304199</ele>
        <time>2013-09-22T06:58:32.000Z</time>
      </trkpt>
      <trkpt lat="49.14288" lon="1.48663">
        <ele>137.54217529297</ele>
        <time>2013-09-22T06:58:35.000Z</time>
      </trkpt>
      <trkpt lat="49.14294" lon="1.4867">
        <ele>137.71215820312</ele>
        <time>2013-09-22T06:58:37.000Z</time>
      </trkpt>
      <trkpt lat="49.14302" lon="1.4868">
        <ele>137.87178039551</ele>
        <time>2013-09-22T06:58:40.000Z</time>
      </trkpt>
      <trkpt lat="49.14311" lon="1.4869">
        <ele>138.02337646484</ele>
        <time>2013-09-22T06:58:43.000Z</time>
      </trkpt>
      <trkpt lat="49.1432" lon="1.48702">
        <ele>138.16609191894</ele>
        <time>2013-09-22T06:58:46.000Z</time>
      </trkpt>
      <trkpt lat="49.14327" lon="1.48709">
        <ele>138.283203125</ele>
        <time>2013-09-22T06:58:48.000Z</time>
      </trkpt>
      <trkpt lat="49.14336" lon="1.4872">
        <ele>138.41532897949</ele>
        <time>2013-09-22T06:58:51.000Z</time>
      </trkpt>
      <trkpt lat="49.14343" lon="1.48728">
        <ele>138.57005310059</ele>
        <time>2013-09-22T06:58:53.000Z</time>
      </trkpt>
      <trkpt lat="49.14352" lon="1.48738">
        <ele>138.76783752441</ele>
        <time>2013-09-22T06:58:56.000Z</time>
      </trkpt>
      <trkpt lat="49.1436" lon="1.48748">
        <ele>139.00073242188</ele>
        <time>2013-09-22T06:58:59.000Z</time>
      </trkpt>
      <trkpt lat="49.14365" lon="1.48753">
        <ele>139.26675415039</ele>
        <time>2013-09-22T06:59:01.000Z</time>
      </trkpt>
      <trkpt lat="49.14373" lon="1.48762">
        <ele>139.58865356445</ele>
        <time>2013-09-22T06:59:04.000Z</time>
      </trkpt>
      <trkpt lat="49.14379" lon="1.48769">
        <ele>139.93362426758</ele>
        <time>2013-09-22T06:59:06.000Z</time>
      </trkpt>
      <trkpt lat="49.14389" lon="1.48778">
        <ele>140.32720947266</ele>
        <time>2013-09-22T06:59:09.000Z</time>
      </trkpt>
      <trkpt lat="49.14395" lon="1.48784">
        <ele>140.7258605957</ele>
        <time>2013-09-22T06:59:11.000Z</time>
      </trkpt>
      <trkpt lat="49.14401" lon="1.4879">
        <ele>141.15596008301</ele>
        <time>2013-09-22T06:59:13.000Z</time>
      </trkpt>
      <trkpt lat="49.1441" lon="1.48801">
        <ele>141.62054443359</ele>
        <time>2013-09-22T06:59:16.000Z</time>
      </trkpt>
      <trkpt lat="49.14415" lon="1.48808">
        <ele>142.09732055664</ele>
        <time>2013-09-22T06:59:18.000Z</time>
      </trkpt>
      <trkpt lat="49.14423" lon="1.48818">
        <ele>142.5234375</ele>
        <time>2013-09-22T06:59:21.000Z</time>
      </trkpt>
      <trkpt lat="49.14429" lon="1.48829">
        <ele>142.94294738769</ele>
        <time>2013-09-22T06:59:24.000Z</time>
      </trkpt>
      <trkpt lat="49.14437" lon="1.48839">
        <ele>143.30996704102</ele>
        <time>2013-09-22T06:59:27.000Z</time>
      </trkpt>
      <trkpt lat="49.14445" lon="1.48851">
        <ele>143.55795288086</ele>
        <time>2013-09-22T06:59:30.000Z</time>
      </trkpt>
      <trkpt lat="49.14452" lon="1.48858">
        <ele>143.72236633301</ele>
        <time>2013-09-22T06:59:32.000Z</time>
      </trkpt>
      <trkpt lat="49.14462" lon="1.48869">
        <ele>143.82345581055</ele>
        <time>2013-09-22T06:59:35.000Z</time>
      </trkpt>
      <trkpt lat="49.14471" lon="1.48878">
        <ele>143.86471557617</ele>
        <time>2013-09-22T06:59:38.000Z</time>
      </trkpt>
      <trkpt lat="49.1448" lon="1.48888">
        <ele>143.8786315918</ele>
        <time>2013-09-22T06:59:41.000Z</time>
      </trkpt>
      <trkpt lat="49.14487" lon="1.48896">
        <ele>143.88705444336</ele>
        <time>2013-09-22T06:59:43.000Z</time>
      </trkpt>
      <trkpt lat="49.14497" lon="1.48909">
        <ele>143.90301513672</ele>
        <time>2013-09-22T06:59:46.000Z</time>
      </trkpt>
      <trkpt lat="49.14508" lon="1.48922">
        <ele>143.90798950195</ele>
        <time>2013-09-22T06:59:49.000Z</time>
      </trkpt>
      <trkpt lat="49.14514" lon="1.48931">
        <ele>143.89633178711</ele>
        <time>2013-09-22T06:59:51.000Z</time>
      </trkpt>
      <trkpt lat="49.14521" lon="1.48939">
        <ele>143.86599731445</ele>
        <time>2013-09-22T06:59:53.000Z</time>
      </trkpt>
      <trkpt lat="49.14534" lon="1.4895">
        <ele>143.80288696289</ele>
        <time>2013-09-22T06:59:56.000Z</time>
      </trkpt>
      <trkpt lat="49.1454" lon="1.48958">
        <ele>143.716796875</ele>
        <time>2013-09-22T06:59:58.000Z</time>
      </trkpt>
      <trkpt lat="49.14547" lon="1.48967">
        <ele>143.6220703125</ele>
        <time>2013-09-22T07:00:00.000Z</time>
      </trkpt>
      <trkpt lat="49.14557" lon="1.4898">
        <ele>143.5185546875</ele>
        <time>2013-09-22T07:00:03.000Z</time>
      </trkpt>
      <trkpt lat="49.14565" lon="1.48989">
        <ele>143.4150390625</ele>
        <time>2013-09-22T07:00:05.000Z</time>
      </trkpt>
      <trkpt lat="49.14572" lon="1.48997">
        <ele>143.3232421875</ele>
        <time>2013-09-22T07:00:07.000Z</time>
      </trkpt>
      <trkpt lat="49.14579" lon="1.49005">
        <ele>143.24353027344</ele>
        <time>2013-09-22T07:00:09.000Z</time>
      </trkpt>
      <trkpt lat="49.1459" lon="1.49017">
        <ele>143.20301818848</ele>
        <time>2013-09-22T07:00:12.000Z</time>
      </trkpt>
      <trkpt lat="49.14597" lon="1.49025">
        <ele>143.21188354492</ele>
        <time>2013-09-22T07:00:14.000Z</time>
      </trkpt>
      <trkpt lat="49.14608" lon="1.49038">
        <ele>143.28479003906</ele>
        <time>2013-09-22T07:00:17.000Z</time>
      </trkpt>
      <trkpt lat="49.14619" lon="1.4905">
        <ele>143.42947387695</ele>
        <time>2013-09-22T07:00:20.000Z</time>
      </trkpt>
      <trkpt lat="49.14629" lon="1.49063">
        <ele>143.64016723633</ele>
        <time>2013-09-22T07:00:23.000Z</time>
      </trkpt>
      <trkpt lat="49.14636" lon="1.49071">
        <ele>143.87358093262</ele>
        <time>2013-09-22T07:00:25.000Z</time>
      </trkpt>
      <trkpt lat="49.14646" lon="1.49083">
        <ele>144.1510925293</ele>
        <time>2013-09-22T07:00:28.000Z</time>
      </trkpt>
      <trkpt lat="49.14654" lon="1.49091">
        <ele>144.40783691406</ele>
        <time>2013-09-22T07:00:30.000Z</time>
      </trkpt>
      <trkpt lat="49.14664" lon="1.49103">
        <ele>144.63287353516</ele>
        <time>2013-09-22T07:00:33.000Z</time>
      </trkpt>
      <trkpt lat="49.14672" lon="1.49111">
        <ele>144.78358459473</ele>
        <time>2013-09-22T07:00:35.000Z</time>
      </trkpt>
      <trkpt lat="49.14682" lon="1.49124">
        <ele>144.86750793457</ele>
        <time>2013-09-22T07:00:38.000Z</time>
      </trkpt>
      <trkpt lat="49.14689" lon="1.49132">
        <ele>144.87431335449</ele>
        <time>2013-09-22T07:00:40.000Z</time>
      </trkpt>
      <trkpt lat="49.14699" lon="1.49145">
        <ele>144.85861206055</ele>
        <time>2013-09-22T07:00:43.000Z</time>
      </trkpt>
      <trkpt lat="49.1471" lon="1.49157">
        <ele>144.83714294434</ele>
        <time>2013-09-22T07:00:46.000Z</time>
      </trkpt>
      <trkpt lat="49.14721" lon="1.49168">
        <ele>144.85432434082</ele>
        <time>2013-09-22T07:00:49.000Z</time>
      </trkpt>
      <trkpt lat="49.14733" lon="1.49181">
        <ele>144.89839172363</ele>
        <time>2013-09-22T07:00:52.000Z</time>
      </trkpt>
      <trkpt lat="49.14745" lon="1.49194">
        <ele>144.94714355469</ele>
        <time>2013-09-22T07:00:55.000Z</time>
      </trkpt>
      <trkpt lat="49.14756" lon="1.49207">
        <ele>144.98825073242</ele>
        <time>2013-09-22T07:00:58.000Z</time>
      </trkpt>
      <trkpt lat="49.14763" lon="1.49216">
        <ele>145.01266479492</ele>
        <time>2013-09-22T07:01:00.000Z</time>
      </trkpt>
      <trkpt lat="49.14771" lon="1.49226">
        <ele>145.01126098633</ele>
        <time>2013-09-22T07:01:02.000Z</time>
      </trkpt>
      <trkpt lat="49.14778" lon="1.49235">
        <ele>145.00442504883</ele>
        <time>2013-09-22T07:01:04.000Z</time>
      </trkpt>
      <trkpt lat="49.14789" lon="1.49248">
        <ele>145</ele>
        <time>2013-09-22T07:01:07.000Z</time>
      </trkpt>
      <trkpt lat="49.1483" lon="1.49295">
        <ele>145</ele>
        <time>2013-09-22T07:01:18.000Z</time>
      </trkpt>
      <trkpt lat="49.14837" lon="1.49305">
        <ele>144.99063110352</ele>
        <time>2013-09-22T07:01:20.000Z</time>
      </trkpt>
      <trkpt lat="49.14846" lon="1.49314">
        <ele>144.96073913574</ele>
        <time>2013-09-22T07:01:22.000Z</time>
      </trkpt>
      <trkpt lat="49.14857" lon="1.49326">
        <ele>144.90351867676</ele>
        <time>2013-09-22T07:01:25.000Z</time>
      </trkpt>
      <trkpt lat="49.14865" lon="1.49334">
        <ele>144.82827758789</ele>
        <time>2013-09-22T07:01:27.000Z</time>
      </trkpt>
      <trkpt lat="49.14876" lon="1.49347">
        <ele>144.77526855469</ele>
        <time>2013-09-22T07:01:30.000Z</time>
      </trkpt>
      <trkpt lat="49.14885" lon="1.49361">
        <ele>144.76921081543</ele>
        <time>2013-09-22T07:01:33.000Z</time>
      </trkpt>
      <trkpt lat="49.14892" lon="1.49371">
        <ele>144.81100463867</ele>
        <time>2013-09-22T07:01:35.000Z</time>
      </trkpt>
      <trkpt lat="49.14901" lon="1.49382">
        <ele>144.91687011719</ele>
        <time>2013-09-22T07:01:38.000Z</time>
      </trkpt>
      <trkpt lat="49.14912" lon="1.49392">
        <ele>145.07879638672</ele>
        <time>2013-09-22T07:01:41.000Z</time>
      </trkpt>
      <trkpt lat="49.14926" lon="1.49407">
        <ele>145.24140930176</ele>
        <time>2013-09-22T07:01:44.000Z</time>
      </trkpt>
      <trkpt lat="49.14938" lon="1.49421">
        <ele>145.37948608398</ele>
        <time>2013-09-22T07:01:47.000Z</time>
      </trkpt>
      <trkpt lat="49.14951" lon="1.49436">
        <ele>145.5153503418</ele>
        <time>2013-09-22T07:01:50.000Z</time>
      </trkpt>
      <trkpt lat="49.14959" lon="1.49445">
        <ele>145.63369750977</ele>
        <time>2013-09-22T07:01:52.000Z</time>
      </trkpt>
      <trkpt lat="49.14967" lon="1.49453">
        <ele>145.73344421387</ele>
        <time>2013-09-22T07:01:54.000Z</time>
      </trkpt>
      <trkpt lat="49.1498" lon="1.49467">
        <ele>145.85684204102</ele>
        <time>2013-09-22T07:01:57.000Z</time>
      </trkpt>
      <trkpt lat="49.14988" lon="1.49477">
        <ele>146.00256347656</ele>
        <time>2013-09-22T07:01:59.000Z</time>
      </trkpt>
      <trkpt lat="49.15" lon="1.49492">
        <ele>146.19404602051</ele>
        <time>2013-09-22T07:02:02.000Z</time>
      </trkpt>
      <trkpt lat="49.15013" lon="1.49507">
        <ele>146.35444641113</ele>
        <time>2013-09-22T07:02:05.000Z</time>
      </trkpt>
      <trkpt lat="49.15026" lon="1.49522">
        <ele>146.45254516602</ele>
        <time>2013-09-22T07:02:08.000Z</time>
      </trkpt>
      <trkpt lat="49.15039" lon="1.49536">
        <ele>146.46943664551</ele>
        <time>2013-09-22T07:02:11.000Z</time>
      </trkpt>
      <trkpt lat="49.15046" lon="1.49547">
        <ele>146.44166564941</ele>
        <time>2013-09-22T07:02:13.000Z</time>
      </trkpt>
      <trkpt lat="49.15059" lon="1.49561">
        <ele>146.33134460449</ele>
        <time>2013-09-22T07:02:16.000Z</time>
      </trkpt>
      <trkpt lat="49.1507" lon="1.49576">
        <ele>146.23587036133</ele>
        <time>2013-09-22T07:02:19.000Z</time>
      </trkpt>
      <trkpt lat="49.15077" lon="1.49585">
        <ele>146.19522094727</ele>
        <time>2013-09-22T07:02:21.000Z</time>
      </trkpt>
      <trkpt lat="49.15088" lon="1.49599">
        <ele>146.24758911133</ele>
        <time>2013-09-22T07:02:24.000Z</time>
      </trkpt>
      <trkpt lat="49.15097" lon="1.49609">
        <ele>146.359375</ele>
        <time>2013-09-22T07:02:26.000Z</time>
      </trkpt>
      <trkpt lat="49.15105" lon="1.49619">
        <ele>146.53555297852</ele>
        <time>2013-09-22T07:02:28.000Z</time>
      </trkpt>
      <trkpt lat="49.15116" lon="1.49631">
        <ele>146.76683044434</ele>
        <time>2013-09-22T07:02:31.000Z</time>
      </trkpt>
      <trkpt lat="49.15128" lon="1.49638">
        <ele>147.01245117188</ele>
        <time>2013-09-22T07:02:34.000Z</time>
      </trkpt>
      <trkpt lat="49.15136" lon="1.49638">
        <ele>147.17781066894</ele>
        <time>2013-09-22T07:02:36.000Z</time>
      </trkpt>
      <trkpt lat="49.15146" lon="1.49636">
        <ele>147.2541809082</ele>
        <time>2013-09-22T07:02:38.000Z</time>
      </trkpt>
      <trkpt lat="49.1516" lon="1.49626">
        <ele>147.17178344727</ele>
        <time>2013-09-22T07:02:41.000Z</time>
      </trkpt>
      <trkpt lat="49.15168" lon="1.49614">
        <ele>146.93513488769</ele>
        <time>2013-09-22T07:02:44.000Z</time>
      </trkpt>
      <trkpt lat="49.15173" lon="1.49606">
        <ele>146.62982177734</ele>
        <time>2013-09-22T07:02:46.000Z</time>
      </trkpt>
      <trkpt lat="49.15182" lon="1.49595">
        <ele>146.32521057129</ele>
        <time>2013-09-22T07:02:49.000Z</time>
      </trkpt>
      <trkpt lat="49.15188" lon="1.49586">
        <ele>146.06370544434</ele>
        <time>2013-09-22T07:02:51.000Z</time>
      </trkpt>
      <trkpt lat="49.15199" lon="1.49574">
        <ele>145.96733093262</ele>
        <time>2013-09-22T07:02:54.000Z</time>
      </trkpt>
      <trkpt lat="49.15208" lon="1.49566">
        <ele>146.03706359863</ele>
        <time>2013-09-22T07:02:56.000Z</time>
      </trkpt>
      <trkpt lat="49.15219" lon="1.49553">
        <ele>146.27066040039</ele>
        <time>2013-09-22T07:02:59.000Z</time>
      </trkpt>
      <trkpt lat="49.15229" lon="1.4954">
        <ele>146.66519165039</ele>
        <time>2013-09-22T07:03:02.000Z</time>
      </trkpt>
      <trkpt lat="49.15237" lon="1.49531">
        <ele>147.18083190918</ele>
        <time>2013-09-22T07:03:04.000Z</time>
      </trkpt>
      <trkpt lat="49.15244" lon="1.49521">
        <ele>147.75704956055</ele>
        <time>2013-09-22T07:03:07.000Z</time>
      </trkpt>
      <trkpt lat="49.15247" lon="1.49517">
        <ele>148.33834838867</ele>
        <time>2013-09-22T07:03:09.000Z</time>
      </trkpt>
      <trkpt lat="49.15253" lon="1.49514">
        <ele>148.90840148926</ele>
        <time>2013-09-22T07:03:12.000Z</time>
      </trkpt>
      <trkpt lat="49.15258" lon="1.4951">
        <ele>149.45587158203</ele>
        <time>2013-09-22T07:03:14.000Z</time>
      </trkpt>
      <trkpt lat="49.15263" lon="1.49505">
        <ele>149.9997253418</ele>
        <time>2013-09-22T07:03:17.000Z</time>
      </trkpt>
      <trkpt lat="49.15264" lon="1.49503">
        <ele>150.44226074219</ele>
        <time>2013-09-22T07:03:23.000Z</time>
      </trkpt>
      <trkpt lat="49.15265" lon="1.49501">
        <ele>150.83648681641</ele>
        <time>2013-09-22T07:03:29.000Z</time>
      </trkpt>
      <trkpt lat="49.15266" lon="1.49506">
        <ele>151.11145019531</ele>
        <time>2013-09-22T07:03:47.000Z</time>
      </trkpt>
      <trkpt lat="49.15265" lon="1.49505">
        <ele>151.2551574707</ele>
        <time>2013-09-22T07:04:01.000Z</time>
      </trkpt>
      <trkpt lat="49.15258" lon="1.49501">
        <ele>151.17590332031</ele>
        <time>2013-09-22T07:04:06.000Z</time>
      </trkpt>
      <trkpt lat="49.15257" lon="1.49498">
        <ele>151.09257507324</ele>
        <time>2013-09-22T07:04:20.000Z</time>
      </trkpt>
      <trkpt lat="49.15263" lon="1.49497">
        <ele>151.10540771484</ele>
        <time>2013-09-22T07:04:23.000Z</time>
      </trkpt>
      <trkpt lat="49.15267" lon="1.49498">
        <ele>151.2001953125</ele>
        <time>2013-09-22T07:04:25.000Z</time>
      </trkpt>
      <trkpt lat="49.1527" lon="1.495">
        <ele>151.34126281738</ele>
        <time>2013-09-22T07:04:28.000Z</time>
      </trkpt>
      <trkpt lat="49.1527" lon="1.495">
        <ele>151.34126281738</ele>
        <time>2013-09-22T07:04:48.000Z</time>
      </trkpt>
      <trkpt lat="49.1527" lon="1.49502">
        <ele>151.56158447266</ele>
        <time>2013-09-22T07:04:50.000Z</time>
      </trkpt>
      <trkpt lat="49.15274" lon="1.4951">
        <ele>151.79940795898</ele>
        <time>2013-09-22T07:04:53.000Z</time>
      </trkpt>
      <trkpt lat="49.1528" lon="1.49519">
        <ele>151.94650268555</ele>
        <time>2013-09-22T07:04:56.000Z</time>
      </trkpt>
      <trkpt lat="49.15288" lon="1.49532">
        <ele>152.06370544434</ele>
        <time>2013-09-22T07:04:59.000Z</time>
      </trkpt>
      <trkpt lat="49.15296" lon="1.49545">
        <ele>152.16934204102</ele>
        <time>2013-09-22T07:05:02.000Z</time>
      </trkpt>
      <trkpt lat="49.15302" lon="1.49551">
        <ele>152.31486511231</ele>
        <time>2013-09-22T07:05:04.000Z</time>
      </trkpt>
      <trkpt lat="49.15308" lon="1.4956">
        <ele>152.43696594238</ele>
        <time>2013-09-22T07:05:07.000Z</time>
      </trkpt>
      <trkpt lat="49.15315" lon="1.49566">
        <ele>152.56010437012</ele>
        <time>2013-09-22T07:05:09.000Z</time>
      </trkpt>
      <trkpt lat="49.15322" lon="1.49577">
        <ele>152.62550354004</ele>
        <time>2013-09-22T07:05:12.000Z</time>
      </trkpt>
      <trkpt lat="49.15327" lon="1.49586">
        <ele>152.62895202637</ele>
        <time>2013-09-22T07:05:14.000Z</time>
      </trkpt>
      <trkpt lat="49.15337" lon="1.49597">
        <ele>152.51245117188</ele>
        <time>2013-09-22T07:05:17.000Z</time>
      </trkpt>
      <trkpt lat="49.15342" lon="1.49603">
        <ele>152.29092407227</ele>
        <time>2013-09-22T07:05:19.000Z</time>
      </trkpt>
      <trkpt lat="49.15358" lon="1.49608">
        <ele>151.94990539551</ele>
        <time>2013-09-22T07:05:22.000Z</time>
      </trkpt>
      <trkpt lat="49.15368" lon="1.49598">
        <ele>151.70434570312</ele>
        <time>2013-09-22T07:05:25.000Z</time>
      </trkpt>
      <trkpt lat="49.15374" lon="1.49592">
        <ele>151.54020690918</ele>
        <time>2013-09-22T07:05:27.000Z</time>
      </trkpt>
      <trkpt lat="49.15382" lon="1.4958">
        <ele>151.56558227539</ele>
        <time>2013-09-22T07:05:30.000Z</time>
      </trkpt>
      <trkpt lat="49.15392" lon="1.49567">
        <ele>151.87072753906</ele>
        <time>2013-09-22T07:05:33.000Z</time>
      </trkpt>
      <trkpt lat="49.15401" lon="1.49553">
        <ele>152.4708404541</ele>
        <time>2013-09-22T07:05:36.000Z</time>
      </trkpt>
      <trkpt lat="49.15409" lon="1.4954">
        <ele>153.21586608887</ele>
        <time>2013-09-22T07:05:39.000Z</time>
      </trkpt>
      <trkpt lat="49.15416" lon="1.49528">
        <ele>154.15243530273</ele>
        <time>2013-09-22T07:05:42.000Z</time>
      </trkpt>
      <trkpt lat="49.15422" lon="1.4952">
        <ele>155.07328796387</ele>
        <time>2013-09-22T07:05:44.000Z</time>
      </trkpt>
      <trkpt lat="49.15429" lon="1.49508">
        <ele>155.90553283691</ele>
        <time>2013-09-22T07:05:47.000Z</time>
      </trkpt>
      <trkpt lat="49.15433" lon="1.495">
        <ele>156.57675170898</ele>
        <time>2013-09-22T07:05:49.000Z</time>
      </trkpt>
      <trkpt lat="49.1544" lon="1.49487">
        <ele>156.97775268555</ele>
        <time>2013-09-22T07:05:52.000Z</time>
      </trkpt>
      <trkpt lat="49.15446" lon="1.49479">
        <ele>157.09062194824</ele>
        <time>2013-09-22T07:05:54.000Z</time>
      </trkpt>
      <trkpt lat="49.15457" lon="1.49465">
        <ele>157.01591491699</ele>
        <time>2013-09-22T07:05:57.000Z</time>
      </trkpt>
      <trkpt lat="49.15464" lon="1.49455">
        <ele>156.79971313477</ele>
        <time>2013-09-22T07:05:59.000Z</time>
      </trkpt>
      <trkpt lat="49.15475" lon="1.49438">
        <ele>156.43563842773</ele>
        <time>2013-09-22T07:06:02.000Z</time>
      </trkpt>
      <trkpt lat="49.15487" lon="1.49421">
        <ele>156.0221862793</ele>
        <time>2013-09-22T07:06:05.000Z</time>
      </trkpt>
      <trkpt lat="49.15493" lon="1.49409">
        <ele>155.62738037109</ele>
        <time>2013-09-22T07:06:07.000Z</time>
      </trkpt>
      <trkpt lat="49.15506" lon="1.4939">
        <ele>155.33247375488</ele>
        <time>2013-09-22T07:06:10.000Z</time>
      </trkpt>
      <trkpt lat="49.15513" lon="1.49378">
        <ele>155.0811920166</ele>
        <time>2013-09-22T07:06:12.000Z</time>
      </trkpt>
      <trkpt lat="49.15524" lon="1.49362">
        <ele>154.8913269043</ele>
        <time>2013-09-22T07:06:15.000Z</time>
      </trkpt>
      <trkpt lat="49.15533" lon="1.49345">
        <ele>154.75619506836</ele>
        <time>2013-09-22T07:06:18.000Z</time>
      </trkpt>
      <trkpt lat="49.15539" lon="1.49333">
        <ele>154.62246704102</ele>
        <time>2013-09-22T07:06:20.000Z</time>
      </trkpt>
      <trkpt lat="49.15549" lon="1.49315">
        <ele>154.25444030762</ele>
        <time>2013-09-22T07:06:23.000Z</time>
      </trkpt>
      <trkpt lat="49.1556" lon="1.49297">
        <ele>153.66131591797</ele>
        <time>2013-09-22T07:06:26.000Z</time>
      </trkpt>
      <trkpt lat="49.15567" lon="1.49285">
        <ele>152.97807312012</ele>
        <time>2013-09-22T07:06:28.000Z</time>
      </trkpt>
      <trkpt lat="49.1558" lon="1.49266">
        <ele>152.13290405273</ele>
        <time>2013-09-22T07:06:31.000Z</time>
      </trkpt>
      <trkpt lat="49.15594" lon="1.49252">
        <ele>151.12319946289</ele>
        <time>2013-09-22T07:06:34.000Z</time>
      </trkpt>
      <trkpt lat="49.1561" lon="1.49242">
        <ele>150.10922241211</ele>
        <time>2013-09-22T07:06:37.000Z</time>
      </trkpt>
      <trkpt lat="49.15627" lon="1.4923">
        <ele>149.02987670898</ele>
        <time>2013-09-22T07:06:40.000Z</time>
      </trkpt>
      <trkpt lat="49.15639" lon="1.49209">
        <ele>147.8069152832</ele>
        <time>2013-09-22T07:06:43.000Z</time>
      </trkpt>
      <trkpt lat="49.15647" lon="1.492">
        <ele>146.630859375</ele>
        <time>2013-09-22T07:06:45.000Z</time>
      </trkpt>
      <trkpt lat="49.15653" lon="1.492">
        <ele>145.56466674805</ele>
        <time>2013-09-22T07:06:47.000Z</time>
      </trkpt>
      <trkpt lat="49.15656" lon="1.49205">
        <ele>144.73229980469</ele>
        <time>2013-09-22T07:06:50.000Z</time>
      </trkpt>
      <trkpt lat="49.15661" lon="1.49221">
        <ele>144.18580627441</ele>
        <time>2013-09-22T07:06:53.000Z</time>
      </trkpt>
      <trkpt lat="49.15668" lon="1.49244">
        <ele>143.91252136231</ele>
        <time>2013-09-22T07:06:56.000Z</time>
      </trkpt>
      <trkpt lat="49.1568" lon="1.49267">
        <ele>143.7654876709</ele>
        <time>2013-09-22T07:06:59.000Z</time>
      </trkpt>
      <trkpt lat="49.15685" lon="1.4928">
        <ele>143.69876098633</ele>
        <time>2013-09-22T07:07:01.000Z</time>
      </trkpt>
      <trkpt lat="49.15694" lon="1.49297">
        <ele>143.62353515625</ele>
        <time>2013-09-22T07:07:04.000Z</time>
      </trkpt>
      <trkpt lat="49.15702" lon="1.49313">
        <ele>143.55107116699</ele>
        <time>2013-09-22T07:07:07.000Z</time>
      </trkpt>
      <trkpt lat="49.15709" lon="1.49329">
        <ele>143.48014831543</ele>
        <time>2013-09-22T07:07:10.000Z</time>
      </trkpt>
      <trkpt lat="49.15716" lon="1.49345">
        <ele>143.54254150391</ele>
        <time>2013-09-22T07:07:13.000Z</time>
      </trkpt>
      <trkpt lat="49.15722" lon="1.4936">
        <ele>143.76779174805</ele>
        <time>2013-09-22T07:07:16.000Z</time>
      </trkpt>
      <trkpt lat="49.15728" lon="1.49374">
        <ele>144.19274902344</ele>
        <time>2013-09-22T07:07:19.000Z</time>
      </trkpt>
      <trkpt lat="49.15733" lon="1.49384">
        <ele>144.759765625</ele>
        <time>2013-09-22T07:07:21.000Z</time>
      </trkpt>
      <trkpt lat="49.15736" lon="1.49394">
        <ele>145.47888183594</ele>
        <time>2013-09-22T07:07:23.000Z</time>
      </trkpt>
      <trkpt lat="49.15743" lon="1.49409">
        <ele>146.33520507812</ele>
        <time>2013-09-22T07:07:26.000Z</time>
      </trkpt>
      <trkpt lat="49.15748" lon="1.49424">
        <ele>147.17172241211</ele>
        <time>2013-09-22T07:07:29.000Z</time>
      </trkpt>
      <trkpt lat="49.15752" lon="1.49434">
        <ele>147.82063293457</ele>
        <time>2013-09-22T07:07:31.000Z</time>
      </trkpt>
      <trkpt lat="49.15757" lon="1.49444">
        <ele>148.31465148926</ele>
        <time>2013-09-22T07:07:33.000Z</time>
      </trkpt>
      <trkpt lat="49.15763" lon="1.49456">
        <ele>148.64791870117</ele>
        <time>2013-09-22T07:07:36.000Z</time>
      </trkpt>
      <trkpt lat="49.15768" lon="1.49463">
        <ele>148.74783325195</ele>
        <time>2013-09-22T07:07:38.000Z</time>
      </trkpt>
      <trkpt lat="49.15775" lon="1.49475">
        <ele>148.74150085449</ele>
        <time>2013-09-22T07:07:41.000Z</time>
      </trkpt>
      <trkpt lat="49.15777" lon="1.49485">
        <ele>148.76809692383</ele>
        <time>2013-09-22T07:07:43.000Z</time>
      </trkpt>
      <trkpt lat="49.15782" lon="1.49499">
        <ele>148.85803222656</ele>
        <time>2013-09-22T07:07:46.000Z</time>
      </trkpt>
      <trkpt lat="49.15788" lon="1.49513">
        <ele>148.93319702148</ele>
        <time>2013-09-22T07:07:49.000Z</time>
      </trkpt>
      <trkpt lat="49.15794" lon="1.49526">
        <ele>148.98104858398</ele>
        <time>2013-09-22T07:07:52.000Z</time>
      </trkpt>
      <trkpt lat="49.15799" lon="1.49539">
        <ele>148.97920227051</ele>
        <time>2013-09-22T07:07:55.000Z</time>
      </trkpt>
      <trkpt lat="49.15806" lon="1.49552">
        <ele>148.94657897949</ele>
        <time>2013-09-22T07:07:58.000Z</time>
      </trkpt>
      <trkpt lat="49.1581" lon="1.4956">
        <ele>148.85992431641</ele>
        <time>2013-09-22T07:08:00.000Z</time>
      </trkpt>
      <trkpt lat="49.15816" lon="1.49573">
        <ele>148.77691650391</ele>
        <time>2013-09-22T07:08:03.000Z</time>
      </trkpt>
      <trkpt lat="49.1582" lon="1.49583">
        <ele>148.68884277344</ele>
        <time>2013-09-22T07:08:05.000Z</time>
      </trkpt>
      <trkpt lat="49.15823" lon="1.49592">
        <ele>148.662109375</ele>
        <time>2013-09-22T07:08:07.000Z</time>
      </trkpt>
      <trkpt lat="49.15829" lon="1.49607">
        <ele>148.69046020508</ele>
        <time>2013-09-22T07:08:10.000Z</time>
      </trkpt>
      <trkpt lat="49.15835" lon="1.49621">
        <ele>148.74432373047</ele>
        <time>2013-09-22T07:08:13.000Z</time>
      </trkpt>
      <trkpt lat="49.15841" lon="1.49636">
        <ele>148.79244995117</ele>
        <time>2013-09-22T07:08:16.000Z</time>
      </trkpt>
      <trkpt lat="49.15844" lon="1.49646">
        <ele>148.83976745606</ele>
        <time>2013-09-22T07:08:18.000Z</time>
      </trkpt>
      <trkpt lat="49.1585" lon="1.4966">
        <ele>148.79428100586</ele>
        <time>2013-09-22T07:08:21.000Z</time>
      </trkpt>
      <trkpt lat="49.15856" lon="1.49675">
        <ele>148.65832519531</ele>
        <time>2013-09-22T07:08:24.000Z</time>
      </trkpt>
      <trkpt lat="49.15862" lon="1.49689">
        <ele>148.47494506836</ele>
        <time>2013-09-22T07:08:27.000Z</time>
      </trkpt>
      <trkpt lat="49.15866" lon="1.497">
        <ele>148.29556274414</ele>
        <time>2013-09-22T07:08:29.000Z</time>
      </trkpt>
      <trkpt lat="49.15873" lon="1.49717">
        <ele>148.11674499512</ele>
        <time>2013-09-22T07:08:32.000Z</time>
      </trkpt>
      <trkpt lat="49.15879" lon="1.49728">
        <ele>147.97631835938</ele>
        <time>2013-09-22T07:08:34.000Z</time>
      </trkpt>
      <trkpt lat="49.15887" lon="1.49741">
        <ele>147.85821533203</ele>
        <time>2013-09-22T07:08:37.000Z</time>
      </trkpt>
      <trkpt lat="49.15896" lon="1.49762">
        <ele>147.72689819336</ele>
        <time>2013-09-22T07:08:40.000Z</time>
      </trkpt>
      <trkpt lat="49.15902" lon="1.49776">
        <ele>147.56494140625</ele>
        <time>2013-09-22T07:08:42.000Z</time>
      </trkpt>
      <trkpt lat="49.15909" lon="1.49796">
        <ele>147.33993530273</ele>
        <time>2013-09-22T07:08:45.000Z</time>
      </trkpt>
      <trkpt lat="49.15913" lon="1.49811">
        <ele>147.06976318359</ele>
        <time>2013-09-22T07:08:47.000Z</time>
      </trkpt>
      <trkpt lat="49.15921" lon="1.49832">
        <ele>146.63844299316</ele>
        <time>2013-09-22T07:08:50.000Z</time>
      </trkpt>
      <trkpt lat="49.15931" lon="1.49852">
        <ele>146.04518127441</ele>
        <time>2013-09-22T07:08:53.000Z</time>
      </trkpt>
      <trkpt lat="49.15937" lon="1.49866">
        <ele>145.37185668945</ele>
        <time>2013-09-22T07:08:55.000Z</time>
      </trkpt>
      <trkpt lat="49.15944" lon="1.4988">
        <ele>144.68714904785</ele>
        <time>2013-09-22T07:08:57.000Z</time>
      </trkpt>
      <trkpt lat="49.15952" lon="1.499">
        <ele>143.95510864258</ele>
        <time>2013-09-22T07:09:00.000Z</time>
      </trkpt>
      <trkpt lat="49.15961" lon="1.4992">
        <ele>143.35494995117</ele>
        <time>2013-09-22T07:09:03.000Z</time>
      </trkpt>
      <trkpt lat="49.1597" lon="1.49942">
        <ele>143.0417175293</ele>
        <time>2013-09-22T07:09:06.000Z</time>
      </trkpt>
      <trkpt lat="49.15979" lon="1.49961">
        <ele>142.97074890137</ele>
        <time>2013-09-22T07:09:09.000Z</time>
      </trkpt>
      <trkpt lat="49.15987" lon="1.4998">
        <ele>143.15158081055</ele>
        <time>2013-09-22T07:09:12.000Z</time>
      </trkpt>
      <trkpt lat="49.15993" lon="1.49999">
        <ele>143.63510131836</ele>
        <time>2013-09-22T07:09:15.000Z</time>
      </trkpt>
      <trkpt lat="49.16" lon="1.50018">
        <ele>144.18008422852</ele>
        <time>2013-09-22T07:09:18.000Z</time>
      </trkpt>
      <trkpt lat="49.16006" lon="1.50033">
        <ele>144.55560302734</ele>
        <time>2013-09-22T07:09:21.000Z</time>
      </trkpt>
      <trkpt lat="49.16012" lon="1.50048">
        <ele>144.75810241699</ele>
        <time>2013-09-22T07:09:24.000Z</time>
      </trkpt>
      <trkpt lat="49.16017" lon="1.50062">
        <ele>144.79542541504</ele>
        <time>2013-09-22T07:09:27.000Z</time>
      </trkpt>
      <trkpt lat="49.16021" lon="1.50071">
        <ele>144.63732910156</ele>
        <time>2013-09-22T07:09:29.000Z</time>
      </trkpt>
      <trkpt lat="49.16025" lon="1.5008">
        <ele>144.48107910156</ele>
        <time>2013-09-22T07:09:31.000Z</time>
      </trkpt>
      <trkpt lat="49.16029" lon="1.50088">
        <ele>144.42456054688</ele>
        <time>2013-09-22T07:09:33.000Z</time>
      </trkpt>
      <trkpt lat="49.16033" lon="1.501">
        <ele>144.47494506836</ele>
        <time>2013-09-22T07:09:36.000Z</time>
      </trkpt>
      <trkpt lat="49.16037" lon="1.50109">
        <ele>144.56796264648</ele>
        <time>2013-09-22T07:09:38.000Z</time>
      </trkpt>
      <trkpt lat="49.16042" lon="1.5012">
        <ele>144.69088745117</ele>
        <time>2013-09-22T07:09:41.000Z</time>
      </trkpt>
      <trkpt lat="49.16048" lon="1.50131">
        <ele>144.84161376953</ele>
        <time>2013-09-22T07:09:44.000Z</time>
      </trkpt>
      <trkpt lat="49.16051" lon="1.50141">
        <ele>145.02865600586</ele>
        <time>2013-09-22T07:09:46.000Z</time>
      </trkpt>
      <trkpt lat="49.16057" lon="1.50155">
        <ele>145.23593139648</ele>
        <time>2013-09-22T07:09:49.000Z</time>
      </trkpt>
      <trkpt lat="49.16063" lon="1.50168">
        <ele>145.46694946289</ele>
        <time>2013-09-22T07:09:52.000Z</time>
      </trkpt>
      <trkpt lat="49.1607" lon="1.50183">
        <ele>145.63041687012</ele>
        <time>2013-09-22T07:09:55.000Z</time>
      </trkpt>
      <trkpt lat="49.16075" lon="1.50193">
        <ele>145.73298645019</ele>
        <time>2013-09-22T07:09:57.000Z</time>
      </trkpt>
      <trkpt lat="49.16081" lon="1.50202">
        <ele>145.75857543945</ele>
        <time>2013-09-22T07:09:59.000Z</time>
      </trkpt>
      <trkpt lat="49.16085" lon="1.50213">
        <ele>145.68930053711</ele>
        <time>2013-09-22T07:10:01.000Z</time>
      </trkpt>
      <trkpt lat="49.16091" lon="1.50229">
        <ele>145.49589538574</ele>
        <time>2013-09-22T07:10:04.000Z</time>
      </trkpt>
      <trkpt lat="49.16095" lon="1.5024">
        <ele>145.30239868164</ele>
        <time>2013-09-22T07:10:06.000Z</time>
      </trkpt>
      <trkpt lat="49.16103" lon="1.50257">
        <ele>145.04432678223</ele>
        <time>2013-09-22T07:10:09.000Z</time>
      </trkpt>
      <trkpt lat="49.16109" lon="1.50274">
        <ele>144.72673034668</ele>
        <time>2013-09-22T07:10:12.000Z</time>
      </trkpt>
      <trkpt lat="49.16113" lon="1.50284">
        <ele>144.38688659668</ele>
        <time>2013-09-22T07:10:14.000Z</time>
      </trkpt>
      <trkpt lat="49.16119" lon="1.50296">
        <ele>144.03186035156</ele>
        <time>2013-09-22T07:10:17.000Z</time>
      </trkpt>
      <trkpt lat="49.16126" lon="1.50311">
        <ele>143.61543273926</ele>
        <time>2013-09-22T07:10:20.000Z</time>
      </trkpt>
      <trkpt lat="49.16131" lon="1.50321">
        <ele>143.23672485352</ele>
        <time>2013-09-22T07:10:22.000Z</time>
      </trkpt>
      <trkpt lat="49.16135" lon="1.50331">
        <ele>142.90747070312</ele>
        <time>2013-09-22T07:10:24.000Z</time>
      </trkpt>
      <trkpt lat="49.16139" lon="1.50341">
        <ele>142.57968139648</ele>
        <time>2013-09-22T07:10:26.000Z</time>
      </trkpt>
      <trkpt lat="49.16145" lon="1.50354">
        <ele>142.27952575684</ele>
        <time>2013-09-22T07:10:29.000Z</time>
      </trkpt>
      <trkpt lat="49.1615" lon="1.50365">
        <ele>142.03378295898</ele>
        <time>2013-09-22T07:10:31.000Z</time>
      </trkpt>
      <trkpt lat="49.16155" lon="1.50377">
        <ele>141.79489135742</ele>
        <time>2013-09-22T07:10:33.000Z</time>
      </trkpt>
      <trkpt lat="49.16162" lon="1.50392">
        <ele>141.52865600586</ele>
        <time>2013-09-22T07:10:36.000Z</time>
      </trkpt>
      <trkpt lat="49.16168" lon="1.50405">
        <ele>141.27465820312</ele>
        <time>2013-09-22T07:10:38.000Z</time>
      </trkpt>
      <trkpt lat="49.16176" lon="1.50421">
        <ele>141.02035522461</ele>
        <time>2013-09-22T07:10:41.000Z</time>
      </trkpt>
      <trkpt lat="49.16183" lon="1.50436">
        <ele>140.77319335938</ele>
        <time>2013-09-22T07:10:44.000Z</time>
      </trkpt>
      <trkpt lat="49.1619" lon="1.50452">
        <ele>140.54458618164</ele>
        <time>2013-09-22T07:10:47.000Z</time>
      </trkpt>
      <trkpt lat="49.16197" lon="1.5047">
        <ele>140.36445617676</ele>
        <time>2013-09-22T07:10:50.000Z</time>
      </trkpt>
      <trkpt lat="49.16205" lon="1.50489">
        <ele>140.19789123535</ele>
        <time>2013-09-22T07:10:53.000Z</time>
      </trkpt>
      <trkpt lat="49.16214" lon="1.50508">
        <ele>140.09677124023</ele>
        <time>2013-09-22T07:10:56.000Z</time>
      </trkpt>
      <trkpt lat="49.16222" lon="1.50528">
        <ele>140.08256530762</ele>
        <time>2013-09-22T07:10:59.000Z</time>
      </trkpt>
      <trkpt lat="49.16231" lon="1.50547">
        <ele>140.14874267578</ele>
        <time>2013-09-22T07:11:02.000Z</time>
      </trkpt>
      <trkpt lat="49.16239" lon="1.50564">
        <ele>140.28091430664</ele>
        <time>2013-09-22T07:11:05.000Z</time>
      </trkpt>
      <trkpt lat="49.16245" lon="1.50578">
        <ele>140.4921875</ele>
        <time>2013-09-22T07:11:08.000Z</time>
      </trkpt>
      <trkpt lat="49.16249" lon="1.5059">
        <ele>140.74203491211</ele>
        <time>2013-09-22T07:11:11.000Z</time>
      </trkpt>
      <trkpt lat="49.16252" lon="1.50597">
        <ele>140.98327636719</ele>
        <time>2013-09-22T07:11:13.000Z</time>
      </trkpt>
      <trkpt lat="49.16257" lon="1.50608">
        <ele>141.23100280762</ele>
        <time>2013-09-22T07:11:16.000Z</time>
      </trkpt>
      <trkpt lat="49.16263" lon="1.50618">
        <ele>141.46936035156</ele>
        <time>2013-09-22T07:11:19.000Z</time>
      </trkpt>
      <trkpt lat="49.16267" lon="1.50627">
        <ele>141.70027160644</ele>
        <time>2013-09-22T07:11:22.000Z</time>
      </trkpt>
      <trkpt lat="49.1627" lon="1.50633">
        <ele>141.91470336914</ele>
        <time>2013-09-22T07:11:24.000Z</time>
      </trkpt>
      <trkpt lat="49.16274" lon="1.50639">
        <ele>142.10949707031</ele>
        <time>2013-09-22T07:11:27.000Z</time>
      </trkpt>
      <trkpt lat="49.16277" lon="1.50642">
        <ele>142.2607421875</ele>
        <time>2013-09-22T07:11:30.000Z</time>
      </trkpt>
      <trkpt lat="49.16278" lon="1.50644">
        <ele>142.37927246094</ele>
        <time>2013-09-22T07:11:33.000Z</time>
      </trkpt>
      <trkpt lat="49.16278" lon="1.50644">
        <ele>142.37927246094</ele>
        <time>2013-09-22T07:11:53.000Z</time>
      </trkpt>
      <trkpt lat="49.16279" lon="1.50645">
        <ele>142.45431518555</ele>
        <time>2013-09-22T07:12:05.000Z</time>
      </trkpt>
      <trkpt lat="49.16279" lon="1.50645">
        <ele>142.45431518555</ele>
        <time>2013-09-22T07:12:25.000Z</time>
      </trkpt>
      <trkpt lat="49.1628" lon="1.50645">
        <ele>142.49304199219</ele>
        <time>2013-09-22T07:12:28.000Z</time>
      </trkpt>
      <trkpt lat="49.16283" lon="1.50644">
        <ele>142.49011230469</ele>
        <time>2013-09-22T07:12:30.000Z</time>
      </trkpt>
      <trkpt lat="49.16291" lon="1.50645">
        <ele>142.43611145019</ele>
        <time>2013-09-22T07:12:33.000Z</time>
      </trkpt>
      <trkpt lat="49.16303" lon="1.50645">
        <ele>142.32446289062</ele>
        <time>2013-09-22T07:12:36.000Z</time>
      </trkpt>
      <trkpt lat="49.16315" lon="1.50645">
        <ele>142.14575195312</ele>
        <time>2013-09-22T07:12:39.000Z</time>
      </trkpt>
      <trkpt lat="49.16323" lon="1.50645">
        <ele>141.93539428711</ele>
        <time>2013-09-22T07:12:41.000Z</time>
      </trkpt>
      <trkpt lat="49.16332" lon="1.50645">
        <ele>141.70767211914</ele>
        <time>2013-09-22T07:12:43.000Z</time>
      </trkpt>
      <trkpt lat="49.16352" lon="1.50645">
        <ele>141.47763061523</ele>
        <time>2013-09-22T07:12:46.000Z</time>
      </trkpt>
      <trkpt lat="49.16376" lon="1.50645">
        <ele>141.25248718262</ele>
        <time>2013-09-22T07:12:49.000Z</time>
      </trkpt>
      <trkpt lat="49.16393" lon="1.50643">
        <ele>141.05107116699</ele>
        <time>2013-09-22T07:12:51.000Z</time>
      </trkpt>
      <trkpt lat="49.16415" lon="1.5064">
        <ele>140.83206176758</ele>
        <time>2013-09-22T07:12:54.000Z</time>
      </trkpt>
      <trkpt lat="49.16434" lon="1.50637">
        <ele>140.65161132812</ele>
        <time>2013-09-22T07:12:57.000Z</time>
      </trkpt>
      <trkpt lat="49.16446" lon="1.50635">
        <ele>140.51338195801</ele>
        <time>2013-09-22T07:12:59.000Z</time>
      </trkpt>
      <trkpt lat="49.16466" lon="1.50633">
        <ele>140.43342590332</ele>
        <time>2013-09-22T07:13:02.000Z</time>
      </trkpt>
      <trkpt lat="49.16489" lon="1.5063">
        <ele>140.40571594238</ele>
        <time>2013-09-22T07:13:05.000Z</time>
      </trkpt>
      <trkpt lat="49.16513" lon="1.5062">
        <ele>140.47445678711</ele>
        <time>2013-09-22T07:13:08.000Z</time>
      </trkpt>
      <trkpt lat="49.16529" lon="1.50613">
        <ele>140.60737609863</ele>
        <time>2013-09-22T07:13:10.000Z</time>
      </trkpt>
      <trkpt lat="49.16548" lon="1.50602">
        <ele>140.84716796875</ele>
        <time>2013-09-22T07:13:13.000Z</time>
      </trkpt>
      <trkpt lat="49.16561" lon="1.50593">
        <ele>141.17543029785</ele>
        <time>2013-09-22T07:13:15.000Z</time>
      </trkpt>
      <trkpt lat="49.16573" lon="1.50585">
        <ele>141.59700012207</ele>
        <time>2013-09-22T07:13:17.000Z</time>
      </trkpt>
      <trkpt lat="49.16585" lon="1.50577">
        <ele>142.1015625</ele>
        <time>2013-09-22T07:13:19.000Z</time>
      </trkpt>
      <trkpt lat="49.16603" lon="1.50565">
        <ele>142.78213500977</ele>
        <time>2013-09-22T07:13:22.000Z</time>
      </trkpt>
      <trkpt lat="49.16619" lon="1.50553">
        <ele>143.58975219727</ele>
        <time>2013-09-22T07:13:25.000Z</time>
      </trkpt>
      <trkpt lat="49.1663" lon="1.50546">
        <ele>144.45004272461</ele>
        <time>2013-09-22T07:13:27.000Z</time>
      </trkpt>
      <trkpt lat="49.16644" lon="1.50536">
        <ele>145.42353820801</ele>
        <time>2013-09-22T07:13:30.000Z</time>
      </trkpt>
      <trkpt lat="49.16659" lon="1.50529">
        <ele>146.48294067383</ele>
        <time>2013-09-22T07:13:33.000Z</time>
      </trkpt>
      <trkpt lat="49.16673" lon="1.50524">
        <ele>147.45181274414</ele>
        <time>2013-09-22T07:13:36.000Z</time>
      </trkpt>
      <trkpt lat="49.16683" lon="1.5052">
        <ele>148.25102233887</ele>
        <time>2013-09-22T07:13:38.000Z</time>
      </trkpt>
      <trkpt lat="49.16697" lon="1.50516">
        <ele>148.97547912598</ele>
        <time>2013-09-22T07:13:41.000Z</time>
      </trkpt>
      <trkpt lat="49.1671" lon="1.50513">
        <ele>149.53935241699</ele>
        <time>2013-09-22T07:13:44.000Z</time>
      </trkpt>
      <trkpt lat="49.16718" lon="1.50511">
        <ele>149.92903137207</ele>
        <time>2013-09-22T07:13:46.000Z</time>
      </trkpt>
      <trkpt lat="49.16729" lon="1.50508">
        <ele>150.21063232422</ele>
        <time>2013-09-22T07:13:49.000Z</time>
      </trkpt>
      <trkpt lat="49.16737" lon="1.50507">
        <ele>150.45014953613</ele>
        <time>2013-09-22T07:13:51.000Z</time>
      </trkpt>
      <trkpt lat="49.16749" lon="1.50504">
        <ele>150.64877319336</ele>
        <time>2013-09-22T07:13:54.000Z</time>
      </trkpt>
      <trkpt lat="49.16756" lon="1.50504">
        <ele>150.82080078125</ele>
        <time>2013-09-22T07:13:56.000Z</time>
      </trkpt>
      <trkpt lat="49.16763" lon="1.50504">
        <ele>150.98715209961</ele>
        <time>2013-09-22T07:13:58.000Z</time>
      </trkpt>
      <trkpt lat="49.16773" lon="1.50505">
        <ele>151.15811157227</ele>
        <time>2013-09-22T07:14:01.000Z</time>
      </trkpt>
      <trkpt lat="49.1678" lon="1.50506">
        <ele>151.33654785156</ele>
        <time>2013-09-22T07:14:03.000Z</time>
      </trkpt>
      <trkpt lat="49.1679" lon="1.50505">
        <ele>151.52279663086</ele>
        <time>2013-09-22T07:14:06.000Z</time>
      </trkpt>
      <trkpt lat="49.168" lon="1.50503">
        <ele>151.72772216797</ele>
        <time>2013-09-22T07:14:09.000Z</time>
      </trkpt>
      <trkpt lat="49.1681" lon="1.50501">
        <ele>151.95205688477</ele>
        <time>2013-09-22T07:14:12.000Z</time>
      </trkpt>
      <trkpt lat="49.16816" lon="1.50499">
        <ele>152.16502380371</ele>
        <time>2013-09-22T07:14:14.000Z</time>
      </trkpt>
      <trkpt lat="49.16822" lon="1.50496">
        <ele>152.37841796875</ele>
        <time>2013-09-22T07:14:16.000Z</time>
      </trkpt>
      <trkpt lat="49.16828" lon="1.50491">
        <ele>152.58905029297</ele>
        <time>2013-09-22T07:14:18.000Z</time>
      </trkpt>
      <trkpt lat="49.16837" lon="1.50484">
        <ele>152.80938720703</ele>
        <time>2013-09-22T07:14:21.000Z</time>
      </trkpt>
      <trkpt lat="49.16846" lon="1.50478">
        <ele>153.04943847656</ele>
        <time>2013-09-22T07:14:24.000Z</time>
      </trkpt>
      <trkpt lat="49.16856" lon="1.50469">
        <ele>153.33169555664</ele>
        <time>2013-09-22T07:14:27.000Z</time>
      </trkpt>
      <trkpt lat="49.16864" lon="1.5046">
        <ele>153.6583404541</ele>
        <time>2013-09-22T07:14:30.000Z</time>
      </trkpt>
      <trkpt lat="49.16872" lon="1.50451">
        <ele>154.02359008789</ele>
        <time>2013-09-22T07:14:33.000Z</time>
      </trkpt>
      <trkpt lat="49.16878" lon="1.50445">
        <ele>154.38305664062</ele>
        <time>2013-09-22T07:14:35.000Z</time>
      </trkpt>
      <trkpt lat="49.16883" lon="1.50439">
        <ele>154.73239135742</ele>
        <time>2013-09-22T07:14:37.000Z</time>
      </trkpt>
      <trkpt lat="49.16888" lon="1.50433">
        <ele>155.06112670898</ele>
        <time>2013-09-22T07:14:39.000Z</time>
      </trkpt>
      <trkpt lat="49.16896" lon="1.50425">
        <ele>155.39605712891</ele>
        <time>2013-09-22T07:14:42.000Z</time>
      </trkpt>
      <trkpt lat="49.16904" lon="1.50416">
        <ele>155.74810791016</ele>
        <time>2013-09-22T07:14:45.000Z</time>
      </trkpt>
      <trkpt lat="49.16914" lon="1.50408">
        <ele>156.13008117676</ele>
        <time>2013-09-22T07:14:48.000Z</time>
      </trkpt>
      <trkpt lat="49.16922" lon="1.504">
        <ele>156.52774047852</ele>
        <time>2013-09-22T07:14:51.000Z</time>
      </trkpt>
      <trkpt lat="49.16928" lon="1.50393">
        <ele>156.91201782227</ele>
        <time>2013-09-22T07:14:53.000Z</time>
      </trkpt>
      <trkpt lat="49.16934" lon="1.50386">
        <ele>157.24974060059</ele>
        <time>2013-09-22T07:14:55.000Z</time>
      </trkpt>
      <trkpt lat="49.1694" lon="1.50379">
        <ele>157.51873779297</ele>
        <time>2013-09-22T07:14:57.000Z</time>
      </trkpt>
      <trkpt lat="49.16949" lon="1.50368">
        <ele>157.73503112793</ele>
        <time>2013-09-22T07:15:00.000Z</time>
      </trkpt>
      <trkpt lat="49.16959" lon="1.50357">
        <ele>157.89181518555</ele>
        <time>2013-09-22T07:15:03.000Z</time>
      </trkpt>
      <trkpt lat="49.16969" lon="1.50347">
        <ele>158.00495910644</ele>
        <time>2013-09-22T07:15:06.000Z</time>
      </trkpt>
      <trkpt lat="49.16979" lon="1.50337">
        <ele>158.06428527832</ele>
        <time>2013-09-22T07:15:09.000Z</time>
      </trkpt>
      <trkpt lat="49.16986" lon="1.50331">
        <ele>158.08782958984</ele>
        <time>2013-09-22T07:15:11.000Z</time>
      </trkpt>
      <trkpt lat="49.16991" lon="1.50326">
        <ele>158.09045410156</ele>
        <time>2013-09-22T07:15:13.000Z</time>
      </trkpt>
      <trkpt lat="49.17" lon="1.50317">
        <ele>158.10046386719</ele>
        <time>2013-09-22T07:15:16.000Z</time>
      </trkpt>
      <trkpt lat="49.17011" lon="1.50306">
        <ele>158.18260192871</ele>
        <time>2013-09-22T07:15:19.000Z</time>
      </trkpt>
      <trkpt lat="49.17022" lon="1.50296">
        <ele>158.34034729004</ele>
        <time>2013-09-22T07:15:22.000Z</time>
      </trkpt>
      <trkpt lat="49.17028" lon="1.50289">
        <ele>158.54255676269</ele>
        <time>2013-09-22T07:15:24.000Z</time>
      </trkpt>
      <trkpt lat="49.17039" lon="1.50279">
        <ele>158.78425598144</ele>
        <time>2013-09-22T07:15:27.000Z</time>
      </trkpt>
      <trkpt lat="49.17046" lon="1.50273">
        <ele>159.03140258789</ele>
        <time>2013-09-22T07:15:29.000Z</time>
      </trkpt>
      <trkpt lat="49.17057" lon="1.50265">
        <ele>159.24795532227</ele>
        <time>2013-09-22T07:15:32.000Z</time>
      </trkpt>
      <trkpt lat="49.17064" lon="1.50259">
        <ele>159.42739868164</ele>
        <time>2013-09-22T07:15:34.000Z</time>
      </trkpt>
      <trkpt lat="49.17075" lon="1.50251">
        <ele>159.59980773926</ele>
        <time>2013-09-22T07:15:37.000Z</time>
      </trkpt>
      <trkpt lat="49.17084" lon="1.50243">
        <ele>159.74057006836</ele>
        <time>2013-09-22T07:15:40.000Z</time>
      </trkpt>
      <trkpt lat="49.17089" lon="1.50235">
        <ele>159.83915710449</ele>
        <time>2013-09-22T07:15:42.000Z</time>
      </trkpt>
      <trkpt lat="49.17099" lon="1.50224">
        <ele>159.87454223633</ele>
        <time>2013-09-22T07:15:45.000Z</time>
      </trkpt>
      <trkpt lat="49.17105" lon="1.50216">
        <ele>159.87283325195</ele>
        <time>2013-09-22T07:15:47.000Z</time>
      </trkpt>
      <trkpt lat="49.17115" lon="1.50206">
        <ele>159.81640625</ele>
        <time>2013-09-22T07:15:50.000Z</time>
      </trkpt>
      <trkpt lat="49.17123" lon="1.50198">
        <ele>159.72265625</ele>
        <time>2013-09-22T07:15:52.000Z</time>
      </trkpt>
      <trkpt lat="49.1713" lon="1.5019">
        <ele>159.625</ele>
        <time>2013-09-22T07:15:54.000Z</time>
      </trkpt>
      <trkpt lat="49.1714" lon="1.50179">
        <ele>159.5263671875</ele>
        <time>2013-09-22T07:15:57.000Z</time>
      </trkpt>
      <trkpt lat="49.17147" lon="1.50173">
        <ele>159.42578125</ele>
        <time>2013-09-22T07:15:59.000Z</time>
      </trkpt>
      <trkpt lat="49.17155" lon="1.50166">
        <ele>159.32836914062</ele>
        <time>2013-09-22T07:16:01.000Z</time>
      </trkpt>
      <trkpt lat="49.17166" lon="1.50156">
        <ele>159.17315673828</ele>
        <time>2013-09-22T07:16:04.000Z</time>
      </trkpt>
      <trkpt lat="49.17177" lon="1.5015">
        <ele>158.95449829102</ele>
        <time>2013-09-22T07:16:07.000Z</time>
      </trkpt>
      <trkpt lat="49.17189" lon="1.50147">
        <ele>158.68818664551</ele>
        <time>2013-09-22T07:16:10.000Z</time>
      </trkpt>
      <trkpt lat="49.17202" lon="1.50145">
        <ele>158.36814880371</ele>
        <time>2013-09-22T07:16:13.000Z</time>
      </trkpt>
      <trkpt lat="49.17215" lon="1.50143">
        <ele>157.99588012695</ele>
        <time>2013-09-22T07:16:15.000Z</time>
      </trkpt>
      <trkpt lat="49.17229" lon="1.5014">
        <ele>157.61932373047</ele>
        <time>2013-09-22T07:16:17.000Z</time>
      </trkpt>
      <trkpt lat="49.17249" lon="1.50135">
        <ele>157.20495605469</ele>
        <time>2013-09-22T07:16:20.000Z</time>
      </trkpt>
      <trkpt lat="49.17265" lon="1.50129">
        <ele>156.75543212891</ele>
        <time>2013-09-22T07:16:23.000Z</time>
      </trkpt>
      <trkpt lat="49.17285" lon="1.50121">
        <ele>156.24084472656</ele>
        <time>2013-09-22T07:16:26.000Z</time>
      </trkpt>
      <trkpt lat="49.17304" lon="1.50112">
        <ele>155.66589355469</ele>
        <time>2013-09-22T07:16:29.000Z</time>
      </trkpt>
      <trkpt lat="49.17315" lon="1.50106">
        <ele>155.08740234375</ele>
        <time>2013-09-22T07:16:31.000Z</time>
      </trkpt>
      <trkpt lat="49.17336" lon="1.50095">
        <ele>154.47122192383</ele>
        <time>2013-09-22T07:16:34.000Z</time>
      </trkpt>
      <trkpt lat="49.17358" lon="1.50088">
        <ele>153.77244567871</ele>
        <time>2013-09-22T07:16:37.000Z</time>
      </trkpt>
      <trkpt lat="49.17371" lon="1.50086">
        <ele>153.10316467285</ele>
        <time>2013-09-22T07:16:39.000Z</time>
      </trkpt>
      <trkpt lat="49.17382" lon="1.50082">
        <ele>152.47099304199</ele>
        <time>2013-09-22T07:16:41.000Z</time>
      </trkpt>
      <trkpt lat="49.17399" lon="1.50077">
        <ele>151.7848815918</ele>
        <time>2013-09-22T07:16:44.000Z</time>
      </trkpt>
      <trkpt lat="49.17412" lon="1.50074">
        <ele>151.15802001953</ele>
        <time>2013-09-22T07:16:47.000Z</time>
      </trkpt>
      <trkpt lat="49.17433" lon="1.50066">
        <ele>150.61912536621</ele>
        <time>2013-09-22T07:16:50.000Z</time>
      </trkpt>
      <trkpt lat="49.17451" lon="1.50059">
        <ele>150.11080932617</ele>
        <time>2013-09-22T07:16:53.000Z</time>
      </trkpt>
      <trkpt lat="49.17467" lon="1.50053">
        <ele>149.62678527832</ele>
        <time>2013-09-22T07:16:56.000Z</time>
      </trkpt>
      <trkpt lat="49.17476" lon="1.50049">
        <ele>149.23217773438</ele>
        <time>2013-09-22T07:16:58.000Z</time>
      </trkpt>
      <trkpt lat="49.17491" lon="1.50042">
        <ele>148.85800170898</ele>
        <time>2013-09-22T07:17:01.000Z</time>
      </trkpt>
      <trkpt lat="49.175" lon="1.50039">
        <ele>148.53569030762</ele>
        <time>2013-09-22T07:17:03.000Z</time>
      </trkpt>
      <trkpt lat="49.17511" lon="1.50035">
        <ele>148.32209777832</ele>
        <time>2013-09-22T07:17:06.000Z</time>
      </trkpt>
      <trkpt lat="49.17521" lon="1.5003">
        <ele>148.21691894531</ele>
        <time>2013-09-22T07:17:09.000Z</time>
      </trkpt>
      <trkpt lat="49.17527" lon="1.50029">
        <ele>148.18664550781</ele>
        <time>2013-09-22T07:17:11.000Z</time>
      </trkpt>
      <trkpt lat="49.17535" lon="1.50028">
        <ele>148.27647399902</ele>
        <time>2013-09-22T07:17:14.000Z</time>
      </trkpt>
      <trkpt lat="49.17542" lon="1.50036">
        <ele>148.47366333008</ele>
        <time>2013-09-22T07:17:17.000Z</time>
      </trkpt>
      <trkpt lat="49.17544" lon="1.50048">
        <ele>148.67918395996</ele>
        <time>2013-09-22T07:17:20.000Z</time>
      </trkpt>
      <trkpt lat="49.17548" lon="1.50063">
        <ele>148.89698791504</ele>
        <time>2013-09-22T07:17:23.000Z</time>
      </trkpt>
      <trkpt lat="49.17557" lon="1.50069">
        <ele>149.12811279297</ele>
        <time>2013-09-22T07:17:26.000Z</time>
      </trkpt>
      <trkpt lat="49.17562" lon="1.50064">
        <ele>149.32496643066</ele>
        <time>2013-09-22T07:17:28.000Z</time>
      </trkpt>
      <trkpt lat="49.17568" lon="1.50056">
        <ele>149.48062133789</ele>
        <time>2013-09-22T07:17:30.000Z</time>
      </trkpt>
      <trkpt lat="49.17577" lon="1.50045">
        <ele>149.62657165527</ele>
        <time>2013-09-22T07:17:33.000Z</time>
      </trkpt>
      <trkpt lat="49.17584" lon="1.50039">
        <ele>149.75373840332</ele>
        <time>2013-09-22T07:17:35.000Z</time>
      </trkpt>
      <trkpt lat="49.17593" lon="1.50032">
        <ele>149.87690734863</ele>
        <time>2013-09-22T07:17:38.000Z</time>
      </trkpt>
      <trkpt lat="49.17603" lon="1.50025">
        <ele>150.03280639648</ele>
        <time>2013-09-22T07:17:41.000Z</time>
      </trkpt>
      <trkpt lat="49.17612" lon="1.50018">
        <ele>150.21481323242</ele>
        <time>2013-09-22T07:17:44.000Z</time>
      </trkpt>
      <trkpt lat="49.17618" lon="1.50013">
        <ele>150.39552307129</ele>
        <time>2013-09-22T07:17:46.000Z</time>
      </trkpt>
      <trkpt lat="49.17625" lon="1.50009">
        <ele>150.58056640625</ele>
        <time>2013-09-22T07:17:48.000Z</time>
      </trkpt>
      <trkpt lat="49.17635" lon="1.50004">
        <ele>150.78544616699</ele>
        <time>2013-09-22T07:17:51.000Z</time>
      </trkpt>
      <trkpt lat="49.17642" lon="1.5">
        <ele>150.9864654541</ele>
        <time>2013-09-22T07:17:53.000Z</time>
      </trkpt>
      <trkpt lat="49.17648" lon="1.49996">
        <ele>151.15670776367</ele>
        <time>2013-09-22T07:17:55.000Z</time>
      </trkpt>
      <trkpt lat="49.17658" lon="1.49989">
        <ele>151.31259155273</ele>
        <time>2013-09-22T07:17:58.000Z</time>
      </trkpt>
      <trkpt lat="49.17664" lon="1.49985">
        <ele>151.44332885742</ele>
        <time>2013-09-22T07:18:00.000Z</time>
      </trkpt>
      <trkpt lat="49.17671" lon="1.49981">
        <ele>151.52723693848</ele>
        <time>2013-09-22T07:18:02.000Z</time>
      </trkpt>
      <trkpt lat="49.1768" lon="1.49974">
        <ele>151.58395385742</ele>
        <time>2013-09-22T07:18:05.000Z</time>
      </trkpt>
      <trkpt lat="49.17685" lon="1.4997">
        <ele>151.63340759277</ele>
        <time>2013-09-22T07:18:07.000Z</time>
      </trkpt>
      <trkpt lat="49.17691" lon="1.49966">
        <ele>151.67604064941</ele>
        <time>2013-09-22T07:18:09.000Z</time>
      </trkpt>
      <trkpt lat="49.17701" lon="1.49959">
        <ele>151.72607421875</ele>
        <time>2013-09-22T07:18:12.000Z</time>
      </trkpt>
      <trkpt lat="49.1771" lon="1.49952">
        <ele>151.77709960938</ele>
        <time>2013-09-22T07:18:15.000Z</time>
      </trkpt>
      <trkpt lat="49.17716" lon="1.49948">
        <ele>151.82507324219</ele>
        <time>2013-09-22T07:18:17.000Z</time>
      </trkpt>
      <trkpt lat="49.17725" lon="1.49942">
        <ele>151.88275146484</ele>
        <time>2013-09-22T07:18:20.000Z</time>
      </trkpt>
      <trkpt lat="49.1773" lon="1.49937">
        <ele>151.93402099609</ele>
        <time>2013-09-22T07:18:22.000Z</time>
      </trkpt>
      <trkpt lat="49.17739" lon="1.49931">
        <ele>151.98443603516</ele>
        <time>2013-09-22T07:18:25.000Z</time>
      </trkpt>
      <trkpt lat="49.17746" lon="1.49927">
        <ele>152.03771972656</ele>
        <time>2013-09-22T07:18:27.000Z</time>
      </trkpt>
      <trkpt lat="49.17753" lon="1.49924">
        <ele>152.09158325195</ele>
        <time>2013-09-22T07:18:29.000Z</time>
      </trkpt>
      <trkpt lat="49.17759" lon="1.4992">
        <ele>152.12998962402</ele>
        <time>2013-09-22T07:18:31.000Z</time>
      </trkpt>
      <trkpt lat="49.17769" lon="1.49915">
        <ele>152.17025756836</ele>
        <time>2013-09-22T07:18:34.000Z</time>
      </trkpt>
      <trkpt lat="49.17779" lon="1.49911">
        <ele>152.21322631836</ele>
        <time>2013-09-22T07:18:37.000Z</time>
      </trkpt>
      <trkpt lat="49.17786" lon="1.49909">
        <ele>152.25764465332</ele>
        <time>2013-09-22T07:18:39.000Z</time>
      </trkpt>
      <trkpt lat="49.17795" lon="1.49906">
        <ele>152.31271362305</ele>
        <time>2013-09-22T07:18:42.000Z</time>
      </trkpt>
      <trkpt lat="49.17806" lon="1.49901">
        <ele>152.39653015137</ele>
        <time>2013-09-22T07:18:45.000Z</time>
      </trkpt>
      <trkpt lat="49.17818" lon="1.49897">
        <ele>152.50837707519</ele>
        <time>2013-09-22T07:18:48.000Z</time>
      </trkpt>
      <trkpt lat="49.17826" lon="1.49894">
        <ele>152.62602233887</ele>
        <time>2013-09-22T07:18:50.000Z</time>
      </trkpt>
      <trkpt lat="49.17837" lon="1.49892">
        <ele>152.75619506836</ele>
        <time>2013-09-22T07:18:53.000Z</time>
      </trkpt>
      <trkpt lat="49.17848" lon="1.49889">
        <ele>152.88557434082</ele>
        <time>2013-09-22T07:18:56.000Z</time>
      </trkpt>
      <trkpt lat="49.17855" lon="1.49888">
        <ele>152.99851989746</ele>
        <time>2013-09-22T07:18:58.000Z</time>
      </trkpt>
      <trkpt lat="49.17868" lon="1.49885">
        <ele>153.09475708008</ele>
        <time>2013-09-22T07:19:01.000Z</time>
      </trkpt>
      <trkpt lat="49.17875" lon="1.49884">
        <ele>153.17614746094</ele>
        <time>2013-09-22T07:19:03.000Z</time>
      </trkpt>
      <trkpt lat="49.17885" lon="1.49883">
        <ele>153.2448425293</ele>
        <time>2013-09-22T07:19:06.000Z</time>
      </trkpt>
      <trkpt lat="49.17897" lon="1.49883">
        <ele>153.31181335449</ele>
        <time>2013-09-22T07:19:09.000Z</time>
      </trkpt>
      <trkpt lat="49.17908" lon="1.49883">
        <ele>153.38346862793</ele>
        <time>2013-09-22T07:19:12.000Z</time>
      </trkpt>
      <trkpt lat="49.17917" lon="1.49882">
        <ele>153.44869995117</ele>
        <time>2013-09-22T07:19:14.000Z</time>
      </trkpt>
      <trkpt lat="49.17929" lon="1.4988">
        <ele>153.51327514648</ele>
        <time>2013-09-22T07:19:17.000Z</time>
      </trkpt>
      <trkpt lat="49.17942" lon="1.49877">
        <ele>153.57205200195</ele>
        <time>2013-09-22T07:19:20.000Z</time>
      </trkpt>
      <trkpt lat="49.1795" lon="1.49871">
        <ele>153.61557006836</ele>
        <time>2013-09-22T07:19:22.000Z</time>
      </trkpt>
      <trkpt lat="49.17958" lon="1.49863">
        <ele>153.64457702637</ele>
        <time>2013-09-22T07:19:24.000Z</time>
      </trkpt>
      <trkpt lat="49.17969" lon="1.49851">
        <ele>153.66987609863</ele>
        <time>2013-09-22T07:19:27.000Z</time>
      </trkpt>
      <trkpt lat="49.17979" lon="1.49842">
        <ele>153.69993591309</ele>
        <time>2013-09-22T07:19:29.000Z</time>
      </trkpt>
      <trkpt lat="49.17989" lon="1.49834">
        <ele>153.74156188965</ele>
        <time>2013-09-22T07:19:31.000Z</time>
      </trkpt>
      <trkpt lat="49.18005" lon="1.49824">
        <ele>153.69552612305</ele>
        <time>2013-09-22T07:19:34.000Z</time>
      </trkpt>
      <trkpt lat="49.1802" lon="1.49817">
        <ele>153.4778137207</ele>
        <time>2013-09-22T07:19:37.000Z</time>
      </trkpt>
      <trkpt lat="49.18031" lon="1.49813">
        <ele>153.14273071289</ele>
        <time>2013-09-22T07:19:39.000Z</time>
      </trkpt>
      <trkpt lat="49.18045" lon="1.49809">
        <ele>152.64373779297</ele>
        <time>2013-09-22T07:19:42.000Z</time>
      </trkpt>
      <trkpt lat="49.18052" lon="1.49809">
        <ele>152.07391357422</ele>
        <time>2013-09-22T07:19:45.000Z</time>
      </trkpt>
      <trkpt lat="49.18056" lon="1.49808">
        <ele>151.55484008789</ele>
        <time>2013-09-22T07:19:47.000Z</time>
      </trkpt>
      <trkpt lat="49.18063" lon="1.49806">
        <ele>151.12333679199</ele>
        <time>2013-09-22T07:19:50.000Z</time>
      </trkpt>
      <trkpt lat="49.1807" lon="1.49803">
        <ele>150.70536804199</ele>
        <time>2013-09-22T07:19:52.000Z</time>
      </trkpt>
      <trkpt lat="49.18081" lon="1.49799">
        <ele>150.30108642578</ele>
        <time>2013-09-22T07:19:54.000Z</time>
      </trkpt>
      <trkpt lat="49.18103" lon="1.49794">
        <ele>149.32637023926</ele>
        <time>2013-09-22T07:19:57.000Z</time>
      </trkpt>
      <trkpt lat="49.18129" lon="1.49795">
        <ele>147.70115661621</ele>
        <time>2013-09-22T07:20:00.000Z</time>
      </trkpt>
      <trkpt lat="49.18147" lon="1.49797">
        <ele>145.69073486328</ele>
        <time>2013-09-22T07:20:02.000Z</time>
      </trkpt>
      <trkpt lat="49.18176" lon="1.49803">
        <ele>143.27900695801</ele>
        <time>2013-09-22T07:20:05.000Z</time>
      </trkpt>
      <trkpt lat="49.18203" lon="1.49809">
        <ele>140.8487701416</ele>
        <time>2013-09-22T07:20:08.000Z</time>
      </trkpt>
      <trkpt lat="49.18223" lon="1.49818">
        <ele>138.90702819824</ele>
        <time>2013-09-22T07:20:11.000Z</time>
      </trkpt>
      <trkpt lat="49.18233" lon="1.49824">
        <ele>137.55526733398</ele>
        <time>2013-09-22T07:20:13.000Z</time>
      </trkpt>
      <trkpt lat="49.18245" lon="1.49828">
        <ele>136.55097961426</ele>
        <time>2013-09-22T07:20:15.000Z</time>
      </trkpt>
      <trkpt lat="49.18258" lon="1.49831">
        <ele>136.14381408691</ele>
        <time>2013-09-22T07:20:18.000Z</time>
      </trkpt>
      <trkpt lat="49.18266" lon="1.49829">
        <ele>136.03332519531</ele>
        <time>2013-09-22T07:20:21.000Z</time>
      </trkpt>
      <trkpt lat="49.1827" lon="1.49826">
        <ele>136.15069580078</ele>
        <time>2013-09-22T07:20:23.000Z</time>
      </trkpt>
      <trkpt lat="49.18276" lon="1.49823">
        <ele>136.49690246582</ele>
        <time>2013-09-22T07:20:26.000Z</time>
      </trkpt>
      <trkpt lat="49.18282" lon="1.49818">
        <ele>137.09815979004</ele>
        <time>2013-09-22T07:20:29.000Z</time>
      </trkpt>
      <trkpt lat="49.18285" lon="1.49815">
        <ele>137.67167663574</ele>
        <time>2013-09-22T07:20:31.000Z</time>
      </trkpt>
      <trkpt lat="49.18289" lon="1.49811">
        <ele>138.21170043945</ele>
        <time>2013-09-22T07:20:34.000Z</time>
      </trkpt>
      <trkpt lat="49.18292" lon="1.49809">
        <ele>138.72680664062</ele>
        <time>2013-09-22T07:20:36.000Z</time>
      </trkpt>
      <trkpt lat="49.18295" lon="1.49805">
        <ele>139.19345092773</ele>
        <time>2013-09-22T07:20:39.000Z</time>
      </trkpt>
      <trkpt lat="49.18299" lon="1.49802">
        <ele>139.63017272949</ele>
        <time>2013-09-22T07:20:42.000Z</time>
      </trkpt>
      <trkpt lat="49.18303" lon="1.49799">
        <ele>140.07688903809</ele>
        <time>2013-09-22T07:20:45.000Z</time>
      </trkpt>
      <trkpt lat="49.18306" lon="1.49796">
        <ele>140.51870727539</ele>
        <time>2013-09-22T07:20:48.000Z</time>
      </trkpt>
      <trkpt lat="49.18309" lon="1.49795">
        <ele>140.94799804688</ele>
        <time>2013-09-22T07:20:50.000Z</time>
      </trkpt>
      <trkpt lat="49.18311" lon="1.49794">
        <ele>141.35130310059</ele>
        <time>2013-09-22T07:20:53.000Z</time>
      </trkpt>
      <trkpt lat="49.18316" lon="1.49792">
        <ele>141.7645111084</ele>
        <time>2013-09-22T07:20:56.000Z</time>
      </trkpt>
      <trkpt lat="49.18319" lon="1.49789">
        <ele>142.17361450195</ele>
        <time>2013-09-22T07:20:58.000Z</time>
      </trkpt>
      <trkpt lat="49.18322" lon="1.49787">
        <ele>142.56845092773</ele>
        <time>2013-09-22T07:21:01.000Z</time>
      </trkpt>
      <trkpt lat="49.18325" lon="1.49784">
        <ele>142.99150085449</ele>
        <time>2013-09-22T07:21:04.000Z</time>
      </trkpt>
      <trkpt lat="49.18328" lon="1.49783">
        <ele>143.41705322266</ele>
        <time>2013-09-22T07:21:06.000Z</time>
      </trkpt>
      <trkpt lat="49.1833" lon="1.49782">
        <ele>143.79885864258</ele>
        <time>2013-09-22T07:21:08.000Z</time>
      </trkpt>
      <trkpt lat="49.18334" lon="1.4978">
        <ele>144.18774414062</ele>
        <time>2013-09-22T07:21:11.000Z</time>
      </trkpt>
      <trkpt lat="49.18336" lon="1.49779">
        <ele>144.53434753418</ele>
        <time>2013-09-22T07:21:13.000Z</time>
      </trkpt>
      <trkpt lat="49.18339" lon="1.49778">
        <ele>144.83291625977</ele>
        <time>2013-09-22T07:21:15.000Z</time>
      </trkpt>
      <trkpt lat="49.18341" lon="1.49777">
        <ele>145.11058044434</ele>
        <time>2013-09-22T07:21:17.000Z</time>
      </trkpt>
      <trkpt lat="49.18345" lon="1.49774">
        <ele>145.37979125977</ele>
        <time>2013-09-22T07:21:20.000Z</time>
      </trkpt>
      <trkpt lat="49.18349" lon="1.49773">
        <ele>145.62490844727</ele>
        <time>2013-09-22T07:21:23.000Z</time>
      </trkpt>
      <trkpt lat="49.18353" lon="1.49772">
        <ele>145.8818359375</ele>
        <time>2013-09-22T07:21:26.000Z</time>
      </trkpt>
      <trkpt lat="49.18356" lon="1.49769">
        <ele>146.15788269043</ele>
        <time>2013-09-22T07:21:28.000Z</time>
      </trkpt>
      <trkpt lat="49.18359" lon="1.49768">
        <ele>146.43559265137</ele>
        <time>2013-09-22T07:21:30.000Z</time>
      </trkpt>
      <trkpt lat="49.18364" lon="1.49767">
        <ele>146.71725463867</ele>
        <time>2013-09-22T07:21:33.000Z</time>
      </trkpt>
      <trkpt lat="49.18369" lon="1.49764">
        <ele>147.0280456543</ele>
        <time>2013-09-22T07:21:36.000Z</time>
      </trkpt>
      <trkpt lat="49.18372" lon="1.49762">
        <ele>147.33081054688</ele>
        <time>2013-09-22T07:21:38.000Z</time>
      </trkpt>
      <trkpt lat="49.18377" lon="1.49759">
        <ele>147.64736938477</ele>
        <time>2013-09-22T07:21:41.000Z</time>
      </trkpt>
      <trkpt lat="49.18381" lon="1.49756">
        <ele>147.98866271973</ele>
        <time>2013-09-22T07:21:44.000Z</time>
      </trkpt>
      <trkpt lat="49.18384" lon="1.49755">
        <ele>148.31643676758</ele>
        <time>2013-09-22T07:21:46.000Z</time>
      </trkpt>
      <trkpt lat="49.18387" lon="1.49754">
        <ele>148.59561157227</ele>
        <time>2013-09-22T07:21:48.000Z</time>
      </trkpt>
      <trkpt lat="49.18392" lon="1.49753">
        <ele>148.88900756836</ele>
        <time>2013-09-22T07:21:51.000Z</time>
      </trkpt>
      <trkpt lat="49.18398" lon="1.49751">
        <ele>149.19912719727</ele>
        <time>2013-09-22T07:21:54.000Z</time>
      </trkpt>
      <trkpt lat="49.18404" lon="1.49747">
        <ele>149.52485656738</ele>
        <time>2013-09-22T07:21:57.000Z</time>
      </trkpt>
      <trkpt lat="49.18407" lon="1.49745">
        <ele>149.83842468262</ele>
        <time>2013-09-22T07:21:59.000Z</time>
      </trkpt>
      <trkpt lat="49.18411" lon="1.49742">
        <ele>150.16635131836</ele>
        <time>2013-09-22T07:22:01.000Z</time>
      </trkpt>
      <trkpt lat="49.18415" lon="1.4974">
        <ele>150.48001098633</ele>
        <time>2013-09-22T07:22:03.000Z</time>
      </trkpt>
      <trkpt lat="49.1842" lon="1.49736">
        <ele>150.7576751709</ele>
        <time>2013-09-22T07:22:06.000Z</time>
      </trkpt>
      <trkpt lat="49.18425" lon="1.49732">
        <ele>150.99682617188</ele>
        <time>2013-09-22T07:22:09.000Z</time>
      </trkpt>
      <trkpt lat="49.18428" lon="1.4973">
        <ele>151.22760009766</ele>
        <time>2013-09-22T07:22:11.000Z</time>
      </trkpt>
      <trkpt lat="49.18432" lon="1.49727">
        <ele>151.43414306641</ele>
        <time>2013-09-22T07:22:13.000Z</time>
      </trkpt>
      <trkpt lat="49.18437" lon="1.49724">
        <ele>151.62521362305</ele>
        <time>2013-09-22T07:22:15.000Z</time>
      </trkpt>
      <trkpt lat="49.18444" lon="1.4972">
        <ele>151.81864929199</ele>
        <time>2013-09-22T07:22:18.000Z</time>
      </trkpt>
      <trkpt lat="49.18451" lon="1.49718">
        <ele>152.0168762207</ele>
        <time>2013-09-22T07:22:21.000Z</time>
      </trkpt>
      <trkpt lat="49.18457" lon="1.49717">
        <ele>152.2180480957</ele>
        <time>2013-09-22T07:22:24.000Z</time>
      </trkpt>
      <trkpt lat="49.1846" lon="1.49716">
        <ele>152.41365051269</ele>
        <time>2013-09-22T07:22:26.000Z</time>
      </trkpt>
      <trkpt lat="49.18466" lon="1.49713">
        <ele>152.6135559082</ele>
        <time>2013-09-22T07:22:29.000Z</time>
      </trkpt>
      <trkpt lat="49.18473" lon="1.49706">
        <ele>152.80940246582</ele>
        <time>2013-09-22T07:22:32.000Z</time>
      </trkpt>
      <trkpt lat="49.18478" lon="1.49701">
        <ele>152.98696899414</ele>
        <time>2013-09-22T07:22:34.000Z</time>
      </trkpt>
      <trkpt lat="49.18484" lon="1.49693">
        <ele>153.17326354981</ele>
        <time>2013-09-22T07:22:37.000Z</time>
      </trkpt>
      <trkpt lat="49.18491" lon="1.49686">
        <ele>153.36868286133</ele>
        <time>2013-09-22T07:22:40.000Z</time>
      </trkpt>
      <trkpt lat="49.18496" lon="1.49679">
        <ele>153.55889892578</ele>
        <time>2013-09-22T07:22:43.000Z</time>
      </trkpt>
      <trkpt lat="49.18502" lon="1.49671">
        <ele>153.74308776856</ele>
        <time>2013-09-22T07:22:46.000Z</time>
      </trkpt>
      <trkpt lat="49.18505" lon="1.49667">
        <ele>153.93696594238</ele>
        <time>2013-09-22T07:22:48.000Z</time>
      </trkpt>
      <trkpt lat="49.18509" lon="1.49662">
        <ele>154.15098571777</ele>
        <time>2013-09-22T07:22:50.000Z</time>
      </trkpt>
      <trkpt lat="49.18513" lon="1.49658">
        <ele>154.3924407959</ele>
        <time>2013-09-22T07:22:52.000Z</time>
      </trkpt>
      <trkpt lat="49.18517" lon="1.49654">
        <ele>154.66101074219</ele>
        <time>2013-09-22T07:22:54.000Z</time>
      </trkpt>
      <trkpt lat="49.18523" lon="1.49646">
        <ele>154.98782348633</ele>
        <time>2013-09-22T07:22:57.000Z</time>
      </trkpt>
      <trkpt lat="49.1853" lon="1.49635">
        <ele>155.37945556641</ele>
        <time>2013-09-22T07:23:00.000Z</time>
      </trkpt>
      <trkpt lat="49.18536" lon="1.49625">
        <ele>155.79847717285</ele>
        <time>2013-09-22T07:23:03.000Z</time>
      </trkpt>
      <trkpt lat="49.18541" lon="1.4962">
        <ele>156.21377563477</ele>
        <time>2013-09-22T07:23:05.000Z</time>
      </trkpt>
      <trkpt lat="49.18547" lon="1.49611">
        <ele>156.64237976074</ele>
        <time>2013-09-22T07:23:08.000Z</time>
      </trkpt>
      <trkpt lat="49.18552" lon="1.49603">
        <ele>157.02655029297</ele>
        <time>2013-09-22T07:23:11.000Z</time>
      </trkpt>
      <trkpt lat="49.18555" lon="1.49591">
        <ele>157.34980773926</ele>
        <time>2013-09-22T07:23:14.000Z</time>
      </trkpt>
      <trkpt lat="49.18552" lon="1.49581">
        <ele>157.57955932617</ele>
        <time>2013-09-22T07:23:17.000Z</time>
      </trkpt>
      <trkpt lat="49.1855" lon="1.49573">
        <ele>157.74085998535</ele>
        <time>2013-09-22T07:23:19.000Z</time>
      </trkpt>
      <trkpt lat="49.18548" lon="1.49565">
        <ele>157.81558227539</ele>
        <time>2013-09-22T07:23:21.000Z</time>
      </trkpt>
      <trkpt lat="49.18547" lon="1.4955">
        <ele>157.83062744141</ele>
        <time>2013-09-22T07:23:24.000Z</time>
      </trkpt>
      <trkpt lat="49.18544" lon="1.49536">
        <ele>157.77864074707</ele>
        <time>2013-09-22T07:23:27.000Z</time>
      </trkpt>
      <trkpt lat="49.18543" lon="1.49527">
        <ele>157.71351623535</ele>
        <time>2013-09-22T07:23:29.000Z</time>
      </trkpt>
      <trkpt lat="49.18543" lon="1.49515">
        <ele>157.66061401367</ele>
        <time>2013-09-22T07:23:32.000Z</time>
      </trkpt>
      <trkpt lat="49.18546" lon="1.49498">
        <ele>157.66004943848</ele>
        <time>2013-09-22T07:23:35.000Z</time>
      </trkpt>
      <trkpt lat="49.18549" lon="1.49489">
        <ele>157.68672180176</ele>
        <time>2013-09-22T07:23:37.000Z</time>
      </trkpt>
      <trkpt lat="49.1855" lon="1.49479">
        <ele>157.75491333008</ele>
        <time>2013-09-22T07:23:40.000Z</time>
      </trkpt>
      <trkpt lat="49.18552" lon="1.49471">
        <ele>157.84732055664</ele>
        <time>2013-09-22T07:23:43.000Z</time>
      </trkpt>
      <trkpt lat="49.18553" lon="1.49469">
        <ele>157.94999694824</ele>
        <time>2013-09-22T07:23:46.000Z</time>
      </trkpt>
      <trkpt lat="49.18553" lon="1.49467">
        <ele>158.00741577148</ele>
        <time>2013-09-22T07:23:49.000Z</time>
      </trkpt>
      <trkpt lat="49.18554" lon="1.49465">
        <ele>158.04638671875</ele>
        <time>2013-09-22T07:23:51.000Z</time>
      </trkpt>
      <trkpt lat="49.18554" lon="1.49458">
        <ele>158.07052612305</ele>
        <time>2013-09-22T07:24:11.000Z</time>
      </trkpt>
      <trkpt lat="49.18556" lon="1.49451">
        <ele>158.0964050293</ele>
        <time>2013-09-22T07:24:13.000Z</time>
      </trkpt>
      <trkpt lat="49.18557" lon="1.49444">
        <ele>158.11929321289</ele>
        <time>2013-09-22T07:24:15.000Z</time>
      </trkpt>
      <trkpt lat="49.1856" lon="1.49424">
        <ele>158.15133666992</ele>
        <time>2013-09-22T07:24:18.000Z</time>
      </trkpt>
      <trkpt lat="49.18562" lon="1.49406">
        <ele>158.1865234375</ele>
        <time>2013-09-22T07:24:21.000Z</time>
      </trkpt>
      <trkpt lat="49.18566" lon="1.4939">
        <ele>158.25503540039</ele>
        <time>2013-09-22T07:24:24.000Z</time>
      </trkpt>
      <trkpt lat="49.18568" lon="1.49379">
        <ele>158.33334350586</ele>
        <time>2013-09-22T07:24:26.000Z</time>
      </trkpt>
      <trkpt lat="49.18572" lon="1.49364">
        <ele>158.42855834961</ele>
        <time>2013-09-22T07:24:29.000Z</time>
      </trkpt>
      <trkpt lat="49.18575" lon="1.49353">
        <ele>158.53915405273</ele>
        <time>2013-09-22T07:24:32.000Z</time>
      </trkpt>
      <trkpt lat="49.18576" lon="1.49341">
        <ele>158.65060424805</ele>
        <time>2013-09-22T07:24:35.000Z</time>
      </trkpt>
      <trkpt lat="49.18576" lon="1.49334">
        <ele>158.72541809082</ele>
        <time>2013-09-22T07:24:37.000Z</time>
      </trkpt>
      <trkpt lat="49.18574" lon="1.4932">
        <ele>158.74165344238</ele>
        <time>2013-09-22T07:24:40.000Z</time>
      </trkpt>
      <trkpt lat="49.18573" lon="1.49307">
        <ele>158.70352172852</ele>
        <time>2013-09-22T07:24:42.000Z</time>
      </trkpt>
      <trkpt lat="49.18574" lon="1.4929">
        <ele>158.61158752441</ele>
        <time>2013-09-22T07:24:45.000Z</time>
      </trkpt>
      <trkpt lat="49.18574" lon="1.4927">
        <ele>158.46780395508</ele>
        <time>2013-09-22T07:24:48.000Z</time>
      </trkpt>
      <trkpt lat="49.18573" lon="1.49258">
        <ele>158.29598999023</ele>
        <time>2013-09-22T07:24:50.000Z</time>
      </trkpt>
      <trkpt lat="49.18573" lon="1.49246">
        <ele>158.14659118652</ele>
        <time>2013-09-22T07:24:52.000Z</time>
      </trkpt>
      <trkpt lat="49.18573" lon="1.49233">
        <ele>158.02554321289</ele>
        <time>2013-09-22T07:24:55.000Z</time>
      </trkpt>
      <trkpt lat="49.1857" lon="1.49214">
        <ele>157.93244934082</ele>
        <time>2013-09-22T07:24:58.000Z</time>
      </trkpt>
      <trkpt lat="49.18568" lon="1.492">
        <ele>157.87437438965</ele>
        <time>2013-09-22T07:25:01.000Z</time>
      </trkpt>
      <trkpt lat="49.18566" lon="1.49191">
        <ele>157.83984375</ele>
        <time>2013-09-22T07:25:03.000Z</time>
      </trkpt>
      <trkpt lat="49.18563" lon="1.49174">
        <ele>157.81640625</ele>
        <time>2013-09-22T07:25:06.000Z</time>
      </trkpt>
      <trkpt lat="49.18561" lon="1.49166">
        <ele>157.78636169434</ele>
        <time>2013-09-22T07:25:08.000Z</time>
      </trkpt>
      <trkpt lat="49.18555" lon="1.49151">
        <ele>157.73666381836</ele>
        <time>2013-09-22T07:25:11.000Z</time>
      </trkpt>
      <trkpt lat="49.18546" lon="1.49144">
        <ele>157.65910339356</ele>
        <time>2013-09-22T07:25:14.000Z</time>
      </trkpt>
      <trkpt lat="49.18539" lon="1.49137">
        <ele>157.5573425293</ele>
        <time>2013-09-22T07:25:16.000Z</time>
      </trkpt>
      <trkpt lat="49.18532" lon="1.49129">
        <ele>157.42697143555</ele>
        <time>2013-09-22T07:25:18.000Z</time>
      </trkpt>
      <trkpt lat="49.18522" lon="1.49117">
        <ele>157.24771118164</ele>
        <time>2013-09-22T07:25:21.000Z</time>
      </trkpt>
      <trkpt lat="49.18512" lon="1.49104">
        <ele>157.02944946289</ele>
        <time>2013-09-22T07:25:24.000Z</time>
      </trkpt>
      <trkpt lat="49.18503" lon="1.49092">
        <ele>156.77688598633</ele>
        <time>2013-09-22T07:25:27.000Z</time>
      </trkpt>
      <trkpt lat="49.18496" lon="1.49084">
        <ele>156.49499511719</ele>
        <time>2013-09-22T07:25:29.000Z</time>
      </trkpt>
      <trkpt lat="49.18484" lon="1.49071">
        <ele>156.15957641602</ele>
        <time>2013-09-22T07:25:32.000Z</time>
      </trkpt>
      <trkpt lat="49.18476" lon="1.49064">
        <ele>155.82197570801</ele>
        <time>2013-09-22T07:25:34.000Z</time>
      </trkpt>
      <trkpt lat="49.18462" lon="1.49049">
        <ele>155.44735717773</ele>
        <time>2013-09-22T07:25:37.000Z</time>
      </trkpt>
      <trkpt lat="49.1845" lon="1.49034">
        <ele>155.05578613281</ele>
        <time>2013-09-22T07:25:40.000Z</time>
      </trkpt>
      <trkpt lat="49.18443" lon="1.49025">
        <ele>154.669921875</ele>
        <time>2013-09-22T07:25:42.000Z</time>
      </trkpt>
      <trkpt lat="49.18431" lon="1.49009">
        <ele>154.283203125</ele>
        <time>2013-09-22T07:25:45.000Z</time>
      </trkpt>
      <trkpt lat="49.18423" lon="1.48998">
        <ele>153.90310668945</ele>
        <time>2013-09-22T07:25:47.000Z</time>
      </trkpt>
      <trkpt lat="49.18414" lon="1.48987">
        <ele>153.59098815918</ele>
        <time>2013-09-22T07:25:49.000Z</time>
      </trkpt>
      <trkpt lat="49.18406" lon="1.48976">
        <ele>153.33247375488</ele>
        <time>2013-09-22T07:25:51.000Z</time>
      </trkpt>
      <trkpt lat="49.18394" lon="1.48958">
        <ele>153.07778930664</ele>
        <time>2013-09-22T07:25:54.000Z</time>
      </trkpt>
      <trkpt lat="49.18385" lon="1.48947">
        <ele>152.88043212891</ele>
        <time>2013-09-22T07:25:56.000Z</time>
      </trkpt>
      <trkpt lat="49.18374" lon="1.48931">
        <ele>152.68984985352</ele>
        <time>2013-09-22T07:25:59.000Z</time>
      </trkpt>
      <trkpt lat="49.18364" lon="1.48919">
        <ele>152.4866027832</ele>
        <time>2013-09-22T07:26:02.000Z</time>
      </trkpt>
      <trkpt lat="49.18355" lon="1.48906">
        <ele>152.2873840332</ele>
        <time>2013-09-22T07:26:05.000Z</time>
      </trkpt>
      <trkpt lat="49.18346" lon="1.48889">
        <ele>152.10794067383</ele>
        <time>2013-09-22T07:26:08.000Z</time>
      </trkpt>
      <trkpt lat="49.18339" lon="1.48875">
        <ele>151.9421081543</ele>
        <time>2013-09-22T07:26:10.000Z</time>
      </trkpt>
      <trkpt lat="49.1833" lon="1.48856">
        <ele>151.79547119141</ele>
        <time>2013-09-22T07:26:13.000Z</time>
      </trkpt>
      <trkpt lat="49.18323" lon="1.48842">
        <ele>151.66662597656</ele>
        <time>2013-09-22T07:26:15.000Z</time>
      </trkpt>
      <trkpt lat="49.18317" lon="1.48827">
        <ele>151.52621459961</ele>
        <time>2013-09-22T07:26:17.000Z</time>
      </trkpt>
      <trkpt lat="49.18307" lon="1.48803">
        <ele>151.34512329102</ele>
        <time>2013-09-22T07:26:20.000Z</time>
      </trkpt>
      <trkpt lat="49.18298" lon="1.48782">
        <ele>151.11776733398</ele>
        <time>2013-09-22T07:26:23.000Z</time>
      </trkpt>
      <trkpt lat="49.18288" lon="1.48759">
        <ele>150.87307739258</ele>
        <time>2013-09-22T07:26:26.000Z</time>
      </trkpt>
      <trkpt lat="49.18279" lon="1.48738">
        <ele>150.65341186523</ele>
        <time>2013-09-22T07:26:29.000Z</time>
      </trkpt>
      <trkpt lat="49.18268" lon="1.48718">
        <ele>150.4944152832</ele>
        <time>2013-09-22T07:26:32.000Z</time>
      </trkpt>
      <trkpt lat="49.18261" lon="1.48704">
        <ele>150.42208862305</ele>
        <time>2013-09-22T07:26:34.000Z</time>
      </trkpt>
      <trkpt lat="49.1825" lon="1.48685">
        <ele>150.4186706543</ele>
        <time>2013-09-22T07:26:37.000Z</time>
      </trkpt>
      <trkpt lat="49.18242" lon="1.48673">
        <ele>150.41828918457</ele>
        <time>2013-09-22T07:26:39.000Z</time>
      </trkpt>
      <trkpt lat="49.18228" lon="1.48655">
        <ele>150.33171081543</ele>
        <time>2013-09-22T07:26:42.000Z</time>
      </trkpt>
      <trkpt lat="49.18214" lon="1.48638">
        <ele>150.11996459961</ele>
        <time>2013-09-22T07:26:45.000Z</time>
      </trkpt>
      <trkpt lat="49.18201" lon="1.48621">
        <ele>149.8073425293</ele>
        <time>2013-09-22T07:26:48.000Z</time>
      </trkpt>
      <trkpt lat="49.18192" lon="1.4861">
        <ele>149.43815612793</ele>
        <time>2013-09-22T07:26:50.000Z</time>
      </trkpt>
      <trkpt lat="49.1818" lon="1.48593">
        <ele>149.05351257324</ele>
        <time>2013-09-22T07:26:53.000Z</time>
      </trkpt>
      <trkpt lat="49.18172" lon="1.48581">
        <ele>148.73933410644</ele>
        <time>2013-09-22T07:26:55.000Z</time>
      </trkpt>
      <trkpt lat="49.18161" lon="1.48558">
        <ele>148.53633117676</ele>
        <time>2013-09-22T07:26:58.000Z</time>
      </trkpt>
      <trkpt lat="49.18155" lon="1.48546">
        <ele>148.41883850098</ele>
        <time>2013-09-22T07:27:00.000Z</time>
      </trkpt>
      <trkpt lat="49.18145" lon="1.48524">
        <ele>148.35177612305</ele>
        <time>2013-09-22T07:27:03.000Z</time>
      </trkpt>
      <trkpt lat="49.18138" lon="1.48512">
        <ele>148.33311462402</ele>
        <time>2013-09-22T07:27:05.000Z</time>
      </trkpt>
      <trkpt lat="49.18126" lon="1.48493">
        <ele>148.29159545898</ele>
        <time>2013-09-22T07:27:08.000Z</time>
      </trkpt>
      <trkpt lat="49.18115" lon="1.48475">
        <ele>148.16659545898</ele>
        <time>2013-09-22T07:27:11.000Z</time>
      </trkpt>
      <trkpt lat="49.18108" lon="1.4846">
        <ele>147.99588012695</ele>
        <time>2013-09-22T07:27:13.000Z</time>
      </trkpt>
      <trkpt lat="49.18097" lon="1.48439">
        <ele>147.77841186523</ele>
        <time>2013-09-22T07:27:16.000Z</time>
      </trkpt>
      <trkpt lat="49.18091" lon="1.48426">
        <ele>147.55262756348</ele>
        <time>2013-09-22T07:27:18.000Z</time>
      </trkpt>
      <trkpt lat="49.18086" lon="1.4841">
        <ele>147.3674621582</ele>
        <time>2013-09-22T07:27:20.000Z</time>
      </trkpt>
      <trkpt lat="49.18076" lon="1.48385">
        <ele>147.17933654785</ele>
        <time>2013-09-22T07:27:23.000Z</time>
      </trkpt>
      <trkpt lat="49.1807" lon="1.4837">
        <ele>146.96286010742</ele>
        <time>2013-09-22T07:27:25.000Z</time>
      </trkpt>
      <trkpt lat="49.18061" lon="1.48347">
        <ele>146.69865417481</ele>
        <time>2013-09-22T07:27:28.000Z</time>
      </trkpt>
      <trkpt lat="49.18052" lon="1.48322">
        <ele>146.4557800293</ele>
        <time>2013-09-22T07:27:31.000Z</time>
      </trkpt>
      <trkpt lat="49.18046" lon="1.48306">
        <ele>146.30877685547</ele>
        <time>2013-09-22T07:27:33.000Z</time>
      </trkpt>
      <trkpt lat="49.18039" lon="1.48283">
        <ele>146.42485046387</ele>
        <time>2013-09-22T07:27:36.000Z</time>
      </trkpt>
      <trkpt lat="49.18034" lon="1.48269">
        <ele>146.75019836426</ele>
        <time>2013-09-22T07:27:38.000Z</time>
      </trkpt>
      <trkpt lat="49.18029" lon="1.48249">
        <ele>147.38298034668</ele>
        <time>2013-09-22T07:27:41.000Z</time>
      </trkpt>
      <trkpt lat="49.18027" lon="1.48237">
        <ele>148.15255737305</ele>
        <time>2013-09-22T07:27:43.000Z</time>
      </trkpt>
      <trkpt lat="49.18024" lon="1.48224">
        <ele>148.99714660644</ele>
        <time>2013-09-22T07:27:45.000Z</time>
      </trkpt>
      <trkpt lat="49.18021" lon="1.48202">
        <ele>149.96418762207</ele>
        <time>2013-09-22T07:27:48.000Z</time>
      </trkpt>
      <trkpt lat="49.18019" lon="1.48189">
        <ele>151.00077819824</ele>
        <time>2013-09-22T07:27:50.000Z</time>
      </trkpt>
      <trkpt lat="49.18016" lon="1.48171">
        <ele>152.11936950684</ele>
        <time>2013-09-22T07:27:53.000Z</time>
      </trkpt>
      <trkpt lat="49.18014" lon="1.48157">
        <ele>153.15490722656</ele>
        <time>2013-09-22T07:27:55.000Z</time>
      </trkpt>
      <trkpt lat="49.18009" lon="1.48136">
        <ele>153.99185180664</ele>
        <time>2013-09-22T07:27:58.000Z</time>
      </trkpt>
      <trkpt lat="49.18005" lon="1.48122">
        <ele>154.4963684082</ele>
        <time>2013-09-22T07:28:00.000Z</time>
      </trkpt>
      <trkpt lat="49.18" lon="1.48103">
        <ele>154.7453918457</ele>
        <time>2013-09-22T07:28:03.000Z</time>
      </trkpt>
      <trkpt lat="49.17997" lon="1.48092">
        <ele>154.65754699707</ele>
        <time>2013-09-22T07:28:05.000Z</time>
      </trkpt>
      <trkpt lat="49.17992" lon="1.48075">
        <ele>154.46371459961</ele>
        <time>2013-09-22T07:28:08.000Z</time>
      </trkpt>
      <trkpt lat="49.17987" lon="1.48062">
        <ele>154.27917480469</ele>
        <time>2013-09-22T07:28:10.000Z</time>
      </trkpt>
      <trkpt lat="49.17981" lon="1.48047">
        <ele>154.11689758301</ele>
        <time>2013-09-22T07:28:12.000Z</time>
      </trkpt>
      <trkpt lat="49.17972" lon="1.48028">
        <ele>154.0256652832</ele>
        <time>2013-09-22T07:28:15.000Z</time>
      </trkpt>
      <trkpt lat="49.17968" lon="1.48018">
        <ele>153.99856567383</ele>
        <time>2013-09-22T07:28:17.000Z</time>
      </trkpt>
      <trkpt lat="49.17962" lon="1.48006">
        <ele>154.05612182617</ele>
        <time>2013-09-22T07:28:20.000Z</time>
      </trkpt>
      <trkpt lat="49.17955" lon="1.47995">
        <ele>154.14221191406</ele>
        <time>2013-09-22T07:28:23.000Z</time>
      </trkpt>
      <trkpt lat="49.17949" lon="1.47982">
        <ele>154.15090942383</ele>
        <time>2013-09-22T07:28:25.000Z</time>
      </trkpt>
      <trkpt lat="49.17938" lon="1.4796">
        <ele>153.9704284668</ele>
        <time>2013-09-22T07:28:28.000Z</time>
      </trkpt>
      <trkpt lat="49.17926" lon="1.4794">
        <ele>153.60440063477</ele>
        <time>2013-09-22T07:28:31.000Z</time>
      </trkpt>
      <trkpt lat="49.17912" lon="1.47918">
        <ele>153.02366638184</ele>
        <time>2013-09-22T07:28:34.000Z</time>
      </trkpt>
      <trkpt lat="49.17903" lon="1.47904">
        <ele>152.3987121582</ele>
        <time>2013-09-22T07:28:36.000Z</time>
      </trkpt>
      <trkpt lat="49.17889" lon="1.47878">
        <ele>151.80255126953</ele>
        <time>2013-09-22T07:28:39.000Z</time>
      </trkpt>
      <trkpt lat="49.17875" lon="1.47853">
        <ele>151.34315490723</ele>
        <time>2013-09-22T07:28:42.000Z</time>
      </trkpt>
      <trkpt lat="49.17859" lon="1.47827">
        <ele>151.04544067383</ele>
        <time>2013-09-22T07:28:45.000Z</time>
      </trkpt>
      <trkpt lat="49.17842" lon="1.47799">
        <ele>150.78451538086</ele>
        <time>2013-09-22T07:28:48.000Z</time>
      </trkpt>
      <trkpt lat="49.17833" lon="1.47779">
        <ele>150.35531616211</ele>
        <time>2013-09-22T07:28:50.000Z</time>
      </trkpt>
      <trkpt lat="49.1782" lon="1.47749">
        <ele>149.77554321289</ele>
        <time>2013-09-22T07:28:53.000Z</time>
      </trkpt>
      <trkpt lat="49.17812" lon="1.4773">
        <ele>149.15574645996</ele>
        <time>2013-09-22T07:28:55.000Z</time>
      </trkpt>
      <trkpt lat="49.17801" lon="1.47703">
        <ele>148.47180175781</ele>
        <time>2013-09-22T07:28:58.000Z</time>
      </trkpt>
      <trkpt lat="49.17789" lon="1.47677">
        <ele>147.90534973144</ele>
        <time>2013-09-22T07:29:01.000Z</time>
      </trkpt>
      <trkpt lat="49.17782" lon="1.47662">
        <ele>147.55476379394</ele>
        <time>2013-09-22T07:29:03.000Z</time>
      </trkpt>
      <trkpt lat="49.17775" lon="1.47647">
        <ele>147.39207458496</ele>
        <time>2013-09-22T07:29:05.000Z</time>
      </trkpt>
      <trkpt lat="49.17763" lon="1.47623">
        <ele>147.21058654785</ele>
        <time>2013-09-22T07:29:08.000Z</time>
      </trkpt>
      <trkpt lat="49.17752" lon="1.47598">
        <ele>146.92391967773</ele>
        <time>2013-09-22T07:29:11.000Z</time>
      </trkpt>
      <trkpt lat="49.17749" lon="1.4758">
        <ele>146.44233703613</ele>
        <time>2013-09-22T07:29:13.000Z</time>
      </trkpt>
      <trkpt lat="49.17753" lon="1.47557">
        <ele>145.64338684082</ele>
        <time>2013-09-22T07:29:16.000Z</time>
      </trkpt>
      <trkpt lat="49.17761" lon="1.47541">
        <ele>144.6354675293</ele>
        <time>2013-09-22T07:29:19.000Z</time>
      </trkpt>
      <trkpt lat="49.17771" lon="1.47527">
        <ele>143.53259277344</ele>
        <time>2013-09-22T07:29:22.000Z</time>
      </trkpt>
      <trkpt lat="49.17784" lon="1.4751">
        <ele>142.42080688477</ele>
        <time>2013-09-22T07:29:25.000Z</time>
      </trkpt>
      <trkpt lat="49.17794" lon="1.47497">
        <ele>141.40476989746</ele>
        <time>2013-09-22T07:29:27.000Z</time>
      </trkpt>
      <trkpt lat="49.17809" lon="1.4748">
        <ele>140.50300598144</ele>
        <time>2013-09-22T07:29:30.000Z</time>
      </trkpt>
      <trkpt lat="49.17817" lon="1.47469">
        <ele>139.71775817871</ele>
        <time>2013-09-22T07:29:32.000Z</time>
      </trkpt>
      <trkpt lat="49.17828" lon="1.47454">
        <ele>138.99426269531</ele>
        <time>2013-09-22T07:29:35.000Z</time>
      </trkpt>
      <trkpt lat="49.17838" lon="1.4744">
        <ele>138.38887023926</ele>
        <time>2013-09-22T07:29:38.000Z</time>
      </trkpt>
      <trkpt lat="49.17849" lon="1.47428">
        <ele>137.90281677246</ele>
        <time>2013-09-22T07:29:41.000Z</time>
      </trkpt>
      <trkpt lat="49.17862" lon="1.47409">
        <ele>137.63064575195</ele>
        <time>2013-09-22T07:29:44.000Z</time>
      </trkpt>
      <trkpt lat="49.17871" lon="1.47397">
        <ele>137.48245239258</ele>
        <time>2013-09-22T07:29:46.000Z</time>
      </trkpt>
      <trkpt lat="49.17885" lon="1.47378">
        <ele>137.48872375488</ele>
        <time>2013-09-22T07:29:49.000Z</time>
      </trkpt>
      <trkpt lat="49.17899" lon="1.47361">
        <ele>137.59684753418</ele>
        <time>2013-09-22T07:29:52.000Z</time>
      </trkpt>
      <trkpt lat="49.1791" lon="1.47348">
        <ele>137.75517272949</ele>
        <time>2013-09-22T07:29:54.000Z</time>
      </trkpt>
      <trkpt lat="49.17922" lon="1.47338">
        <ele>137.92102050781</ele>
        <time>2013-09-22T07:29:56.000Z</time>
      </trkpt>
      <trkpt lat="49.17934" lon="1.47329">
        <ele>138.09518432617</ele>
        <time>2013-09-22T07:29:58.000Z</time>
      </trkpt>
      <trkpt lat="49.1795" lon="1.47317">
        <ele>138.31356811523</ele>
        <time>2013-09-22T07:30:01.000Z</time>
      </trkpt>
      <trkpt lat="49.17963" lon="1.47306">
        <ele>138.55297851562</ele>
        <time>2013-09-22T07:30:04.000Z</time>
      </trkpt>
      <trkpt lat="49.17971" lon="1.473">
        <ele>138.78532409668</ele>
        <time>2013-09-22T07:30:06.000Z</time>
      </trkpt>
      <trkpt lat="49.17983" lon="1.47292">
        <ele>139.046875</ele>
        <time>2013-09-22T07:30:09.000Z</time>
      </trkpt>
      <trkpt lat="49.17991" lon="1.47286">
        <ele>139.3203125</ele>
        <time>2013-09-22T07:30:11.000Z</time>
      </trkpt>
      <trkpt lat="49.18003" lon="1.47276">
        <ele>139.57832336426</ele>
        <time>2013-09-22T07:30:14.000Z</time>
      </trkpt>
      <trkpt lat="49.18011" lon="1.47269">
        <ele>139.84024047852</ele>
        <time>2013-09-22T07:30:17.000Z</time>
      </trkpt>
      <trkpt lat="49.18017" lon="1.47263">
        <ele>140.10214233398</ele>
        <time>2013-09-22T07:30:19.000Z</time>
      </trkpt>
      <trkpt lat="49.18026" lon="1.47257">
        <ele>140.36698913574</ele>
        <time>2013-09-22T07:30:22.000Z</time>
      </trkpt>
      <trkpt lat="49.18033" lon="1.4725">
        <ele>140.6474609375</ele>
        <time>2013-09-22T07:30:25.000Z</time>
      </trkpt>
      <trkpt lat="49.18038" lon="1.47246">
        <ele>140.92036437988</ele>
        <time>2013-09-22T07:30:27.000Z</time>
      </trkpt>
      <trkpt lat="49.18047" lon="1.47239">
        <ele>141.2121887207</ele>
        <time>2013-09-22T07:30:30.000Z</time>
      </trkpt>
      <trkpt lat="49.18052" lon="1.47235">
        <ele>141.51130676269</ele>
        <time>2013-09-22T07:30:32.000Z</time>
      </trkpt>
      <trkpt lat="49.1806" lon="1.47228">
        <ele>141.82655334473</ele>
        <time>2013-09-22T07:30:35.000Z</time>
      </trkpt>
      <trkpt lat="49.18066" lon="1.47224">
        <ele>142.13618469238</ele>
        <time>2013-09-22T07:30:37.000Z</time>
      </trkpt>
      <trkpt lat="49.18076" lon="1.47219">
        <ele>142.47016906738</ele>
        <time>2013-09-22T07:30:40.000Z</time>
      </trkpt>
      <trkpt lat="49.18084" lon="1.47213">
        <ele>142.78741455078</ele>
        <time>2013-09-22T07:30:43.000Z</time>
      </trkpt>
      <trkpt lat="49.1809" lon="1.4721">
        <ele>143.10180664062</ele>
        <time>2013-09-22T07:30:45.000Z</time>
      </trkpt>
      <trkpt lat="49.18096" lon="1.47206">
        <ele>143.37808227539</ele>
        <time>2013-09-22T07:30:47.000Z</time>
      </trkpt>
      <trkpt lat="49.18102" lon="1.47203">
        <ele>143.64558410644</ele>
        <time>2013-09-22T07:30:49.000Z</time>
      </trkpt>
      <trkpt lat="49.18108" lon="1.472">
        <ele>143.87022399902</ele>
        <time>2013-09-22T07:30:51.000Z</time>
      </trkpt>
      <trkpt lat="49.18117" lon="1.47196">
        <ele>144.07336425781</ele>
        <time>2013-09-22T07:30:54.000Z</time>
      </trkpt>
      <trkpt lat="49.18126" lon="1.4719">
        <ele>144.26794433594</ele>
        <time>2013-09-22T07:30:57.000Z</time>
      </trkpt>
      <trkpt lat="49.18134" lon="1.47185">
        <ele>144.45126342773</ele>
        <time>2013-09-22T07:31:00.000Z</time>
      </trkpt>
      <trkpt lat="49.1814" lon="1.47183">
        <ele>144.6139831543</ele>
        <time>2013-09-22T07:31:02.000Z</time>
      </trkpt>
      <trkpt lat="49.18149" lon="1.47178">
        <ele>144.75686645508</ele>
        <time>2013-09-22T07:31:05.000Z</time>
      </trkpt>
      <trkpt lat="49.18159" lon="1.47172">
        <ele>144.86587524414</ele>
        <time>2013-09-22T07:31:08.000Z</time>
      </trkpt>
      <trkpt lat="49.18164" lon="1.47169">
        <ele>144.94039916992</ele>
        <time>2013-09-22T07:31:10.000Z</time>
      </trkpt>
      <trkpt lat="49.18171" lon="1.47165">
        <ele>145.0085144043</ele>
        <time>2013-09-22T07:31:12.000Z</time>
      </trkpt>
      <trkpt lat="49.1818" lon="1.47159">
        <ele>145.12922668457</ele>
        <time>2013-09-22T07:31:15.000Z</time>
      </trkpt>
      <trkpt lat="49.18187" lon="1.47155">
        <ele>145.28489685059</ele>
        <time>2013-09-22T07:31:17.000Z</time>
      </trkpt>
      <trkpt lat="49.18193" lon="1.47151">
        <ele>145.47323608398</ele>
        <time>2013-09-22T07:31:19.000Z</time>
      </trkpt>
      <trkpt lat="49.18199" lon="1.47148">
        <ele>145.7001953125</ele>
        <time>2013-09-22T07:31:21.000Z</time>
      </trkpt>
      <trkpt lat="49.18208" lon="1.47142">
        <ele>145.9697265625</ele>
        <time>2013-09-22T07:31:24.000Z</time>
      </trkpt>
      <trkpt lat="49.18217" lon="1.47138">
        <ele>146.2333984375</ele>
        <time>2013-09-22T07:31:27.000Z</time>
      </trkpt>
      <trkpt lat="49.18223" lon="1.47136">
        <ele>146.48828125</ele>
        <time>2013-09-22T07:31:29.000Z</time>
      </trkpt>
      <trkpt lat="49.18229" lon="1.47132">
        <ele>146.74609375</ele>
        <time>2013-09-22T07:31:31.000Z</time>
      </trkpt>
      <trkpt lat="49.18239" lon="1.47127">
        <ele>147.033203125</ele>
        <time>2013-09-22T07:31:34.000Z</time>
      </trkpt>
      <trkpt lat="49.18248" lon="1.47121">
        <ele>147.3203125</ele>
        <time>2013-09-22T07:31:37.000Z</time>
      </trkpt>
      <trkpt lat="49.18258" lon="1.47114">
        <ele>147.56494140625</ele>
        <time>2013-09-22T07:31:40.000Z</time>
      </trkpt>
      <trkpt lat="49.18267" lon="1.47106">
        <ele>147.77307128906</ele>
        <time>2013-09-22T07:31:43.000Z</time>
      </trkpt>
      <trkpt lat="49.18276" lon="1.47101">
        <ele>147.93644714356</ele>
        <time>2013-09-22T07:31:46.000Z</time>
      </trkpt>
      <trkpt lat="49.18282" lon="1.47098">
        <ele>148.0294342041</ele>
        <time>2013-09-22T07:31:48.000Z</time>
      </trkpt>
      <trkpt lat="49.18289" lon="1.47094">
        <ele>148.0563659668</ele>
        <time>2013-09-22T07:31:50.000Z</time>
      </trkpt>
      <trkpt lat="49.18299" lon="1.47087">
        <ele>148.05525207519</ele>
        <time>2013-09-22T07:31:53.000Z</time>
      </trkpt>
      <trkpt lat="49.18307" lon="1.47083">
        <ele>148.04405212402</ele>
        <time>2013-09-22T07:31:55.000Z</time>
      </trkpt>
      <trkpt lat="49.18317" lon="1.47078">
        <ele>148.02819824219</ele>
        <time>2013-09-22T07:31:58.000Z</time>
      </trkpt>
      <trkpt lat="49.18329" lon="1.47073">
        <ele>148.01364135742</ele>
        <time>2013-09-22T07:32:01.000Z</time>
      </trkpt>
      <trkpt lat="49.1834" lon="1.47067">
        <ele>148.01078796387</ele>
        <time>2013-09-22T07:32:04.000Z</time>
      </trkpt>
      <trkpt lat="49.18346" lon="1.47063">
        <ele>148.02046203613</ele>
        <time>2013-09-22T07:32:06.000Z</time>
      </trkpt>
      <trkpt lat="49.18356" lon="1.47056">
        <ele>148.03907775879</ele>
        <time>2013-09-22T07:32:09.000Z</time>
      </trkpt>
      <trkpt lat="49.18367" lon="1.47049">
        <ele>148.05575561523</ele>
        <time>2013-09-22T07:32:12.000Z</time>
      </trkpt>
      <trkpt lat="49.18377" lon="1.47044">
        <ele>148.06285095215</ele>
        <time>2013-09-22T07:32:15.000Z</time>
      </trkpt>
      <trkpt lat="49.18383" lon="1.47041">
        <ele>148.05191040039</ele>
        <time>2013-09-22T07:32:17.000Z</time>
      </trkpt>
      <trkpt lat="49.1839" lon="1.47038">
        <ele>148.02474975586</ele>
        <time>2013-09-22T07:32:19.000Z</time>
      </trkpt>
      <trkpt lat="49.18399" lon="1.47034">
        <ele>147.97694396973</ele>
        <time>2013-09-22T07:32:22.000Z</time>
      </trkpt>
      <trkpt lat="49.18408" lon="1.47028">
        <ele>147.90614318848</ele>
        <time>2013-09-22T07:32:25.000Z</time>
      </trkpt>
      <trkpt lat="49.18418" lon="1.47023">
        <ele>147.81181335449</ele>
        <time>2013-09-22T07:32:28.000Z</time>
      </trkpt>
      <trkpt lat="49.18428" lon="1.47017">
        <ele>147.72213745117</ele>
        <time>2013-09-22T07:32:31.000Z</time>
      </trkpt>
      <trkpt lat="49.18435" lon="1.47012">
        <ele>147.63859558106</ele>
        <time>2013-09-22T07:32:33.000Z</time>
      </trkpt>
      <trkpt lat="49.18445" lon="1.47006">
        <ele>147.56587219238</ele>
        <time>2013-09-22T07:32:36.000Z</time>
      </trkpt>
      <trkpt lat="49.1845" lon="1.47003">
        <ele>147.51654052734</ele>
        <time>2013-09-22T07:32:38.000Z</time>
      </trkpt>
      <trkpt lat="49.18455" lon="1.47001">
        <ele>147.50250244141</ele>
        <time>2013-09-22T07:32:40.000Z</time>
      </trkpt>
      <trkpt lat="49.18462" lon="1.46998">
        <ele>147.50001525879</ele>
        <time>2013-09-22T07:32:43.000Z</time>
      </trkpt>
      <trkpt lat="49.18468" lon="1.46996">
        <ele>147.50991821289</ele>
        <time>2013-09-22T07:32:45.000Z</time>
      </trkpt>
      <trkpt lat="49.18479" lon="1.4699">
        <ele>147.53720092773</ele>
        <time>2013-09-22T07:32:48.000Z</time>
      </trkpt>
      <trkpt lat="49.1849" lon="1.46985">
        <ele>147.58207702637</ele>
        <time>2013-09-22T07:32:51.000Z</time>
      </trkpt>
      <trkpt lat="49.18501" lon="1.46979">
        <ele>147.62622070312</ele>
        <time>2013-09-22T07:32:54.000Z</time>
      </trkpt>
      <trkpt lat="49.18509" lon="1.46976">
        <ele>147.60948181152</ele>
        <time>2013-09-22T07:32:56.000Z</time>
      </trkpt>
      <trkpt lat="49.1852" lon="1.4697">
        <ele>147.49557495117</ele>
        <time>2013-09-22T07:32:59.000Z</time>
      </trkpt>
      <trkpt lat="49.18531" lon="1.46965">
        <ele>147.27235412598</ele>
        <time>2013-09-22T07:33:02.000Z</time>
      </trkpt>
      <trkpt lat="49.18542" lon="1.46958">
        <ele>146.92716979981</ele>
        <time>2013-09-22T07:33:05.000Z</time>
      </trkpt>
      <trkpt lat="49.18553" lon="1.46953">
        <ele>146.47219848633</ele>
        <time>2013-09-22T07:33:08.000Z</time>
      </trkpt>
      <trkpt lat="49.18565" lon="1.46946">
        <ele>145.94183349609</ele>
        <time>2013-09-22T07:33:11.000Z</time>
      </trkpt>
      <trkpt lat="49.18572" lon="1.46942">
        <ele>145.41690063477</ele>
        <time>2013-09-22T07:33:13.000Z</time>
      </trkpt>
      <trkpt lat="49.18581" lon="1.46938">
        <ele>144.88969421387</ele>
        <time>2013-09-22T07:33:15.000Z</time>
      </trkpt>
      <trkpt lat="49.18593" lon="1.46931">
        <ele>144.39370727539</ele>
        <time>2013-09-22T07:33:18.000Z</time>
      </trkpt>
      <trkpt lat="49.18605" lon="1.46926">
        <ele>143.96308898926</ele>
        <time>2013-09-22T07:33:21.000Z</time>
      </trkpt>
      <trkpt lat="49.18614" lon="1.46923">
        <ele>143.63912963867</ele>
        <time>2013-09-22T07:33:23.000Z</time>
      </trkpt>
      <trkpt lat="49.18623" lon="1.4692">
        <ele>143.37843322754</ele>
        <time>2013-09-22T07:33:25.000Z</time>
      </trkpt>
      <trkpt lat="49.18635" lon="1.46915">
        <ele>143.19999694824</ele>
        <time>2013-09-22T07:33:28.000Z</time>
      </trkpt>
      <trkpt lat="49.18642" lon="1.46912">
        <ele>143.09481811523</ele>
        <time>2013-09-22T07:33:30.000Z</time>
      </trkpt>
      <trkpt lat="49.18645" lon="1.46899">
        <ele>143.01664733887</ele>
        <time>2013-09-22T07:33:33.000Z</time>
      </trkpt>
      <trkpt lat="49.1864" lon="1.46889">
        <ele>142.94006347656</ele>
        <time>2013-09-22T07:33:36.000Z</time>
      </trkpt>
      <trkpt lat="49.18633" lon="1.46877">
        <ele>142.84663391113</ele>
        <time>2013-09-22T07:33:39.000Z</time>
      </trkpt>
      <trkpt lat="49.18628" lon="1.46868">
        <ele>142.73957824707</ele>
        <time>2013-09-22T07:33:41.000Z</time>
      </trkpt>
      <trkpt lat="49.18623" lon="1.46859">
        <ele>142.60317993164</ele>
        <time>2013-09-22T07:33:43.000Z</time>
      </trkpt>
      <trkpt lat="49.18615" lon="1.46843">
        <ele>142.40383911133</ele>
        <time>2013-09-22T07:33:46.000Z</time>
      </trkpt>
      <trkpt lat="49.18609" lon="1.46832">
        <ele>142.16627502441</ele>
        <time>2013-09-22T07:33:48.000Z</time>
      </trkpt>
      <trkpt lat="49.186" lon="1.46817">
        <ele>141.89460754394</ele>
        <time>2013-09-22T07:33:51.000Z</time>
      </trkpt>
      <trkpt lat="49.18591" lon="1.468">
        <ele>141.56895446777</ele>
        <time>2013-09-22T07:33:54.000Z</time>
      </trkpt>
      <trkpt lat="49.18585" lon="1.46789">
        <ele>141.21743774414</ele>
        <time>2013-09-22T07:33:56.000Z</time>
      </trkpt>
      <trkpt lat="49.18579" lon="1.46778">
        <ele>140.93194580078</ele>
        <time>2013-09-22T07:33:58.000Z</time>
      </trkpt>
      <trkpt lat="49.1857" lon="1.46762">
        <ele>140.70840454102</ele>
        <time>2013-09-22T07:34:01.000Z</time>
      </trkpt>
      <trkpt lat="49.18562" lon="1.46746">
        <ele>140.55889892578</ele>
        <time>2013-09-22T07:34:04.000Z</time>
      </trkpt>
      <trkpt lat="49.18557" lon="1.46736">
        <ele>140.51066589356</ele>
        <time>2013-09-22T07:34:06.000Z</time>
      </trkpt>
      <trkpt lat="49.18553" lon="1.46728">
        <ele>140.52879333496</ele>
        <time>2013-09-22T07:34:08.000Z</time>
      </trkpt>
      <trkpt lat="49.18547" lon="1.46719">
        <ele>140.55561828613</ele>
        <time>2013-09-22T07:34:10.000Z</time>
      </trkpt>
      <trkpt lat="49.18538" lon="1.46705">
        <ele>140.5485534668</ele>
        <time>2013-09-22T07:34:13.000Z</time>
      </trkpt>
      <trkpt lat="49.1853" lon="1.46689">
        <ele>140.47372436523</ele>
        <time>2013-09-22T07:34:16.000Z</time>
      </trkpt>
      <trkpt lat="49.18524" lon="1.46678">
        <ele>140.32255554199</ele>
        <time>2013-09-22T07:34:18.000Z</time>
      </trkpt>
      <trkpt lat="49.18518" lon="1.46665">
        <ele>140.08598327637</ele>
        <time>2013-09-22T07:34:20.000Z</time>
      </trkpt>
      <trkpt lat="49.18512" lon="1.46652">
        <ele>139.79507446289</ele>
        <time>2013-09-22T07:34:22.000Z</time>
      </trkpt>
      <trkpt lat="49.18505" lon="1.46634">
        <ele>139.45574951172</ele>
        <time>2013-09-22T07:34:25.000Z</time>
      </trkpt>
      <trkpt lat="49.18497" lon="1.46615">
        <ele>139.10917663574</ele>
        <time>2013-09-22T07:34:28.000Z</time>
      </trkpt>
      <trkpt lat="49.18486" lon="1.46595">
        <ele>138.77749633789</ele>
        <time>2013-09-22T07:34:31.000Z</time>
      </trkpt>
      <trkpt lat="49.18476" lon="1.46574">
        <ele>138.46340942383</ele>
        <time>2013-09-22T07:34:34.000Z</time>
      </trkpt>
      <trkpt lat="49.18469" lon="1.46561">
        <ele>138.16104125977</ele>
        <time>2013-09-22T07:34:36.000Z</time>
      </trkpt>
      <trkpt lat="49.18459" lon="1.46543">
        <ele>137.86538696289</ele>
        <time>2013-09-22T07:34:39.000Z</time>
      </trkpt>
      <trkpt lat="49.18451" lon="1.46529">
        <ele>137.58009338379</ele>
        <time>2013-09-22T07:34:41.000Z</time>
      </trkpt>
      <trkpt lat="49.18442" lon="1.46512">
        <ele>137.25595092773</ele>
        <time>2013-09-22T07:34:44.000Z</time>
      </trkpt>
      <trkpt lat="49.18431" lon="1.46494">
        <ele>136.89599609375</ele>
        <time>2013-09-22T07:34:47.000Z</time>
      </trkpt>
      <trkpt lat="49.18424" lon="1.46482">
        <ele>136.50875854492</ele>
        <time>2013-09-22T07:34:49.000Z</time>
      </trkpt>
      <trkpt lat="49.18417" lon="1.46469">
        <ele>136.10693359375</ele>
        <time>2013-09-22T07:34:51.000Z</time>
      </trkpt>
      <trkpt lat="49.18406" lon="1.46449">
        <ele>135.71940612793</ele>
        <time>2013-09-22T07:34:54.000Z</time>
      </trkpt>
      <trkpt lat="49.18399" lon="1.46434">
        <ele>135.37773132324</ele>
        <time>2013-09-22T07:34:56.000Z</time>
      </trkpt>
      <trkpt lat="49.1839" lon="1.46412">
        <ele>135.09077453613</ele>
        <time>2013-09-22T07:34:59.000Z</time>
      </trkpt>
      <trkpt lat="49.18384" lon="1.46397">
        <ele>134.88903808594</ele>
        <time>2013-09-22T07:35:01.000Z</time>
      </trkpt>
      <trkpt lat="49.18374" lon="1.46372">
        <ele>134.78558349609</ele>
        <time>2013-09-22T07:35:04.000Z</time>
      </trkpt>
      <trkpt lat="49.18369" lon="1.46357">
        <ele>134.7282409668</ele>
        <time>2013-09-22T07:35:06.000Z</time>
      </trkpt>
      <trkpt lat="49.18363" lon="1.46344">
        <ele>134.70642089844</ele>
        <time>2013-09-22T07:35:08.000Z</time>
      </trkpt>
      <trkpt lat="49.18355" lon="1.46323">
        <ele>134.70022583008</ele>
        <time>2013-09-22T07:35:11.000Z</time>
      </trkpt>
      <trkpt lat="49.18349" lon="1.46307">
        <ele>134.63537597656</ele>
        <time>2013-09-22T07:35:13.000Z</time>
      </trkpt>
      <trkpt lat="49.18341" lon="1.46286">
        <ele>134.46905517578</ele>
        <time>2013-09-22T07:35:16.000Z</time>
      </trkpt>
      <trkpt lat="49.18335" lon="1.46266">
        <ele>134.20341491699</ele>
        <time>2013-09-22T07:35:19.000Z</time>
      </trkpt>
      <trkpt lat="49.18328" lon="1.46246">
        <ele>133.8694152832</ele>
        <time>2013-09-22T07:35:22.000Z</time>
      </trkpt>
      <trkpt lat="49.18324" lon="1.46226">
        <ele>133.56694030762</ele>
        <time>2013-09-22T07:35:25.000Z</time>
      </trkpt>
      <trkpt lat="49.1832" lon="1.46206">
        <ele>133.30921936035</ele>
        <time>2013-09-22T07:35:28.000Z</time>
      </trkpt>
      <trkpt lat="49.18318" lon="1.46187">
        <ele>133.13461303711</ele>
        <time>2013-09-22T07:35:31.000Z</time>
      </trkpt>
      <trkpt lat="49.18317" lon="1.46164">
        <ele>133.05712890625</ele>
        <time>2013-09-22T07:35:34.000Z</time>
      </trkpt>
      <trkpt lat="49.18318" lon="1.46142">
        <ele>133.10446166992</ele>
        <time>2013-09-22T07:35:37.000Z</time>
      </trkpt>
      <trkpt lat="49.18318" lon="1.46124">
        <ele>133.18946838379</ele>
        <time>2013-09-22T07:35:40.000Z</time>
      </trkpt>
      <trkpt lat="49.1832" lon="1.46117">
        <ele>133.29338073731</ele>
        <time>2013-09-22T07:35:43.000Z</time>
      </trkpt>
      <trkpt lat="49.1832" lon="1.46113">
        <ele>133.41390991211</ele>
        <time>2013-09-22T07:35:46.000Z</time>
      </trkpt>
      <trkpt lat="49.1832" lon="1.46107">
        <ele>133.55035400391</ele>
        <time>2013-09-22T07:35:48.000Z</time>
      </trkpt>
      <trkpt lat="49.18319" lon="1.46102">
        <ele>133.64794921875</ele>
        <time>2013-09-22T07:35:50.000Z</time>
      </trkpt>
      <trkpt lat="49.18315" lon="1.46091">
        <ele>133.72845458984</ele>
        <time>2013-09-22T07:35:53.000Z</time>
      </trkpt>
      <trkpt lat="49.18312" lon="1.46083">
        <ele>133.80978393555</ele>
        <time>2013-09-22T07:35:56.000Z</time>
      </trkpt>
      <trkpt lat="49.1831" lon="1.46079">
        <ele>133.88348388672</ele>
        <time>2013-09-22T07:35:58.000Z</time>
      </trkpt>
      <trkpt lat="49.18308" lon="1.46076">
        <ele>133.94685363769</ele>
        <time>2013-09-22T07:36:00.000Z</time>
      </trkpt>
      <trkpt lat="49.18306" lon="1.46073">
        <ele>133.99873352051</ele>
        <time>2013-09-22T07:36:02.000Z</time>
      </trkpt>
      <trkpt lat="49.18302" lon="1.46067">
        <ele>134.03158569336</ele>
        <time>2013-09-22T07:36:05.000Z</time>
      </trkpt>
      <trkpt lat="49.18301" lon="1.4606">
        <ele>134.05313110352</ele>
        <time>2013-09-22T07:36:07.000Z</time>
      </trkpt>
      <trkpt lat="49.18297" lon="1.4605">
        <ele>134.08543395996</ele>
        <time>2013-09-22T07:36:10.000Z</time>
      </trkpt>
      <trkpt lat="49.18293" lon="1.46043">
        <ele>134.12651062012</ele>
        <time>2013-09-22T07:36:12.000Z</time>
      </trkpt>
      <trkpt lat="49.18285" lon="1.4603">
        <ele>134.19293212891</ele>
        <time>2013-09-22T07:36:15.000Z</time>
      </trkpt>
      <trkpt lat="49.1828" lon="1.46018">
        <ele>134.27899169922</ele>
        <time>2013-09-22T07:36:18.000Z</time>
      </trkpt>
      <trkpt lat="49.18275" lon="1.46011">
        <ele>134.37760925293</ele>
        <time>2013-09-22T07:36:20.000Z</time>
      </trkpt>
      <trkpt lat="49.18268" lon="1.45998">
        <ele>134.49073791504</ele>
        <time>2013-09-22T07:36:23.000Z</time>
      </trkpt>
      <trkpt lat="49.18262" lon="1.45984">
        <ele>134.54605102539</ele>
        <time>2013-09-22T07:36:26.000Z</time>
      </trkpt>
      <trkpt lat="49.18256" lon="1.45977">
        <ele>134.54936218262</ele>
        <time>2013-09-22T07:36:28.000Z</time>
      </trkpt>
      <trkpt lat="49.18249" lon="1.45966">
        <ele>134.48371887207</ele>
        <time>2013-09-22T07:36:30.000Z</time>
      </trkpt>
      <trkpt lat="49.18238" lon="1.45952">
        <ele>134.31909179688</ele>
        <time>2013-09-22T07:36:33.000Z</time>
      </trkpt>
      <trkpt lat="49.18228" lon="1.45936">
        <ele>134.05334472656</ele>
        <time>2013-09-22T07:36:36.000Z</time>
      </trkpt>
      <trkpt lat="49.1822" lon="1.45922">
        <ele>133.77355957031</ele>
        <time>2013-09-22T07:36:39.000Z</time>
      </trkpt>
      <trkpt lat="49.18208" lon="1.45907">
        <ele>133.50769042969</ele>
        <time>2013-09-22T07:36:42.000Z</time>
      </trkpt>
      <trkpt lat="49.18202" lon="1.45898">
        <ele>133.29161071777</ele>
        <time>2013-09-22T07:36:44.000Z</time>
      </trkpt>
      <trkpt lat="49.18192" lon="1.45884">
        <ele>133.15998840332</ele>
        <time>2013-09-22T07:36:47.000Z</time>
      </trkpt>
      <trkpt lat="49.18186" lon="1.45876">
        <ele>133.10020446777</ele>
        <time>2013-09-22T07:36:49.000Z</time>
      </trkpt>
      <trkpt lat="49.18176" lon="1.45863">
        <ele>133.09236145019</ele>
        <time>2013-09-22T07:36:52.000Z</time>
      </trkpt>
      <trkpt lat="49.18165" lon="1.45848">
        <ele>133.07446289062</ele>
        <time>2013-09-22T07:36:55.000Z</time>
      </trkpt>
      <trkpt lat="49.18154" lon="1.4583">
        <ele>132.99824523926</ele>
        <time>2013-09-22T07:36:58.000Z</time>
      </trkpt>
      <trkpt lat="49.18145" lon="1.45816">
        <ele>132.89102172852</ele>
        <time>2013-09-22T07:37:00.000Z</time>
      </trkpt>
      <trkpt lat="49.18129" lon="1.45795">
        <ele>132.77072143555</ele>
        <time>2013-09-22T07:37:03.000Z</time>
      </trkpt>
      <trkpt lat="49.18114" lon="1.4577">
        <ele>132.6955871582</ele>
        <time>2013-09-22T07:37:06.000Z</time>
      </trkpt>
      <trkpt lat="49.18106" lon="1.45756">
        <ele>132.67903137207</ele>
        <time>2013-09-22T07:37:08.000Z</time>
      </trkpt>
      <trkpt lat="49.1809" lon="1.45733">
        <ele>132.85205078125</ele>
        <time>2013-09-22T07:37:11.000Z</time>
      </trkpt>
      <trkpt lat="49.18081" lon="1.45719">
        <ele>133.15995788574</ele>
        <time>2013-09-22T07:37:13.000Z</time>
      </trkpt>
      <trkpt lat="49.18073" lon="1.45706">
        <ele>133.55722045898</ele>
        <time>2013-09-22T07:37:15.000Z</time>
      </trkpt>
      <trkpt lat="49.18061" lon="1.45687">
        <ele>134.00259399414</ele>
        <time>2013-09-22T07:37:18.000Z</time>
      </trkpt>
      <trkpt lat="49.18053" lon="1.45675">
        <ele>134.44219970703</ele>
        <time>2013-09-22T07:37:20.000Z</time>
      </trkpt>
      <trkpt lat="49.18042" lon="1.45659">
        <ele>134.70037841797</ele>
        <time>2013-09-22T07:37:23.000Z</time>
      </trkpt>
      <trkpt lat="49.18036" lon="1.45648">
        <ele>134.78205871582</ele>
        <time>2013-09-22T07:37:25.000Z</time>
      </trkpt>
      <trkpt lat="49.18023" lon="1.45629">
        <ele>134.67808532715</ele>
        <time>2013-09-22T07:37:28.000Z</time>
      </trkpt>
      <trkpt lat="49.18015" lon="1.45616">
        <ele>134.42248535156</ele>
        <time>2013-09-22T07:37:30.000Z</time>
      </trkpt>
      <trkpt lat="49.18003" lon="1.45599">
        <ele>134.05334472656</ele>
        <time>2013-09-22T07:37:33.000Z</time>
      </trkpt>
      <trkpt lat="49.17995" lon="1.45587">
        <ele>133.69804382324</ele>
        <time>2013-09-22T07:37:35.000Z</time>
      </trkpt>
      <trkpt lat="49.17983" lon="1.45568">
        <ele>133.40246582031</ele>
        <time>2013-09-22T07:37:38.000Z</time>
      </trkpt>
      <trkpt lat="49.1797" lon="1.4555">
        <ele>133.2268371582</ele>
        <time>2013-09-22T07:37:41.000Z</time>
      </trkpt>
      <trkpt lat="49.17961" lon="1.45537">
        <ele>133.13241577148</ele>
        <time>2013-09-22T07:37:43.000Z</time>
      </trkpt>
      <trkpt lat="49.17953" lon="1.45526">
        <ele>133.13613891602</ele>
        <time>2013-09-22T07:37:45.000Z</time>
      </trkpt>
      <trkpt lat="49.17946" lon="1.45515">
        <ele>133.18936157227</ele>
        <time>2013-09-22T07:37:47.000Z</time>
      </trkpt>
      <trkpt lat="49.17934" lon="1.45498">
        <ele>133.3102722168</ele>
        <time>2013-09-22T07:37:50.000Z</time>
      </trkpt>
      <trkpt lat="49.1792" lon="1.45478">
        <ele>133.67810058594</ele>
        <time>2013-09-22T07:37:53.000Z</time>
      </trkpt>
      <trkpt lat="49.17908" lon="1.45461">
        <ele>134.15217590332</ele>
        <time>2013-09-22T07:37:56.000Z</time>
      </trkpt>
      <trkpt lat="49.179" lon="1.45448">
        <ele>134.66625976562</ele>
        <time>2013-09-22T07:37:58.000Z</time>
      </trkpt>
      <trkpt lat="49.17887" lon="1.45428">
        <ele>135.21684265137</ele>
        <time>2013-09-22T07:38:01.000Z</time>
      </trkpt>
      <trkpt lat="49.17878" lon="1.45416">
        <ele>135.72021484375</ele>
        <time>2013-09-22T07:38:03.000Z</time>
      </trkpt>
      <trkpt lat="49.1787" lon="1.45405">
        <ele>135.99328613281</ele>
        <time>2013-09-22T07:38:05.000Z</time>
      </trkpt>
      <trkpt lat="49.17862" lon="1.45393">
        <ele>136.16941833496</ele>
        <time>2013-09-22T07:38:07.000Z</time>
      </trkpt>
      <trkpt lat="49.17851" lon="1.45377">
        <ele>136.30015563965</ele>
        <time>2013-09-22T07:38:10.000Z</time>
      </trkpt>
      <trkpt lat="49.17845" lon="1.45368">
        <ele>136.37147521973</ele>
        <time>2013-09-22T07:38:12.000Z</time>
      </trkpt>
      <trkpt lat="49.17839" lon="1.45361">
        <ele>136.41659545898</ele>
        <time>2013-09-22T07:38:14.000Z</time>
      </trkpt>
      <trkpt lat="49.17834" lon="1.45353">
        <ele>136.41778564453</ele>
        <time>2013-09-22T07:38:17.000Z</time>
      </trkpt>
      <trkpt lat="49.17832" lon="1.45344">
        <ele>136.43840026856</ele>
        <time>2013-09-22T07:38:20.000Z</time>
      </trkpt>
      <trkpt lat="49.17828" lon="1.45328">
        <ele>136.45230102539</ele>
        <time>2013-09-22T07:38:23.000Z</time>
      </trkpt>
      <trkpt lat="49.17823" lon="1.45307">
        <ele>136.29501342773</ele>
        <time>2013-09-22T07:38:26.000Z</time>
      </trkpt>
      <trkpt lat="49.17821" lon="1.45293">
        <ele>136.04814147949</ele>
        <time>2013-09-22T07:38:28.000Z</time>
      </trkpt>
      <trkpt lat="49.17818" lon="1.45276">
        <ele>135.70539855957</ele>
        <time>2013-09-22T07:38:30.000Z</time>
      </trkpt>
      <trkpt lat="49.17814" lon="1.45253">
        <ele>135.17175292969</ele>
        <time>2013-09-22T07:38:33.000Z</time>
      </trkpt>
      <trkpt lat="49.17812" lon="1.45238">
        <ele>134.56799316406</ele>
        <time>2013-09-22T07:38:35.000Z</time>
      </trkpt>
      <trkpt lat="49.17809" lon="1.45222">
        <ele>134.07731628418</ele>
        <time>2013-09-22T07:38:37.000Z</time>
      </trkpt>
      <trkpt lat="49.17805" lon="1.45206">
        <ele>133.63613891602</ele>
        <time>2013-09-22T07:38:39.000Z</time>
      </trkpt>
      <trkpt lat="49.178" lon="1.45182">
        <ele>133.23970031738</ele>
        <time>2013-09-22T07:38:42.000Z</time>
      </trkpt>
      <trkpt lat="49.17797" lon="1.45165">
        <ele>132.95915222168</ele>
        <time>2013-09-22T07:38:44.000Z</time>
      </trkpt>
      <trkpt lat="49.17792" lon="1.45143">
        <ele>132.80764770508</ele>
        <time>2013-09-22T07:38:47.000Z</time>
      </trkpt>
      <trkpt lat="49.17788" lon="1.45128">
        <ele>132.76310729981</ele>
        <time>2013-09-22T07:38:49.000Z</time>
      </trkpt>
      <trkpt lat="49.17784" lon="1.45104">
        <ele>132.83891296387</ele>
        <time>2013-09-22T07:38:52.000Z</time>
      </trkpt>
      <trkpt lat="49.17781" lon="1.45087">
        <ele>133.03375244141</ele>
        <time>2013-09-22T07:38:54.000Z</time>
      </trkpt>
      <trkpt lat="49.17778" lon="1.45071">
        <ele>133.30511474609</ele>
        <time>2013-09-22T07:38:56.000Z</time>
      </trkpt>
      <trkpt lat="49.17775" lon="1.45057">
        <ele>133.55368041992</ele>
        <time>2013-09-22T07:38:58.000Z</time>
      </trkpt>
      <trkpt lat="49.1777" lon="1.45032">
        <ele>133.82745361328</ele>
        <time>2013-09-22T07:39:01.000Z</time>
      </trkpt>
      <trkpt lat="49.17767" lon="1.45015">
        <ele>134.08288574219</ele>
        <time>2013-09-22T07:39:03.000Z</time>
      </trkpt>
      <trkpt lat="49.17764" lon="1.44999">
        <ele>134.33526611328</ele>
        <time>2013-09-22T07:39:05.000Z</time>
      </trkpt>
      <trkpt lat="49.17759" lon="1.44973">
        <ele>134.61871337891</ele>
        <time>2013-09-22T07:39:08.000Z</time>
      </trkpt>
      <trkpt lat="49.17754" lon="1.44947">
        <ele>134.93188476562</ele>
        <time>2013-09-22T07:39:11.000Z</time>
      </trkpt>
      <trkpt lat="49.17751" lon="1.44932">
        <ele>135.21792602539</ele>
        <time>2013-09-22T07:39:13.000Z</time>
      </trkpt>
      <trkpt lat="49.17744" lon="1.44909">
        <ele>135.48283386231</ele>
        <time>2013-09-22T07:39:16.000Z</time>
      </trkpt>
      <trkpt lat="49.17741" lon="1.44894">
        <ele>135.70191955566</ele>
        <time>2013-09-22T07:39:18.000Z</time>
      </trkpt>
      <trkpt lat="49.17735" lon="1.44873">
        <ele>135.85824584961</ele>
        <time>2013-09-22T07:39:21.000Z</time>
      </trkpt>
      <trkpt lat="49.17728" lon="1.4485">
        <ele>135.97236633301</ele>
        <time>2013-09-22T07:39:24.000Z</time>
      </trkpt>
      <trkpt lat="49.17722" lon="1.44827">
        <ele>136.06474304199</ele>
        <time>2013-09-22T07:39:27.000Z</time>
      </trkpt>
      <trkpt lat="49.17717" lon="1.44812">
        <ele>136.10408020019</ele>
        <time>2013-09-22T07:39:29.000Z</time>
      </trkpt>
      <trkpt lat="49.17711" lon="1.44789">
        <ele>136.10290527344</ele>
        <time>2013-09-22T07:39:32.000Z</time>
      </trkpt>
      <trkpt lat="49.17707" lon="1.44776">
        <ele>136.06625366211</ele>
        <time>2013-09-22T07:39:34.000Z</time>
      </trkpt>
      <trkpt lat="49.177" lon="1.44753">
        <ele>135.96211242676</ele>
        <time>2013-09-22T07:39:37.000Z</time>
      </trkpt>
      <trkpt lat="49.17693" lon="1.4473">
        <ele>135.84448242188</ele>
        <time>2013-09-22T07:39:40.000Z</time>
      </trkpt>
      <trkpt lat="49.17686" lon="1.44708">
        <ele>135.76933288574</ele>
        <time>2013-09-22T07:39:43.000Z</time>
      </trkpt>
      <trkpt lat="49.17681" lon="1.44693">
        <ele>135.74656677246</ele>
        <time>2013-09-22T07:39:45.000Z</time>
      </trkpt>
      <trkpt lat="49.17673" lon="1.44673">
        <ele>135.76501464844</ele>
        <time>2013-09-22T07:39:48.000Z</time>
      </trkpt>
      <trkpt lat="49.17665" lon="1.44649">
        <ele>135.79548645019</ele>
        <time>2013-09-22T07:39:51.000Z</time>
      </trkpt>
      <trkpt lat="49.17656" lon="1.44626">
        <ele>135.76118469238</ele>
        <time>2013-09-22T07:39:54.000Z</time>
      </trkpt>
      <trkpt lat="49.17649" lon="1.44603">
        <ele>135.6561126709</ele>
        <time>2013-09-22T07:39:57.000Z</time>
      </trkpt>
      <trkpt lat="49.17645" lon="1.44589">
        <ele>135.50357055664</ele>
        <time>2013-09-22T07:39:59.000Z</time>
      </trkpt>
      <trkpt lat="49.17638" lon="1.44569">
        <ele>135.28457641602</ele>
        <time>2013-09-22T07:40:02.000Z</time>
      </trkpt>
      <trkpt lat="49.17632" lon="1.4455">
        <ele>135.04840087891</ele>
        <time>2013-09-22T07:40:04.000Z</time>
      </trkpt>
      <trkpt lat="49.17625" lon="1.44533">
        <ele>134.82507324219</ele>
        <time>2013-09-22T07:40:06.000Z</time>
      </trkpt>
      <trkpt lat="49.17617" lon="1.44508">
        <ele>134.59683227539</ele>
        <time>2013-09-22T07:40:09.000Z</time>
      </trkpt>
      <trkpt lat="49.17609" lon="1.4448">
        <ele>134.43367004394</ele>
        <time>2013-09-22T07:40:12.000Z</time>
      </trkpt>
      <trkpt lat="49.17606" lon="1.44462">
        <ele>134.37704467773</ele>
        <time>2013-09-22T07:40:14.000Z</time>
      </trkpt>
      <trkpt lat="49.17603" lon="1.44446">
        <ele>134.42456054688</ele>
        <time>2013-09-22T07:40:16.000Z</time>
      </trkpt>
      <trkpt lat="49.17596" lon="1.44422">
        <ele>134.63339233398</ele>
        <time>2013-09-22T07:40:19.000Z</time>
      </trkpt>
      <trkpt lat="49.17591" lon="1.44397">
        <ele>134.96475219727</ele>
        <time>2013-09-22T07:40:22.000Z</time>
      </trkpt>
      <trkpt lat="49.17587" lon="1.44381">
        <ele>135.29441833496</ele>
        <time>2013-09-22T07:40:24.000Z</time>
      </trkpt>
      <trkpt lat="49.17582" lon="1.44364">
        <ele>135.58778381348</ele>
        <time>2013-09-22T07:40:26.000Z</time>
      </trkpt>
      <trkpt lat="49.17576" lon="1.44337">
        <ele>135.83685302734</ele>
        <time>2013-09-22T07:40:29.000Z</time>
      </trkpt>
      <trkpt lat="49.1757" lon="1.4431">
        <ele>135.8782043457</ele>
        <time>2013-09-22T07:40:32.000Z</time>
      </trkpt>
      <trkpt lat="49.17567" lon="1.44292">
        <ele>135.78637695312</ele>
        <time>2013-09-22T07:40:34.000Z</time>
      </trkpt>
      <trkpt lat="49.17564" lon="1.44273">
        <ele>135.60134887695</ele>
        <time>2013-09-22T07:40:36.000Z</time>
      </trkpt>
      <trkpt lat="49.1756" lon="1.44255">
        <ele>135.3332824707</ele>
        <time>2013-09-22T07:40:38.000Z</time>
      </trkpt>
      <trkpt lat="49.17554" lon="1.44227">
        <ele>135.01846313477</ele>
        <time>2013-09-22T07:40:41.000Z</time>
      </trkpt>
      <trkpt lat="49.17551" lon="1.44209">
        <ele>134.78553771973</ele>
        <time>2013-09-22T07:40:43.000Z</time>
      </trkpt>
      <trkpt lat="49.17547" lon="1.4418">
        <ele>134.60507202148</ele>
        <time>2013-09-22T07:40:46.000Z</time>
      </trkpt>
      <trkpt lat="49.17543" lon="1.4415">
        <ele>134.47868347168</ele>
        <time>2013-09-22T07:40:49.000Z</time>
      </trkpt>
      <trkpt lat="49.1754" lon="1.44121">
        <ele>134.39834594727</ele>
        <time>2013-09-22T07:40:52.000Z</time>
      </trkpt>
      <trkpt lat="49.17539" lon="1.44102">
        <ele>134.333984375</ele>
        <time>2013-09-22T07:40:54.000Z</time>
      </trkpt>
      <trkpt lat="49.17536" lon="1.44083">
        <ele>134.26173400879</ele>
        <time>2013-09-22T07:40:56.000Z</time>
      </trkpt>
      <trkpt lat="49.1753" lon="1.44054">
        <ele>134.12263488769</ele>
        <time>2013-09-22T07:40:59.000Z</time>
      </trkpt>
      <trkpt lat="49.17522" lon="1.44026">
        <ele>133.9132232666</ele>
        <time>2013-09-22T07:41:02.000Z</time>
      </trkpt>
      <trkpt lat="49.17514" lon="1.44009">
        <ele>133.66706848144</ele>
        <time>2013-09-22T07:41:04.000Z</time>
      </trkpt>
      <trkpt lat="49.17503" lon="1.43986">
        <ele>133.42074584961</ele>
        <time>2013-09-22T07:41:07.000Z</time>
      </trkpt>
      <trkpt lat="49.17494" lon="1.4397">
        <ele>133.21713256836</ele>
        <time>2013-09-22T07:41:09.000Z</time>
      </trkpt>
      <trkpt lat="49.1748" lon="1.43947">
        <ele>133.1541595459</ele>
        <time>2013-09-22T07:41:12.000Z</time>
      </trkpt>
      <trkpt lat="49.17467" lon="1.43925">
        <ele>133.24450683594</ele>
        <time>2013-09-22T07:41:15.000Z</time>
      </trkpt>
      <trkpt lat="49.17458" lon="1.43909">
        <ele>133.44792175293</ele>
        <time>2013-09-22T07:41:17.000Z</time>
      </trkpt>
      <trkpt lat="49.17445" lon="1.43887">
        <ele>133.74504089356</ele>
        <time>2013-09-22T07:41:20.000Z</time>
      </trkpt>
      <trkpt lat="49.17436" lon="1.43873">
        <ele>134.05621337891</ele>
        <time>2013-09-22T07:41:22.000Z</time>
      </trkpt>
      <trkpt lat="49.17428" lon="1.43859">
        <ele>134.34298706055</ele>
        <time>2013-09-22T07:41:24.000Z</time>
      </trkpt>
      <trkpt lat="49.1742" lon="1.43846">
        <ele>134.58422851562</ele>
        <time>2013-09-22T07:41:26.000Z</time>
      </trkpt>
      <trkpt lat="49.17408" lon="1.43825">
        <ele>134.75541687012</ele>
        <time>2013-09-22T07:41:29.000Z</time>
      </trkpt>
      <trkpt lat="49.17401" lon="1.43811">
        <ele>134.8232421875</ele>
        <time>2013-09-22T07:41:31.000Z</time>
      </trkpt>
      <trkpt lat="49.17393" lon="1.43799">
        <ele>134.83296203613</ele>
        <time>2013-09-22T07:41:33.000Z</time>
      </trkpt>
      <trkpt lat="49.17386" lon="1.43787">
        <ele>134.79956054688</ele>
        <time>2013-09-22T07:41:35.000Z</time>
      </trkpt>
      <trkpt lat="49.17375" lon="1.43768">
        <ele>134.73146057129</ele>
        <time>2013-09-22T07:41:38.000Z</time>
      </trkpt>
      <trkpt lat="49.17366" lon="1.43752">
        <ele>134.67202758789</ele>
        <time>2013-09-22T07:41:40.000Z</time>
      </trkpt>
      <trkpt lat="49.17355" lon="1.43729">
        <ele>134.66361999512</ele>
        <time>2013-09-22T07:41:43.000Z</time>
      </trkpt>
      <trkpt lat="49.17347" lon="1.43713">
        <ele>134.69100952148</ele>
        <time>2013-09-22T07:41:45.000Z</time>
      </trkpt>
      <trkpt lat="49.17338" lon="1.43697">
        <ele>134.74990844727</ele>
        <time>2013-09-22T07:41:47.000Z</time>
      </trkpt>
      <trkpt lat="49.1733" lon="1.43683">
        <ele>134.8278503418</ele>
        <time>2013-09-22T07:41:49.000Z</time>
      </trkpt>
      <trkpt lat="49.17318" lon="1.4366">
        <ele>134.90547180176</ele>
        <time>2013-09-22T07:41:52.000Z</time>
      </trkpt>
      <trkpt lat="49.17305" lon="1.43636">
        <ele>134.95683288574</ele>
        <time>2013-09-22T07:41:55.000Z</time>
      </trkpt>
      <trkpt lat="49.17296" lon="1.4362">
        <ele>134.98867797852</ele>
        <time>2013-09-22T07:41:57.000Z</time>
      </trkpt>
      <trkpt lat="49.17282" lon="1.43597">
        <ele>135</ele>
        <time>2013-09-22T07:42:00.000Z</time>
      </trkpt>
      <trkpt lat="49.17268" lon="1.43575">
        <ele>134.9581451416</ele>
        <time>2013-09-22T07:42:03.000Z</time>
      </trkpt>
      <trkpt lat="49.17258" lon="1.4356">
        <ele>134.84457397461</ele>
        <time>2013-09-22T07:42:05.000Z</time>
      </trkpt>
      <trkpt lat="49.17244" lon="1.43538">
        <ele>134.63468933106</ele>
        <time>2013-09-22T07:42:08.000Z</time>
      </trkpt>
      <trkpt lat="49.17236" lon="1.43524">
        <ele>134.37556457519</ele>
        <time>2013-09-22T07:42:10.000Z</time>
      </trkpt>
      <trkpt lat="49.17223" lon="1.43501">
        <ele>134.0475769043</ele>
        <time>2013-09-22T07:42:13.000Z</time>
      </trkpt>
      <trkpt lat="49.17208" lon="1.43479">
        <ele>133.78962707519</ele>
        <time>2013-09-22T07:42:16.000Z</time>
      </trkpt>
      <trkpt lat="49.17193" lon="1.43456">
        <ele>133.63952636719</ele>
        <time>2013-09-22T07:42:19.000Z</time>
      </trkpt>
      <trkpt lat="49.17184" lon="1.4344">
        <ele>133.60820007324</ele>
        <time>2013-09-22T07:42:21.000Z</time>
      </trkpt>
      <trkpt lat="49.17174" lon="1.43424">
        <ele>133.64956665039</ele>
        <time>2013-09-22T07:42:23.000Z</time>
      </trkpt>
      <trkpt lat="49.17159" lon="1.43401">
        <ele>133.77754211426</ele>
        <time>2013-09-22T07:42:26.000Z</time>
      </trkpt>
      <trkpt lat="49.1715" lon="1.43386">
        <ele>133.87734985352</ele>
        <time>2013-09-22T07:42:28.000Z</time>
      </trkpt>
      <trkpt lat="49.17135" lon="1.43365">
        <ele>133.94100952148</ele>
        <time>2013-09-22T07:42:31.000Z</time>
      </trkpt>
      <trkpt lat="49.17126" lon="1.4335">
        <ele>133.98222351074</ele>
        <time>2013-09-22T07:42:33.000Z</time>
      </trkpt>
      <trkpt lat="49.17111" lon="1.43328">
        <ele>133.99174499512</ele>
        <time>2013-09-22T07:42:36.000Z</time>
      </trkpt>
      <trkpt lat="49.17103" lon="1.43315">
        <ele>133.95747375488</ele>
        <time>2013-09-22T07:42:38.000Z</time>
      </trkpt>
      <trkpt lat="49.17089" lon="1.43292">
        <ele>133.86441040039</ele>
        <time>2013-09-22T07:42:41.000Z</time>
      </trkpt>
      <trkpt lat="49.1708" lon="1.43276">
        <ele>133.76809692383</ele>
        <time>2013-09-22T07:42:43.000Z</time>
      </trkpt>
      <trkpt lat="49.17066" lon="1.43253">
        <ele>133.7840423584</ele>
        <time>2013-09-22T07:42:46.000Z</time>
      </trkpt>
      <trkpt lat="49.17052" lon="1.4323">
        <ele>133.91511535644</ele>
        <time>2013-09-22T07:42:49.000Z</time>
      </trkpt>
      <trkpt lat="49.17039" lon="1.43206">
        <ele>134.18147277832</ele>
        <time>2013-09-22T07:42:52.000Z</time>
      </trkpt>
      <trkpt lat="49.17029" lon="1.43189">
        <ele>134.57861328125</ele>
        <time>2013-09-22T07:42:54.000Z</time>
      </trkpt>
      <trkpt lat="49.17016" lon="1.43165">
        <ele>135.08122253418</ele>
        <time>2013-09-22T07:42:57.000Z</time>
      </trkpt>
      <trkpt lat="49.17008" lon="1.43147">
        <ele>135.57791137695</ele>
        <time>2013-09-22T07:42:59.000Z</time>
      </trkpt>
      <trkpt lat="49.17002" lon="1.43118">
        <ele>136.03439331055</ele>
        <time>2013-09-22T07:43:02.000Z</time>
      </trkpt>
      <trkpt lat="49.17" lon="1.43089">
        <ele>136.3991394043</ele>
        <time>2013-09-22T07:43:05.000Z</time>
      </trkpt>
      <trkpt lat="49.17001" lon="1.43072">
        <ele>136.57383728027</ele>
        <time>2013-09-22T07:43:07.000Z</time>
      </trkpt>
      <trkpt lat="49.17007" lon="1.43048">
        <ele>136.39863586426</ele>
        <time>2013-09-22T07:43:10.000Z</time>
      </trkpt>
      <trkpt lat="49.17017" lon="1.43028">
        <ele>135.92895507812</ele>
        <time>2013-09-22T07:43:13.000Z</time>
      </trkpt>
      <trkpt lat="49.17029" lon="1.4301">
        <ele>135.2733001709</ele>
        <time>2013-09-22T07:43:16.000Z</time>
      </trkpt>
      <trkpt lat="49.1704" lon="1.42994">
        <ele>134.57063293457</ele>
        <time>2013-09-22T07:43:19.000Z</time>
      </trkpt>
      <trkpt lat="49.17051" lon="1.4298">
        <ele>134.03695678711</ele>
        <time>2013-09-22T07:43:22.000Z</time>
      </trkpt>
      <trkpt lat="49.17059" lon="1.42971">
        <ele>133.80267333984</ele>
        <time>2013-09-22T07:43:25.000Z</time>
      </trkpt>
      <trkpt lat="49.17059" lon="1.42967">
        <ele>133.76397705078</ele>
        <time>2013-09-22T07:43:27.000Z</time>
      </trkpt>
      <trkpt lat="49.17059" lon="1.42967">
        <ele>133.76397705078</ele>
        <time>2013-09-22T07:43:47.000Z</time>
      </trkpt>
      <trkpt lat="49.17058" lon="1.42962">
        <ele>133.85104370117</ele>
        <time>2013-09-22T07:46:50.000Z</time>
      </trkpt>
      <trkpt lat="49.17058" lon="1.42962">
        <ele>133.85104370117</ele>
        <time>2013-09-22T07:47:10.000Z</time>
      </trkpt>
      <trkpt lat="49.17054" lon="1.42959">
        <ele>133.94857788086</ele>
        <time>2013-09-22T07:47:18.000Z</time>
      </trkpt>
      <trkpt lat="49.17051" lon="1.4295">
        <ele>133.974609375</ele>
        <time>2013-09-22T07:47:21.000Z</time>
      </trkpt>
      <trkpt lat="49.17047" lon="1.42941">
        <ele>133.92776489258</ele>
        <time>2013-09-22T07:47:23.000Z</time>
      </trkpt>
      <trkpt lat="49.17043" lon="1.42933">
        <ele>133.83746337891</ele>
        <time>2013-09-22T07:47:25.000Z</time>
      </trkpt>
      <trkpt lat="49.17041" lon="1.42922">
        <ele>133.71937561035</ele>
        <time>2013-09-22T07:47:28.000Z</time>
      </trkpt>
      <trkpt lat="49.17044" lon="1.42917">
        <ele>133.65881347656</ele>
        <time>2013-09-22T07:47:30.000Z</time>
      </trkpt>
      <trkpt lat="49.17051" lon="1.42907">
        <ele>133.66830444336</ele>
        <time>2013-09-22T07:47:33.000Z</time>
      </trkpt>
      <trkpt lat="49.17056" lon="1.42896">
        <ele>133.74667358398</ele>
        <time>2013-09-22T07:47:36.000Z</time>
      </trkpt>
      <trkpt lat="49.1706" lon="1.42889">
        <ele>133.88249206543</ele>
        <time>2013-09-22T07:47:38.000Z</time>
      </trkpt>
      <trkpt lat="49.17064" lon="1.4288">
        <ele>134.07231140137</ele>
        <time>2013-09-22T07:47:41.000Z</time>
      </trkpt>
      <trkpt lat="49.1707" lon="1.4287">
        <ele>134.26754760742</ele>
        <time>2013-09-22T07:47:44.000Z</time>
      </trkpt>
      <trkpt lat="49.17075" lon="1.42862">
        <ele>134.45791625977</ele>
        <time>2013-09-22T07:47:46.000Z</time>
      </trkpt>
      <trkpt lat="49.17082" lon="1.4285">
        <ele>134.65609741211</ele>
        <time>2013-09-22T07:47:49.000Z</time>
      </trkpt>
      <trkpt lat="49.17084" lon="1.42847">
        <ele>134.85140991211</ele>
        <time>2013-09-22T07:47:51.000Z</time>
      </trkpt>
      <trkpt lat="49.17091" lon="1.42832">
        <ele>135.10093688965</ele>
        <time>2013-09-22T07:47:54.000Z</time>
      </trkpt>
      <trkpt lat="49.17099" lon="1.42819">
        <ele>135.38009643555</ele>
        <time>2013-09-22T07:47:57.000Z</time>
      </trkpt>
      <trkpt lat="49.17109" lon="1.42801">
        <ele>135.69093322754</ele>
        <time>2013-09-22T07:48:00.000Z</time>
      </trkpt>
      <trkpt lat="49.17116" lon="1.4279">
        <ele>135.98529052734</ele>
        <time>2013-09-22T07:48:03.000Z</time>
      </trkpt>
      <trkpt lat="49.17122" lon="1.42778">
        <ele>136.27658081055</ele>
        <time>2013-09-22T07:48:06.000Z</time>
      </trkpt>
      <trkpt lat="49.17128" lon="1.42768">
        <ele>136.48867797852</ele>
        <time>2013-09-22T07:48:08.000Z</time>
      </trkpt>
      <trkpt lat="49.17137" lon="1.42754">
        <ele>136.62612915039</ele>
        <time>2013-09-22T07:48:11.000Z</time>
      </trkpt>
      <trkpt lat="49.17145" lon="1.42741">
        <ele>136.76034545898</ele>
        <time>2013-09-22T07:48:14.000Z</time>
      </trkpt>
      <trkpt lat="49.17152" lon="1.42729">
        <ele>136.95922851562</ele>
        <time>2013-09-22T07:48:16.000Z</time>
      </trkpt>
      <trkpt lat="49.17161" lon="1.42708">
        <ele>137.27780151367</ele>
        <time>2013-09-22T07:48:19.000Z</time>
      </trkpt>
      <trkpt lat="49.17165" lon="1.42694">
        <ele>137.65615844727</ele>
        <time>2013-09-22T07:48:21.000Z</time>
      </trkpt>
      <trkpt lat="49.17173" lon="1.42674">
        <ele>138.0856628418</ele>
        <time>2013-09-22T07:48:24.000Z</time>
      </trkpt>
      <trkpt lat="49.17178" lon="1.42659">
        <ele>138.51577758789</ele>
        <time>2013-09-22T07:48:27.000Z</time>
      </trkpt>
      <trkpt lat="49.17181" lon="1.42648">
        <ele>138.93106079102</ele>
        <time>2013-09-22T07:48:29.000Z</time>
      </trkpt>
      <trkpt lat="49.17184" lon="1.4263">
        <ele>139.36563110352</ele>
        <time>2013-09-22T07:48:32.000Z</time>
      </trkpt>
      <trkpt lat="49.17186" lon="1.42618">
        <ele>139.83502197266</ele>
        <time>2013-09-22T07:48:34.000Z</time>
      </trkpt>
      <trkpt lat="49.17191" lon="1.42606">
        <ele>140.34864807129</ele>
        <time>2013-09-22T07:48:37.000Z</time>
      </trkpt>
      <trkpt lat="49.17196" lon="1.4259">
        <ele>140.90310668945</ele>
        <time>2013-09-22T07:48:40.000Z</time>
      </trkpt>
      <trkpt lat="49.172" lon="1.42578">
        <ele>141.42213439941</ele>
        <time>2013-09-22T07:48:42.000Z</time>
      </trkpt>
      <trkpt lat="49.17205" lon="1.42566">
        <ele>141.80805969238</ele>
        <time>2013-09-22T07:48:44.000Z</time>
      </trkpt>
      <trkpt lat="49.17214" lon="1.42548">
        <ele>142.12063598633</ele>
        <time>2013-09-22T07:48:47.000Z</time>
      </trkpt>
      <trkpt lat="49.17221" lon="1.42528">
        <ele>142.39292907715</ele>
        <time>2013-09-22T07:48:50.000Z</time>
      </trkpt>
      <trkpt lat="49.17224" lon="1.42511">
        <ele>142.60986328125</ele>
        <time>2013-09-22T07:48:53.000Z</time>
      </trkpt>
      <trkpt lat="49.17224" lon="1.425">
        <ele>142.81837463379</ele>
        <time>2013-09-22T07:48:55.000Z</time>
      </trkpt>
      <trkpt lat="49.17224" lon="1.4248">
        <ele>142.95980834961</ele>
        <time>2013-09-22T07:48:58.000Z</time>
      </trkpt>
      <trkpt lat="49.17225" lon="1.42469">
        <ele>143.04827880859</ele>
        <time>2013-09-22T07:49:00.000Z</time>
      </trkpt>
      <trkpt lat="49.17228" lon="1.42452">
        <ele>143.05184936523</ele>
        <time>2013-09-22T07:49:03.000Z</time>
      </trkpt>
      <trkpt lat="49.17229" lon="1.42435">
        <ele>142.96676635742</ele>
        <time>2013-09-22T07:49:06.000Z</time>
      </trkpt>
      <trkpt lat="49.17232" lon="1.42422">
        <ele>142.82490539551</ele>
        <time>2013-09-22T07:49:08.000Z</time>
      </trkpt>
      <trkpt lat="49.17237" lon="1.424">
        <ele>142.73068237305</ele>
        <time>2013-09-22T07:49:11.000Z</time>
      </trkpt>
      <trkpt lat="49.17242" lon="1.42386">
        <ele>142.68174743652</ele>
        <time>2013-09-22T07:49:13.000Z</time>
      </trkpt>
      <trkpt lat="49.17247" lon="1.42373">
        <ele>142.69664001465</ele>
        <time>2013-09-22T07:49:16.000Z</time>
      </trkpt>
      <trkpt lat="49.1725" lon="1.4236">
        <ele>142.76406860352</ele>
        <time>2013-09-22T07:49:19.000Z</time>
      </trkpt>
      <trkpt lat="49.17251" lon="1.42351">
        <ele>142.8426361084</ele>
        <time>2013-09-22T07:49:21.000Z</time>
      </trkpt>
      <trkpt lat="49.17253" lon="1.42341">
        <ele>142.91944885254</ele>
        <time>2013-09-22T07:49:23.000Z</time>
      </trkpt>
      <trkpt lat="49.17256" lon="1.42325">
        <ele>142.97409057617</ele>
        <time>2013-09-22T07:49:26.000Z</time>
      </trkpt>
      <trkpt lat="49.17257" lon="1.42315">
        <ele>142.9933013916</ele>
        <time>2013-09-22T07:49:28.000Z</time>
      </trkpt>
      <trkpt lat="49.17261" lon="1.42298">
        <ele>142.98191833496</ele>
        <time>2013-09-22T07:49:31.000Z</time>
      </trkpt>
      <trkpt lat="49.17263" lon="1.4228">
        <ele>142.96240234375</ele>
        <time>2013-09-22T07:49:34.000Z</time>
      </trkpt>
      <trkpt lat="49.17266" lon="1.4226">
        <ele>142.9284362793</ele>
        <time>2013-09-22T07:49:37.000Z</time>
      </trkpt>
      <trkpt lat="49.17268" lon="1.42248">
        <ele>142.87590026856</ele>
        <time>2013-09-22T07:49:39.000Z</time>
      </trkpt>
      <trkpt lat="49.17274" lon="1.42226">
        <ele>142.6848449707</ele>
        <time>2013-09-22T07:49:42.000Z</time>
      </trkpt>
      <trkpt lat="49.17281" lon="1.42208">
        <ele>142.39299011231</ele>
        <time>2013-09-22T07:49:45.000Z</time>
      </trkpt>
      <trkpt lat="49.17284" lon="1.42194">
        <ele>142.03739929199</ele>
        <time>2013-09-22T07:49:47.000Z</time>
      </trkpt>
      <trkpt lat="49.17289" lon="1.42177">
        <ele>141.61384582519</ele>
        <time>2013-09-22T07:49:50.000Z</time>
      </trkpt>
      <trkpt lat="49.17295" lon="1.42161">
        <ele>141.13830566406</ele>
        <time>2013-09-22T07:49:53.000Z</time>
      </trkpt>
      <trkpt lat="49.17299" lon="1.42142">
        <ele>140.69331359863</ele>
        <time>2013-09-22T07:49:56.000Z</time>
      </trkpt>
      <trkpt lat="49.17301" lon="1.42118">
        <ele>140.22021484375</ele>
        <time>2013-09-22T07:49:59.000Z</time>
      </trkpt>
      <trkpt lat="49.173" lon="1.42103">
        <ele>139.71638488769</ele>
        <time>2013-09-22T07:50:01.000Z</time>
      </trkpt>
      <trkpt lat="49.17302" lon="1.42076">
        <ele>139.14395141602</ele>
        <time>2013-09-22T07:50:04.000Z</time>
      </trkpt>
      <trkpt lat="49.17297" lon="1.42043">
        <ele>138.29055786133</ele>
        <time>2013-09-22T07:50:07.000Z</time>
      </trkpt>
      <trkpt lat="49.17286" lon="1.42024">
        <ele>137.13362121582</ele>
        <time>2013-09-22T07:50:09.000Z</time>
      </trkpt>
      <trkpt lat="49.17277" lon="1.41991">
        <ele>135.53402709961</ele>
        <time>2013-09-22T07:50:12.000Z</time>
      </trkpt>
      <trkpt lat="49.1726" lon="1.41954">
        <ele>133.18737792969</ele>
        <time>2013-09-22T07:50:15.000Z</time>
      </trkpt>
      <trkpt lat="49.17245" lon="1.41923">
        <ele>129.97915649414</ele>
        <time>2013-09-22T07:50:18.000Z</time>
      </trkpt>
      <trkpt lat="49.17235" lon="1.41891">
        <ele>125.92952728272</ele>
        <time>2013-09-22T07:50:21.000Z</time>
      </trkpt>
      <trkpt lat="49.1723" lon="1.4187">
        <ele>121.61149597168</ele>
        <time>2013-09-22T07:50:23.000Z</time>
      </trkpt>
      <trkpt lat="49.17235" lon="1.41842">
        <ele>117.79232025147</ele>
        <time>2013-09-22T07:50:26.000Z</time>
      </trkpt>
      <trkpt lat="49.1724" lon="1.41825">
        <ele>114.75830078125</ele>
        <time>2013-09-22T07:50:28.000Z</time>
      </trkpt>
      <trkpt lat="49.17242" lon="1.418">
        <ele>112.05950927734</ele>
        <time>2013-09-22T07:50:31.000Z</time>
      </trkpt>
      <trkpt lat="49.17237" lon="1.41773">
        <ele>109.21140289307</ele>
        <time>2013-09-22T07:50:34.000Z</time>
      </trkpt>
      <trkpt lat="49.17236" lon="1.41763">
        <ele>106.60683441162</ele>
        <time>2013-09-22T07:50:36.000Z</time>
      </trkpt>
      <trkpt lat="49.17241" lon="1.41715">
        <ele>102.83497619629</ele>
        <time>2013-09-22T07:50:40.000Z</time>
      </trkpt>
      <trkpt lat="49.17247" lon="1.41701">
        <ele>99.0439453125</ele>
        <time>2013-09-22T07:50:42.000Z</time>
      </trkpt>
      <trkpt lat="49.17253" lon="1.41688">
        <ele>95.92057800293</ele>
        <time>2013-09-22T07:50:44.000Z</time>
      </trkpt>
      <trkpt lat="49.17255" lon="1.41664">
        <ele>93.513290405273</ele>
        <time>2013-09-22T07:50:48.000Z</time>
      </trkpt>
      <trkpt lat="49.17246" lon="1.41634">
        <ele>90.376953125</ele>
        <time>2013-09-22T07:50:51.000Z</time>
      </trkpt>
      <trkpt lat="49.172" lon="1.41574">
        <ele>85.082992553711</ele>
        <time>2013-09-22T07:50:56.000Z</time>
      </trkpt>
      <trkpt lat="49.17176" lon="1.41552">
        <ele>78.448501586914</ele>
        <time>2013-09-22T07:50:59.000Z</time>
      </trkpt>
      <trkpt lat="49.17157" lon="1.41535">
        <ele>70.785873413086</ele>
        <time>2013-09-22T07:51:02.000Z</time>
      </trkpt>
      <trkpt lat="49.17152" lon="1.41535">
        <ele>63.556144714355</ele>
        <time>2013-09-22T07:51:06.000Z</time>
      </trkpt>
      <trkpt lat="49.17133" lon="1.41517">
        <ele>56.593822479248</ele>
        <time>2013-09-22T07:51:10.000Z</time>
      </trkpt>
      <trkpt lat="49.17125" lon="1.41507">
        <ele>52.682514190674</ele>
        <time>2013-09-22T07:51:12.000Z</time>
      </trkpt>
      <trkpt lat="49.1711" lon="1.41483">
        <ele>49.43966293335</ele>
        <time>2013-09-22T07:51:15.000Z</time>
      </trkpt>
      <trkpt lat="49.171" lon="1.41469">
        <ele>46.75057220459</ele>
        <time>2013-09-22T07:51:17.000Z</time>
      </trkpt>
      <trkpt lat="49.17092" lon="1.41456">
        <ele>43.870468139648</ele>
        <time>2013-09-22T07:51:19.000Z</time>
      </trkpt>
      <trkpt lat="49.17082" lon="1.41435">
        <ele>41.391418457031</ele>
        <time>2013-09-22T07:51:22.000Z</time>
      </trkpt>
      <trkpt lat="49.1708" lon="1.41424">
        <ele>39.145713806152</ele>
        <time>2013-09-22T07:51:25.000Z</time>
      </trkpt>
      <trkpt lat="49.1708" lon="1.41411">
        <ele>37.554374694824</ele>
        <time>2013-09-22T07:51:27.000Z</time>
      </trkpt>
      <trkpt lat="49.17077" lon="1.41394">
        <ele>36.217414855957</ele>
        <time>2013-09-22T07:51:29.000Z</time>
      </trkpt>
      <trkpt lat="49.17072" lon="1.41373">
        <ele>34.968547821045</ele>
        <time>2013-09-22T07:51:32.000Z</time>
      </trkpt>
      <trkpt lat="49.17066" lon="1.41347">
        <ele>33.858806610107</ele>
        <time>2013-09-22T07:51:35.000Z</time>
      </trkpt>
      <trkpt lat="49.17054" lon="1.41309">
        <ele>32.416946411133</ele>
        <time>2013-09-22T07:51:38.000Z</time>
      </trkpt>
      <trkpt lat="49.1704" lon="1.41272">
        <ele>30.683376312256</ele>
        <time>2013-09-22T07:51:41.000Z</time>
      </trkpt>
      <trkpt lat="49.17033" lon="1.41258">
        <ele>29.013513565064</ele>
        <time>2013-09-22T07:51:44.000Z</time>
      </trkpt>
      <trkpt lat="49.17031" lon="1.4126">
        <ele>27.624517440796</ele>
        <time>2013-09-22T07:51:46.000Z</time>
      </trkpt>
      <trkpt lat="49.1703" lon="1.41261">
        <ele>26.571279525757</ele>
        <time>2013-09-22T07:51:49.000Z</time>
      </trkpt>
      <trkpt lat="49.17025" lon="1.41259">
        <ele>25.887762069702</ele>
        <time>2013-09-22T07:51:56.000Z</time>
      </trkpt>
      <trkpt lat="49.17025" lon="1.41259">
        <ele>25.887762069702</ele>
        <time>2013-09-22T07:52:16.000Z</time>
      </trkpt>
      <trkpt lat="49.17023" lon="1.41259">
        <ele>25.549421310425</ele>
        <time>2013-09-22T07:56:43.000Z</time>
      </trkpt>
      <trkpt lat="49.17023" lon="1.41259">
        <ele>25.549421310425</ele>
        <time>2013-09-22T07:57:05.000Z</time>
      </trkpt>
      <trkpt lat="49.17023" lon="1.41259">
        <ele>25.392429351807</ele>
        <time>2013-09-22T07:57:11.000Z</time>
      </trkpt>
      <trkpt lat="49.17024" lon="1.41258">
        <ele>25.254388809204</ele>
        <time>2013-09-22T07:57:24.000Z</time>
      </trkpt>
      <trkpt lat="49.17027" lon="1.41252">
        <ele>25.162799835205</ele>
        <time>2013-09-22T07:57:28.000Z</time>
      </trkpt>
      <trkpt lat="49.1703" lon="1.41244">
        <ele>25.187311172485</ele>
        <time>2013-09-22T07:57:29.000Z</time>
      </trkpt>
      <trkpt lat="49.17033" lon="1.41237">
        <ele>25.294546127319</ele>
        <time>2013-09-22T07:57:31.000Z</time>
      </trkpt>
      <trkpt lat="49.17038" lon="1.41223">
        <ele>25.422916412354</ele>
        <time>2013-09-22T07:57:34.000Z</time>
      </trkpt>
      <trkpt lat="49.17042" lon="1.41214">
        <ele>25.569435119629</ele>
        <time>2013-09-22T07:57:36.000Z</time>
      </trkpt>
      <trkpt lat="49.17048" lon="1.41196">
        <ele>25.703090667725</ele>
        <time>2013-09-22T07:57:39.000Z</time>
      </trkpt>
      <trkpt lat="49.17052" lon="1.41185">
        <ele>25.798938751221</ele>
        <time>2013-09-22T07:57:41.000Z</time>
      </trkpt>
      <trkpt lat="49.17058" lon="1.41166">
        <ele>25.840219497681</ele>
        <time>2013-09-22T07:57:44.000Z</time>
      </trkpt>
      <trkpt lat="49.17062" lon="1.41144">
        <ele>25.788782119751</ele>
        <time>2013-09-22T07:57:47.000Z</time>
      </trkpt>
      <trkpt lat="49.17065" lon="1.41125">
        <ele>25.659358978271</ele>
        <time>2013-09-22T07:57:49.000Z</time>
      </trkpt>
      <trkpt lat="49.17068" lon="1.41093">
        <ele>25.41344833374</ele>
        <time>2013-09-22T07:57:52.000Z</time>
      </trkpt>
      <trkpt lat="49.1707" lon="1.41066">
        <ele>25.03169631958</ele>
        <time>2013-09-22T07:57:55.000Z</time>
      </trkpt>
      <trkpt lat="49.17071" lon="1.41052">
        <ele>24.58060836792</ele>
        <time>2013-09-22T07:57:57.000Z</time>
      </trkpt>
      <trkpt lat="49.17072" lon="1.41027">
        <ele>24.029211044311</ele>
        <time>2013-09-22T07:58:00.000Z</time>
      </trkpt>
      <trkpt lat="49.17073" lon="1.4101">
        <ele>23.425893783569</ele>
        <time>2013-09-22T07:58:02.000Z</time>
      </trkpt>
      <trkpt lat="49.17076" lon="1.40984">
        <ele>22.826908111572</ele>
        <time>2013-09-22T07:58:05.000Z</time>
      </trkpt>
      <trkpt lat="49.17081" lon="1.40957">
        <ele>22.317977905273</ele>
        <time>2013-09-22T07:58:08.000Z</time>
      </trkpt>
      <trkpt lat="49.17089" lon="1.40928">
        <ele>21.930553436279</ele>
        <time>2013-09-22T07:58:11.000Z</time>
      </trkpt>
      <trkpt lat="49.17093" lon="1.40911">
        <ele>21.729030609131</ele>
        <time>2013-09-22T07:58:13.000Z</time>
      </trkpt>
      <trkpt lat="49.17098" lon="1.40893">
        <ele>21.659738540649</ele>
        <time>2013-09-22T07:58:15.000Z</time>
      </trkpt>
      <trkpt lat="49.17105" lon="1.40869">
        <ele>21.710521697998</ele>
        <time>2013-09-22T07:58:18.000Z</time>
      </trkpt>
      <trkpt lat="49.1711" lon="1.40844">
        <ele>21.793539047241</ele>
        <time>2013-09-22T07:58:21.000Z</time>
      </trkpt>
      <trkpt lat="49.17116" lon="1.40822">
        <ele>21.89973449707</ele>
        <time>2013-09-22T07:58:24.000Z</time>
      </trkpt>
      <trkpt lat="49.1712" lon="1.40807">
        <ele>22.06369972229</ele>
        <time>2013-09-22T07:58:26.000Z</time>
      </trkpt>
      <trkpt lat="49.17123" lon="1.40795">
        <ele>22.26833152771</ele>
        <time>2013-09-22T07:58:28.000Z</time>
      </trkpt>
      <trkpt lat="49.1713" lon="1.40775">
        <ele>22.56173324585</ele>
        <time>2013-09-22T07:58:31.000Z</time>
      </trkpt>
      <trkpt lat="49.17138" lon="1.40755">
        <ele>22.976261138916</ele>
        <time>2013-09-22T07:58:34.000Z</time>
      </trkpt>
      <trkpt lat="49.17142" lon="1.40732">
        <ele>23.319477081299</ele>
        <time>2013-09-22T07:58:37.000Z</time>
      </trkpt>
      <trkpt lat="49.17139" lon="1.40702">
        <ele>23.453746795654</ele>
        <time>2013-09-22T07:58:40.000Z</time>
      </trkpt>
      <trkpt lat="49.17137" lon="1.40684">
        <ele>23.445682525635</ele>
        <time>2013-09-22T07:58:42.000Z</time>
      </trkpt>
      <trkpt lat="49.17136" lon="1.40664">
        <ele>23.259819030762</ele>
        <time>2013-09-22T07:58:44.000Z</time>
      </trkpt>
      <trkpt lat="49.17137" lon="1.40645">
        <ele>22.901601791382</ele>
        <time>2013-09-22T07:58:46.000Z</time>
      </trkpt>
      <trkpt lat="49.17139" lon="1.40618">
        <ele>22.473180770874</ele>
        <time>2013-09-22T07:58:49.000Z</time>
      </trkpt>
      <trkpt lat="49.17142" lon="1.40597">
        <ele>22.105865478516</ele>
        <time>2013-09-22T07:58:51.000Z</time>
      </trkpt>
      <trkpt lat="49.17144" lon="1.40577">
        <ele>21.770853042602</ele>
        <time>2013-09-22T07:58:53.000Z</time>
      </trkpt>
      <trkpt lat="49.1715" lon="1.40546">
        <ele>21.49987411499</ele>
        <time>2013-09-22T07:58:56.000Z</time>
      </trkpt>
      <trkpt lat="49.17154" lon="1.40515">
        <ele>21.268442153931</ele>
        <time>2013-09-22T07:58:59.000Z</time>
      </trkpt>
      <trkpt lat="49.17157" lon="1.40486">
        <ele>21.042181015015</ele>
        <time>2013-09-22T07:59:02.000Z</time>
      </trkpt>
      <trkpt lat="49.1716" lon="1.4046">
        <ele>20.757696151733</ele>
        <time>2013-09-22T07:59:05.000Z</time>
      </trkpt>
      <trkpt lat="49.17164" lon="1.40436">
        <ele>20.413579940796</ele>
        <time>2013-09-22T07:59:08.000Z</time>
      </trkpt>
      <trkpt lat="49.17168" lon="1.40417">
        <ele>20.007778167725</ele>
        <time>2013-09-22T07:59:11.000Z</time>
      </trkpt>
      <trkpt lat="49.17171" lon="1.40405">
        <ele>19.6549949646</ele>
        <time>2013-09-22T07:59:13.000Z</time>
      </trkpt>
      <trkpt lat="49.17177" lon="1.40398">
        <ele>19.432867050171</ele>
        <time>2013-09-22T07:59:15.000Z</time>
      </trkpt>
      <trkpt lat="49.17183" lon="1.40394">
        <ele>19.39789390564</ele>
        <time>2013-09-22T07:59:18.000Z</time>
      </trkpt>
      <trkpt lat="49.17188" lon="1.40392">
        <ele>19.533187866211</ele>
        <time>2013-09-22T07:59:21.000Z</time>
      </trkpt>
      <trkpt lat="49.17192" lon="1.40391">
        <ele>19.78173828125</ele>
        <time>2013-09-22T07:59:24.000Z</time>
      </trkpt>
      <trkpt lat="49.17197" lon="1.40393">
        <ele>20.076532363892</ele>
        <time>2013-09-22T07:59:26.000Z</time>
      </trkpt>
      <trkpt lat="49.172" lon="1.40392">
        <ele>20.357002258301</ele>
        <time>2013-09-22T07:59:28.000Z</time>
      </trkpt>
      <trkpt lat="49.17206" lon="1.40387">
        <ele>20.630531311035</ele>
        <time>2013-09-22T07:59:31.000Z</time>
      </trkpt>
      <trkpt lat="49.17215" lon="1.40374">
        <ele>20.87686920166</ele>
        <time>2013-09-22T07:59:34.000Z</time>
      </trkpt>
      <trkpt lat="49.17221" lon="1.40356">
        <ele>21.0602684021</ele>
        <time>2013-09-22T07:59:37.000Z</time>
      </trkpt>
      <trkpt lat="49.17226" lon="1.40344">
        <ele>21.150568008423</ele>
        <time>2013-09-22T07:59:39.000Z</time>
      </trkpt>
      <trkpt lat="49.1723" lon="1.40329">
        <ele>21.171342849731</ele>
        <time>2013-09-22T07:59:41.000Z</time>
      </trkpt>
      <trkpt lat="49.17234" lon="1.4031">
        <ele>21.095678329468</ele>
        <time>2013-09-22T07:59:44.000Z</time>
      </trkpt>
      <trkpt lat="49.17238" lon="1.40293">
        <ele>20.943515777588</ele>
        <time>2013-09-22T07:59:47.000Z</time>
      </trkpt>
      <trkpt lat="49.17241" lon="1.40277">
        <ele>20.766086578369</ele>
        <time>2013-09-22T07:59:49.000Z</time>
      </trkpt>
      <trkpt lat="49.17245" lon="1.40254">
        <ele>20.535322189331</ele>
        <time>2013-09-22T07:59:52.000Z</time>
      </trkpt>
      <trkpt lat="49.17247" lon="1.40239">
        <ele>20.300378799439</ele>
        <time>2013-09-22T07:59:54.000Z</time>
      </trkpt>
      <trkpt lat="49.17249" lon="1.40225">
        <ele>20.077491760254</ele>
        <time>2013-09-22T07:59:56.000Z</time>
      </trkpt>
      <trkpt lat="49.17251" lon="1.40204">
        <ele>19.868425369263</ele>
        <time>2013-09-22T07:59:59.000Z</time>
      </trkpt>
      <trkpt lat="49.17253" lon="1.40177">
        <ele>19.653087615967</ele>
        <time>2013-09-22T08:00:02.000Z</time>
      </trkpt>
      <trkpt lat="49.17252" lon="1.40151">
        <ele>19.482732772827</ele>
        <time>2013-09-22T08:00:05.000Z</time>
      </trkpt>
      <trkpt lat="49.17253" lon="1.40125">
        <ele>19.353870391846</ele>
        <time>2013-09-22T08:00:08.000Z</time>
      </trkpt>
      <trkpt lat="49.17255" lon="1.40112">
        <ele>19.276700973511</ele>
        <time>2013-09-22T08:00:10.000Z</time>
      </trkpt>
      <trkpt lat="49.17258" lon="1.40099">
        <ele>19.247325897217</ele>
        <time>2013-09-22T08:00:12.000Z</time>
      </trkpt>
      <trkpt lat="49.17261" lon="1.40086">
        <ele>19.293556213379</ele>
        <time>2013-09-22T08:00:14.000Z</time>
      </trkpt>
      <trkpt lat="49.17265" lon="1.40074">
        <ele>19.431324005127</ele>
        <time>2013-09-22T08:00:16.000Z</time>
      </trkpt>
      <trkpt lat="49.17271" lon="1.40054">
        <ele>19.679141998291</ele>
        <time>2013-09-22T08:00:19.000Z</time>
      </trkpt>
      <trkpt lat="49.17276" lon="1.40042">
        <ele>19.993576049805</ele>
        <time>2013-09-22T08:00:21.000Z</time>
      </trkpt>
      <trkpt lat="49.17282" lon="1.40024">
        <ele>20.438037872314</ele>
        <time>2013-09-22T08:00:24.000Z</time>
      </trkpt>
      <trkpt lat="49.17288" lon="1.40006">
        <ele>21.043857574463</ele>
        <time>2013-09-22T08:00:27.000Z</time>
      </trkpt>
      <trkpt lat="49.17293" lon="1.39994">
        <ele>21.710111618042</ele>
        <time>2013-09-22T08:00:29.000Z</time>
      </trkpt>
      <trkpt lat="49.17298" lon="1.39978">
        <ele>22.350685119629</ele>
        <time>2013-09-22T08:00:32.000Z</time>
      </trkpt>
      <trkpt lat="49.17304" lon="1.3996">
        <ele>22.968034744263</ele>
        <time>2013-09-22T08:00:35.000Z</time>
      </trkpt>
      <trkpt lat="49.17309" lon="1.39948">
        <ele>23.455371856689</ele>
        <time>2013-09-22T08:00:37.000Z</time>
      </trkpt>
      <trkpt lat="49.17313" lon="1.39937">
        <ele>23.757305145264</ele>
        <time>2013-09-22T08:00:39.000Z</time>
      </trkpt>
      <trkpt lat="49.17321" lon="1.39914">
        <ele>23.874399185181</ele>
        <time>2013-09-22T08:00:42.000Z</time>
      </trkpt>
      <trkpt lat="49.17327" lon="1.399">
        <ele>23.757852554321</ele>
        <time>2013-09-22T08:00:44.000Z</time>
      </trkpt>
      <trkpt lat="49.17333" lon="1.39887">
        <ele>23.414209365845</ele>
        <time>2013-09-22T08:00:46.000Z</time>
      </trkpt>
      <trkpt lat="49.17339" lon="1.39873">
        <ele>22.870233535767</ele>
        <time>2013-09-22T08:00:49.000Z</time>
      </trkpt>
      <trkpt lat="49.17345" lon="1.39852">
        <ele>22.043357849121</ele>
        <time>2013-09-22T08:00:51.000Z</time>
      </trkpt>
      <trkpt lat="49.17341" lon="1.3983">
        <ele>21.043231964111</ele>
        <time>2013-09-22T08:00:54.000Z</time>
      </trkpt>
      <trkpt lat="49.17328" lon="1.39816">
        <ele>20.18328666687</ele>
        <time>2013-09-22T08:00:57.000Z</time>
      </trkpt>
      <trkpt lat="49.1732" lon="1.39808">
        <ele>19.472345352173</ele>
        <time>2013-09-22T08:00:59.000Z</time>
      </trkpt>
      <trkpt lat="49.17312" lon="1.39802">
        <ele>18.934511184692</ele>
        <time>2013-09-22T08:01:01.000Z</time>
      </trkpt>
      <trkpt lat="49.173" lon="1.39795">
        <ele>18.686052322388</ele>
        <time>2013-09-22T08:01:04.000Z</time>
      </trkpt>
      <trkpt lat="49.1729" lon="1.39788">
        <ele>18.677600860596</ele>
        <time>2013-09-22T08:01:07.000Z</time>
      </trkpt>
      <trkpt lat="49.17279" lon="1.39783">
        <ele>18.679727554321</ele>
        <time>2013-09-22T08:01:10.000Z</time>
      </trkpt>
      <trkpt lat="49.17273" lon="1.39778">
        <ele>18.669998168945</ele>
        <time>2013-09-22T08:01:13.000Z</time>
      </trkpt>
      <trkpt lat="49.17272" lon="1.39772">
        <ele>18.636344909668</ele>
        <time>2013-09-22T08:01:16.000Z</time>
      </trkpt>
      <trkpt lat="49.17273" lon="1.39765">
        <ele>18.545251846314</ele>
        <time>2013-09-22T08:01:19.000Z</time>
      </trkpt>
      <trkpt lat="49.17275" lon="1.3976">
        <ele>18.415264129639</ele>
        <time>2013-09-22T08:01:21.000Z</time>
      </trkpt>
      <trkpt lat="49.17279" lon="1.39752">
        <ele>18.216312408447</ele>
        <time>2013-09-22T08:01:24.000Z</time>
      </trkpt>
      <trkpt lat="49.17284" lon="1.39742">
        <ele>18.044239044189</ele>
        <time>2013-09-22T08:01:27.000Z</time>
      </trkpt>
      <trkpt lat="49.17289" lon="1.39734">
        <ele>17.931558609009</ele>
        <time>2013-09-22T08:01:29.000Z</time>
      </trkpt>
      <trkpt lat="49.17294" lon="1.39723">
        <ele>17.915704727173</ele>
        <time>2013-09-22T08:01:32.000Z</time>
      </trkpt>
      <trkpt lat="49.17302" lon="1.39711">
        <ele>17.993352890015</ele>
        <time>2013-09-22T08:01:35.000Z</time>
      </trkpt>
      <trkpt lat="49.17309" lon="1.397">
        <ele>18.196664810181</ele>
        <time>2013-09-22T08:01:38.000Z</time>
      </trkpt>
      <trkpt lat="49.17313" lon="1.39695">
        <ele>18.425220489502</ele>
        <time>2013-09-22T08:01:40.000Z</time>
      </trkpt>
      <trkpt lat="49.17321" lon="1.39684">
        <ele>18.70059967041</ele>
        <time>2013-09-22T08:01:43.000Z</time>
      </trkpt>
      <trkpt lat="49.17331" lon="1.39674">
        <ele>19.011922836304</ele>
        <time>2013-09-22T08:01:46.000Z</time>
      </trkpt>
      <trkpt lat="49.17339" lon="1.39665">
        <ele>19.368434906006</ele>
        <time>2013-09-22T08:01:49.000Z</time>
      </trkpt>
      <trkpt lat="49.17348" lon="1.39656">
        <ele>19.760959625244</ele>
        <time>2013-09-22T08:01:52.000Z</time>
      </trkpt>
      <trkpt lat="49.17355" lon="1.39646">
        <ele>20.198461532593</ele>
        <time>2013-09-22T08:01:54.000Z</time>
      </trkpt>
      <trkpt lat="49.17361" lon="1.39636">
        <ele>20.642524719238</ele>
        <time>2013-09-22T08:01:56.000Z</time>
      </trkpt>
      <trkpt lat="49.17371" lon="1.39621">
        <ele>21.127056121826</ele>
        <time>2013-09-22T08:01:59.000Z</time>
      </trkpt>
      <trkpt lat="49.17381" lon="1.39608">
        <ele>21.643772125244</ele>
        <time>2013-09-22T08:02:02.000Z</time>
      </trkpt>
      <trkpt lat="49.1739" lon="1.39595">
        <ele>22.208248138428</ele>
        <time>2013-09-22T08:02:05.000Z</time>
      </trkpt>
      <trkpt lat="49.17397" lon="1.39586">
        <ele>22.785861968994</ele>
        <time>2013-09-22T08:02:07.000Z</time>
      </trkpt>
      <trkpt lat="49.17406" lon="1.39573">
        <ele>23.428609848023</ele>
        <time>2013-09-22T08:02:10.000Z</time>
      </trkpt>
      <trkpt lat="49.17412" lon="1.39565">
        <ele>24.047241210938</ele>
        <time>2013-09-22T08:02:12.000Z</time>
      </trkpt>
      <trkpt lat="49.17422" lon="1.39551">
        <ele>24.68380355835</ele>
        <time>2013-09-22T08:02:15.000Z</time>
      </trkpt>
      <trkpt lat="49.1743" lon="1.39539">
        <ele>25.308099746704</ele>
        <time>2013-09-22T08:02:18.000Z</time>
      </trkpt>
      <trkpt lat="49.17435" lon="1.39531">
        <ele>25.922088623047</ele>
        <time>2013-09-22T08:02:20.000Z</time>
      </trkpt>
      <trkpt lat="49.17442" lon="1.39521">
        <ele>26.501916885376</ele>
        <time>2013-09-22T08:02:23.000Z</time>
      </trkpt>
      <trkpt lat="49.17447" lon="1.39513">
        <ele>27.078491210938</ele>
        <time>2013-09-22T08:02:25.000Z</time>
      </trkpt>
      <trkpt lat="49.17453" lon="1.39502">
        <ele>27.624118804932</ele>
        <time>2013-09-22T08:02:28.000Z</time>
      </trkpt>
      <trkpt lat="49.17457" lon="1.39495">
        <ele>28.130931854248</ele>
        <time>2013-09-22T08:02:30.000Z</time>
      </trkpt>
      <trkpt lat="49.1746" lon="1.39489">
        <ele>28.644420623779</ele>
        <time>2013-09-22T08:02:32.000Z</time>
      </trkpt>
      <trkpt lat="49.17464" lon="1.3948">
        <ele>29.181552886963</ele>
        <time>2013-09-22T08:02:35.000Z</time>
      </trkpt>
      <trkpt lat="49.17469" lon="1.39474">
        <ele>29.735284805298</ele>
        <time>2013-09-22T08:02:37.000Z</time>
      </trkpt>
      <trkpt lat="49.17476" lon="1.39463">
        <ele>30.353771209717</ele>
        <time>2013-09-22T08:02:40.000Z</time>
      </trkpt>
      <trkpt lat="49.17482" lon="1.39451">
        <ele>31.08109664917</ele>
        <time>2013-09-22T08:02:43.000Z</time>
      </trkpt>
      <trkpt lat="49.17486" lon="1.39443">
        <ele>31.862747192383</ele>
        <time>2013-09-22T08:02:45.000Z</time>
      </trkpt>
      <trkpt lat="49.17492" lon="1.39432">
        <ele>32.705127716064</ele>
        <time>2013-09-22T08:02:48.000Z</time>
      </trkpt>
      <trkpt lat="49.17495" lon="1.39426">
        <ele>33.561931610107</ele>
        <time>2013-09-22T08:02:50.000Z</time>
      </trkpt>
      <trkpt lat="49.175" lon="1.39417">
        <ele>34.406848907471</ele>
        <time>2013-09-22T08:02:53.000Z</time>
      </trkpt>
      <trkpt lat="49.17503" lon="1.3941">
        <ele>35.154628753662</ele>
        <time>2013-09-22T08:02:55.000Z</time>
      </trkpt>
      <trkpt lat="49.17507" lon="1.39401">
        <ele>35.92121887207</ele>
        <time>2013-09-22T08:02:58.000Z</time>
      </trkpt>
      <trkpt lat="49.17509" lon="1.39396">
        <ele>36.586585998535</ele>
        <time>2013-09-22T08:03:00.000Z</time>
      </trkpt>
      <trkpt lat="49.17513" lon="1.39389">
        <ele>37.248863220215</ele>
        <time>2013-09-22T08:03:03.000Z</time>
      </trkpt>
      <trkpt lat="49.17516" lon="1.39383">
        <ele>37.863075256348</ele>
        <time>2013-09-22T08:03:06.000Z</time>
      </trkpt>
      <trkpt lat="49.17518" lon="1.39378">
        <ele>38.461585998535</ele>
        <time>2013-09-22T08:03:08.000Z</time>
      </trkpt>
      <trkpt lat="49.1752" lon="1.39373">
        <ele>38.988624572754</ele>
        <time>2013-09-22T08:03:10.000Z</time>
      </trkpt>
      <trkpt lat="49.17521" lon="1.39369">
        <ele>39.474384307861</ele>
        <time>2013-09-22T08:03:12.000Z</time>
      </trkpt>
      <trkpt lat="49.17523" lon="1.39363">
        <ele>39.9423828125</ele>
        <time>2013-09-22T08:03:15.000Z</time>
      </trkpt>
      <trkpt lat="49.17525" lon="1.39359">
        <ele>40.360950469971</ele>
        <time>2013-09-22T08:03:17.000Z</time>
      </trkpt>
      <trkpt lat="49.17526" lon="1.39354">
        <ele>40.768821716309</ele>
        <time>2013-09-22T08:03:20.000Z</time>
      </trkpt>
      <trkpt lat="49.17527" lon="1.39349">
        <ele>41.160228729248</ele>
        <time>2013-09-22T08:03:22.000Z</time>
      </trkpt>
      <trkpt lat="49.1753" lon="1.39345">
        <ele>41.587219238281</ele>
        <time>2013-09-22T08:03:25.000Z</time>
      </trkpt>
      <trkpt lat="49.17532" lon="1.39345">
        <ele>41.934371948242</ele>
        <time>2013-09-22T08:03:28.000Z</time>
      </trkpt>
      <trkpt lat="49.17534" lon="1.39348">
        <ele>42.198150634766</ele>
        <time>2013-09-22T08:03:31.000Z</time>
      </trkpt>
      <trkpt lat="49.17537" lon="1.39343">
        <ele>42.494148254395</ele>
        <time>2013-09-22T08:03:34.000Z</time>
      </trkpt>
      <trkpt lat="49.17537" lon="1.39337">
        <ele>42.797962188721</ele>
        <time>2013-09-22T08:03:36.000Z</time>
      </trkpt>
      <trkpt lat="49.17537" lon="1.3933">
        <ele>43.077812194824</ele>
        <time>2013-09-22T08:03:38.000Z</time>
      </trkpt>
      <trkpt lat="49.17537" lon="1.39327">
        <ele>43.35466003418</ele>
        <time>2013-09-22T08:03:40.000Z</time>
      </trkpt>
      <trkpt lat="49.17538" lon="1.39316">
        <ele>43.7321434021</ele>
        <time>2013-09-22T08:03:43.000Z</time>
      </trkpt>
      <trkpt lat="49.17539" lon="1.39309">
        <ele>44.053424835205</ele>
        <time>2013-09-22T08:03:45.000Z</time>
      </trkpt>
      <trkpt lat="49.17541" lon="1.39303">
        <ele>44.373847961426</ele>
        <time>2013-09-22T08:03:47.000Z</time>
      </trkpt>
      <trkpt lat="49.17545" lon="1.39296">
        <ele>44.71728515625</ele>
        <time>2013-09-22T08:03:49.000Z</time>
      </trkpt>
      <trkpt lat="49.17548" lon="1.39288">
        <ele>45.141162872314</ele>
        <time>2013-09-22T08:03:52.000Z</time>
      </trkpt>
      <trkpt lat="49.17551" lon="1.39278">
        <ele>45.559898376465</ele>
        <time>2013-09-22T08:03:55.000Z</time>
      </trkpt>
      <trkpt lat="49.17553" lon="1.39272">
        <ele>45.987297058105</ele>
        <time>2013-09-22T08:03:57.000Z</time>
      </trkpt>
      <trkpt lat="49.17554" lon="1.39266">
        <ele>46.39102935791</ele>
        <time>2013-09-22T08:03:59.000Z</time>
      </trkpt>
      <trkpt lat="49.17558" lon="1.39259">
        <ele>46.783012390137</ele>
        <time>2013-09-22T08:04:02.000Z</time>
      </trkpt>
      <trkpt lat="49.17559" lon="1.39254">
        <ele>47.119003295898</ele>
        <time>2013-09-22T08:04:04.000Z</time>
      </trkpt>
      <trkpt lat="49.17561" lon="1.39246">
        <ele>47.414058685303</ele>
        <time>2013-09-22T08:04:07.000Z</time>
      </trkpt>
      <trkpt lat="49.17564" lon="1.39238">
        <ele>47.676979064941</ele>
        <time>2013-09-22T08:04:10.000Z</time>
      </trkpt>
      <trkpt lat="49.17567" lon="1.39234">
        <ele>47.907428741455</ele>
        <time>2013-09-22T08:04:12.000Z</time>
      </trkpt>
      <trkpt lat="49.1757" lon="1.39226">
        <ele>48.0908203125</ele>
        <time>2013-09-22T08:04:15.000Z</time>
      </trkpt>
      <trkpt lat="49.17574" lon="1.39217">
        <ele>48.261825561523</ele>
        <time>2013-09-22T08:04:18.000Z</time>
      </trkpt>
      <trkpt lat="49.17577" lon="1.39211">
        <ele>48.411693572998</ele>
        <time>2013-09-22T08:04:21.000Z</time>
      </trkpt>
      <trkpt lat="49.1758" lon="1.39204">
        <ele>48.56175994873</ele>
        <time>2013-09-22T08:04:24.000Z</time>
      </trkpt>
      <trkpt lat="49.17583" lon="1.39198">
        <ele>48.707344055176</ele>
        <time>2013-09-22T08:04:26.000Z</time>
      </trkpt>
      <trkpt lat="49.17587" lon="1.39192">
        <ele>48.909381866455</ele>
        <time>2013-09-22T08:04:29.000Z</time>
      </trkpt>
      <trkpt lat="49.1759" lon="1.39183">
        <ele>49.171241760254</ele>
        <time>2013-09-22T08:04:32.000Z</time>
      </trkpt>
      <trkpt lat="49.17593" lon="1.39179">
        <ele>49.482006072998</ele>
        <time>2013-09-22T08:04:34.000Z</time>
      </trkpt>
      <trkpt lat="49.17598" lon="1.39172">
        <ele>49.88187789917</ele>
        <time>2013-09-22T08:04:37.000Z</time>
      </trkpt>
      <trkpt lat="49.17603" lon="1.39166">
        <ele>50.39790725708</ele>
        <time>2013-09-22T08:04:40.000Z</time>
      </trkpt>
      <trkpt lat="49.17608" lon="1.39159">
        <ele>50.98653793335</ele>
        <time>2013-09-22T08:04:43.000Z</time>
      </trkpt>
      <trkpt lat="49.17612" lon="1.39155">
        <ele>51.589191436768</ele>
        <time>2013-09-22T08:04:45.000Z</time>
      </trkpt>
      <trkpt lat="49.17617" lon="1.3915">
        <ele>52.267707824707</ele>
        <time>2013-09-22T08:04:48.000Z</time>
      </trkpt>
      <trkpt lat="49.17621" lon="1.39145">
        <ele>52.942680358887</ele>
        <time>2013-09-22T08:04:51.000Z</time>
      </trkpt>
      <trkpt lat="49.17624" lon="1.39141">
        <ele>53.560935974121</ele>
        <time>2013-09-22T08:04:53.000Z</time>
      </trkpt>
      <trkpt lat="49.17628" lon="1.39135">
        <ele>54.152214050293</ele>
        <time>2013-09-22T08:04:56.000Z</time>
      </trkpt>
      <trkpt lat="49.17632" lon="1.3913">
        <ele>54.724708557129</ele>
        <time>2013-09-22T08:04:58.000Z</time>
      </trkpt>
      <trkpt lat="49.17637" lon="1.39124">
        <ele>55.275871276855</ele>
        <time>2013-09-22T08:05:01.000Z</time>
      </trkpt>
      <trkpt lat="49.17644" lon="1.39116">
        <ele>55.88599395752</ele>
        <time>2013-09-22T08:05:04.000Z</time>
      </trkpt>
      <trkpt lat="49.17649" lon="1.3911">
        <ele>56.556781768799</ele>
        <time>2013-09-22T08:05:07.000Z</time>
      </trkpt>
      <trkpt lat="49.17655" lon="1.39103">
        <ele>57.2197265625</ele>
        <time>2013-09-22T08:05:10.000Z</time>
      </trkpt>
      <trkpt lat="49.17658" lon="1.391">
        <ele>57.868461608887</ele>
        <time>2013-09-22T08:05:12.000Z</time>
      </trkpt>
      <trkpt lat="49.17662" lon="1.39093">
        <ele>58.490283966064</ele>
        <time>2013-09-22T08:05:15.000Z</time>
      </trkpt>
      <trkpt lat="49.17665" lon="1.3909">
        <ele>58.99042892456</ele>
        <time>2013-09-22T08:05:17.000Z</time>
      </trkpt>
      <trkpt lat="49.17669" lon="1.39084">
        <ele>59.46508026123</ele>
        <time>2013-09-22T08:05:20.000Z</time>
      </trkpt>
      <trkpt lat="49.17673" lon="1.39078">
        <ele>59.961303710938</ele>
        <time>2013-09-22T08:05:23.000Z</time>
      </trkpt>
      <trkpt lat="49.17677" lon="1.39073">
        <ele>60.512195587158</ele>
        <time>2013-09-22T08:05:25.000Z</time>
      </trkpt>
      <trkpt lat="49.17682" lon="1.39065">
        <ele>61.159770965576</ele>
        <time>2013-09-22T08:05:28.000Z</time>
      </trkpt>
      <trkpt lat="49.17686" lon="1.39061">
        <ele>61.891101837158</ele>
        <time>2013-09-22T08:05:30.000Z</time>
      </trkpt>
      <trkpt lat="49.17691" lon="1.39056">
        <ele>62.656555175781</ele>
        <time>2013-09-22T08:05:32.000Z</time>
      </trkpt>
      <trkpt lat="49.17696" lon="1.3905">
        <ele>63.447288513184</ele>
        <time>2013-09-22T08:05:35.000Z</time>
      </trkpt>
      <trkpt lat="49.17701" lon="1.39044">
        <ele>64.264976501465</ele>
        <time>2013-09-22T08:05:38.000Z</time>
      </trkpt>
      <trkpt lat="49.17706" lon="1.39038">
        <ele>65.024826049805</ele>
        <time>2013-09-22T08:05:41.000Z</time>
      </trkpt>
      <trkpt lat="49.17711" lon="1.39032">
        <ele>65.809410095215</ele>
        <time>2013-09-22T08:05:44.000Z</time>
      </trkpt>
      <trkpt lat="49.17714" lon="1.39027">
        <ele>66.555557250977</ele>
        <time>2013-09-22T08:05:46.000Z</time>
      </trkpt>
      <trkpt lat="49.17719" lon="1.39021">
        <ele>67.259811401367</ele>
        <time>2013-09-22T08:05:49.000Z</time>
      </trkpt>
      <trkpt lat="49.17724" lon="1.39015">
        <ele>67.959823608398</ele>
        <time>2013-09-22T08:05:52.000Z</time>
      </trkpt>
      <trkpt lat="49.17728" lon="1.39012">
        <ele>68.635475158691</ele>
        <time>2013-09-22T08:05:54.000Z</time>
      </trkpt>
      <trkpt lat="49.17732" lon="1.39008">
        <ele>69.251914978027</ele>
        <time>2013-09-22T08:05:56.000Z</time>
      </trkpt>
      <trkpt lat="49.17736" lon="1.39005">
        <ele>69.870780944824</ele>
        <time>2013-09-22T08:05:59.000Z</time>
      </trkpt>
      <trkpt lat="49.17741" lon="1.39003">
        <ele>70.507415771484</ele>
        <time>2013-09-22T08:06:02.000Z</time>
      </trkpt>
      <trkpt lat="49.17746" lon="1.38997">
        <ele>71.143432617188</ele>
        <time>2013-09-22T08:06:05.000Z</time>
      </trkpt>
      <trkpt lat="49.17752" lon="1.38991">
        <ele>71.822532653809</ele>
        <time>2013-09-22T08:06:08.000Z</time>
      </trkpt>
      <trkpt lat="49.17756" lon="1.38987">
        <ele>72.442527770996</ele>
        <time>2013-09-22T08:06:10.000Z</time>
      </trkpt>
      <trkpt lat="49.17759" lon="1.38984">
        <ele>72.995544433594</ele>
        <time>2013-09-22T08:06:12.000Z</time>
      </trkpt>
      <trkpt lat="49.17762" lon="1.38981">
        <ele>73.440956115723</ele>
        <time>2013-09-22T08:06:14.000Z</time>
      </trkpt>
      <trkpt lat="49.17767" lon="1.38976">
        <ele>73.801742553711</ele>
        <time>2013-09-22T08:06:17.000Z</time>
      </trkpt>
      <trkpt lat="49.1777" lon="1.38971">
        <ele>74.050720214844</ele>
        <time>2013-09-22T08:06:19.000Z</time>
      </trkpt>
      <trkpt lat="49.17773" lon="1.38968">
        <ele>74.298324584961</ele>
        <time>2013-09-22T08:06:21.000Z</time>
      </trkpt>
      <trkpt lat="49.17777" lon="1.38965">
        <ele>74.539138793945</ele>
        <time>2013-09-22T08:06:23.000Z</time>
      </trkpt>
      <trkpt lat="49.17778" lon="1.38962">
        <ele>74.761291503906</ele>
        <time>2013-09-22T08:06:25.000Z</time>
      </trkpt>
      <trkpt lat="49.17783" lon="1.38957">
        <ele>74.974060058594</ele>
        <time>2013-09-22T08:06:28.000Z</time>
      </trkpt>
      <trkpt lat="49.17788" lon="1.38951">
        <ele>75.207275390625</ele>
        <time>2013-09-22T08:06:31.000Z</time>
      </trkpt>
      <trkpt lat="49.17792" lon="1.38949">
        <ele>75.435913085938</ele>
        <time>2013-09-22T08:06:33.000Z</time>
      </trkpt>
      <trkpt lat="49.17799" lon="1.38944">
        <ele>75.696670532227</ele>
        <time>2013-09-22T08:06:36.000Z</time>
      </trkpt>
      <trkpt lat="49.17804" lon="1.3894">
        <ele>75.984512329102</ele>
        <time>2013-09-22T08:06:39.000Z</time>
      </trkpt>
      <trkpt lat="49.17804" lon="1.38939">
        <ele>76.22452545166</ele>
        <time>2013-09-22T08:06:42.000Z</time>
      </trkpt>
      <trkpt lat="49.17807" lon="1.3893">
        <ele>76.445655822754</ele>
        <time>2013-09-22T08:06:47.000Z</time>
      </trkpt>
      <trkpt lat="49.17807" lon="1.38923">
        <ele>76.650863647461</ele>
        <time>2013-09-22T08:07:00.000Z</time>
      </trkpt>
      <trkpt lat="49.17812" lon="1.38918">
        <ele>76.833595275879</ele>
        <time>2013-09-22T08:07:12.000Z</time>
      </trkpt>
      <trkpt lat="49.17812" lon="1.38918">
        <ele>76.833595275879</ele>
        <time>2013-09-22T08:07:32.000Z</time>
      </trkpt>
      <trkpt lat="49.17815" lon="1.38928">
        <ele>76.962265014648</ele>
        <time>2013-09-22T08:07:38.000Z</time>
      </trkpt>
      <trkpt lat="49.17817" lon="1.38931">
        <ele>77.080345153809</ele>
        <time>2013-09-22T08:07:42.000Z</time>
      </trkpt>
      <trkpt lat="49.17817" lon="1.38931">
        <ele>77.080345153809</ele>
        <time>2013-09-22T08:08:02.000Z</time>
      </trkpt>
      <trkpt lat="49.17818" lon="1.38931">
        <ele>77.158554077148</ele>
        <time>2013-09-22T08:08:09.000Z</time>
      </trkpt>
      <trkpt lat="49.17813" lon="1.38931">
        <ele>77.180213928223</ele>
        <time>2013-09-22T08:08:18.000Z</time>
      </trkpt>
      <trkpt lat="49.17812" lon="1.38932">
        <ele>77.143447875977</ele>
        <time>2013-09-22T08:08:29.000Z</time>
      </trkpt>
      <trkpt lat="49.1781" lon="1.38931">
        <ele>77.097290039062</ele>
        <time>2013-09-22T08:08:32.000Z</time>
      </trkpt>
      <trkpt lat="49.17809" lon="1.38923">
        <ele>77.067306518555</ele>
        <time>2013-09-22T08:08:35.000Z</time>
      </trkpt>
      <trkpt lat="49.17812" lon="1.38914">
        <ele>77.066482543945</ele>
        <time>2013-09-22T08:08:38.000Z</time>
      </trkpt>
      <trkpt lat="49.17812" lon="1.38906">
        <ele>77.111885070801</ele>
        <time>2013-09-22T08:08:40.000Z</time>
      </trkpt>
      <trkpt lat="49.17812" lon="1.38898">
        <ele>77.179969787598</ele>
        <time>2013-09-22T08:08:42.000Z</time>
      </trkpt>
      <trkpt lat="49.17816" lon="1.38882">
        <ele>77.313545227051</ele>
        <time>2013-09-22T08:08:45.000Z</time>
      </trkpt>
      <trkpt lat="49.17823" lon="1.38865">
        <ele>77.525817871094</ele>
        <time>2013-09-22T08:08:48.000Z</time>
      </trkpt>
      <trkpt lat="49.17826" lon="1.38839">
        <ele>77.782302856445</ele>
        <time>2013-09-22T08:08:51.000Z</time>
      </trkpt>
      <trkpt lat="49.17829" lon="1.3882">
        <ele>78.008560180664</ele>
        <time>2013-09-22T08:08:53.000Z</time>
      </trkpt>
      <trkpt lat="49.1783" lon="1.38798">
        <ele>78.142059326172</ele>
        <time>2013-09-22T08:08:56.000Z</time>
      </trkpt>
      <trkpt lat="49.17835" lon="1.3878">
        <ele>78.163116455078</ele>
        <time>2013-09-22T08:08:59.000Z</time>
      </trkpt>
      <trkpt lat="49.17838" lon="1.38774">
        <ele>78.063522338867</ele>
        <time>2013-09-22T08:09:02.000Z</time>
      </trkpt>
      <trkpt lat="49.17839" lon="1.38769">
        <ele>77.859329223633</ele>
        <time>2013-09-22T08:09:04.000Z</time>
      </trkpt>
      <trkpt lat="49.17841" lon="1.3876">
        <ele>77.62663269043</ele>
        <time>2013-09-22T08:09:07.000Z</time>
      </trkpt>
      <trkpt lat="49.17841" lon="1.38752">
        <ele>77.42903137207</ele>
        <time>2013-09-22T08:09:10.000Z</time>
      </trkpt>
      <trkpt lat="49.17841" lon="1.3875">
        <ele>77.28328704834</ele>
        <time>2013-09-22T08:09:13.000Z</time>
      </trkpt>
      <trkpt lat="49.17842" lon="1.38749">
        <ele>77.157775878906</ele>
        <time>2013-09-22T08:09:17.000Z</time>
      </trkpt>
      <trkpt lat="49.17843" lon="1.38746">
        <ele>77.033638000488</ele>
        <time>2013-09-22T08:09:20.000Z</time>
      </trkpt>
      <trkpt lat="49.17847" lon="1.38741">
        <ele>76.926414489746</ele>
        <time>2013-09-22T08:09:23.000Z</time>
      </trkpt>
      <trkpt lat="49.17851" lon="1.38735">
        <ele>76.81999206543</ele>
        <time>2013-09-22T08:09:26.000Z</time>
      </trkpt>
      <trkpt lat="49.17859" lon="1.38722">
        <ele>76.622192382812</ele>
        <time>2013-09-22T08:09:28.000Z</time>
      </trkpt>
      <trkpt lat="49.17868" lon="1.38706">
        <ele>76.282051086426</ele>
        <time>2013-09-22T08:09:31.000Z</time>
      </trkpt>
      <trkpt lat="49.17873" lon="1.38692">
        <ele>75.830368041992</ele>
        <time>2013-09-22T08:09:34.000Z</time>
      </trkpt>
      <trkpt lat="49.17875" lon="1.38684">
        <ele>75.331100463867</ele>
        <time>2013-09-22T08:09:36.000Z</time>
      </trkpt>
      <trkpt lat="49.1788" lon="1.38671">
        <ele>74.73201751709</ele>
        <time>2013-09-22T08:09:39.000Z</time>
      </trkpt>
      <trkpt lat="49.17886" lon="1.38658">
        <ele>74.140907287598</ele>
        <time>2013-09-22T08:09:42.000Z</time>
      </trkpt>
      <trkpt lat="49.17889" lon="1.38644">
        <ele>73.667037963867</ele>
        <time>2013-09-22T08:09:45.000Z</time>
      </trkpt>
      <trkpt lat="49.17894" lon="1.38631">
        <ele>73.281425476074</ele>
        <time>2013-09-22T08:09:48.000Z</time>
      </trkpt>
      <trkpt lat="49.179" lon="1.3862">
        <ele>72.934761047363</ele>
        <time>2013-09-22T08:09:51.000Z</time>
      </trkpt>
      <trkpt lat="49.17902" lon="1.38613">
        <ele>72.712013244629</ele>
        <time>2013-09-22T08:09:53.000Z</time>
      </trkpt>
      <trkpt lat="49.17905" lon="1.38605">
        <ele>72.561935424805</ele>
        <time>2013-09-22T08:09:55.000Z</time>
      </trkpt>
      <trkpt lat="49.1791" lon="1.38594">
        <ele>72.41178894043</ele>
        <time>2013-09-22T08:09:58.000Z</time>
      </trkpt>
      <trkpt lat="49.17916" lon="1.38583">
        <ele>72.27269744873</ele>
        <time>2013-09-22T08:10:01.000Z</time>
      </trkpt>
      <trkpt lat="49.17921" lon="1.38572">
        <ele>72.15641784668</ele>
        <time>2013-09-22T08:10:04.000Z</time>
      </trkpt>
      <trkpt lat="49.17925" lon="1.38561">
        <ele>72.037612915039</ele>
        <time>2013-09-22T08:10:07.000Z</time>
      </trkpt>
      <trkpt lat="49.17929" lon="1.38551">
        <ele>71.917221069336</ele>
        <time>2013-09-22T08:10:09.000Z</time>
      </trkpt>
      <trkpt lat="49.17939" lon="1.38535">
        <ele>71.793746948242</ele>
        <time>2013-09-22T08:10:12.000Z</time>
      </trkpt>
      <trkpt lat="49.17952" lon="1.3851">
        <ele>71.628807067871</ele>
        <time>2013-09-22T08:10:15.000Z</time>
      </trkpt>
      <trkpt lat="49.17956" lon="1.38497">
        <ele>71.424453735352</ele>
        <time>2013-09-22T08:10:18.000Z</time>
      </trkpt>
      <trkpt lat="49.17963" lon="1.3848">
        <ele>71.145927429199</ele>
        <time>2013-09-22T08:10:24.000Z</time>
      </trkpt>
      <trkpt lat="49.1797" lon="1.38465">
        <ele>70.804306030273</ele>
        <time>2013-09-22T08:10:26.000Z</time>
      </trkpt>
      <trkpt lat="49.17978" lon="1.38447">
        <ele>70.40892791748</ele>
        <time>2013-09-22T08:10:26.000Z</time>
      </trkpt>
      <trkpt lat="49.17985" lon="1.38432">
        <ele>70.017082214355</ele>
        <time>2013-09-22T08:10:29.000Z</time>
      </trkpt>
      <trkpt lat="49.1799" lon="1.38422">
        <ele>69.639663696289</ele>
        <time>2013-09-22T08:10:31.000Z</time>
      </trkpt>
      <trkpt lat="49.17995" lon="1.38409">
        <ele>69.32682800293</ele>
        <time>2013-09-22T08:10:34.000Z</time>
      </trkpt>
      <trkpt lat="49.18002" lon="1.38397">
        <ele>69.081649780273</ele>
        <time>2013-09-22T08:10:38.000Z</time>
      </trkpt>
      <trkpt lat="49.18009" lon="1.38383">
        <ele>68.896896362305</ele>
        <time>2013-09-22T08:10:45.000Z</time>
      </trkpt>
      <trkpt lat="49.18016" lon="1.38368">
        <ele>68.75968170166</ele>
        <time>2013-09-22T08:10:46.000Z</time>
      </trkpt>
      <trkpt lat="49.18021" lon="1.38357">
        <ele>68.651100158691</ele>
        <time>2013-09-22T08:10:47.000Z</time>
      </trkpt>
      <trkpt lat="49.18029" lon="1.38342">
        <ele>68.563781738281</ele>
        <time>2013-09-22T08:10:48.000Z</time>
      </trkpt>
      <trkpt lat="49.18038" lon="1.38322">
        <ele>68.581634521484</ele>
        <time>2013-09-22T08:10:49.000Z</time>
      </trkpt>
      <trkpt lat="49.18049" lon="1.38298">
        <ele>68.810165405273</ele>
        <time>2013-09-22T08:10:52.000Z</time>
      </trkpt>
      <trkpt lat="49.1806" lon="1.38268">
        <ele>69.251243591309</ele>
        <time>2013-09-22T08:10:55.000Z</time>
      </trkpt>
      <trkpt lat="49.18076" lon="1.38231">
        <ele>69.695747375488</ele>
        <time>2013-09-22T08:10:58.000Z</time>
      </trkpt>
      <trkpt lat="49.18095" lon="1.38187">
        <ele>69.785354614258</ele>
        <time>2013-09-22T08:11:01.000Z</time>
      </trkpt>
      <trkpt lat="49.18108" lon="1.3816">
        <ele>69.421943664551</ele>
        <time>2013-09-22T08:11:03.000Z</time>
      </trkpt>
      <trkpt lat="49.18129" lon="1.38122">
        <ele>68.396286010742</ele>
        <time>2013-09-22T08:11:06.000Z</time>
      </trkpt>
      <trkpt lat="49.18143" lon="1.38093">
        <ele>66.913330078125</ele>
        <time>2013-09-22T08:11:08.000Z</time>
      </trkpt>
      <trkpt lat="49.18158" lon="1.38041">
        <ele>65.533462524414</ele>
        <time>2013-09-22T08:11:11.000Z</time>
      </trkpt>
      <trkpt lat="49.18163" lon="1.38006">
        <ele>64.731941223145</ele>
        <time>2013-09-22T08:11:13.000Z</time>
      </trkpt>
      <trkpt lat="49.18169" lon="1.37976">
        <ele>64.196899414062</ele>
        <time>2013-09-22T08:11:15.000Z</time>
      </trkpt>
      <trkpt lat="49.18181" lon="1.37938">
        <ele>63.880573272705</ele>
        <time>2013-09-22T08:11:18.000Z</time>
      </trkpt>
      <trkpt lat="49.18182" lon="1.37914">
        <ele>63.655570983887</ele>
        <time>2013-09-22T08:11:20.000Z</time>
      </trkpt>
      <trkpt lat="49.18185" lon="1.37891">
        <ele>62.941017150879</ele>
        <time>2013-09-22T08:11:22.000Z</time>
      </trkpt>
      <trkpt lat="49.18183" lon="1.37866">
        <ele>61.600914001465</ele>
        <time>2013-09-22T08:11:24.000Z</time>
      </trkpt>
      <trkpt lat="49.18182" lon="1.37845">
        <ele>60.021263122559</ele>
        <time>2013-09-22T08:11:26.000Z</time>
      </trkpt>
      <trkpt lat="49.18182" lon="1.3782">
        <ele>58.331001281738</ele>
        <time>2013-09-22T08:11:29.000Z</time>
      </trkpt>
      <trkpt lat="49.18185" lon="1.37805">
        <ele>56.616004943848</ele>
        <time>2013-09-22T08:11:31.000Z</time>
      </trkpt>
      <trkpt lat="49.18193" lon="1.37781">
        <ele>54.983467102051</ele>
        <time>2013-09-22T08:11:34.000Z</time>
      </trkpt>
      <trkpt lat="49.182" lon="1.37755">
        <ele>53.486389160156</ele>
        <time>2013-09-22T08:11:37.000Z</time>
      </trkpt>
      <trkpt lat="49.18207" lon="1.37731">
        <ele>52.199169158935</ele>
        <time>2013-09-22T08:11:40.000Z</time>
      </trkpt>
      <trkpt lat="49.18212" lon="1.37714">
        <ele>51.210834503174</ele>
        <time>2013-09-22T08:11:42.000Z</time>
      </trkpt>
      <trkpt lat="49.18217" lon="1.37697">
        <ele>50.352355957031</ele>
        <time>2013-09-22T08:11:44.000Z</time>
      </trkpt>
      <trkpt lat="49.18222" lon="1.37675">
        <ele>49.712413787842</ele>
        <time>2013-09-22T08:11:47.000Z</time>
      </trkpt>
      <trkpt lat="49.18225" lon="1.37663">
        <ele>49.302001953125</ele>
        <time>2013-09-22T08:11:49.000Z</time>
      </trkpt>
      <trkpt lat="49.18232" lon="1.37639">
        <ele>48.931205749512</ele>
        <time>2013-09-22T08:11:52.000Z</time>
      </trkpt>
      <trkpt lat="49.18237" lon="1.37614">
        <ele>48.530628204346</ele>
        <time>2013-09-22T08:11:55.000Z</time>
      </trkpt>
      <trkpt lat="49.18242" lon="1.37599">
        <ele>48.137523651123</ele>
        <time>2013-09-22T08:11:57.000Z</time>
      </trkpt>
      <trkpt lat="49.1825" lon="1.37575">
        <ele>47.724044799805</ele>
        <time>2013-09-22T08:12:00.000Z</time>
      </trkpt>
      <trkpt lat="49.18256" lon="1.37558">
        <ele>47.263618469238</ele>
        <time>2013-09-22T08:12:02.000Z</time>
      </trkpt>
      <trkpt lat="49.18264" lon="1.37533">
        <ele>46.752052307129</ele>
        <time>2013-09-22T08:12:05.000Z</time>
      </trkpt>
      <trkpt lat="49.18269" lon="1.37515">
        <ele>46.241706848145</ele>
        <time>2013-09-22T08:12:07.000Z</time>
      </trkpt>
      <trkpt lat="49.18278" lon="1.37487">
        <ele>45.672313690185</ele>
        <time>2013-09-22T08:12:10.000Z</time>
      </trkpt>
      <trkpt lat="49.18286" lon="1.37461">
        <ele>45.106021881104</ele>
        <time>2013-09-22T08:12:13.000Z</time>
      </trkpt>
      <trkpt lat="49.18295" lon="1.37435">
        <ele>44.480041503906</ele>
        <time>2013-09-22T08:12:16.000Z</time>
      </trkpt>
      <trkpt lat="49.18301" lon="1.37416">
        <ele>43.863693237305</ele>
        <time>2013-09-22T08:12:18.000Z</time>
      </trkpt>
      <trkpt lat="49.18311" lon="1.3739">
        <ele>43.269451141357</ele>
        <time>2013-09-22T08:12:21.000Z</time>
      </trkpt>
      <trkpt lat="49.18317" lon="1.37372">
        <ele>42.77014541626</ele>
        <time>2013-09-22T08:12:23.000Z</time>
      </trkpt>
      <trkpt lat="49.18325" lon="1.37346">
        <ele>42.376979827881</ele>
        <time>2013-09-22T08:12:26.000Z</time>
      </trkpt>
      <trkpt lat="49.18334" lon="1.3732">
        <ele>42.106700897217</ele>
        <time>2013-09-22T08:12:29.000Z</time>
      </trkpt>
      <trkpt lat="49.1834" lon="1.37302">
        <ele>41.916656494141</ele>
        <time>2013-09-22T08:12:31.000Z</time>
      </trkpt>
      <trkpt lat="49.18346" lon="1.37284">
        <ele>41.748924255371</ele>
        <time>2013-09-22T08:12:33.000Z</time>
      </trkpt>
      <trkpt lat="49.18356" lon="1.37255">
        <ele>41.507293701172</ele>
        <time>2013-09-22T08:12:36.000Z</time>
      </trkpt>
      <trkpt lat="49.18366" lon="1.37224">
        <ele>41.105686187744</ele>
        <time>2013-09-22T08:12:39.000Z</time>
      </trkpt>
      <trkpt lat="49.18373" lon="1.37203">
        <ele>40.618175506592</ele>
        <time>2013-09-22T08:12:41.000Z</time>
      </trkpt>
      <trkpt lat="49.18383" lon="1.37172">
        <ele>40.005165100098</ele>
        <time>2013-09-22T08:12:44.000Z</time>
      </trkpt>
      <trkpt lat="49.1839" lon="1.37151">
        <ele>39.395797729492</ele>
        <time>2013-09-22T08:12:46.000Z</time>
      </trkpt>
      <trkpt lat="49.18396" lon="1.37131">
        <ele>38.862537384033</ele>
        <time>2013-09-22T08:12:48.000Z</time>
      </trkpt>
      <trkpt lat="49.18404" lon="1.37106">
        <ele>38.4739112854</ele>
        <time>2013-09-22T08:12:51.000Z</time>
      </trkpt>
      <trkpt lat="49.18412" lon="1.37088">
        <ele>38.195220947266</ele>
        <time>2013-09-22T08:12:53.000Z</time>
      </trkpt>
      <trkpt lat="49.18423" lon="1.37058">
        <ele>38.06925201416</ele>
        <time>2013-09-22T08:12:56.000Z</time>
      </trkpt>
      <trkpt lat="49.18432" lon="1.37034">
        <ele>37.958339691162</ele>
        <time>2013-09-22T08:12:59.000Z</time>
      </trkpt>
      <trkpt lat="49.18437" lon="1.37019">
        <ele>37.84334564209</ele>
        <time>2013-09-22T08:13:01.000Z</time>
      </trkpt>
      <trkpt lat="49.18446" lon="1.36995">
        <ele>37.686805725098</ele>
        <time>2013-09-22T08:13:04.000Z</time>
      </trkpt>
      <trkpt lat="49.18454" lon="1.36971">
        <ele>37.468940734863</ele>
        <time>2013-09-22T08:13:07.000Z</time>
      </trkpt>
      <trkpt lat="49.18459" lon="1.36956">
        <ele>37.235038757324</ele>
        <time>2013-09-22T08:13:09.000Z</time>
      </trkpt>
      <trkpt lat="49.18466" lon="1.36932">
        <ele>36.989330291748</ele>
        <time>2013-09-22T08:13:12.000Z</time>
      </trkpt>
      <trkpt lat="49.18473" lon="1.36907">
        <ele>36.69068145752</ele>
        <time>2013-09-22T08:13:15.000Z</time>
      </trkpt>
      <trkpt lat="49.1848" lon="1.36881">
        <ele>36.296699523926</ele>
        <time>2013-09-22T08:13:18.000Z</time>
      </trkpt>
      <trkpt lat="49.18484" lon="1.36869">
        <ele>35.901084899902</ele>
        <time>2013-09-22T08:13:20.000Z</time>
      </trkpt>
      <trkpt lat="49.18487" lon="1.36858">
        <ele>35.482738494873</ele>
        <time>2013-09-22T08:13:22.000Z</time>
      </trkpt>
      <trkpt lat="49.18492" lon="1.36839">
        <ele>35.01607131958</ele>
        <time>2013-09-22T08:13:25.000Z</time>
      </trkpt>
      <trkpt lat="49.18493" lon="1.36826">
        <ele>34.601734161377</ele>
        <time>2013-09-22T08:13:27.000Z</time>
      </trkpt>
      <trkpt lat="49.18494" lon="1.36816">
        <ele>34.344329833984</ele>
        <time>2013-09-22T08:13:29.000Z</time>
      </trkpt>
      <trkpt lat="49.18494" lon="1.36816">
        <ele>34.344329833984</ele>
        <time>2013-09-22T08:13:49.000Z</time>
      </trkpt>
      <trkpt lat="49.18489" lon="1.36816">
        <ele>34.157123565674</ele>
        <time>2013-09-22T08:13:52.000Z</time>
      </trkpt>
      <trkpt lat="49.18489" lon="1.36812">
        <ele>34.029987335205</ele>
        <time>2013-09-22T08:14:07.000Z</time>
      </trkpt>
      <trkpt lat="49.18491" lon="1.36798">
        <ele>34</ele>
        <time>2013-09-22T08:14:10.000Z</time>
      </trkpt>
      <trkpt lat="49.18491" lon="1.36777">
        <ele>34</ele>
        <time>2013-09-22T08:14:13.000Z</time>
      </trkpt>
      <trkpt lat="49.18487" lon="1.36751">
        <ele>34</ele>
        <time>2013-09-22T08:14:16.000Z</time>
      </trkpt>
      <trkpt lat="49.18484" lon="1.36733">
        <ele>33.95869064331</ele>
        <time>2013-09-22T08:14:18.000Z</time>
      </trkpt>
      <trkpt lat="49.1848" lon="1.36715">
        <ele>33.873924255371</ele>
        <time>2013-09-22T08:14:20.000Z</time>
      </trkpt>
      <trkpt lat="49.18477" lon="1.36697">
        <ele>33.747444152832</ele>
        <time>2013-09-22T08:14:22.000Z</time>
      </trkpt>
      <trkpt lat="49.18471" lon="1.36672">
        <ele>33.560718536377</ele>
        <time>2013-09-22T08:14:25.000Z</time>
      </trkpt>
      <trkpt lat="49.18468" lon="1.36657">
        <ele>33.336822509766</ele>
        <time>2013-09-22T08:14:27.000Z</time>
      </trkpt>
      <trkpt lat="49.18464" lon="1.36636">
        <ele>33.104461669922</ele>
        <time>2013-09-22T08:14:30.000Z</time>
      </trkpt>
      <trkpt lat="49.1846" lon="1.36621">
        <ele>32.879638671875</ele>
        <time>2013-09-22T08:14:32.000Z</time>
      </trkpt>
      <trkpt lat="49.18456" lon="1.366">
        <ele>32.645721435547</ele>
        <time>2013-09-22T08:14:35.000Z</time>
      </trkpt>
      <trkpt lat="49.18454" lon="1.3658">
        <ele>32.424591064453</ele>
        <time>2013-09-22T08:14:38.000Z</time>
      </trkpt>
      <trkpt lat="49.18451" lon="1.36565">
        <ele>32.203704833984</ele>
        <time>2013-09-22T08:14:40.000Z</time>
      </trkpt>
      <trkpt lat="49.18448" lon="1.36542">
        <ele>31.979125976562</ele>
        <time>2013-09-22T08:14:43.000Z</time>
      </trkpt>
      <trkpt lat="49.18445" lon="1.36519">
        <ele>31.734588623047</ele>
        <time>2013-09-22T08:14:46.000Z</time>
      </trkpt>
      <trkpt lat="49.18443" lon="1.36503">
        <ele>31.501007080078</ele>
        <time>2013-09-22T08:14:48.000Z</time>
      </trkpt>
      <trkpt lat="49.18442" lon="1.36486">
        <ele>31.308862686157</ele>
        <time>2013-09-22T08:14:50.000Z</time>
      </trkpt>
      <trkpt lat="49.1844" lon="1.36469">
        <ele>31.153644561768</ele>
        <time>2013-09-22T08:14:52.000Z</time>
      </trkpt>
      <trkpt lat="49.18438" lon="1.36446">
        <ele>31.051891326904</ele>
        <time>2013-09-22T08:14:55.000Z</time>
      </trkpt>
      <trkpt lat="49.18434" lon="1.3643">
        <ele>31.006017684936</ele>
        <time>2013-09-22T08:14:57.000Z</time>
      </trkpt>
      <trkpt lat="49.18431" lon="1.36406">
        <ele>30.979120254517</ele>
        <time>2013-09-22T08:15:00.000Z</time>
      </trkpt>
      <trkpt lat="49.18431" lon="1.36392">
        <ele>30.929416656494</ele>
        <time>2013-09-22T08:15:02.000Z</time>
      </trkpt>
      <trkpt lat="49.18431" lon="1.36375">
        <ele>30.847553253174</ele>
        <time>2013-09-22T08:15:04.000Z</time>
      </trkpt>
      <trkpt lat="49.18435" lon="1.36361">
        <ele>30.743988037109</ele>
        <time>2013-09-22T08:15:06.000Z</time>
      </trkpt>
      <trkpt lat="49.18438" lon="1.36341">
        <ele>30.609119415283</ele>
        <time>2013-09-22T08:15:09.000Z</time>
      </trkpt>
      <trkpt lat="49.1844" lon="1.36319">
        <ele>30.476501464844</ele>
        <time>2013-09-22T08:15:12.000Z</time>
      </trkpt>
      <trkpt lat="49.18442" lon="1.36297">
        <ele>30.359930038452</ele>
        <time>2013-09-22T08:15:15.000Z</time>
      </trkpt>
      <trkpt lat="49.18444" lon="1.36275">
        <ele>30.261682510376</ele>
        <time>2013-09-22T08:15:18.000Z</time>
      </trkpt>
      <trkpt lat="49.18446" lon="1.36261">
        <ele>30.174295425415</ele>
        <time>2013-09-22T08:15:20.000Z</time>
      </trkpt>
      <trkpt lat="49.18448" lon="1.36248">
        <ele>30.105381011963</ele>
        <time>2013-09-22T08:15:22.000Z</time>
      </trkpt>
      <trkpt lat="49.18442" lon="1.36235">
        <ele>30.021978378296</ele>
        <time>2013-09-22T08:15:25.000Z</time>
      </trkpt>
      <trkpt lat="49.18428" lon="1.36224">
        <ele>29.925176620483</ele>
        <time>2013-09-22T08:15:28.000Z</time>
      </trkpt>
      <trkpt lat="49.18414" lon="1.36213">
        <ele>29.813974380493</ele>
        <time>2013-09-22T08:15:31.000Z</time>
      </trkpt>
      <trkpt lat="49.18404" lon="1.36205">
        <ele>29.681102752686</ele>
        <time>2013-09-22T08:15:33.000Z</time>
      </trkpt>
      <trkpt lat="49.18387" lon="1.36191">
        <ele>29.494522094727</ele>
        <time>2013-09-22T08:15:36.000Z</time>
      </trkpt>
      <trkpt lat="49.1837" lon="1.36175">
        <ele>29.251373291016</ele>
        <time>2013-09-22T08:15:39.000Z</time>
      </trkpt>
      <trkpt lat="49.18353" lon="1.36159">
        <ele>28.96230506897</ele>
        <time>2013-09-22T08:15:42.000Z</time>
      </trkpt>
      <trkpt lat="49.18342" lon="1.36149">
        <ele>28.675104141235</ele>
        <time>2013-09-22T08:15:44.000Z</time>
      </trkpt>
      <trkpt lat="49.18332" lon="1.36139">
        <ele>28.40283203125</ele>
        <time>2013-09-22T08:15:46.000Z</time>
      </trkpt>
      <trkpt lat="49.18315" lon="1.36125">
        <ele>28.237140655518</ele>
        <time>2013-09-22T08:15:49.000Z</time>
      </trkpt>
      <trkpt lat="49.18299" lon="1.36111">
        <ele>28.1982421875</ele>
        <time>2013-09-22T08:15:52.000Z</time>
      </trkpt>
      <trkpt lat="49.18286" lon="1.361">
        <ele>28.2646484375</ele>
        <time>2013-09-22T08:15:55.000Z</time>
      </trkpt>
      <trkpt lat="49.18281" lon="1.36096">
        <ele>28.3681640625</ele>
        <time>2013-09-22T08:15:57.000Z</time>
      </trkpt>
      <trkpt lat="49.18278" lon="1.36089">
        <ele>28.498046875</ele>
        <time>2013-09-22T08:16:00.000Z</time>
      </trkpt>
      <trkpt lat="49.18274" lon="1.36085">
        <ele>28.595703125</ele>
        <time>2013-09-22T08:16:02.000Z</time>
      </trkpt>
      <trkpt lat="49.1827" lon="1.36083">
        <ele>28.6650390625</ele>
        <time>2013-09-22T08:16:04.000Z</time>
      </trkpt>
      <trkpt lat="49.18264" lon="1.36079">
        <ele>28.699920654297</ele>
        <time>2013-09-22T08:16:07.000Z</time>
      </trkpt>
      <trkpt lat="49.18258" lon="1.36076">
        <ele>28.721731185913</ele>
        <time>2013-09-22T08:16:09.000Z</time>
      </trkpt>
      <trkpt lat="49.1825" lon="1.3607">
        <ele>28.724056243896</ele>
        <time>2013-09-22T08:16:12.000Z</time>
      </trkpt>
      <trkpt lat="49.18238" lon="1.36061">
        <ele>28.684032440186</ele>
        <time>2013-09-22T08:16:15.000Z</time>
      </trkpt>
      <trkpt lat="49.18227" lon="1.36052">
        <ele>28.604639053345</ele>
        <time>2013-09-22T08:16:18.000Z</time>
      </trkpt>
      <trkpt lat="49.18216" lon="1.36042">
        <ele>28.496078491211</ele>
        <time>2013-09-22T08:16:21.000Z</time>
      </trkpt>
      <trkpt lat="49.18203" lon="1.3603">
        <ele>28.366033554077</ele>
        <time>2013-09-22T08:16:24.000Z</time>
      </trkpt>
      <trkpt lat="49.18197" lon="1.36025">
        <ele>28.237728118896</ele>
        <time>2013-09-22T08:16:26.000Z</time>
      </trkpt>
      <trkpt lat="49.18193" lon="1.36022">
        <ele>28.141948699951</ele>
        <time>2013-09-22T08:16:29.000Z</time>
      </trkpt>
      <trkpt lat="49.18192" lon="1.36021">
        <ele>28.074838638306</ele>
        <time>2013-09-22T08:16:38.000Z</time>
      </trkpt>
      <trkpt lat="49.1819" lon="1.36016">
        <ele>28.027185440064</ele>
        <time>2013-09-22T08:16:40.000Z</time>
      </trkpt>
      <trkpt lat="49.18186" lon="1.3601">
        <ele>27.994869232178</ele>
        <time>2013-09-22T08:16:42.000Z</time>
      </trkpt>
      <trkpt lat="49.18179" lon="1.36001">
        <ele>27.961242675781</ele>
        <time>2013-09-22T08:16:44.000Z</time>
      </trkpt>
      <trkpt lat="49.18167" lon="1.35989">
        <ele>27.926900863648</ele>
        <time>2013-09-22T08:16:47.000Z</time>
      </trkpt>
      <trkpt lat="49.18156" lon="1.35977">
        <ele>27.654809951782</ele>
        <time>2013-09-22T08:16:50.000Z</time>
      </trkpt>
      <trkpt lat="49.1815" lon="1.35971">
        <ele>27.263494491577</ele>
        <time>2013-09-22T08:16:52.000Z</time>
      </trkpt>
      <trkpt lat="49.1814" lon="1.35957">
        <ele>26.622074127197</ele>
        <time>2013-09-22T08:16:55.000Z</time>
      </trkpt>
      <trkpt lat="49.18128" lon="1.35941">
        <ele>25.704406738281</ele>
        <time>2013-09-22T08:16:58.000Z</time>
      </trkpt>
      <trkpt lat="49.18121" lon="1.35928">
        <ele>24.594675064087</ele>
        <time>2013-09-22T08:17:01.000Z</time>
      </trkpt>
      <trkpt lat="49.18119" lon="1.35912">
        <ele>23.585378646851</ele>
        <time>2013-09-22T08:17:04.000Z</time>
      </trkpt>
      <trkpt lat="49.18118" lon="1.35901">
        <ele>22.555023193359</ele>
        <time>2013-09-22T08:17:07.000Z</time>
      </trkpt>
      <trkpt lat="49.18114" lon="1.35888">
        <ele>21.575733184814</ele>
        <time>2013-09-22T08:17:09.000Z</time>
      </trkpt>
      <trkpt lat="49.18108" lon="1.35867">
        <ele>20.527215957642</ele>
        <time>2013-09-22T08:17:12.000Z</time>
      </trkpt>
      <trkpt lat="49.18097" lon="1.35844">
        <ele>19.227878570557</ele>
        <time>2013-09-22T08:17:15.000Z</time>
      </trkpt>
      <trkpt lat="49.18085" lon="1.35831">
        <ele>17.734262466431</ele>
        <time>2013-09-22T08:17:17.000Z</time>
      </trkpt>
      <trkpt lat="49.18069" lon="1.35813">
        <ele>16.121059417725</ele>
        <time>2013-09-22T08:17:20.000Z</time>
      </trkpt>
      <trkpt lat="49.18064" lon="1.35805">
        <ele>14.63129234314</ele>
        <time>2013-09-22T08:17:22.000Z</time>
      </trkpt>
      <trkpt lat="49.18066" lon="1.35797">
        <ele>13.460042953491</ele>
        <time>2013-09-22T08:17:24.000Z</time>
      </trkpt>
      <trkpt lat="49.18071" lon="1.35785">
        <ele>12.674740791321</ele>
        <time>2013-09-22T08:17:27.000Z</time>
      </trkpt>
      <trkpt lat="49.18076" lon="1.35772">
        <ele>12.16397190094</ele>
        <time>2013-09-22T08:17:29.000Z</time>
      </trkpt>
      <trkpt lat="49.18082" lon="1.35753">
        <ele>11.819039344788</ele>
        <time>2013-09-22T08:17:32.000Z</time>
      </trkpt>
      <trkpt lat="49.18089" lon="1.3574">
        <ele>11.579435348511</ele>
        <time>2013-09-22T08:17:34.000Z</time>
      </trkpt>
      <trkpt lat="49.18094" lon="1.35726">
        <ele>11.400861740112</ele>
        <time>2013-09-22T08:17:36.000Z</time>
      </trkpt>
      <trkpt lat="49.18099" lon="1.35713">
        <ele>11.289720535278</ele>
        <time>2013-09-22T08:17:38.000Z</time>
      </trkpt>
      <trkpt lat="49.18104" lon="1.35699">
        <ele>11.249194145203</ele>
        <time>2013-09-22T08:17:40.000Z</time>
      </trkpt>
      <trkpt lat="49.18111" lon="1.35675">
        <ele>11.289624214172</ele>
        <time>2013-09-22T08:17:43.000Z</time>
      </trkpt>
      <trkpt lat="49.18116" lon="1.35659">
        <ele>11.34787940979</ele>
        <time>2013-09-22T08:17:45.000Z</time>
      </trkpt>
      <trkpt lat="49.18122" lon="1.35638">
        <ele>11.52742767334</ele>
        <time>2013-09-22T08:17:48.000Z</time>
      </trkpt>
      <trkpt lat="49.18127" lon="1.35618">
        <ele>11.806901931763</ele>
        <time>2013-09-22T08:17:51.000Z</time>
      </trkpt>
      <trkpt lat="49.18132" lon="1.35604">
        <ele>12.150923728943</ele>
        <time>2013-09-22T08:17:54.000Z</time>
      </trkpt>
      <trkpt lat="49.18134" lon="1.35597">
        <ele>12.557654380798</ele>
        <time>2013-09-22T08:17:57.000Z</time>
      </trkpt>
      <trkpt lat="49.18136" lon="1.35591">
        <ele>12.956300735474</ele>
        <time>2013-09-22T08:17:59.000Z</time>
      </trkpt>
      <trkpt lat="49.18136" lon="1.35581">
        <ele>13.224298477173</ele>
        <time>2013-09-22T08:18:02.000Z</time>
      </trkpt>
      <trkpt lat="49.18133" lon="1.35574">
        <ele>13.348208427429</ele>
        <time>2013-09-22T08:18:04.000Z</time>
      </trkpt>
      <trkpt lat="49.18128" lon="1.35569">
        <ele>13.349354743957</ele>
        <time>2013-09-22T08:18:06.000Z</time>
      </trkpt>
      <trkpt lat="49.18119" lon="1.35561">
        <ele>13.248875617981</ele>
        <time>2013-09-22T08:18:09.000Z</time>
      </trkpt>
      <trkpt lat="49.18114" lon="1.35556">
        <ele>13.08616065979</ele>
        <time>2013-09-22T08:18:11.000Z</time>
      </trkpt>
      <trkpt lat="49.18106" lon="1.3555">
        <ele>12.872294425964</ele>
        <time>2013-09-22T08:18:14.000Z</time>
      </trkpt>
      <trkpt lat="49.18103" lon="1.35546">
        <ele>12.684480667114</ele>
        <time>2013-09-22T08:18:16.000Z</time>
      </trkpt>
      <trkpt lat="49.18101" lon="1.35538">
        <ele>12.555852890015</ele>
        <time>2013-09-22T08:18:18.000Z</time>
      </trkpt>
      <trkpt lat="49.18098" lon="1.35524">
        <ele>12.521718025207</ele>
        <time>2013-09-22T08:18:21.000Z</time>
      </trkpt>
      <trkpt lat="49.18093" lon="1.35518">
        <ele>12.528890609741</ele>
        <time>2013-09-22T08:18:23.000Z</time>
      </trkpt>
      <trkpt lat="49.18085" lon="1.3551">
        <ele>12.591222763062</ele>
        <time>2013-09-22T08:18:26.000Z</time>
      </trkpt>
      <trkpt lat="49.18077" lon="1.35503">
        <ele>12.66766166687</ele>
        <time>2013-09-22T08:18:29.000Z</time>
      </trkpt>
      <trkpt lat="49.18069" lon="1.35497">
        <ele>12.691388130188</ele>
        <time>2013-09-22T08:18:32.000Z</time>
      </trkpt>
      <trkpt lat="49.18063" lon="1.35491">
        <ele>12.631156921387</ele>
        <time>2013-09-22T08:18:34.000Z</time>
      </trkpt>
      <trkpt lat="49.18054" lon="1.35482">
        <ele>12.484504699707</ele>
        <time>2013-09-22T08:18:37.000Z</time>
      </trkpt>
      <trkpt lat="49.18045" lon="1.35475">
        <ele>12.255328178406</ele>
        <time>2013-09-22T08:18:40.000Z</time>
      </trkpt>
      <trkpt lat="49.18039" lon="1.3547">
        <ele>11.98060131073</ele>
        <time>2013-09-22T08:18:42.000Z</time>
      </trkpt>
      <trkpt lat="49.18034" lon="1.35466">
        <ele>11.710550308227</ele>
        <time>2013-09-22T08:18:44.000Z</time>
      </trkpt>
      <trkpt lat="49.18024" lon="1.35456">
        <ele>11.425744056702</ele>
        <time>2013-09-22T08:18:47.000Z</time>
      </trkpt>
      <trkpt lat="49.18016" lon="1.35448">
        <ele>11.167306900024</ele>
        <time>2013-09-22T08:18:50.000Z</time>
      </trkpt>
      <trkpt lat="49.1801" lon="1.35442">
        <ele>10.932597160339</ele>
        <time>2013-09-22T08:18:53.000Z</time>
      </trkpt>
      <trkpt lat="49.18003" lon="1.35437">
        <ele>10.707625389099</ele>
        <time>2013-09-22T08:18:55.000Z</time>
      </trkpt>
      <trkpt lat="49.17997" lon="1.35431">
        <ele>10.477479934692</ele>
        <time>2013-09-22T08:18:57.000Z</time>
      </trkpt>
      <trkpt lat="49.17991" lon="1.35428">
        <ele>10.280396461487</ele>
        <time>2013-09-22T08:19:00.000Z</time>
      </trkpt>
      <trkpt lat="49.17985" lon="1.35424">
        <ele>10.093509674072</ele>
        <time>2013-09-22T08:19:08.000Z</time>
      </trkpt>
      <trkpt lat="49.17982" lon="1.35422">
        <ele>9.9288320541382</ele>
        <time>2013-09-22T08:19:09.000Z</time>
      </trkpt>
      <trkpt lat="49.1796" lon="1.35408">
        <ele>9.6795654296875</ele>
        <time>2013-09-22T08:19:11.000Z</time>
      </trkpt>
      <trkpt lat="49.17951" lon="1.354">
        <ele>9.4259643554688</ele>
        <time>2013-09-22T08:19:14.000Z</time>
      </trkpt>
      <trkpt lat="49.17941" lon="1.35392">
        <ele>9.1596069335938</ele>
        <time>2013-09-22T08:19:15.000Z</time>
      </trkpt>
      <trkpt lat="49.17937" lon="1.35388">
        <ele>8.9115600585938</ele>
        <time>2013-09-22T08:19:21.000Z</time>
      </trkpt>
      <trkpt lat="49.17937" lon="1.35388">
        <ele>8.9115600585938</ele>
        <time>2013-09-22T08:20:07.000Z</time>
      </trkpt>
      <trkpt lat="49.17929" lon="1.35384">
        <ele>8.646484375</ele>
        <time>2013-09-22T08:20:11.000Z</time>
      </trkpt>
      <trkpt lat="49.17916" lon="1.35377">
        <ele>8.4432783126831</ele>
        <time>2013-09-22T08:20:12.000Z</time>
      </trkpt>
      <trkpt lat="49.17907" lon="1.35372">
        <ele>8.347957611084</ele>
        <time>2013-09-22T08:20:12.000Z</time>
      </trkpt>
      <trkpt lat="49.179" lon="1.35367">
        <ele>8.3615798950195</ele>
        <time>2013-09-22T08:20:13.000Z</time>
      </trkpt>
      <trkpt lat="49.17894" lon="1.35362">
        <ele>8.4468488693237</ele>
        <time>2013-09-22T08:20:13.000Z</time>
      </trkpt>
      <trkpt lat="49.1789" lon="1.35354">
        <ele>8.6093769073486</ele>
        <time>2013-09-22T08:20:16.000Z</time>
      </trkpt>
      <trkpt lat="49.17884" lon="1.3535">
        <ele>8.8857326507568</ele>
        <time>2013-09-22T08:20:16.000Z</time>
      </trkpt>
      <trkpt lat="49.17873" lon="1.35342">
        <ele>9.2107543945312</ele>
        <time>2013-09-22T08:20:17.000Z</time>
      </trkpt>
      <trkpt lat="49.17862" lon="1.35332">
        <ele>9.6100397109985</ele>
        <time>2013-09-22T08:20:17.000Z</time>
      </trkpt>
      <trkpt lat="49.17846" lon="1.35321">
        <ele>10.162437438965</ele>
        <time>2013-09-22T08:20:18.000Z</time>
      </trkpt>
      <trkpt lat="49.17836" lon="1.35314">
        <ele>10.805215835571</ele>
        <time>2013-09-22T08:20:18.000Z</time>
      </trkpt>
      <trkpt lat="49.1782" lon="1.35301">
        <ele>11.552233695984</ele>
        <time>2013-09-22T08:20:20.000Z</time>
      </trkpt>
      <trkpt lat="49.178" lon="1.35287">
        <ele>12.331378936768</ele>
        <time>2013-09-22T08:20:23.000Z</time>
      </trkpt>
      <trkpt lat="49.17787" lon="1.35278">
        <ele>13.053210258484</ele>
        <time>2013-09-22T08:20:25.000Z</time>
      </trkpt>
      <trkpt lat="49.17771" lon="1.35268">
        <ele>13.647964477539</ele>
        <time>2013-09-22T08:20:28.000Z</time>
      </trkpt>
      <trkpt lat="49.17767" lon="1.35266">
        <ele>14.126864433289</ele>
        <time>2013-09-22T08:20:31.000Z</time>
      </trkpt>
      <trkpt lat="49.17766" lon="1.35271">
        <ele>14.440641403198</ele>
        <time>2013-09-22T08:20:33.000Z</time>
      </trkpt>
      <trkpt lat="49.17765" lon="1.35274">
        <ele>14.609497070312</ele>
        <time>2013-09-22T08:20:36.000Z</time>
      </trkpt>
      <trkpt lat="49.17765" lon="1.35293">
        <ele>14.683255195618</ele>
        <time>2013-09-22T08:20:39.000Z</time>
      </trkpt>
      <trkpt lat="49.1777" lon="1.353">
        <ele>14.648759841919</ele>
        <time>2013-09-22T08:20:41.000Z</time>
      </trkpt>
      <trkpt lat="49.17776" lon="1.35304">
        <ele>14.55667591095</ele>
        <time>2013-09-22T08:20:43.000Z</time>
      </trkpt>
      <trkpt lat="49.17786" lon="1.35313">
        <ele>14.396222114563</ele>
        <time>2013-09-22T08:20:46.000Z</time>
      </trkpt>
      <trkpt lat="49.17796" lon="1.35323">
        <ele>14.155123710632</ele>
        <time>2013-09-22T08:20:49.000Z</time>
      </trkpt>
      <trkpt lat="49.17806" lon="1.35333">
        <ele>13.827725410461</ele>
        <time>2013-09-22T08:20:52.000Z</time>
      </trkpt>
      <trkpt lat="49.17808" lon="1.35335">
        <ele>13.512148857117</ele>
        <time>2013-09-22T08:20:54.000Z</time>
      </trkpt>
      <trkpt lat="49.17812" lon="1.35351">
        <ele>13.164578437805</ele>
        <time>2013-09-22T08:20:57.000Z</time>
      </trkpt>
      <trkpt lat="49.17817" lon="1.35367">
        <ele>12.790866851807</ele>
        <time>2013-09-22T08:21:00.000Z</time>
      </trkpt>
      <trkpt lat="49.17818" lon="1.35373">
        <ele>12.454943656921</ele>
        <time>2013-09-22T08:21:02.000Z</time>
      </trkpt>
      <trkpt lat="49.17816" lon="1.35374">
        <ele>12.244351387024</ele>
        <time>2013-09-22T08:21:05.000Z</time>
      </trkpt>
      <trkpt lat="49.17812" lon="1.35379">
        <ele>12.080586433411</ele>
        <time>2013-09-22T08:21:07.000Z</time>
      </trkpt>
      <trkpt lat="49.17808" lon="1.35387">
        <ele>12.023331642151</ele>
        <time>2013-09-22T08:21:10.000Z</time>
      </trkpt>
      <trkpt lat="49.17802" lon="1.35397">
        <ele>12.107014656067</ele>
        <time>2013-09-22T08:21:13.000Z</time>
      </trkpt>
      <trkpt lat="49.17797" lon="1.35407">
        <ele>12.274669647217</ele>
        <time>2013-09-22T08:21:15.000Z</time>
      </trkpt>
      <trkpt lat="49.17791" lon="1.35424">
        <ele>12.494274139404</ele>
        <time>2013-09-22T08:21:18.000Z</time>
      </trkpt>
      <trkpt lat="49.17786" lon="1.35439">
        <ele>12.725289344788</ele>
        <time>2013-09-22T08:21:21.000Z</time>
      </trkpt>
      <trkpt lat="49.17783" lon="1.35454">
        <ele>12.955911636352</ele>
        <time>2013-09-22T08:21:24.000Z</time>
      </trkpt>
      <trkpt lat="49.17778" lon="1.3547">
        <ele>13.181216239929</ele>
        <time>2013-09-22T08:21:27.000Z</time>
      </trkpt>
      <trkpt lat="49.17774" lon="1.35484">
        <ele>13.390388488769</ele>
        <time>2013-09-22T08:21:29.000Z</time>
      </trkpt>
      <trkpt lat="49.1777" lon="1.35497">
        <ele>13.551198959351</ele>
        <time>2013-09-22T08:21:31.000Z</time>
      </trkpt>
      <trkpt lat="49.17766" lon="1.35509">
        <ele>13.672961235046</ele>
        <time>2013-09-22T08:21:33.000Z</time>
      </trkpt>
      <trkpt lat="49.1776" lon="1.35528">
        <ele>13.737393379211</ele>
        <time>2013-09-22T08:21:36.000Z</time>
      </trkpt>
      <trkpt lat="49.17756" lon="1.35547">
        <ele>13.727012634277</ele>
        <time>2013-09-22T08:21:39.000Z</time>
      </trkpt>
      <trkpt lat="49.1775" lon="1.35565">
        <ele>13.675608634949</ele>
        <time>2013-09-22T08:21:42.000Z</time>
      </trkpt>
      <trkpt lat="49.17744" lon="1.35584">
        <ele>13.521478652954</ele>
        <time>2013-09-22T08:21:45.000Z</time>
      </trkpt>
      <trkpt lat="49.17738" lon="1.35602">
        <ele>13.308174133301</ele>
        <time>2013-09-22T08:21:48.000Z</time>
      </trkpt>
      <trkpt lat="49.17734" lon="1.35614">
        <ele>13.085536003113</ele>
        <time>2013-09-22T08:21:50.000Z</time>
      </trkpt>
      <trkpt lat="49.17727" lon="1.35632">
        <ele>12.862358093262</ele>
        <time>2013-09-22T08:21:53.000Z</time>
      </trkpt>
      <trkpt lat="49.17722" lon="1.35648">
        <ele>12.636914253235</ele>
        <time>2013-09-22T08:21:56.000Z</time>
      </trkpt>
      <trkpt lat="49.17717" lon="1.35659">
        <ele>12.479421615601</ele>
        <time>2013-09-22T08:21:58.000Z</time>
      </trkpt>
      <trkpt lat="49.17711" lon="1.35676">
        <ele>12.371152877808</ele>
        <time>2013-09-22T08:22:01.000Z</time>
      </trkpt>
      <trkpt lat="49.17706" lon="1.35687">
        <ele>12.300462722778</ele>
        <time>2013-09-22T08:22:04.000Z</time>
      </trkpt>
      <trkpt lat="49.17702" lon="1.35696">
        <ele>12.273952484131</ele>
        <time>2013-09-22T08:22:07.000Z</time>
      </trkpt>
      <trkpt lat="49.17697" lon="1.3571">
        <ele>12.277508735657</ele>
        <time>2013-09-22T08:22:10.000Z</time>
      </trkpt>
      <trkpt lat="49.17692" lon="1.35726">
        <ele>12.308240890503</ele>
        <time>2013-09-22T08:22:13.000Z</time>
      </trkpt>
      <trkpt lat="49.17687" lon="1.35734">
        <ele>12.395631790161</ele>
        <time>2013-09-22T08:22:15.000Z</time>
      </trkpt>
      <trkpt lat="49.1768" lon="1.3575">
        <ele>12.556312561035</ele>
        <time>2013-09-22T08:22:18.000Z</time>
      </trkpt>
      <trkpt lat="49.17674" lon="1.35769">
        <ele>12.62909412384</ele>
        <time>2013-09-22T08:22:21.000Z</time>
      </trkpt>
      <trkpt lat="49.17667" lon="1.35786">
        <ele>12.614049911499</ele>
        <time>2013-09-22T08:22:24.000Z</time>
      </trkpt>
      <trkpt lat="49.1766" lon="1.35806">
        <ele>12.425462722778</ele>
        <time>2013-09-22T08:22:27.000Z</time>
      </trkpt>
      <trkpt lat="49.17651" lon="1.35831">
        <ele>11.950546264648</ele>
        <time>2013-09-22T08:22:30.000Z</time>
      </trkpt>
      <trkpt lat="49.17646" lon="1.35856">
        <ele>11.306579589844</ele>
        <time>2013-09-22T08:22:33.000Z</time>
      </trkpt>
      <trkpt lat="49.17642" lon="1.35873">
        <ele>10.700991630554</ele>
        <time>2013-09-22T08:22:35.000Z</time>
      </trkpt>
      <trkpt lat="49.17638" lon="1.35889">
        <ele>10.142934799194</ele>
        <time>2013-09-22T08:22:37.000Z</time>
      </trkpt>
      <trkpt lat="49.17634" lon="1.35905">
        <ele>9.7108488082886</ele>
        <time>2013-09-22T08:22:39.000Z</time>
      </trkpt>
      <trkpt lat="49.1763" lon="1.35927">
        <ele>9.5183124542236</ele>
        <time>2013-09-22T08:22:42.000Z</time>
      </trkpt>
      <trkpt lat="49.17625" lon="1.35941">
        <ele>9.4496870040894</ele>
        <time>2013-09-22T08:22:44.000Z</time>
      </trkpt>
      <trkpt lat="49.17621" lon="1.35958">
        <ele>9.4546909332275</ele>
        <time>2013-09-22T08:22:46.000Z</time>
      </trkpt>
      <trkpt lat="49.17615" lon="1.35982">
        <ele>9.5333423614502</ele>
        <time>2013-09-22T08:22:49.000Z</time>
      </trkpt>
      <trkpt lat="49.17611" lon="1.36001">
        <ele>9.671968460083</ele>
        <time>2013-09-22T08:22:52.000Z</time>
      </trkpt>
      <trkpt lat="49.17611" lon="1.36012">
        <ele>9.8265762329102</ele>
        <time>2013-09-22T08:22:54.000Z</time>
      </trkpt>
      <trkpt lat="49.1761" lon="1.36019">
        <ele>9.9694356918335</ele>
        <time>2013-09-22T08:22:57.000Z</time>
      </trkpt>
      <trkpt lat="49.17606" lon="1.36041">
        <ele>10.149187088013</ele>
        <time>2013-09-22T08:23:00.000Z</time>
      </trkpt>
      <trkpt lat="49.17599" lon="1.36056">
        <ele>10.373440742493</ele>
        <time>2013-09-22T08:23:03.000Z</time>
      </trkpt>
      <trkpt lat="49.17593" lon="1.36071">
        <ele>10.652267456055</ele>
        <time>2013-09-22T08:23:06.000Z</time>
      </trkpt>
      <trkpt lat="49.17585" lon="1.36096">
        <ele>11.043416976929</ele>
        <time>2013-09-22T08:23:09.000Z</time>
      </trkpt>
      <trkpt lat="49.17581" lon="1.36114">
        <ele>11.477694511414</ele>
        <time>2013-09-22T08:23:11.000Z</time>
      </trkpt>
      <trkpt lat="49.17576" lon="1.36134">
        <ele>11.886507987976</ele>
        <time>2013-09-22T08:23:14.000Z</time>
      </trkpt>
      <trkpt lat="49.17571" lon="1.3615">
        <ele>12.229616165161</ele>
        <time>2013-09-22T08:23:17.000Z</time>
      </trkpt>
      <trkpt lat="49.17567" lon="1.36165">
        <ele>12.504320144653</ele>
        <time>2013-09-22T08:23:20.000Z</time>
      </trkpt>
      <trkpt lat="49.17562" lon="1.3618">
        <ele>12.577873229981</ele>
        <time>2013-09-22T08:23:23.000Z</time>
      </trkpt>
      <trkpt lat="49.17559" lon="1.36195">
        <ele>12.5099401474</ele>
        <time>2013-09-22T08:23:25.000Z</time>
      </trkpt>
      <trkpt lat="49.17556" lon="1.3621">
        <ele>12.316200256348</ele>
        <time>2013-09-22T08:23:27.000Z</time>
      </trkpt>
      <trkpt lat="49.17553" lon="1.36229">
        <ele>12.001388549805</ele>
        <time>2013-09-22T08:23:30.000Z</time>
      </trkpt>
      <trkpt lat="49.17548" lon="1.3625">
        <ele>11.560302734375</ele>
        <time>2013-09-22T08:23:33.000Z</time>
      </trkpt>
      <trkpt lat="49.17544" lon="1.36272">
        <ele>11.200343132019</ele>
        <time>2013-09-22T08:23:36.000Z</time>
      </trkpt>
      <trkpt lat="49.1754" lon="1.36296">
        <ele>10.954071044922</ele>
        <time>2013-09-22T08:23:39.000Z</time>
      </trkpt>
      <trkpt lat="49.17539" lon="1.36307">
        <ele>10.814615249634</ele>
        <time>2013-09-22T08:23:41.000Z</time>
      </trkpt>
      <trkpt lat="49.17535" lon="1.36318">
        <ele>10.816617012024</ele>
        <time>2013-09-22T08:23:43.000Z</time>
      </trkpt>
      <trkpt lat="49.1753" lon="1.36337">
        <ele>11.012269020081</ele>
        <time>2013-09-22T08:23:46.000Z</time>
      </trkpt>
      <trkpt lat="49.17529" lon="1.3635">
        <ele>11.232664108276</ele>
        <time>2013-09-22T08:23:48.000Z</time>
      </trkpt>
      <trkpt lat="49.17527" lon="1.36364">
        <ele>11.459379196167</ele>
        <time>2013-09-22T08:23:50.000Z</time>
      </trkpt>
      <trkpt lat="49.17522" lon="1.36384">
        <ele>11.748224258423</ele>
        <time>2013-09-22T08:23:53.000Z</time>
      </trkpt>
      <trkpt lat="49.17519" lon="1.36407">
        <ele>12.072710037231</ele>
        <time>2013-09-22T08:23:56.000Z</time>
      </trkpt>
      <trkpt lat="49.17514" lon="1.36427">
        <ele>12.352665901184</ele>
        <time>2013-09-22T08:23:59.000Z</time>
      </trkpt>
      <trkpt lat="49.17511" lon="1.36448">
        <ele>12.546371459961</ele>
        <time>2013-09-22T08:24:02.000Z</time>
      </trkpt>
      <trkpt lat="49.17508" lon="1.36466">
        <ele>12.649053573608</ele>
        <time>2013-09-22T08:24:04.000Z</time>
      </trkpt>
      <trkpt lat="49.17505" lon="1.36484">
        <ele>12.615436553955</ele>
        <time>2013-09-22T08:24:06.000Z</time>
      </trkpt>
      <trkpt lat="49.17501" lon="1.36513">
        <ele>12.423282623291</ele>
        <time>2013-09-22T08:24:09.000Z</time>
      </trkpt>
      <trkpt lat="49.175" lon="1.36532">
        <ele>12.15382194519</ele>
        <time>2013-09-22T08:24:11.000Z</time>
      </trkpt>
      <trkpt lat="49.17498" lon="1.36547">
        <ele>11.906625747681</ele>
        <time>2013-09-22T08:24:13.000Z</time>
      </trkpt>
      <trkpt lat="49.17495" lon="1.36565">
        <ele>11.67140007019</ele>
        <time>2013-09-22T08:24:16.000Z</time>
      </trkpt>
      <trkpt lat="49.17492" lon="1.36582">
        <ele>11.452815055847</ele>
        <time>2013-09-22T08:24:19.000Z</time>
      </trkpt>
      <trkpt lat="49.17487" lon="1.36608">
        <ele>11.331390380859</ele>
        <time>2013-09-22T08:24:22.000Z</time>
      </trkpt>
      <trkpt lat="49.17483" lon="1.36628">
        <ele>11.269299507141</ele>
        <time>2013-09-22T08:24:25.000Z</time>
      </trkpt>
      <trkpt lat="49.17482" lon="1.36647">
        <ele>11.253610610962</ele>
        <time>2013-09-22T08:24:28.000Z</time>
      </trkpt>
      <trkpt lat="49.1748" lon="1.36661">
        <ele>11.289266586304</ele>
        <time>2013-09-22T08:24:30.000Z</time>
      </trkpt>
      <trkpt lat="49.17476" lon="1.36684">
        <ele>11.330424308777</ele>
        <time>2013-09-22T08:24:33.000Z</time>
      </trkpt>
      <trkpt lat="49.17472" lon="1.36707">
        <ele>11.296608924866</ele>
        <time>2013-09-22T08:24:36.000Z</time>
      </trkpt>
      <trkpt lat="49.1747" lon="1.36727">
        <ele>11.180681228638</ele>
        <time>2013-09-22T08:24:39.000Z</time>
      </trkpt>
      <trkpt lat="49.17469" lon="1.36742">
        <ele>11.00486946106</ele>
        <time>2013-09-22T08:24:41.000Z</time>
      </trkpt>
      <trkpt lat="49.17467" lon="1.36766">
        <ele>10.802483558655</ele>
        <time>2013-09-22T08:24:44.000Z</time>
      </trkpt>
      <trkpt lat="49.17463" lon="1.36785">
        <ele>10.658350944519</ele>
        <time>2013-09-22T08:24:46.000Z</time>
      </trkpt>
      <trkpt lat="49.17459" lon="1.36812">
        <ele>10.622764587402</ele>
        <time>2013-09-22T08:24:49.000Z</time>
      </trkpt>
      <trkpt lat="49.17456" lon="1.3683">
        <ele>10.689913749695</ele>
        <time>2013-09-22T08:24:51.000Z</time>
      </trkpt>
      <trkpt lat="49.17455" lon="1.36846">
        <ele>10.827227592468</ele>
        <time>2013-09-22T08:24:53.000Z</time>
      </trkpt>
      <trkpt lat="49.17451" lon="1.36874">
        <ele>11.004040718079</ele>
        <time>2013-09-22T08:24:56.000Z</time>
      </trkpt>
      <trkpt lat="49.1745" lon="1.36887">
        <ele>11.165590286255</ele>
        <time>2013-09-22T08:24:58.000Z</time>
      </trkpt>
      <trkpt lat="49.17448" lon="1.36906">
        <ele>11.295704841614</ele>
        <time>2013-09-22T08:25:01.000Z</time>
      </trkpt>
      <trkpt lat="49.17447" lon="1.36919">
        <ele>11.390625</ele>
        <time>2013-09-22T08:25:03.000Z</time>
      </trkpt>
      <trkpt lat="49.17446" lon="1.3693">
        <ele>11.46875</ele>
        <time>2013-09-22T08:25:06.000Z</time>
      </trkpt>
      <trkpt lat="49.17445" lon="1.36938">
        <ele>11.52734375</ele>
        <time>2013-09-22T08:25:08.000Z</time>
      </trkpt>
      <trkpt lat="49.17441" lon="1.36957">
        <ele>11.61328125</ele>
        <time>2013-09-22T08:25:11.000Z</time>
      </trkpt>
      <trkpt lat="49.17437" lon="1.36969">
        <ele>11.72265625</ele>
        <time>2013-09-22T08:25:13.000Z</time>
      </trkpt>
      <trkpt lat="49.1743" lon="1.36989">
        <ele>11.8828125</ele>
        <time>2013-09-22T08:25:16.000Z</time>
      </trkpt>
      <trkpt lat="49.17427" lon="1.37006">
        <ele>12.027892112732</ele>
        <time>2013-09-22T08:25:18.000Z</time>
      </trkpt>
      <trkpt lat="49.1742" lon="1.37031">
        <ele>12.062717437744</ele>
        <time>2013-09-22T08:25:21.000Z</time>
      </trkpt>
      <trkpt lat="49.17416" lon="1.37044">
        <ele>11.982967376709</ele>
        <time>2013-09-22T08:25:23.000Z</time>
      </trkpt>
      <trkpt lat="49.17408" lon="1.37066">
        <ele>11.71319770813</ele>
        <time>2013-09-22T08:25:26.000Z</time>
      </trkpt>
      <trkpt lat="49.17401" lon="1.37085">
        <ele>11.284188270569</ele>
        <time>2013-09-22T08:25:29.000Z</time>
      </trkpt>
      <trkpt lat="49.17395" lon="1.37105">
        <ele>10.887690544128</ele>
        <time>2013-09-22T08:25:32.000Z</time>
      </trkpt>
      <trkpt lat="49.1739" lon="1.37129">
        <ele>10.626142501831</ele>
        <time>2013-09-22T08:25:35.000Z</time>
      </trkpt>
      <trkpt lat="49.17384" lon="1.37148">
        <ele>10.478731155396</ele>
        <time>2013-09-22T08:25:38.000Z</time>
      </trkpt>
      <trkpt lat="49.17379" lon="1.37159">
        <ele>10.512829780579</ele>
        <time>2013-09-22T08:25:40.000Z</time>
      </trkpt>
      <trkpt lat="49.1737" lon="1.3718">
        <ele>10.716542243957</ele>
        <time>2013-09-22T08:25:43.000Z</time>
      </trkpt>
      <trkpt lat="49.1736" lon="1.37203">
        <ele>10.981429100037</ele>
        <time>2013-09-22T08:25:46.000Z</time>
      </trkpt>
      <trkpt lat="49.17351" lon="1.37218">
        <ele>11.299070358276</ele>
        <time>2013-09-22T08:25:49.000Z</time>
      </trkpt>
      <trkpt lat="49.17347" lon="1.37228">
        <ele>11.620485305786</ele>
        <time>2013-09-22T08:25:51.000Z</time>
      </trkpt>
      <trkpt lat="49.1734" lon="1.37245">
        <ele>11.990303039551</ele>
        <time>2013-09-22T08:25:54.000Z</time>
      </trkpt>
      <trkpt lat="49.17335" lon="1.37253">
        <ele>12.32001209259</ele>
        <time>2013-09-22T08:25:56.000Z</time>
      </trkpt>
      <trkpt lat="49.17329" lon="1.37264">
        <ele>12.519062995911</ele>
        <time>2013-09-22T08:25:59.000Z</time>
      </trkpt>
      <trkpt lat="49.17326" lon="1.37272">
        <ele>12.595551490784</ele>
        <time>2013-09-22T08:26:01.000Z</time>
      </trkpt>
      <trkpt lat="49.17317" lon="1.37288">
        <ele>12.567502975464</ele>
        <time>2013-09-22T08:26:04.000Z</time>
      </trkpt>
      <trkpt lat="49.1731" lon="1.37303">
        <ele>12.419675827026</ele>
        <time>2013-09-22T08:26:07.000Z</time>
      </trkpt>
      <trkpt lat="49.17307" lon="1.37312">
        <ele>12.226630210877</ele>
        <time>2013-09-22T08:26:09.000Z</time>
      </trkpt>
      <trkpt lat="49.17303" lon="1.37321">
        <ele>12.070091247559</ele>
        <time>2013-09-22T08:26:11.000Z</time>
      </trkpt>
      <trkpt lat="49.17297" lon="1.37332">
        <ele>11.957372665405</ele>
        <time>2013-09-22T08:26:14.000Z</time>
      </trkpt>
      <trkpt lat="49.1729" lon="1.37342">
        <ele>11.955817222595</ele>
        <time>2013-09-22T08:26:17.000Z</time>
      </trkpt>
      <trkpt lat="49.17283" lon="1.37351">
        <ele>12.053404808044</ele>
        <time>2013-09-22T08:26:19.000Z</time>
      </trkpt>
      <trkpt lat="49.17277" lon="1.3736">
        <ele>12.234002113342</ele>
        <time>2013-09-22T08:26:21.000Z</time>
      </trkpt>
      <trkpt lat="49.17271" lon="1.3737">
        <ele>12.489596366882</ele>
        <time>2013-09-22T08:26:23.000Z</time>
      </trkpt>
      <trkpt lat="49.17264" lon="1.37382">
        <ele>12.8369140625</ele>
        <time>2013-09-22T08:26:26.000Z</time>
      </trkpt>
      <trkpt lat="49.17257" lon="1.37391">
        <ele>13.230038642883</ele>
        <time>2013-09-22T08:26:29.000Z</time>
      </trkpt>
      <trkpt lat="49.17248" lon="1.37404">
        <ele>13.658861160278</ele>
        <time>2013-09-22T08:26:32.000Z</time>
      </trkpt>
      <trkpt lat="49.17241" lon="1.37418">
        <ele>13.996020317078</ele>
        <time>2013-09-22T08:26:35.000Z</time>
      </trkpt>
      <trkpt lat="49.17233" lon="1.37433">
        <ele>14.097541809082</ele>
        <time>2013-09-22T08:26:38.000Z</time>
      </trkpt>
      <trkpt lat="49.17229" lon="1.37443">
        <ele>14.011697769165</ele>
        <time>2013-09-22T08:26:40.000Z</time>
      </trkpt>
      <trkpt lat="49.1722" lon="1.3746">
        <ele>13.705484390259</ele>
        <time>2013-09-22T08:26:43.000Z</time>
      </trkpt>
      <trkpt lat="49.17212" lon="1.37479">
        <ele>13.230792045593</ele>
        <time>2013-09-22T08:26:46.000Z</time>
      </trkpt>
      <trkpt lat="49.17203" lon="1.37495">
        <ele>12.766557693481</ele>
        <time>2013-09-22T08:26:49.000Z</time>
      </trkpt>
      <trkpt lat="49.17197" lon="1.37507">
        <ele>12.481327056885</ele>
        <time>2013-09-22T08:26:51.000Z</time>
      </trkpt>
      <trkpt lat="49.17189" lon="1.37522">
        <ele>12.305422782898</ele>
        <time>2013-09-22T08:26:54.000Z</time>
      </trkpt>
      <trkpt lat="49.17179" lon="1.37542">
        <ele>12.301706314087</ele>
        <time>2013-09-22T08:26:57.000Z</time>
      </trkpt>
      <trkpt lat="49.17173" lon="1.37554">
        <ele>12.408660888672</ele>
        <time>2013-09-22T08:26:59.000Z</time>
      </trkpt>
      <trkpt lat="49.17167" lon="1.37563">
        <ele>12.575024604797</ele>
        <time>2013-09-22T08:27:01.000Z</time>
      </trkpt>
      <trkpt lat="49.17161" lon="1.37571">
        <ele>12.717080116272</ele>
        <time>2013-09-22T08:27:03.000Z</time>
      </trkpt>
      <trkpt lat="49.17155" lon="1.37581">
        <ele>12.826237678528</ele>
        <time>2013-09-22T08:27:05.000Z</time>
      </trkpt>
      <trkpt lat="49.17151" lon="1.37593">
        <ele>12.819150924683</ele>
        <time>2013-09-22T08:27:07.000Z</time>
      </trkpt>
      <trkpt lat="49.17144" lon="1.37614">
        <ele>12.651136398315</ele>
        <time>2013-09-22T08:27:10.000Z</time>
      </trkpt>
      <trkpt lat="49.17138" lon="1.37626">
        <ele>12.383610725403</ele>
        <time>2013-09-22T08:27:12.000Z</time>
      </trkpt>
      <trkpt lat="49.17133" lon="1.37637">
        <ele>12.087685585022</ele>
        <time>2013-09-22T08:27:14.000Z</time>
      </trkpt>
      <trkpt lat="49.17123" lon="1.3765">
        <ele>11.779424667358</ele>
        <time>2013-09-22T08:27:17.000Z</time>
      </trkpt>
      <trkpt lat="49.17115" lon="1.37668">
        <ele>11.518918991089</ele>
        <time>2013-09-22T08:27:20.000Z</time>
      </trkpt>
      <trkpt lat="49.1711" lon="1.3768">
        <ele>11.391034126282</ele>
        <time>2013-09-22T08:27:22.000Z</time>
      </trkpt>
      <trkpt lat="49.17102" lon="1.37698">
        <ele>11.352499008179</ele>
        <time>2013-09-22T08:27:25.000Z</time>
      </trkpt>
      <trkpt lat="49.17098" lon="1.3771">
        <ele>11.374338150024</ele>
        <time>2013-09-22T08:27:27.000Z</time>
      </trkpt>
      <trkpt lat="49.17093" lon="1.37721">
        <ele>11.447685241699</ele>
        <time>2013-09-22T08:27:29.000Z</time>
      </trkpt>
      <trkpt lat="49.17086" lon="1.37736">
        <ele>11.584460258484</ele>
        <time>2013-09-22T08:27:32.000Z</time>
      </trkpt>
      <trkpt lat="49.17083" lon="1.37741">
        <ele>11.727832794189</ele>
        <time>2013-09-22T08:27:34.000Z</time>
      </trkpt>
      <trkpt lat="49.17076" lon="1.3775">
        <ele>11.871308326721</ele>
        <time>2013-09-22T08:27:37.000Z</time>
      </trkpt>
      <trkpt lat="49.17073" lon="1.37755">
        <ele>12.000445365906</ele>
        <time>2013-09-22T08:27:39.000Z</time>
      </trkpt>
      <trkpt lat="49.17067" lon="1.37771">
        <ele>12.100576400757</ele>
        <time>2013-09-22T08:27:42.000Z</time>
      </trkpt>
      <trkpt lat="49.17063" lon="1.37781">
        <ele>12.158601760864</ele>
        <time>2013-09-22T08:27:44.000Z</time>
      </trkpt>
      <trkpt lat="49.17059" lon="1.37789">
        <ele>12.207960128784</ele>
        <time>2013-09-22T08:27:46.000Z</time>
      </trkpt>
      <trkpt lat="49.1705" lon="1.37801">
        <ele>12.258651733398</ele>
        <time>2013-09-22T08:27:49.000Z</time>
      </trkpt>
      <trkpt lat="49.17049" lon="1.37806">
        <ele>12.30532169342</ele>
        <time>2013-09-22T08:27:51.000Z</time>
      </trkpt>
      <trkpt lat="49.17042" lon="1.3782">
        <ele>12.382126808167</ele>
        <time>2013-09-22T08:27:54.000Z</time>
      </trkpt>
      <trkpt lat="49.17035" lon="1.37833">
        <ele>12.492385864258</ele>
        <time>2013-09-22T08:27:56.000Z</time>
      </trkpt>
      <trkpt lat="49.17024" lon="1.37858">
        <ele>12.593793869019</ele>
        <time>2013-09-22T08:27:59.000Z</time>
      </trkpt>
      <trkpt lat="49.17017" lon="1.37874">
        <ele>12.661848068237</ele>
        <time>2013-09-22T08:28:01.000Z</time>
      </trkpt>
      <trkpt lat="49.17011" lon="1.3789">
        <ele>12.743192672729</ele>
        <time>2013-09-22T08:28:03.000Z</time>
      </trkpt>
      <trkpt lat="49.17002" lon="1.37911">
        <ele>12.827836990356</ele>
        <time>2013-09-22T08:28:06.000Z</time>
      </trkpt>
      <trkpt lat="49.16991" lon="1.37932">
        <ele>12.915621757507</ele>
        <time>2013-09-22T08:28:09.000Z</time>
      </trkpt>
      <trkpt lat="49.16979" lon="1.37948">
        <ele>13.078689575195</ele>
        <time>2013-09-22T08:28:12.000Z</time>
      </trkpt>
      <trkpt lat="49.16972" lon="1.37959">
        <ele>13.297058105469</ele>
        <time>2013-09-22T08:28:14.000Z</time>
      </trkpt>
      <trkpt lat="49.16961" lon="1.37983">
        <ele>13.600659370422</ele>
        <time>2013-09-22T08:28:17.000Z</time>
      </trkpt>
      <trkpt lat="49.16955" lon="1.37997">
        <ele>13.938603401184</ele>
        <time>2013-09-22T08:28:19.000Z</time>
      </trkpt>
      <trkpt lat="49.16949" lon="1.38011">
        <ele>14.295438766479</ele>
        <time>2013-09-22T08:28:21.000Z</time>
      </trkpt>
      <trkpt lat="49.16942" lon="1.38032">
        <ele>14.650410652161</ele>
        <time>2013-09-22T08:28:24.000Z</time>
      </trkpt>
      <trkpt lat="49.16936" lon="1.38049">
        <ele>15.017143249512</ele>
        <time>2013-09-22T08:28:26.000Z</time>
      </trkpt>
      <trkpt lat="49.16928" lon="1.38068">
        <ele>15.382626533508</ele>
        <time>2013-09-22T08:28:29.000Z</time>
      </trkpt>
      <trkpt lat="49.1692" lon="1.38088">
        <ele>15.789850234985</ele>
        <time>2013-09-22T08:28:32.000Z</time>
      </trkpt>
      <trkpt lat="49.16912" lon="1.38107">
        <ele>16.139461517334</ele>
        <time>2013-09-22T08:28:35.000Z</time>
      </trkpt>
      <trkpt lat="49.16908" lon="1.38121">
        <ele>16.387954711914</ele>
        <time>2013-09-22T08:28:37.000Z</time>
      </trkpt>
      <trkpt lat="49.169" lon="1.38142">
        <ele>16.534225463867</ele>
        <time>2013-09-22T08:28:40.000Z</time>
      </trkpt>
      <trkpt lat="49.16895" lon="1.38155">
        <ele>16.568632125854</ele>
        <time>2013-09-22T08:28:42.000Z</time>
      </trkpt>
      <trkpt lat="49.1689" lon="1.38168">
        <ele>16.478481292725</ele>
        <time>2013-09-22T08:28:44.000Z</time>
      </trkpt>
      <trkpt lat="49.16883" lon="1.38185">
        <ele>16.267597198486</ele>
        <time>2013-09-22T08:28:47.000Z</time>
      </trkpt>
      <trkpt lat="49.16878" lon="1.38195">
        <ele>16.029954910278</ele>
        <time>2013-09-22T08:28:49.000Z</time>
      </trkpt>
      <trkpt lat="49.16869" lon="1.38217">
        <ele>15.733993530273</ele>
        <time>2013-09-22T08:28:52.000Z</time>
      </trkpt>
      <trkpt lat="49.1686" lon="1.38241">
        <ele>15.393522262573</ele>
        <time>2013-09-22T08:28:55.000Z</time>
      </trkpt>
      <trkpt lat="49.16853" lon="1.3826">
        <ele>15.059475898743</ele>
        <time>2013-09-22T08:28:58.000Z</time>
      </trkpt>
      <trkpt lat="49.16846" lon="1.38275">
        <ele>14.849896430969</ele>
        <time>2013-09-22T08:29:00.000Z</time>
      </trkpt>
      <trkpt lat="49.16839" lon="1.3829">
        <ele>14.704385757446</ele>
        <time>2013-09-22T08:29:02.000Z</time>
      </trkpt>
      <trkpt lat="49.1683" lon="1.38313">
        <ele>14.639892578125</ele>
        <time>2013-09-22T08:29:05.000Z</time>
      </trkpt>
      <trkpt lat="49.16823" lon="1.38329">
        <ele>14.624771118164</ele>
        <time>2013-09-22T08:29:07.000Z</time>
      </trkpt>
      <trkpt lat="49.16814" lon="1.38351">
        <ele>14.4946641922</ele>
        <time>2013-09-22T08:29:10.000Z</time>
      </trkpt>
      <trkpt lat="49.16808" lon="1.38364">
        <ele>14.287984848023</ele>
        <time>2013-09-22T08:29:12.000Z</time>
      </trkpt>
      <trkpt lat="49.16801" lon="1.3838">
        <ele>13.988229751587</ele>
        <time>2013-09-22T08:29:14.000Z</time>
      </trkpt>
      <trkpt lat="49.16794" lon="1.384">
        <ele>13.590848922729</ele>
        <time>2013-09-22T08:29:17.000Z</time>
      </trkpt>
      <trkpt lat="49.16785" lon="1.38422">
        <ele>13.153574943543</ele>
        <time>2013-09-22T08:29:20.000Z</time>
      </trkpt>
      <trkpt lat="49.16779" lon="1.38437">
        <ele>12.903553962707</ele>
        <time>2013-09-22T08:29:22.000Z</time>
      </trkpt>
      <trkpt lat="49.16768" lon="1.38459">
        <ele>12.791078567505</ele>
        <time>2013-09-22T08:29:25.000Z</time>
      </trkpt>
      <trkpt lat="49.16758" lon="1.3848">
        <ele>12.781482696533</ele>
        <time>2013-09-22T08:29:28.000Z</time>
      </trkpt>
      <trkpt lat="49.16748" lon="1.385">
        <ele>12.871624946594</ele>
        <time>2013-09-22T08:29:31.000Z</time>
      </trkpt>
      <trkpt lat="49.16738" lon="1.38521">
        <ele>13.009735107422</ele>
        <time>2013-09-22T08:29:34.000Z</time>
      </trkpt>
      <trkpt lat="49.16729" lon="1.38543">
        <ele>13.087864875793</ele>
        <time>2013-09-22T08:29:37.000Z</time>
      </trkpt>
      <trkpt lat="49.16721" lon="1.38561">
        <ele>13.123662948608</ele>
        <time>2013-09-22T08:29:40.000Z</time>
      </trkpt>
      <trkpt lat="49.16712" lon="1.38578">
        <ele>13.176060676575</ele>
        <time>2013-09-22T08:29:43.000Z</time>
      </trkpt>
      <trkpt lat="49.16705" lon="1.38591">
        <ele>13.275793075562</ele>
        <time>2013-09-22T08:29:45.000Z</time>
      </trkpt>
      <trkpt lat="49.16695" lon="1.38611">
        <ele>13.454717636108</ele>
        <time>2013-09-22T08:29:48.000Z</time>
      </trkpt>
      <trkpt lat="49.16684" lon="1.38635">
        <ele>13.707188606262</ele>
        <time>2013-09-22T08:29:51.000Z</time>
      </trkpt>
      <trkpt lat="49.16674" lon="1.38656">
        <ele>14.003666877747</ele>
        <time>2013-09-22T08:29:54.000Z</time>
      </trkpt>
      <trkpt lat="49.16665" lon="1.38676">
        <ele>14.271260261536</ele>
        <time>2013-09-22T08:29:57.000Z</time>
      </trkpt>
      <trkpt lat="49.16659" lon="1.3869">
        <ele>14.465261459351</ele>
        <time>2013-09-22T08:29:59.000Z</time>
      </trkpt>
      <trkpt lat="49.16651" lon="1.3871">
        <ele>14.548238754273</ele>
        <time>2013-09-22T08:30:02.000Z</time>
      </trkpt>
      <trkpt lat="49.16643" lon="1.3873">
        <ele>14.532096862793</ele>
        <time>2013-09-22T08:30:05.000Z</time>
      </trkpt>
      <trkpt lat="49.16634" lon="1.38751">
        <ele>14.464221000671</ele>
        <time>2013-09-22T08:30:08.000Z</time>
      </trkpt>
      <trkpt lat="49.16622" lon="1.38776">
        <ele>14.462648391724</ele>
        <time>2013-09-22T08:30:11.000Z</time>
      </trkpt>
      <trkpt lat="49.16614" lon="1.38791">
        <ele>14.522756576538</ele>
        <time>2013-09-22T08:30:13.000Z</time>
      </trkpt>
      <trkpt lat="49.16605" lon="1.38811">
        <ele>14.607086181641</ele>
        <time>2013-09-22T08:30:16.000Z</time>
      </trkpt>
      <trkpt lat="49.16599" lon="1.38828">
        <ele>14.673948287964</ele>
        <time>2013-09-22T08:30:19.000Z</time>
      </trkpt>
      <trkpt lat="49.16592" lon="1.38841">
        <ele>14.701177597046</ele>
        <time>2013-09-22T08:30:21.000Z</time>
      </trkpt>
      <trkpt lat="49.16581" lon="1.38866">
        <ele>14.617233276367</ele>
        <time>2013-09-22T08:30:24.000Z</time>
      </trkpt>
      <trkpt lat="49.16571" lon="1.3889">
        <ele>14.488042831421</ele>
        <time>2013-09-22T08:30:27.000Z</time>
      </trkpt>
      <trkpt lat="49.16565" lon="1.38906">
        <ele>14.351446151733</ele>
        <time>2013-09-22T08:30:29.000Z</time>
      </trkpt>
      <trkpt lat="49.16557" lon="1.38929">
        <ele>14.22016620636</ele>
        <time>2013-09-22T08:30:32.000Z</time>
      </trkpt>
      <trkpt lat="49.1655" lon="1.38948">
        <ele>14.114903450012</ele>
        <time>2013-09-22T08:30:35.000Z</time>
      </trkpt>
      <trkpt lat="49.16542" lon="1.38964">
        <ele>14.076416015625</ele>
        <time>2013-09-22T08:30:38.000Z</time>
      </trkpt>
      <trkpt lat="49.16532" lon="1.38981">
        <ele>14.155095100403</ele>
        <time>2013-09-22T08:30:41.000Z</time>
      </trkpt>
      <trkpt lat="49.16527" lon="1.38991">
        <ele>14.300686836243</ele>
        <time>2013-09-22T08:30:43.000Z</time>
      </trkpt>
      <trkpt lat="49.16518" lon="1.39007">
        <ele>14.567300796509</ele>
        <time>2013-09-22T08:30:46.000Z</time>
      </trkpt>
      <trkpt lat="49.16507" lon="1.39025">
        <ele>14.889577865601</ele>
        <time>2013-09-22T08:30:49.000Z</time>
      </trkpt>
      <trkpt lat="49.16497" lon="1.3904">
        <ele>15.212615966797</ele>
        <time>2013-09-22T08:30:52.000Z</time>
      </trkpt>
      <trkpt lat="49.16492" lon="1.39051">
        <ele>15.420817375183</ele>
        <time>2013-09-22T08:30:54.000Z</time>
      </trkpt>
      <trkpt lat="49.16486" lon="1.39061">
        <ele>15.578132629394</ele>
        <time>2013-09-22T08:30:56.000Z</time>
      </trkpt>
      <trkpt lat="49.16481" lon="1.39072">
        <ele>15.648881912231</ele>
        <time>2013-09-22T08:30:58.000Z</time>
      </trkpt>
      <trkpt lat="49.16473" lon="1.39092">
        <ele>15.638542175293</ele>
        <time>2013-09-22T08:31:01.000Z</time>
      </trkpt>
      <trkpt lat="49.16463" lon="1.39111">
        <ele>15.547961235046</ele>
        <time>2013-09-22T08:31:04.000Z</time>
      </trkpt>
      <trkpt lat="49.16454" lon="1.3913">
        <ele>15.439974784851</ele>
        <time>2013-09-22T08:31:07.000Z</time>
      </trkpt>
      <trkpt lat="49.16447" lon="1.39142">
        <ele>15.317303657532</ele>
        <time>2013-09-22T08:31:09.000Z</time>
      </trkpt>
      <trkpt lat="49.16434" lon="1.39163">
        <ele>15.168090820312</ele>
        <time>2013-09-22T08:31:12.000Z</time>
      </trkpt>
      <trkpt lat="49.16425" lon="1.39178">
        <ele>15.089985847473</ele>
        <time>2013-09-22T08:31:15.000Z</time>
      </trkpt>
      <trkpt lat="49.16418" lon="1.39192">
        <ele>15.092959403992</ele>
        <time>2013-09-22T08:31:17.000Z</time>
      </trkpt>
      <trkpt lat="49.16412" lon="1.39208">
        <ele>15.092386245727</ele>
        <time>2013-09-22T08:31:19.000Z</time>
      </trkpt>
      <trkpt lat="49.16407" lon="1.3923">
        <ele>15.030899047852</ele>
        <time>2013-09-22T08:31:22.000Z</time>
      </trkpt>
      <trkpt lat="49.16402" lon="1.39252">
        <ele>14.920625686646</ele>
        <time>2013-09-22T08:31:25.000Z</time>
      </trkpt>
      <trkpt lat="49.16397" lon="1.39268">
        <ele>14.797121047974</ele>
        <time>2013-09-22T08:31:27.000Z</time>
      </trkpt>
      <trkpt lat="49.16391" lon="1.39292">
        <ele>14.694376945496</ele>
        <time>2013-09-22T08:31:30.000Z</time>
      </trkpt>
      <trkpt lat="49.16386" lon="1.39307">
        <ele>14.670450210571</ele>
        <time>2013-09-22T08:31:32.000Z</time>
      </trkpt>
      <trkpt lat="49.1638" lon="1.39329">
        <ele>14.782175064087</ele>
        <time>2013-09-22T08:31:35.000Z</time>
      </trkpt>
      <trkpt lat="49.16375" lon="1.39344">
        <ele>14.974627494812</ele>
        <time>2013-09-22T08:31:37.000Z</time>
      </trkpt>
      <trkpt lat="49.1637" lon="1.39358">
        <ele>15.119863510132</ele>
        <time>2013-09-22T08:31:39.000Z</time>
      </trkpt>
      <trkpt lat="49.16366" lon="1.39373">
        <ele>15.193026542664</ele>
        <time>2013-09-22T08:31:41.000Z</time>
      </trkpt>
      <trkpt lat="49.16357" lon="1.39395">
        <ele>15.238000869751</ele>
        <time>2013-09-22T08:31:44.000Z</time>
      </trkpt>
      <trkpt lat="49.1635" lon="1.39408">
        <ele>15.24334526062</ele>
        <time>2013-09-22T08:31:46.000Z</time>
      </trkpt>
      <trkpt lat="49.1634" lon="1.39419">
        <ele>15.308874130249</ele>
        <time>2013-09-22T08:31:49.000Z</time>
      </trkpt>
      <trkpt lat="49.16331" lon="1.39425">
        <ele>15.467129707336</ele>
        <time>2013-09-22T08:31:52.000Z</time>
      </trkpt>
      <trkpt lat="49.16321" lon="1.39431">
        <ele>15.726089477539</ele>
        <time>2013-09-22T08:31:54.000Z</time>
      </trkpt>
      <trkpt lat="49.16312" lon="1.39432">
        <ele>16.057098388672</ele>
        <time>2013-09-22T08:31:56.000Z</time>
      </trkpt>
      <trkpt lat="49.16301" lon="1.39434">
        <ele>16.484432220459</ele>
        <time>2013-09-22T08:31:59.000Z</time>
      </trkpt>
      <trkpt lat="49.16288" lon="1.39435">
        <ele>16.978818893433</ele>
        <time>2013-09-22T08:32:02.000Z</time>
      </trkpt>
      <trkpt lat="49.16278" lon="1.39439">
        <ele>17.484369277954</ele>
        <time>2013-09-22T08:32:04.000Z</time>
      </trkpt>
      <trkpt lat="49.16262" lon="1.39447">
        <ele>18.064956665039</ele>
        <time>2013-09-22T08:32:07.000Z</time>
      </trkpt>
      <trkpt lat="49.16246" lon="1.39455">
        <ele>18.677358627319</ele>
        <time>2013-09-22T08:32:10.000Z</time>
      </trkpt>
      <trkpt lat="49.16238" lon="1.3946">
        <ele>19.143697738648</ele>
        <time>2013-09-22T08:32:12.000Z</time>
      </trkpt>
      <trkpt lat="49.16231" lon="1.39466">
        <ele>19.458660125732</ele>
        <time>2013-09-22T08:32:14.000Z</time>
      </trkpt>
      <trkpt lat="49.16219" lon="1.39476">
        <ele>19.652675628662</ele>
        <time>2013-09-22T08:32:17.000Z</time>
      </trkpt>
      <trkpt lat="49.16214" lon="1.39484">
        <ele>19.68212890625</ele>
        <time>2013-09-22T08:32:19.000Z</time>
      </trkpt>
      <trkpt lat="49.16205" lon="1.39491">
        <ele>19.575420379639</ele>
        <time>2013-09-22T08:32:22.000Z</time>
      </trkpt>
      <trkpt lat="49.16199" lon="1.39498">
        <ele>19.494604110718</ele>
        <time>2013-09-22T08:32:24.000Z</time>
      </trkpt>
      <trkpt lat="49.16195" lon="1.39504">
        <ele>19.419027328491</ele>
        <time>2013-09-22T08:32:26.000Z</time>
      </trkpt>
      <trkpt lat="49.1619" lon="1.3951">
        <ele>19.359088897705</ele>
        <time>2013-09-22T08:32:28.000Z</time>
      </trkpt>
      <trkpt lat="49.16186" lon="1.39516">
        <ele>19.301677703857</ele>
        <time>2013-09-22T08:32:30.000Z</time>
      </trkpt>
      <trkpt lat="49.16178" lon="1.39528">
        <ele>19.271060943604</ele>
        <time>2013-09-22T08:32:33.000Z</time>
      </trkpt>
      <trkpt lat="49.16172" lon="1.39535">
        <ele>19.265796661377</ele>
        <time>2013-09-22T08:32:35.000Z</time>
      </trkpt>
      <trkpt lat="49.16164" lon="1.39547">
        <ele>19.326335906982</ele>
        <time>2013-09-22T08:32:38.000Z</time>
      </trkpt>
      <trkpt lat="49.16158" lon="1.39555">
        <ele>19.438404083252</ele>
        <time>2013-09-22T08:32:40.000Z</time>
      </trkpt>
      <trkpt lat="49.16152" lon="1.39563">
        <ele>19.592838287354</ele>
        <time>2013-09-22T08:32:42.000Z</time>
      </trkpt>
      <trkpt lat="49.16145" lon="1.39573">
        <ele>19.778112411499</ele>
        <time>2013-09-22T08:32:45.000Z</time>
      </trkpt>
      <trkpt lat="49.1614" lon="1.39585">
        <ele>19.975351333618</ele>
        <time>2013-09-22T08:32:47.000Z</time>
      </trkpt>
      <trkpt lat="49.16136" lon="1.39595">
        <ele>20.156061172485</ele>
        <time>2013-09-22T08:32:49.000Z</time>
      </trkpt>
      <trkpt lat="49.16122" lon="1.39615">
        <ele>20.379739761352</ele>
        <time>2013-09-22T08:32:52.000Z</time>
      </trkpt>
      <trkpt lat="49.16112" lon="1.39627">
        <ele>20.622959136963</ele>
        <time>2013-09-22T08:32:54.000Z</time>
      </trkpt>
      <trkpt lat="49.16095" lon="1.39647">
        <ele>20.913360595703</ele>
        <time>2013-09-22T08:32:57.000Z</time>
      </trkpt>
      <trkpt lat="49.16083" lon="1.39663">
        <ele>21.234359741211</ele>
        <time>2013-09-22T08:33:00.000Z</time>
      </trkpt>
      <trkpt lat="49.16074" lon="1.39676">
        <ele>21.40124130249</ele>
        <time>2013-09-22T08:33:02.000Z</time>
      </trkpt>
      <trkpt lat="49.1606" lon="1.39694">
        <ele>21.285989761352</ele>
        <time>2013-09-22T08:33:05.000Z</time>
      </trkpt>
      <trkpt lat="49.16044" lon="1.39713">
        <ele>20.922533035278</ele>
        <time>2013-09-22T08:33:08.000Z</time>
      </trkpt>
      <trkpt lat="49.16033" lon="1.39726">
        <ele>20.358348846436</ele>
        <time>2013-09-22T08:33:10.000Z</time>
      </trkpt>
      <trkpt lat="49.1602" lon="1.39742">
        <ele>19.617191314697</ele>
        <time>2013-09-22T08:33:13.000Z</time>
      </trkpt>
      <trkpt lat="49.16009" lon="1.39753">
        <ele>18.940078735352</ele>
        <time>2013-09-22T08:33:16.000Z</time>
      </trkpt>
      <trkpt lat="49.15998" lon="1.39769">
        <ele>18.442056655884</ele>
        <time>2013-09-22T08:33:19.000Z</time>
      </trkpt>
      <trkpt lat="49.15981" lon="1.39782">
        <ele>18.229349136352</ele>
        <time>2013-09-22T08:33:22.000Z</time>
      </trkpt>
      <trkpt lat="49.1597" lon="1.39794">
        <ele>18.179523468018</ele>
        <time>2013-09-22T08:33:24.000Z</time>
      </trkpt>
      <trkpt lat="49.15956" lon="1.39811">
        <ele>18.298511505127</ele>
        <time>2013-09-22T08:33:27.000Z</time>
      </trkpt>
      <trkpt lat="49.15946" lon="1.39823">
        <ele>18.520568847656</ele>
        <time>2013-09-22T08:33:29.000Z</time>
      </trkpt>
      <trkpt lat="49.15932" lon="1.3984">
        <ele>18.77278137207</ele>
        <time>2013-09-22T08:33:32.000Z</time>
      </trkpt>
      <trkpt lat="49.15917" lon="1.39853">
        <ele>18.877141952515</ele>
        <time>2013-09-22T08:33:35.000Z</time>
      </trkpt>
      <trkpt lat="49.15903" lon="1.39866">
        <ele>18.881454467773</ele>
        <time>2013-09-22T08:33:38.000Z</time>
      </trkpt>
      <trkpt lat="49.15889" lon="1.3988">
        <ele>18.788763046265</ele>
        <time>2013-09-22T08:33:41.000Z</time>
      </trkpt>
      <trkpt lat="49.15876" lon="1.39895">
        <ele>18.596378326416</ele>
        <time>2013-09-22T08:33:44.000Z</time>
      </trkpt>
      <trkpt lat="49.15868" lon="1.39909">
        <ele>18.319644927979</ele>
        <time>2013-09-22T08:33:46.000Z</time>
      </trkpt>
      <trkpt lat="49.15858" lon="1.39925">
        <ele>18.072296142578</ele>
        <time>2013-09-22T08:33:49.000Z</time>
      </trkpt>
      <trkpt lat="49.15852" lon="1.39935">
        <ele>17.882293701172</ele>
        <time>2013-09-22T08:33:51.000Z</time>
      </trkpt>
      <trkpt lat="49.15842" lon="1.39949">
        <ele>17.761989593506</ele>
        <time>2013-09-22T08:33:54.000Z</time>
      </trkpt>
      <trkpt lat="49.15833" lon="1.39961">
        <ele>17.733236312866</ele>
        <time>2013-09-22T08:33:57.000Z</time>
      </trkpt>
      <trkpt lat="49.15827" lon="1.39969">
        <ele>17.786703109741</ele>
        <time>2013-09-22T08:33:59.000Z</time>
      </trkpt>
      <trkpt lat="49.15819" lon="1.39979">
        <ele>17.872306823731</ele>
        <time>2013-09-22T08:34:02.000Z</time>
      </trkpt>
      <trkpt lat="49.15813" lon="1.39987">
        <ele>17.954319000244</ele>
        <time>2013-09-22T08:34:04.000Z</time>
      </trkpt>
      <trkpt lat="49.15806" lon="1.39996">
        <ele>18.014526367188</ele>
        <time>2013-09-22T08:34:06.000Z</time>
      </trkpt>
      <trkpt lat="49.15795" lon="1.40011">
        <ele>18.030797958374</ele>
        <time>2013-09-22T08:34:09.000Z</time>
      </trkpt>
      <trkpt lat="49.15789" lon="1.40019">
        <ele>18.038114547729</ele>
        <time>2013-09-22T08:34:11.000Z</time>
      </trkpt>
      <trkpt lat="49.1578" lon="1.40032">
        <ele>18.010820388794</ele>
        <time>2013-09-22T08:34:14.000Z</time>
      </trkpt>
      <trkpt lat="49.15775" lon="1.4004">
        <ele>17.962322235107</ele>
        <time>2013-09-22T08:34:16.000Z</time>
      </trkpt>
      <trkpt lat="49.15768" lon="1.4005">
        <ele>17.88551902771</ele>
        <time>2013-09-22T08:34:19.000Z</time>
      </trkpt>
      <trkpt lat="49.15758" lon="1.40068">
        <ele>17.745439529419</ele>
        <time>2013-09-22T08:34:22.000Z</time>
      </trkpt>
      <trkpt lat="49.15751" lon="1.40081">
        <ele>17.550813674927</ele>
        <time>2013-09-22T08:34:24.000Z</time>
      </trkpt>
      <trkpt lat="49.15741" lon="1.40096">
        <ele>17.377864837646</ele>
        <time>2013-09-22T08:34:27.000Z</time>
      </trkpt>
      <trkpt lat="49.15733" lon="1.40105">
        <ele>17.238140106201</ele>
        <time>2013-09-22T08:34:29.000Z</time>
      </trkpt>
      <trkpt lat="49.15722" lon="1.40116">
        <ele>17.146499633789</ele>
        <time>2013-09-22T08:34:32.000Z</time>
      </trkpt>
      <trkpt lat="49.1571" lon="1.40127">
        <ele>17.15612411499</ele>
        <time>2013-09-22T08:34:35.000Z</time>
      </trkpt>
      <trkpt lat="49.15703" lon="1.40134">
        <ele>17.240905761719</ele>
        <time>2013-09-22T08:34:37.000Z</time>
      </trkpt>
      <trkpt lat="49.15693" lon="1.40144">
        <ele>17.358276367188</ele>
        <time>2013-09-22T08:34:40.000Z</time>
      </trkpt>
      <trkpt lat="49.15681" lon="1.40157">
        <ele>17.479675292969</ele>
        <time>2013-09-22T08:34:43.000Z</time>
      </trkpt>
      <trkpt lat="49.15675" lon="1.40164">
        <ele>17.591613769531</ele>
        <time>2013-09-22T08:34:45.000Z</time>
      </trkpt>
      <trkpt lat="49.15669" lon="1.4017">
        <ele>17.697925567627</ele>
        <time>2013-09-22T08:34:47.000Z</time>
      </trkpt>
      <trkpt lat="49.15664" lon="1.40176">
        <ele>17.807718276977</ele>
        <time>2013-09-22T08:34:49.000Z</time>
      </trkpt>
      <trkpt lat="49.15655" lon="1.40186">
        <ele>17.901020050049</ele>
        <time>2013-09-22T08:34:52.000Z</time>
      </trkpt>
      <trkpt lat="49.1565" lon="1.40191">
        <ele>17.977098464966</ele>
        <time>2013-09-22T08:34:55.000Z</time>
      </trkpt>
      <trkpt lat="49.15648" lon="1.40192">
        <ele>18.037578582764</ele>
        <time>2013-09-22T08:34:57.000Z</time>
      </trkpt>
      <trkpt lat="49.15641" lon="1.40197">
        <ele>18.070177078247</ele>
        <time>2013-09-22T08:35:00.000Z</time>
      </trkpt>
      <trkpt lat="49.15638" lon="1.402">
        <ele>18.078853607178</ele>
        <time>2013-09-22T08:35:02.000Z</time>
      </trkpt>
      <trkpt lat="49.15635" lon="1.40206">
        <ele>18.068090438843</ele>
        <time>2013-09-22T08:35:04.000Z</time>
      </trkpt>
      <trkpt lat="49.15633" lon="1.40211">
        <ele>18.046661376953</ele>
        <time>2013-09-22T08:35:06.000Z</time>
      </trkpt>
      <trkpt lat="49.15628" lon="1.40215">
        <ele>18.014623641968</ele>
        <time>2013-09-22T08:35:09.000Z</time>
      </trkpt>
      <trkpt lat="49.15624" lon="1.40218">
        <ele>17.973552703857</ele>
        <time>2013-09-22T08:35:11.000Z</time>
      </trkpt>
      <trkpt lat="49.15619" lon="1.40225">
        <ele>17.914308547974</ele>
        <time>2013-09-22T08:35:14.000Z</time>
      </trkpt>
      <trkpt lat="49.15613" lon="1.40231">
        <ele>17.840305328369</ele>
        <time>2013-09-22T08:35:17.000Z</time>
      </trkpt>
      <trkpt lat="49.15609" lon="1.40236">
        <ele>17.754735946655</ele>
        <time>2013-09-22T08:35:19.000Z</time>
      </trkpt>
      <trkpt lat="49.15602" lon="1.40243">
        <ele>17.63969039917</ele>
        <time>2013-09-22T08:35:22.000Z</time>
      </trkpt>
      <trkpt lat="49.15594" lon="1.40253">
        <ele>17.475883483887</ele>
        <time>2013-09-22T08:35:25.000Z</time>
      </trkpt>
      <trkpt lat="49.15589" lon="1.40258">
        <ele>17.297250747681</ele>
        <time>2013-09-22T08:35:27.000Z</time>
      </trkpt>
      <trkpt lat="49.15585" lon="1.40263">
        <ele>17.108699798584</ele>
        <time>2013-09-22T08:35:29.000Z</time>
      </trkpt>
      <trkpt lat="49.15578" lon="1.4027">
        <ele>16.921764373779</ele>
        <time>2013-09-22T08:35:32.000Z</time>
      </trkpt>
      <trkpt lat="49.15572" lon="1.40277">
        <ele>16.766414642334</ele>
        <time>2013-09-22T08:35:35.000Z</time>
      </trkpt>
      <trkpt lat="49.15567" lon="1.40282">
        <ele>16.669506072998</ele>
        <time>2013-09-22T08:35:37.000Z</time>
      </trkpt>
      <trkpt lat="49.15561" lon="1.40288">
        <ele>16.614141464233</ele>
        <time>2013-09-22T08:35:40.000Z</time>
      </trkpt>
      <trkpt lat="49.15557" lon="1.40294">
        <ele>16.592252731323</ele>
        <time>2013-09-22T08:35:42.000Z</time>
      </trkpt>
      <trkpt lat="49.15551" lon="1.40303">
        <ele>16.590518951416</ele>
        <time>2013-09-22T08:35:45.000Z</time>
      </trkpt>
      <trkpt lat="49.15547" lon="1.40311">
        <ele>16.598810195923</ele>
        <time>2013-09-22T08:35:48.000Z</time>
      </trkpt>
      <trkpt lat="49.15543" lon="1.40317">
        <ele>16.614887237549</ele>
        <time>2013-09-22T08:35:51.000Z</time>
      </trkpt>
      <trkpt lat="49.1554" lon="1.40322">
        <ele>16.634805679321</ele>
        <time>2013-09-22T08:35:53.000Z</time>
      </trkpt>
      <trkpt lat="49.15535" lon="1.4033">
        <ele>16.669313430786</ele>
        <time>2013-09-22T08:35:56.000Z</time>
      </trkpt>
      <trkpt lat="49.1553" lon="1.40337">
        <ele>16.731441497803</ele>
        <time>2013-09-22T08:35:59.000Z</time>
      </trkpt>
      <trkpt lat="49.15524" lon="1.40345">
        <ele>16.82314491272</ele>
        <time>2013-09-22T08:36:02.000Z</time>
      </trkpt>
      <trkpt lat="49.15519" lon="1.40351">
        <ele>16.933902740479</ele>
        <time>2013-09-22T08:36:04.000Z</time>
      </trkpt>
      <trkpt lat="49.15513" lon="1.40358">
        <ele>17.061491012573</ele>
        <time>2013-09-22T08:36:07.000Z</time>
      </trkpt>
      <trkpt lat="49.15508" lon="1.40365">
        <ele>17.189641952515</ele>
        <time>2013-09-22T08:36:10.000Z</time>
      </trkpt>
      <trkpt lat="49.15503" lon="1.40373">
        <ele>17.299169540405</ele>
        <time>2013-09-22T08:36:13.000Z</time>
      </trkpt>
      <trkpt lat="49.15496" lon="1.40381">
        <ele>17.430562973023</ele>
        <time>2013-09-22T08:36:16.000Z</time>
      </trkpt>
      <trkpt lat="49.15488" lon="1.40391">
        <ele>17.644971847534</ele>
        <time>2013-09-22T08:36:19.000Z</time>
      </trkpt>
      <trkpt lat="49.15483" lon="1.40396">
        <ele>17.909393310547</ele>
        <time>2013-09-22T08:36:21.000Z</time>
      </trkpt>
      <trkpt lat="49.15477" lon="1.40406">
        <ele>18.268657684326</ele>
        <time>2013-09-22T08:36:24.000Z</time>
      </trkpt>
      <trkpt lat="49.15471" lon="1.40415">
        <ele>18.741832733154</ele>
        <time>2013-09-22T08:36:27.000Z</time>
      </trkpt>
      <trkpt lat="49.15464" lon="1.40424">
        <ele>19.237049102783</ele>
        <time>2013-09-22T08:36:30.000Z</time>
      </trkpt>
      <trkpt lat="49.15459" lon="1.40431">
        <ele>19.661291122436</ele>
        <time>2013-09-22T08:36:32.000Z</time>
      </trkpt>
      <trkpt lat="49.15451" lon="1.40444">
        <ele>20.088056564331</ele>
        <time>2013-09-22T08:36:35.000Z</time>
      </trkpt>
      <trkpt lat="49.15444" lon="1.40458">
        <ele>20.454193115234</ele>
        <time>2013-09-22T08:36:38.000Z</time>
      </trkpt>
      <trkpt lat="49.15438" lon="1.40471">
        <ele>20.74457359314</ele>
        <time>2013-09-22T08:36:41.000Z</time>
      </trkpt>
      <trkpt lat="49.15432" lon="1.40484">
        <ele>21.025177001953</ele>
        <time>2013-09-22T08:36:44.000Z</time>
      </trkpt>
      <trkpt lat="49.15428" lon="1.40493">
        <ele>21.321166992188</ele>
        <time>2013-09-22T08:36:46.000Z</time>
      </trkpt>
      <trkpt lat="49.15422" lon="1.40506">
        <ele>21.597322463989</ele>
        <time>2013-09-22T08:36:49.000Z</time>
      </trkpt>
      <trkpt lat="49.15417" lon="1.40514">
        <ele>21.881767272949</ele>
        <time>2013-09-22T08:36:51.000Z</time>
      </trkpt>
      <trkpt lat="49.15411" lon="1.40523">
        <ele>22.074207305908</ele>
        <time>2013-09-22T08:36:54.000Z</time>
      </trkpt>
      <trkpt lat="49.15406" lon="1.40532">
        <ele>22.155826568604</ele>
        <time>2013-09-22T08:36:57.000Z</time>
      </trkpt>
      <trkpt lat="49.15405" lon="1.40535">
        <ele>22.166366577148</ele>
        <time>2013-09-22T08:37:00.000Z</time>
      </trkpt>
      <trkpt lat="49.15403" lon="1.40536">
        <ele>22.117486953735</ele>
        <time>2013-09-22T08:37:02.000Z</time>
      </trkpt>
      <trkpt lat="49.15402" lon="1.40538">
        <ele>22.003269195557</ele>
        <time>2013-09-22T08:37:05.000Z</time>
      </trkpt>
      <trkpt lat="49.15399" lon="1.40544">
        <ele>21.901550292969</ele>
        <time>2013-09-22T08:37:08.000Z</time>
      </trkpt>
      <trkpt lat="49.15395" lon="1.40555">
        <ele>21.787782669067</ele>
        <time>2013-09-22T08:37:11.000Z</time>
      </trkpt>
      <trkpt lat="49.15393" lon="1.40561">
        <ele>21.661699295044</ele>
        <time>2013-09-22T08:37:14.000Z</time>
      </trkpt>
      <trkpt lat="49.1539" lon="1.40563">
        <ele>21.533584594727</ele>
        <time>2013-09-22T08:37:16.000Z</time>
      </trkpt>
      <trkpt lat="49.15388" lon="1.40566">
        <ele>21.407876968384</ele>
        <time>2013-09-22T08:37:18.000Z</time>
      </trkpt>
      <trkpt lat="49.15385" lon="1.40569">
        <ele>21.303218841553</ele>
        <time>2013-09-22T08:37:20.000Z</time>
      </trkpt>
      <trkpt lat="49.15384" lon="1.40573">
        <ele>21.235454559326</ele>
        <time>2013-09-22T08:37:22.000Z</time>
      </trkpt>
      <trkpt lat="49.15382" lon="1.40577">
        <ele>21.178600311279</ele>
        <time>2013-09-22T08:37:25.000Z</time>
      </trkpt>
      <trkpt lat="49.1538" lon="1.40579">
        <ele>21.123294830322</ele>
        <time>2013-09-22T08:37:28.000Z</time>
      </trkpt>
      <trkpt lat="49.15379" lon="1.40579">
        <ele>21.076637268066</ele>
        <time>2013-09-22T08:37:31.000Z</time>
      </trkpt>
      <trkpt lat="49.15378" lon="1.40579">
        <ele>21.044563293457</ele>
        <time>2013-09-22T08:37:34.000Z</time>
      </trkpt>
      <trkpt lat="49.1538" lon="1.40578">
        <ele>21.034656524658</ele>
        <time>2013-09-22T08:37:37.000Z</time>
      </trkpt>
      <trkpt lat="49.15382" lon="1.40578">
        <ele>21.025583267212</ele>
        <time>2013-09-22T08:37:40.000Z</time>
      </trkpt>
      <trkpt lat="49.15382" lon="1.40581">
        <ele>21.00673866272</ele>
        <time>2013-09-22T08:37:43.000Z</time>
      </trkpt>
      <trkpt lat="49.15381" lon="1.40583">
        <ele>20.977550506592</ele>
        <time>2013-09-22T08:37:47.000Z</time>
      </trkpt>
      <trkpt lat="49.15375" lon="1.40584">
        <ele>20.957941055298</ele>
        <time>2013-09-22T08:37:50.000Z</time>
      </trkpt>
      <trkpt lat="49.15366" lon="1.40591">
        <ele>20.916860580444</ele>
        <time>2013-09-22T08:37:53.000Z</time>
      </trkpt>
      <trkpt lat="49.15359" lon="1.40599">
        <ele>20.849060058594</ele>
        <time>2013-09-22T08:37:56.000Z</time>
      </trkpt>
      <trkpt lat="49.15354" lon="1.40605">
        <ele>20.762771606445</ele>
        <time>2013-09-22T08:37:59.000Z</time>
      </trkpt>
      <trkpt lat="49.15351" lon="1.40608">
        <ele>20.660766601562</ele>
        <time>2013-09-22T08:38:01.000Z</time>
      </trkpt>
      <trkpt lat="49.1535" lon="1.4061">
        <ele>20.537109375</ele>
        <time>2013-09-22T08:38:03.000Z</time>
      </trkpt>
      <trkpt lat="49.15348" lon="1.40611">
        <ele>20.426025390625</ele>
        <time>2013-09-22T08:38:06.000Z</time>
      </trkpt>
      <trkpt lat="49.15347" lon="1.40611">
        <ele>20.367797851562</ele>
        <time>2013-09-22T08:38:13.000Z</time>
      </trkpt>
      <trkpt lat="49.15345" lon="1.40612">
        <ele>20.336303710938</ele>
        <time>2013-09-22T08:38:15.000Z</time>
      </trkpt>
      <trkpt lat="49.15344" lon="1.40614">
        <ele>20.320922851562</ele>
        <time>2013-09-22T08:38:17.000Z</time>
      </trkpt>
      <trkpt lat="49.15347" lon="1.40609">
        <ele>20.343627929688</ele>
        <time>2013-09-22T08:38:27.000Z</time>
      </trkpt>
      <trkpt lat="49.15347" lon="1.40609">
        <ele>20.343627929688</ele>
        <time>2013-09-22T08:38:47.000Z</time>
      </trkpt>
      <trkpt lat="49.15348" lon="1.40614">
        <ele>20.3212890625</ele>
        <time>2013-09-22T08:39:02.000Z</time>
      </trkpt>
      <trkpt lat="49.1535" lon="1.40613">
        <ele>20.28369140625</ele>
        <time>2013-09-22T08:39:18.000Z</time>
      </trkpt>
      <trkpt lat="49.15351" lon="1.40613">
        <ele>20.245239257812</ele>
        <time>2013-09-22T08:39:34.000Z</time>
      </trkpt>
      <trkpt lat="49.15351" lon="1.40615">
        <ele>20.197265625</ele>
        <time>2013-09-22T08:39:53.000Z</time>
      </trkpt>
      <trkpt lat="49.1535" lon="1.40613">
        <ele>20.138305664062</ele>
        <time>2013-09-22T08:40:04.000Z</time>
      </trkpt>
      <trkpt lat="49.15351" lon="1.40612">
        <ele>20.135620117188</ele>
        <time>2013-09-22T08:40:08.000Z</time>
      </trkpt>
      <trkpt lat="49.15352" lon="1.40613">
        <ele>20.132446289062</ele>
        <time>2013-09-22T08:40:12.000Z</time>
      </trkpt>
      <trkpt lat="49.15351" lon="1.40612">
        <ele>20.144897460938</ele>
        <time>2013-09-22T08:40:23.000Z</time>
      </trkpt>
      <trkpt lat="49.15355" lon="1.40611">
        <ele>20.1650390625</ele>
        <time>2013-09-22T08:40:31.000Z</time>
      </trkpt>
      <trkpt lat="49.15357" lon="1.40609">
        <ele>20.1796875</ele>
        <time>2013-09-22T08:40:47.000Z</time>
      </trkpt>
      <trkpt lat="49.15357" lon="1.40606">
        <ele>20.217895507812</ele>
        <time>2013-09-22T08:41:00.000Z</time>
      </trkpt>
      <trkpt lat="49.15355" lon="1.40603">
        <ele>20.295532226562</ele>
        <time>2013-09-22T08:41:05.000Z</time>
      </trkpt>
      <trkpt lat="49.15355" lon="1.40601">
        <ele>20.379760742188</ele>
        <time>2013-09-22T08:41:21.000Z</time>
      </trkpt>
      <trkpt lat="49.15353" lon="1.40602">
        <ele>20.472290039062</ele>
        <time>2013-09-22T08:41:30.000Z</time>
      </trkpt>
      <trkpt lat="49.15349" lon="1.40603">
        <ele>20.561279296875</ele>
        <time>2013-09-22T08:41:32.000Z</time>
      </trkpt>
      <trkpt lat="49.15343" lon="1.40607">
        <ele>20.61279296875</ele>
        <time>2013-09-22T08:41:34.000Z</time>
      </trkpt>
      <trkpt lat="49.15335" lon="1.40619">
        <ele>20.559326171875</ele>
        <time>2013-09-22T08:41:37.000Z</time>
      </trkpt>
      <trkpt lat="49.15324" lon="1.40629">
        <ele>20.392553329468</ele>
        <time>2013-09-22T08:41:40.000Z</time>
      </trkpt>
      <trkpt lat="49.15318" lon="1.40635">
        <ele>20.168407440186</ele>
        <time>2013-09-22T08:41:42.000Z</time>
      </trkpt>
      <trkpt lat="49.15311" lon="1.40642">
        <ele>19.871021270752</ele>
        <time>2013-09-22T08:41:44.000Z</time>
      </trkpt>
      <trkpt lat="49.15305" lon="1.4065">
        <ele>19.506006240845</ele>
        <time>2013-09-22T08:41:46.000Z</time>
      </trkpt>
      <trkpt lat="49.15293" lon="1.40663">
        <ele>19.092407226562</ele>
        <time>2013-09-22T08:41:49.000Z</time>
      </trkpt>
      <trkpt lat="49.15285" lon="1.40671">
        <ele>18.69384765625</ele>
        <time>2013-09-22T08:41:51.000Z</time>
      </trkpt>
      <trkpt lat="49.15277" lon="1.40677">
        <ele>18.290771484375</ele>
        <time>2013-09-22T08:41:53.000Z</time>
      </trkpt>
      <trkpt lat="49.15266" lon="1.40689">
        <ele>17.836547851562</ele>
        <time>2013-09-22T08:41:56.000Z</time>
      </trkpt>
      <trkpt lat="49.15261" lon="1.40695">
        <ele>17.401489257812</ele>
        <time>2013-09-22T08:41:58.000Z</time>
      </trkpt>
      <trkpt lat="49.15251" lon="1.40706">
        <ele>16.983520507812</ele>
        <time>2013-09-22T08:42:01.000Z</time>
      </trkpt>
      <trkpt lat="49.15239" lon="1.40718">
        <ele>16.617301940918</ele>
        <time>2013-09-22T08:42:04.000Z</time>
      </trkpt>
      <trkpt lat="49.15226" lon="1.40731">
        <ele>16.314626693726</ele>
        <time>2013-09-22T08:42:07.000Z</time>
      </trkpt>
      <trkpt lat="49.15213" lon="1.40744">
        <ele>16.130815505981</ele>
        <time>2013-09-22T08:42:10.000Z</time>
      </trkpt>
      <trkpt lat="49.15201" lon="1.40757">
        <ele>16.073299407959</ele>
        <time>2013-09-22T08:42:13.000Z</time>
      </trkpt>
      <trkpt lat="49.15193" lon="1.40765">
        <ele>16.187879562378</ele>
        <time>2013-09-22T08:42:15.000Z</time>
      </trkpt>
      <trkpt lat="49.15181" lon="1.40774">
        <ele>16.422527313232</ele>
        <time>2013-09-22T08:42:18.000Z</time>
      </trkpt>
      <trkpt lat="49.15173" lon="1.4078">
        <ele>16.711826324463</ele>
        <time>2013-09-22T08:42:20.000Z</time>
      </trkpt>
      <trkpt lat="49.15164" lon="1.40786">
        <ele>17.042224884033</ele>
        <time>2013-09-22T08:42:22.000Z</time>
      </trkpt>
      <trkpt lat="49.15153" lon="1.40796">
        <ele>17.346769332886</ele>
        <time>2013-09-22T08:42:25.000Z</time>
      </trkpt>
      <trkpt lat="49.15145" lon="1.40803">
        <ele>17.602054595947</ele>
        <time>2013-09-22T08:42:27.000Z</time>
      </trkpt>
      <trkpt lat="49.15133" lon="1.40818">
        <ele>17.786151885986</ele>
        <time>2013-09-22T08:42:30.000Z</time>
      </trkpt>
      <trkpt lat="49.15125" lon="1.40827">
        <ele>17.927570343018</ele>
        <time>2013-09-22T08:42:32.000Z</time>
      </trkpt>
      <trkpt lat="49.15117" lon="1.40835">
        <ele>18.03196144104</ele>
        <time>2013-09-22T08:42:34.000Z</time>
      </trkpt>
      <trkpt lat="49.15105" lon="1.40845">
        <ele>18.130838394165</ele>
        <time>2013-09-22T08:42:37.000Z</time>
      </trkpt>
      <trkpt lat="49.15094" lon="1.40854">
        <ele>18.26703453064</ele>
        <time>2013-09-22T08:42:40.000Z</time>
      </trkpt>
      <trkpt lat="49.15081" lon="1.40864">
        <ele>18.462064743042</ele>
        <time>2013-09-22T08:42:43.000Z</time>
      </trkpt>
      <trkpt lat="49.1507" lon="1.40871">
        <ele>18.670816421509</ele>
        <time>2013-09-22T08:42:46.000Z</time>
      </trkpt>
      <trkpt lat="49.15061" lon="1.40877">
        <ele>18.891881942749</ele>
        <time>2013-09-22T08:42:48.000Z</time>
      </trkpt>
      <trkpt lat="49.15048" lon="1.4089">
        <ele>19.105670928955</ele>
        <time>2013-09-22T08:42:51.000Z</time>
      </trkpt>
      <trkpt lat="49.15036" lon="1.40899">
        <ele>19.2919921875</ele>
        <time>2013-09-22T08:42:54.000Z</time>
      </trkpt>
      <trkpt lat="49.15031" lon="1.40905">
        <ele>19.41015625</ele>
        <time>2013-09-22T08:42:56.000Z</time>
      </trkpt>
      <trkpt lat="49.15019" lon="1.40912">
        <ele>19.53125</ele>
        <time>2013-09-22T08:42:59.000Z</time>
      </trkpt>
      <trkpt lat="49.15009" lon="1.40919">
        <ele>19.64107131958</ele>
        <time>2013-09-22T08:43:02.000Z</time>
      </trkpt>
      <trkpt lat="49.14999" lon="1.4093">
        <ele>19.690082550049</ele>
        <time>2013-09-22T08:43:05.000Z</time>
      </trkpt>
      <trkpt lat="49.14987" lon="1.40942">
        <ele>19.644273757935</ele>
        <time>2013-09-22T08:43:08.000Z</time>
      </trkpt>
      <trkpt lat="49.14978" lon="1.40947">
        <ele>19.55993270874</ele>
        <time>2013-09-22T08:43:10.000Z</time>
      </trkpt>
      <trkpt lat="49.14965" lon="1.40954">
        <ele>19.416692733765</ele>
        <time>2013-09-22T08:43:13.000Z</time>
      </trkpt>
      <trkpt lat="49.14956" lon="1.40961">
        <ele>19.246131896973</ele>
        <time>2013-09-22T08:43:15.000Z</time>
      </trkpt>
      <trkpt lat="49.14944" lon="1.40972">
        <ele>19.090488433838</ele>
        <time>2013-09-22T08:43:18.000Z</time>
      </trkpt>
      <trkpt lat="49.14936" lon="1.4098">
        <ele>18.998388290405</ele>
        <time>2013-09-22T08:43:20.000Z</time>
      </trkpt>
      <trkpt lat="49.14925" lon="1.40993">
        <ele>18.941051483154</ele>
        <time>2013-09-22T08:43:23.000Z</time>
      </trkpt>
      <trkpt lat="49.14913" lon="1.41006">
        <ele>18.901243209839</ele>
        <time>2013-09-22T08:43:26.000Z</time>
      </trkpt>
      <trkpt lat="49.14908" lon="1.41014">
        <ele>18.839288711548</ele>
        <time>2013-09-22T08:43:28.000Z</time>
      </trkpt>
      <trkpt lat="49.14901" lon="1.41023">
        <ele>18.769393920898</ele>
        <time>2013-09-22T08:43:30.000Z</time>
      </trkpt>
      <trkpt lat="49.14893" lon="1.41029">
        <ele>18.729948043823</ele>
        <time>2013-09-22T08:43:32.000Z</time>
      </trkpt>
      <trkpt lat="49.14881" lon="1.41038">
        <ele>18.71722984314</ele>
        <time>2013-09-22T08:43:35.000Z</time>
      </trkpt>
      <trkpt lat="49.1487" lon="1.4105">
        <ele>18.735376358032</ele>
        <time>2013-09-22T08:43:38.000Z</time>
      </trkpt>
      <trkpt lat="49.14857" lon="1.41061">
        <ele>18.857553482056</ele>
        <time>2013-09-22T08:43:41.000Z</time>
      </trkpt>
      <trkpt lat="49.14846" lon="1.41071">
        <ele>19.065176010132</ele>
        <time>2013-09-22T08:43:44.000Z</time>
      </trkpt>
      <trkpt lat="49.14835" lon="1.41081">
        <ele>19.323589324951</ele>
        <time>2013-09-22T08:43:47.000Z</time>
      </trkpt>
      <trkpt lat="49.14828" lon="1.41089">
        <ele>19.561901092529</ele>
        <time>2013-09-22T08:43:49.000Z</time>
      </trkpt>
      <trkpt lat="49.14819" lon="1.411">
        <ele>19.780506134033</ele>
        <time>2013-09-22T08:43:52.000Z</time>
      </trkpt>
      <trkpt lat="49.14812" lon="1.41108">
        <ele>19.935857772827</ele>
        <time>2013-09-22T08:43:54.000Z</time>
      </trkpt>
      <trkpt lat="49.14803" lon="1.41124">
        <ele>19.98198890686</ele>
        <time>2013-09-22T08:43:57.000Z</time>
      </trkpt>
      <trkpt lat="49.14795" lon="1.41139">
        <ele>19.898057937622</ele>
        <time>2013-09-22T08:43:59.000Z</time>
      </trkpt>
      <trkpt lat="49.14782" lon="1.41159">
        <ele>19.72146987915</ele>
        <time>2013-09-22T08:44:02.000Z</time>
      </trkpt>
      <trkpt lat="49.14771" lon="1.41175">
        <ele>19.501287460327</ele>
        <time>2013-09-22T08:44:05.000Z</time>
      </trkpt>
      <trkpt lat="49.14759" lon="1.41192">
        <ele>19.202604293823</ele>
        <time>2013-09-22T08:44:08.000Z</time>
      </trkpt>
      <trkpt lat="49.14751" lon="1.41204">
        <ele>18.879055023193</ele>
        <time>2013-09-22T08:44:10.000Z</time>
      </trkpt>
      <trkpt lat="49.1474" lon="1.41221">
        <ele>18.532369613648</ele>
        <time>2013-09-22T08:44:13.000Z</time>
      </trkpt>
      <trkpt lat="49.14732" lon="1.41231">
        <ele>18.225833892822</ele>
        <time>2013-09-22T08:44:15.000Z</time>
      </trkpt>
      <trkpt lat="49.1472" lon="1.41246">
        <ele>17.891357421875</ele>
        <time>2013-09-22T08:44:18.000Z</time>
      </trkpt>
      <trkpt lat="49.14708" lon="1.41263">
        <ele>17.602993011475</ele>
        <time>2013-09-22T08:44:21.000Z</time>
      </trkpt>
      <trkpt lat="49.14699" lon="1.41278">
        <ele>17.355792999268</ele>
        <time>2013-09-22T08:44:24.000Z</time>
      </trkpt>
      <trkpt lat="49.14688" lon="1.41294">
        <ele>17.149820327759</ele>
        <time>2013-09-22T08:44:27.000Z</time>
      </trkpt>
      <trkpt lat="49.14683" lon="1.41303">
        <ele>16.95418548584</ele>
        <time>2013-09-22T08:44:29.000Z</time>
      </trkpt>
      <trkpt lat="49.14676" lon="1.4131">
        <ele>16.814180374146</ele>
        <time>2013-09-22T08:44:31.000Z</time>
      </trkpt>
      <trkpt lat="49.14667" lon="1.41323">
        <ele>16.667190551758</ele>
        <time>2013-09-22T08:44:34.000Z</time>
      </trkpt>
      <trkpt lat="49.14657" lon="1.41334">
        <ele>16.524591445923</ele>
        <time>2013-09-22T08:44:37.000Z</time>
      </trkpt>
      <trkpt lat="49.14647" lon="1.41346">
        <ele>16.539953231811</ele>
        <time>2013-09-22T08:44:40.000Z</time>
      </trkpt>
      <trkpt lat="49.14636" lon="1.41359">
        <ele>16.668088912964</ele>
        <time>2013-09-22T08:44:43.000Z</time>
      </trkpt>
      <trkpt lat="49.14629" lon="1.41367">
        <ele>16.839092254639</ele>
        <time>2013-09-22T08:44:45.000Z</time>
      </trkpt>
      <trkpt lat="49.14622" lon="1.41375">
        <ele>17.057075500488</ele>
        <time>2013-09-22T08:44:47.000Z</time>
      </trkpt>
      <trkpt lat="49.14616" lon="1.4138">
        <ele>17.292095184326</ele>
        <time>2013-09-22T08:44:49.000Z</time>
      </trkpt>
      <trkpt lat="49.14608" lon="1.41389">
        <ele>17.371387481689</ele>
        <time>2013-09-22T08:44:52.000Z</time>
      </trkpt>
      <trkpt lat="49.14602" lon="1.41396">
        <ele>17.327663421631</ele>
        <time>2013-09-22T08:44:54.000Z</time>
      </trkpt>
      <trkpt lat="49.14595" lon="1.41405">
        <ele>17.185848236084</ele>
        <time>2013-09-22T08:44:57.000Z</time>
      </trkpt>
      <trkpt lat="49.14589" lon="1.41411">
        <ele>16.967700958252</ele>
        <time>2013-09-22T08:44:59.000Z</time>
      </trkpt>
      <trkpt lat="49.14581" lon="1.4142">
        <ele>16.714385986328</ele>
        <time>2013-09-22T08:45:02.000Z</time>
      </trkpt>
      <trkpt lat="49.14574" lon="1.41427">
        <ele>16.551555633545</ele>
        <time>2013-09-22T08:45:04.000Z</time>
      </trkpt>
      <trkpt lat="49.14564" lon="1.41437">
        <ele>16.50573348999</ele>
        <time>2013-09-22T08:45:07.000Z</time>
      </trkpt>
      <trkpt lat="49.14553" lon="1.4145">
        <ele>16.617483139038</ele>
        <time>2013-09-22T08:45:10.000Z</time>
      </trkpt>
      <trkpt lat="49.14544" lon="1.41459">
        <ele>16.845867156982</ele>
        <time>2013-09-22T08:45:13.000Z</time>
      </trkpt>
      <trkpt lat="49.14532" lon="1.41472">
        <ele>17.172319412231</ele>
        <time>2013-09-22T08:45:16.000Z</time>
      </trkpt>
      <trkpt lat="49.14521" lon="1.41486">
        <ele>17.483030319214</ele>
        <time>2013-09-22T08:45:19.000Z</time>
      </trkpt>
      <trkpt lat="49.14511" lon="1.415">
        <ele>17.740606307983</ele>
        <time>2013-09-22T08:45:22.000Z</time>
      </trkpt>
      <trkpt lat="49.14502" lon="1.41513">
        <ele>17.861246109009</ele>
        <time>2013-09-22T08:45:25.000Z</time>
      </trkpt>
      <trkpt lat="49.14494" lon="1.41526">
        <ele>17.868015289307</ele>
        <time>2013-09-22T08:45:28.000Z</time>
      </trkpt>
      <trkpt lat="49.14487" lon="1.41536">
        <ele>17.759576797485</ele>
        <time>2013-09-22T08:45:31.000Z</time>
      </trkpt>
      <trkpt lat="49.14477" lon="1.41545">
        <ele>17.542078018189</ele>
        <time>2013-09-22T08:45:34.000Z</time>
      </trkpt>
      <trkpt lat="49.14468" lon="1.41553">
        <ele>17.238842010498</ele>
        <time>2013-09-22T08:45:37.000Z</time>
      </trkpt>
      <trkpt lat="49.14458" lon="1.41559">
        <ele>16.920593261719</ele>
        <time>2013-09-22T08:45:40.000Z</time>
      </trkpt>
      <trkpt lat="49.1445" lon="1.41565">
        <ele>16.615478515625</ele>
        <time>2013-09-22T08:45:42.000Z</time>
      </trkpt>
      <trkpt lat="49.14439" lon="1.41568">
        <ele>16.3095703125</ele>
        <time>2013-09-22T08:45:45.000Z</time>
      </trkpt>
      <trkpt lat="49.14431" lon="1.41574">
        <ele>16.017883300781</ele>
        <time>2013-09-22T08:45:48.000Z</time>
      </trkpt>
      <trkpt lat="49.14428" lon="1.41577">
        <ele>15.762145996094</ele>
        <time>2013-09-22T08:45:50.000Z</time>
      </trkpt>
      <trkpt lat="49.14423" lon="1.41581">
        <ele>15.540161132812</ele>
        <time>2013-09-22T08:45:53.000Z</time>
      </trkpt>
      <trkpt lat="49.14417" lon="1.41586">
        <ele>15.35262298584</ele>
        <time>2013-09-22T08:45:55.000Z</time>
      </trkpt>
      <trkpt lat="49.14404" lon="1.41605">
        <ele>15.372039794922</ele>
        <time>2013-09-22T08:45:58.000Z</time>
      </trkpt>
      <trkpt lat="49.14394" lon="1.41624">
        <ele>15.549530029297</ele>
        <time>2013-09-22T08:46:01.000Z</time>
      </trkpt>
      <trkpt lat="49.14388" lon="1.41633">
        <ele>15.785510063171</ele>
        <time>2013-09-22T08:46:03.000Z</time>
      </trkpt>
      <trkpt lat="49.14375" lon="1.41643">
        <ele>16.06428527832</ele>
        <time>2013-09-22T08:46:06.000Z</time>
      </trkpt>
      <trkpt lat="49.14358" lon="1.41652">
        <ele>16.335102081299</ele>
        <time>2013-09-22T08:46:09.000Z</time>
      </trkpt>
      <trkpt lat="49.14341" lon="1.41663">
        <ele>16.406768798828</ele>
        <time>2013-09-22T08:46:12.000Z</time>
      </trkpt>
      <trkpt lat="49.14331" lon="1.41667">
        <ele>16.342559814453</ele>
        <time>2013-09-22T08:46:14.000Z</time>
      </trkpt>
      <trkpt lat="49.14316" lon="1.41676">
        <ele>16.260021209717</ele>
        <time>2013-09-22T08:46:17.000Z</time>
      </trkpt>
      <trkpt lat="49.14302" lon="1.41684">
        <ele>16.179946899414</ele>
        <time>2013-09-22T08:46:20.000Z</time>
      </trkpt>
      <trkpt lat="49.14292" lon="1.41688">
        <ele>16.140279769898</ele>
        <time>2013-09-22T08:46:22.000Z</time>
      </trkpt>
      <trkpt lat="49.14273" lon="1.41694">
        <ele>16.185638427734</ele>
        <time>2013-09-22T08:46:25.000Z</time>
      </trkpt>
      <trkpt lat="49.14259" lon="1.417">
        <ele>16.278228759766</ele>
        <time>2013-09-22T08:46:28.000Z</time>
      </trkpt>
      <trkpt lat="49.14248" lon="1.41706">
        <ele>16.360284805298</ele>
        <time>2013-09-22T08:46:30.000Z</time>
      </trkpt>
      <trkpt lat="49.14231" lon="1.41715">
        <ele>16.391292572021</ele>
        <time>2013-09-22T08:46:33.000Z</time>
      </trkpt>
      <trkpt lat="49.14219" lon="1.41722">
        <ele>16.384338378906</ele>
        <time>2013-09-22T08:46:35.000Z</time>
      </trkpt>
      <trkpt lat="49.14202" lon="1.41734">
        <ele>16.321355819702</ele>
        <time>2013-09-22T08:46:38.000Z</time>
      </trkpt>
      <trkpt lat="49.1419" lon="1.41742">
        <ele>16.229709625244</ele>
        <time>2013-09-22T08:46:40.000Z</time>
      </trkpt>
      <trkpt lat="49.14176" lon="1.41756">
        <ele>16.127048492432</ele>
        <time>2013-09-22T08:46:43.000Z</time>
      </trkpt>
      <trkpt lat="49.14163" lon="1.41769">
        <ele>16.145782470703</ele>
        <time>2013-09-22T08:46:46.000Z</time>
      </trkpt>
      <trkpt lat="49.14149" lon="1.41784">
        <ele>16.414239883423</ele>
        <time>2013-09-22T08:46:49.000Z</time>
      </trkpt>
      <trkpt lat="49.14135" lon="1.41799">
        <ele>16.810031890869</ele>
        <time>2013-09-22T08:46:52.000Z</time>
      </trkpt>
      <trkpt lat="49.14127" lon="1.41809">
        <ele>17.210983276367</ele>
        <time>2013-09-22T08:46:54.000Z</time>
      </trkpt>
      <trkpt lat="49.14114" lon="1.41821">
        <ele>17.539772033691</ele>
        <time>2013-09-22T08:46:57.000Z</time>
      </trkpt>
      <trkpt lat="49.14102" lon="1.41835">
        <ele>17.602554321289</ele>
        <time>2013-09-22T08:47:00.000Z</time>
      </trkpt>
      <trkpt lat="49.14092" lon="1.41848">
        <ele>17.402946472168</ele>
        <time>2013-09-22T08:47:03.000Z</time>
      </trkpt>
      <trkpt lat="49.14084" lon="1.41856">
        <ele>17.079021453857</ele>
        <time>2013-09-22T08:47:06.000Z</time>
      </trkpt>
      <trkpt lat="49.14076" lon="1.41864">
        <ele>16.974336624146</ele>
        <time>2013-09-22T08:47:09.000Z</time>
      </trkpt>
      <trkpt lat="49.14072" lon="1.41869">
        <ele>17.045906066894</ele>
        <time>2013-09-22T08:47:11.000Z</time>
      </trkpt>
      <trkpt lat="49.14069" lon="1.41877">
        <ele>17.291187286377</ele>
        <time>2013-09-22T08:47:13.000Z</time>
      </trkpt>
      <trkpt lat="49.14061" lon="1.41887">
        <ele>17.647663116455</ele>
        <time>2013-09-22T08:47:15.000Z</time>
      </trkpt>
      <trkpt lat="49.14052" lon="1.41898">
        <ele>18.062368392944</ele>
        <time>2013-09-22T08:47:18.000Z</time>
      </trkpt>
      <trkpt lat="49.14043" lon="1.41907">
        <ele>18.244409561157</ele>
        <time>2013-09-22T08:47:21.000Z</time>
      </trkpt>
      <trkpt lat="49.14035" lon="1.41917">
        <ele>18.228496551514</ele>
        <time>2013-09-22T08:47:24.000Z</time>
      </trkpt>
      <trkpt lat="49.14027" lon="1.41924">
        <ele>18.27597618103</ele>
        <time>2013-09-22T08:47:27.000Z</time>
      </trkpt>
      <trkpt lat="49.14018" lon="1.41933">
        <ele>18.289653778076</ele>
        <time>2013-09-22T08:47:30.000Z</time>
      </trkpt>
      <trkpt lat="49.14011" lon="1.41938">
        <ele>18.289287567139</ele>
        <time>2013-09-22T08:47:32.000Z</time>
      </trkpt>
      <trkpt lat="49.14001" lon="1.41947">
        <ele>18.305627822876</ele>
        <time>2013-09-22T08:47:35.000Z</time>
      </trkpt>
      <trkpt lat="49.13996" lon="1.41958">
        <ele>18.409450531006</ele>
        <time>2013-09-22T08:47:38.000Z</time>
      </trkpt>
      <trkpt lat="49.13991" lon="1.41973">
        <ele>18.386123657227</ele>
        <time>2013-09-22T08:47:41.000Z</time>
      </trkpt>
      <trkpt lat="49.13989" lon="1.41991">
        <ele>18.148975372314</ele>
        <time>2013-09-22T08:47:44.000Z</time>
      </trkpt>
      <trkpt lat="49.13984" lon="1.42003">
        <ele>17.811834335327</ele>
        <time>2013-09-22T08:47:47.000Z</time>
      </trkpt>
      <trkpt lat="49.13977" lon="1.42011">
        <ele>17.491840362549</ele>
        <time>2013-09-22T08:47:50.000Z</time>
      </trkpt>
      <trkpt lat="49.13972" lon="1.4202">
        <ele>17.167062759399</ele>
        <time>2013-09-22T08:47:53.000Z</time>
      </trkpt>
      <trkpt lat="49.13967" lon="1.42031">
        <ele>16.863620758057</ele>
        <time>2013-09-22T08:47:56.000Z</time>
      </trkpt>
      <trkpt lat="49.13961" lon="1.42037">
        <ele>16.734380722046</ele>
        <time>2013-09-22T08:47:59.000Z</time>
      </trkpt>
      <trkpt lat="49.1395" lon="1.42046">
        <ele>16.714584350586</ele>
        <time>2013-09-22T08:48:02.000Z</time>
      </trkpt>
      <trkpt lat="49.13935" lon="1.42054">
        <ele>16.723852157593</ele>
        <time>2013-09-22T08:48:05.000Z</time>
      </trkpt>
      <trkpt lat="49.13924" lon="1.42058">
        <ele>16.796112060547</ele>
        <time>2013-09-22T08:48:07.000Z</time>
      </trkpt>
      <trkpt lat="49.13907" lon="1.42072">
        <ele>16.908548355102</ele>
        <time>2013-09-22T08:48:10.000Z</time>
      </trkpt>
      <trkpt lat="49.13891" lon="1.42087">
        <ele>16.92151260376</ele>
        <time>2013-09-22T08:48:13.000Z</time>
      </trkpt>
      <trkpt lat="49.13877" lon="1.42103">
        <ele>16.758672714233</ele>
        <time>2013-09-22T08:48:16.000Z</time>
      </trkpt>
      <trkpt lat="49.13865" lon="1.42118">
        <ele>16.387222290039</ele>
        <time>2013-09-22T08:48:19.000Z</time>
      </trkpt>
      <trkpt lat="49.13854" lon="1.42135">
        <ele>15.771380424499</ele>
        <time>2013-09-22T08:48:22.000Z</time>
      </trkpt>
      <trkpt lat="49.13847" lon="1.42144">
        <ele>15.054260253906</ele>
        <time>2013-09-22T08:48:24.000Z</time>
      </trkpt>
      <trkpt lat="49.13841" lon="1.42153">
        <ele>14.324064254761</ele>
        <time>2013-09-22T08:48:26.000Z</time>
      </trkpt>
      <trkpt lat="49.13836" lon="1.4216">
        <ele>13.635446548462</ele>
        <time>2013-09-22T08:48:28.000Z</time>
      </trkpt>
      <trkpt lat="49.13829" lon="1.42169">
        <ele>13.055961608887</ele>
        <time>2013-09-22T08:48:30.000Z</time>
      </trkpt>
      <trkpt lat="49.1382" lon="1.42181">
        <ele>12.709290504456</ele>
        <time>2013-09-22T08:48:33.000Z</time>
      </trkpt>
      <trkpt lat="49.1381" lon="1.42193">
        <ele>12.512665748596</ele>
        <time>2013-09-22T08:48:36.000Z</time>
      </trkpt>
      <trkpt lat="49.13804" lon="1.422">
        <ele>12.442321777344</ele>
        <time>2013-09-22T08:48:38.000Z</time>
      </trkpt>
      <trkpt lat="49.13795" lon="1.42213">
        <ele>12.46075630188</ele>
        <time>2013-09-22T08:48:41.000Z</time>
      </trkpt>
      <trkpt lat="49.13787" lon="1.42222">
        <ele>12.536540985107</ele>
        <time>2013-09-22T08:48:44.000Z</time>
      </trkpt>
      <trkpt lat="49.13779" lon="1.42229">
        <ele>12.599626541138</ele>
        <time>2013-09-22T08:48:46.000Z</time>
      </trkpt>
      <trkpt lat="49.1377" lon="1.42238">
        <ele>12.637563705444</ele>
        <time>2013-09-22T08:48:49.000Z</time>
      </trkpt>
      <trkpt lat="49.13757" lon="1.42253">
        <ele>12.629903793335</ele>
        <time>2013-09-22T08:48:52.000Z</time>
      </trkpt>
      <trkpt lat="49.13749" lon="1.42265">
        <ele>12.616844177246</ele>
        <time>2013-09-22T08:48:54.000Z</time>
      </trkpt>
      <trkpt lat="49.13742" lon="1.42282">
        <ele>12.562779426575</ele>
        <time>2013-09-22T08:48:57.000Z</time>
      </trkpt>
      <trkpt lat="49.13734" lon="1.42295">
        <ele>12.471575736999</ele>
        <time>2013-09-22T08:49:00.000Z</time>
      </trkpt>
      <trkpt lat="49.1373" lon="1.42304">
        <ele>12.343587875366</ele>
        <time>2013-09-22T08:49:02.000Z</time>
      </trkpt>
      <trkpt lat="49.13722" lon="1.42319">
        <ele>12.202352523804</ele>
        <time>2013-09-22T08:49:05.000Z</time>
      </trkpt>
      <trkpt lat="49.13717" lon="1.42329">
        <ele>12.052690505981</ele>
        <time>2013-09-22T08:49:07.000Z</time>
      </trkpt>
      <trkpt lat="49.13709" lon="1.42344">
        <ele>11.960865974426</ele>
        <time>2013-09-22T08:49:10.000Z</time>
      </trkpt>
      <trkpt lat="49.13703" lon="1.42355">
        <ele>11.91802406311</ele>
        <time>2013-09-22T08:49:12.000Z</time>
      </trkpt>
      <trkpt lat="49.13696" lon="1.42364">
        <ele>11.943331718445</ele>
        <time>2013-09-22T08:49:14.000Z</time>
      </trkpt>
      <trkpt lat="49.1369" lon="1.42373">
        <ele>12.045370101929</ele>
        <time>2013-09-22T08:49:16.000Z</time>
      </trkpt>
      <trkpt lat="49.13683" lon="1.42384">
        <ele>12.222076416016</ele>
        <time>2013-09-22T08:49:19.000Z</time>
      </trkpt>
      <trkpt lat="49.13678" lon="1.42393">
        <ele>12.406402587891</ele>
        <time>2013-09-22T08:49:21.000Z</time>
      </trkpt>
      <trkpt lat="49.13668" lon="1.42409">
        <ele>12.611236572266</ele>
        <time>2013-09-22T08:49:24.000Z</time>
      </trkpt>
      <trkpt lat="49.13658" lon="1.42429">
        <ele>12.751543998718</ele>
        <time>2013-09-22T08:49:27.000Z</time>
      </trkpt>
      <trkpt lat="49.13652" lon="1.42441">
        <ele>12.826910018921</ele>
        <time>2013-09-22T08:49:29.000Z</time>
      </trkpt>
      <trkpt lat="49.13644" lon="1.42455">
        <ele>12.826837539673</ele>
        <time>2013-09-22T08:49:32.000Z</time>
      </trkpt>
      <trkpt lat="49.13639" lon="1.42465">
        <ele>12.778058052063</ele>
        <time>2013-09-22T08:49:34.000Z</time>
      </trkpt>
      <trkpt lat="49.13631" lon="1.4248">
        <ele>12.636779785156</ele>
        <time>2013-09-22T08:49:37.000Z</time>
      </trkpt>
      <trkpt lat="49.13624" lon="1.42491">
        <ele>12.498962402344</ele>
        <time>2013-09-22T08:49:39.000Z</time>
      </trkpt>
      <trkpt lat="49.13615" lon="1.42507">
        <ele>12.349424362183</ele>
        <time>2013-09-22T08:49:42.000Z</time>
      </trkpt>
      <trkpt lat="49.13604" lon="1.42521">
        <ele>12.184808731079</ele>
        <time>2013-09-22T08:49:45.000Z</time>
      </trkpt>
      <trkpt lat="49.13596" lon="1.42531">
        <ele>12.006509780884</ele>
        <time>2013-09-22T08:49:47.000Z</time>
      </trkpt>
      <trkpt lat="49.13586" lon="1.42547">
        <ele>11.792681694031</ele>
        <time>2013-09-22T08:49:50.000Z</time>
      </trkpt>
      <trkpt lat="49.13579" lon="1.42558">
        <ele>11.55254650116</ele>
        <time>2013-09-22T08:49:52.000Z</time>
      </trkpt>
      <trkpt lat="49.13568" lon="1.42578">
        <ele>11.284795761108</ele>
        <time>2013-09-22T08:49:55.000Z</time>
      </trkpt>
      <trkpt lat="49.13561" lon="1.42592">
        <ele>11.06750869751</ele>
        <time>2013-09-22T08:49:57.000Z</time>
      </trkpt>
      <trkpt lat="49.13553" lon="1.42607">
        <ele>10.923726081848</ele>
        <time>2013-09-22T08:50:00.000Z</time>
      </trkpt>
      <trkpt lat="49.13546" lon="1.42623">
        <ele>10.886869430542</ele>
        <time>2013-09-22T08:50:03.000Z</time>
      </trkpt>
      <trkpt lat="49.13539" lon="1.4264">
        <ele>10.93651008606</ele>
        <time>2013-09-22T08:50:06.000Z</time>
      </trkpt>
      <trkpt lat="49.13533" lon="1.4265">
        <ele>11.100408554077</ele>
        <time>2013-09-22T08:50:08.000Z</time>
      </trkpt>
      <trkpt lat="49.13526" lon="1.42664">
        <ele>11.310747146606</ele>
        <time>2013-09-22T08:50:11.000Z</time>
      </trkpt>
      <trkpt lat="49.13516" lon="1.42679">
        <ele>11.547461509705</ele>
        <time>2013-09-22T08:50:14.000Z</time>
      </trkpt>
      <trkpt lat="49.13509" lon="1.4269">
        <ele>11.794185638428</ele>
        <time>2013-09-22T08:50:16.000Z</time>
      </trkpt>
      <trkpt lat="49.13499" lon="1.42707">
        <ele>12.0441198349</ele>
        <time>2013-09-22T08:50:19.000Z</time>
      </trkpt>
      <trkpt lat="49.13487" lon="1.42726">
        <ele>12.230913162231</ele>
        <time>2013-09-22T08:50:22.000Z</time>
      </trkpt>
      <trkpt lat="49.13481" lon="1.42739">
        <ele>12.34946346283</ele>
        <time>2013-09-22T08:50:24.000Z</time>
      </trkpt>
      <trkpt lat="49.13475" lon="1.4275">
        <ele>12.389268875122</ele>
        <time>2013-09-22T08:50:26.000Z</time>
      </trkpt>
      <trkpt lat="49.1347" lon="1.4276">
        <ele>12.340811729431</ele>
        <time>2013-09-22T08:50:28.000Z</time>
      </trkpt>
      <trkpt lat="49.13462" lon="1.42774">
        <ele>12.207378387451</ele>
        <time>2013-09-22T08:50:31.000Z</time>
      </trkpt>
      <trkpt lat="49.13456" lon="1.42781">
        <ele>12.079635620117</ele>
        <time>2013-09-22T08:50:33.000Z</time>
      </trkpt>
      <trkpt lat="49.13446" lon="1.42795">
        <ele>11.948933601379</ele>
        <time>2013-09-22T08:50:36.000Z</time>
      </trkpt>
      <trkpt lat="49.13437" lon="1.42806">
        <ele>11.843824386597</ele>
        <time>2013-09-22T08:50:39.000Z</time>
      </trkpt>
      <trkpt lat="49.13429" lon="1.42813">
        <ele>11.802925109863</ele>
        <time>2013-09-22T08:50:41.000Z</time>
      </trkpt>
      <trkpt lat="49.13419" lon="1.42822">
        <ele>11.841204643249</ele>
        <time>2013-09-22T08:50:44.000Z</time>
      </trkpt>
      <trkpt lat="49.13411" lon="1.42837">
        <ele>11.907503128052</ele>
        <time>2013-09-22T08:50:47.000Z</time>
      </trkpt>
      <trkpt lat="49.13404" lon="1.42845">
        <ele>11.997543334961</ele>
        <time>2013-09-22T08:50:49.000Z</time>
      </trkpt>
      <trkpt lat="49.13396" lon="1.42856">
        <ele>12.0862159729</ele>
        <time>2013-09-22T08:50:52.000Z</time>
      </trkpt>
      <trkpt lat="49.13386" lon="1.42871">
        <ele>12.153119087219</ele>
        <time>2013-09-22T08:50:55.000Z</time>
      </trkpt>
      <trkpt lat="49.13376" lon="1.42887">
        <ele>12.173767089844</ele>
        <time>2013-09-22T08:50:58.000Z</time>
      </trkpt>
      <trkpt lat="49.13371" lon="1.42896">
        <ele>12.177612304688</ele>
        <time>2013-09-22T08:51:00.000Z</time>
      </trkpt>
      <trkpt lat="49.13363" lon="1.4291">
        <ele>12.161743164062</ele>
        <time>2013-09-22T08:51:03.000Z</time>
      </trkpt>
      <trkpt lat="49.13356" lon="1.42925">
        <ele>12.112382888794</ele>
        <time>2013-09-22T08:51:06.000Z</time>
      </trkpt>
      <trkpt lat="49.13348" lon="1.42937">
        <ele>12.03949546814</ele>
        <time>2013-09-22T08:51:09.000Z</time>
      </trkpt>
      <trkpt lat="49.13342" lon="1.42948">
        <ele>11.939331054688</ele>
        <time>2013-09-22T08:51:12.000Z</time>
      </trkpt>
      <trkpt lat="49.13336" lon="1.42956">
        <ele>11.811105728149</ele>
        <time>2013-09-22T08:51:14.000Z</time>
      </trkpt>
      <trkpt lat="49.13328" lon="1.42969">
        <ele>11.659139633179</ele>
        <time>2013-09-22T08:51:17.000Z</time>
      </trkpt>
      <trkpt lat="49.1332" lon="1.4298">
        <ele>11.517091751099</ele>
        <time>2013-09-22T08:51:20.000Z</time>
      </trkpt>
      <trkpt lat="49.13314" lon="1.42987">
        <ele>11.40763092041</ele>
        <time>2013-09-22T08:51:22.000Z</time>
      </trkpt>
      <trkpt lat="49.13308" lon="1.42994">
        <ele>11.352300643921</ele>
        <time>2013-09-22T08:51:24.000Z</time>
      </trkpt>
      <trkpt lat="49.13296" lon="1.43005">
        <ele>11.387434005737</ele>
        <time>2013-09-22T08:51:27.000Z</time>
      </trkpt>
      <trkpt lat="49.13289" lon="1.43013">
        <ele>11.496019363403</ele>
        <time>2013-09-22T08:51:29.000Z</time>
      </trkpt>
      <trkpt lat="49.13283" lon="1.43022">
        <ele>11.643656730652</ele>
        <time>2013-09-22T08:51:31.000Z</time>
      </trkpt>
      <trkpt lat="49.13276" lon="1.43031">
        <ele>11.810587882996</ele>
        <time>2013-09-22T08:51:33.000Z</time>
      </trkpt>
      <trkpt lat="49.13266" lon="1.43046">
        <ele>11.982075691223</ele>
        <time>2013-09-22T08:51:36.000Z</time>
      </trkpt>
      <trkpt lat="49.13258" lon="1.43057">
        <ele>12.108711242676</ele>
        <time>2013-09-22T08:51:38.000Z</time>
      </trkpt>
      <trkpt lat="49.13249" lon="1.43068">
        <ele>12.212414741516</ele>
        <time>2013-09-22T08:51:40.000Z</time>
      </trkpt>
      <trkpt lat="49.13241" lon="1.43077">
        <ele>12.281312942505</ele>
        <time>2013-09-22T08:51:42.000Z</time>
      </trkpt>
      <trkpt lat="49.13232" lon="1.43081">
        <ele>12.34979057312</ele>
        <time>2013-09-22T08:51:45.000Z</time>
      </trkpt>
      <trkpt lat="49.13228" lon="1.43075">
        <ele>12.429491043091</ele>
        <time>2013-09-22T08:51:48.000Z</time>
      </trkpt>
      <trkpt lat="49.13225" lon="1.43065">
        <ele>12.532903671265</ele>
        <time>2013-09-22T08:51:50.000Z</time>
      </trkpt>
      <trkpt lat="49.13223" lon="1.43054">
        <ele>12.658236503601</ele>
        <time>2013-09-22T08:51:52.000Z</time>
      </trkpt>
      <trkpt lat="49.13219" lon="1.43038">
        <ele>12.837537765503</ele>
        <time>2013-09-22T08:51:55.000Z</time>
      </trkpt>
      <trkpt lat="49.13215" lon="1.4302">
        <ele>13.024892807007</ele>
        <time>2013-09-22T08:51:58.000Z</time>
      </trkpt>
      <trkpt lat="49.13212" lon="1.43007">
        <ele>13.194105148315</ele>
        <time>2013-09-22T08:52:00.000Z</time>
      </trkpt>
      <trkpt lat="49.1321" lon="1.4299">
        <ele>13.351849555969</ele>
        <time>2013-09-22T08:52:03.000Z</time>
      </trkpt>
      <trkpt lat="49.13207" lon="1.42974">
        <ele>13.511266708374</ele>
        <time>2013-09-22T08:52:06.000Z</time>
      </trkpt>
      <trkpt lat="49.13205" lon="1.4296">
        <ele>13.661535263062</ele>
        <time>2013-09-22T08:52:08.000Z</time>
      </trkpt>
      <trkpt lat="49.13203" lon="1.42946">
        <ele>13.814300537109</ele>
        <time>2013-09-22T08:52:10.000Z</time>
      </trkpt>
      <trkpt lat="49.13198" lon="1.4293">
        <ele>14.000703811646</ele>
        <time>2013-09-22T08:52:13.000Z</time>
      </trkpt>
      <trkpt lat="49.13194" lon="1.42922">
        <ele>14.193476676941</ele>
        <time>2013-09-22T08:52:15.000Z</time>
      </trkpt>
      <trkpt lat="49.13185" lon="1.42898">
        <ele>14.466425895691</ele>
        <time>2013-09-22T08:52:20.000Z</time>
      </trkpt>
      <trkpt lat="49.13186" lon="1.42882">
        <ele>14.773203849793</ele>
        <time>2013-09-22T08:52:23.000Z</time>
      </trkpt>
      <trkpt lat="49.13187" lon="1.42873">
        <ele>15.076436042786</ele>
        <time>2013-09-22T08:52:25.000Z</time>
      </trkpt>
      <trkpt lat="49.1319" lon="1.42862">
        <ele>15.361181259155</ele>
        <time>2013-09-22T08:52:28.000Z</time>
      </trkpt>
      <trkpt lat="49.13198" lon="1.42851">
        <ele>15.624217033386</ele>
        <time>2013-09-22T08:52:31.000Z</time>
      </trkpt>
      <trkpt lat="49.13204" lon="1.42843">
        <ele>15.773066520691</ele>
        <time>2013-09-22T08:52:34.000Z</time>
      </trkpt>
      <trkpt lat="49.13212" lon="1.42836">
        <ele>15.842985153198</ele>
        <time>2013-09-22T08:52:37.000Z</time>
      </trkpt>
      <trkpt lat="49.13218" lon="1.42834">
        <ele>15.863049507141</ele>
        <time>2013-09-22T08:52:39.000Z</time>
      </trkpt>
      <trkpt lat="49.13224" lon="1.42826">
        <ele>15.866491317749</ele>
        <time>2013-09-22T08:52:42.000Z</time>
      </trkpt>
      <trkpt lat="49.13225" lon="1.42817">
        <ele>15.911071777344</ele>
        <time>2013-09-22T08:52:45.000Z</time>
      </trkpt>
      <trkpt lat="49.13223" lon="1.42808">
        <ele>16.019012451172</ele>
        <time>2013-09-22T08:52:48.000Z</time>
      </trkpt>
      <trkpt lat="49.13221" lon="1.42805">
        <ele>16.161773681641</ele>
        <time>2013-09-22T08:52:52.000Z</time>
      </trkpt>
      <trkpt lat="49.13218" lon="1.428">
        <ele>16.367504119873</ele>
        <time>2013-09-22T08:52:55.000Z</time>
      </trkpt>
      <trkpt lat="49.13218" lon="1.42793">
        <ele>16.602279663086</ele>
        <time>2013-09-22T08:52:58.000Z</time>
      </trkpt>
      <trkpt lat="49.13214" lon="1.42784">
        <ele>16.854345321655</ele>
        <time>2013-09-22T08:53:01.000Z</time>
      </trkpt>
      <trkpt lat="49.13211" lon="1.42772">
        <ele>17.121570587158</ele>
        <time>2013-09-22T08:53:04.000Z</time>
      </trkpt>
      <trkpt lat="49.13208" lon="1.42768">
        <ele>17.399572372436</ele>
        <time>2013-09-22T08:53:06.000Z</time>
      </trkpt>
      <trkpt lat="49.13204" lon="1.42764">
        <ele>17.663564682007</ele>
        <time>2013-09-22T08:53:08.000Z</time>
      </trkpt>
      <trkpt lat="49.13199" lon="1.42756">
        <ele>17.946765899658</ele>
        <time>2013-09-22T08:53:11.000Z</time>
      </trkpt>
      <trkpt lat="49.13196" lon="1.42746">
        <ele>18.220314025879</ele>
        <time>2013-09-22T08:53:14.000Z</time>
      </trkpt>
      <trkpt lat="49.13193" lon="1.42738">
        <ele>18.465616226196</ele>
        <time>2013-09-22T08:53:17.000Z</time>
      </trkpt>
      <trkpt lat="49.1319" lon="1.42733">
        <ele>18.711940765381</ele>
        <time>2013-09-22T08:53:19.000Z</time>
      </trkpt>
      <trkpt lat="49.13188" lon="1.42729">
        <ele>18.964426040649</ele>
        <time>2013-09-22T08:53:21.000Z</time>
      </trkpt>
      <trkpt lat="49.13186" lon="1.42722">
        <ele>19.200546264648</ele>
        <time>2013-09-22T08:53:24.000Z</time>
      </trkpt>
      <trkpt lat="49.13184" lon="1.42717">
        <ele>19.413417816162</ele>
        <time>2013-09-22T08:53:26.000Z</time>
      </trkpt>
      <trkpt lat="49.13182" lon="1.4271">
        <ele>19.623014450073</ele>
        <time>2013-09-22T08:53:29.000Z</time>
      </trkpt>
      <trkpt lat="49.13178" lon="1.42705">
        <ele>19.853319168091</ele>
        <time>2013-09-22T08:53:32.000Z</time>
      </trkpt>
      <trkpt lat="49.13176" lon="1.42702">
        <ele>20.075504302979</ele>
        <time>2013-09-22T08:53:34.000Z</time>
      </trkpt>
      <trkpt lat="49.13174" lon="1.42699">
        <ele>20.279890060425</ele>
        <time>2013-09-22T08:53:37.000Z</time>
      </trkpt>
      <trkpt lat="49.13174" lon="1.42699">
        <ele>20.279890060425</ele>
        <time>2013-09-22T08:53:57.000Z</time>
      </trkpt>
      <trkpt lat="49.13173" lon="1.42701">
        <ele>20.431301116943</ele>
        <time>2013-09-22T08:54:00.000Z</time>
      </trkpt>
      <trkpt lat="49.13173" lon="1.42703">
        <ele>20.523778915405</ele>
        <time>2013-09-22T08:54:02.000Z</time>
      </trkpt>
      <trkpt lat="49.13174" lon="1.42704">
        <ele>20.546854019165</ele>
        <time>2013-09-22T08:54:08.000Z</time>
      </trkpt>
      <trkpt lat="49.13175" lon="1.42702">
        <ele>20.548915863037</ele>
        <time>2013-09-22T08:54:21.000Z</time>
      </trkpt>
      <trkpt lat="49.13175" lon="1.42699">
        <ele>20.545072555542</ele>
        <time>2013-09-22T08:54:23.000Z</time>
      </trkpt>
      <trkpt lat="49.13176" lon="1.42695">
        <ele>20.577028274536</ele>
        <time>2013-09-22T08:54:26.000Z</time>
      </trkpt>
      <trkpt lat="49.13175" lon="1.42692">
        <ele>20.640008926392</ele>
        <time>2013-09-22T08:54:28.000Z</time>
      </trkpt>
      <trkpt lat="49.13174" lon="1.42689">
        <ele>20.735422134399</ele>
        <time>2013-09-22T08:54:30.000Z</time>
      </trkpt>
      <trkpt lat="49.13171" lon="1.42682">
        <ele>20.896036148071</ele>
        <time>2013-09-22T08:54:33.000Z</time>
      </trkpt>
      <trkpt lat="49.13169" lon="1.42678">
        <ele>21.072113037109</ele>
        <time>2013-09-22T08:54:35.000Z</time>
      </trkpt>
      <trkpt lat="49.13167" lon="1.42672">
        <ele>21.282962799072</ele>
        <time>2013-09-22T08:54:38.000Z</time>
      </trkpt>
      <trkpt lat="49.13166" lon="1.42669">
        <ele>21.506258010864</ele>
        <time>2013-09-22T08:54:40.000Z</time>
      </trkpt>
      <trkpt lat="49.13164" lon="1.4266">
        <ele>21.797258377075</ele>
        <time>2013-09-22T08:54:43.000Z</time>
      </trkpt>
      <trkpt lat="49.13164" lon="1.42655">
        <ele>22.069707870483</ele>
        <time>2013-09-22T08:54:45.000Z</time>
      </trkpt>
      <trkpt lat="49.13165" lon="1.42646">
        <ele>22.386493682861</ele>
        <time>2013-09-22T08:54:48.000Z</time>
      </trkpt>
      <trkpt lat="49.13165" lon="1.42636">
        <ele>22.743814468384</ele>
        <time>2013-09-22T08:54:51.000Z</time>
      </trkpt>
      <trkpt lat="49.13165" lon="1.42627">
        <ele>23.151807785034</ele>
        <time>2013-09-22T08:54:54.000Z</time>
      </trkpt>
      <trkpt lat="49.13164" lon="1.42621">
        <ele>23.544820785523</ele>
        <time>2013-09-22T08:54:57.000Z</time>
      </trkpt>
      <trkpt lat="49.13165" lon="1.42619">
        <ele>23.890670776367</ele>
        <time>2013-09-22T08:55:02.000Z</time>
      </trkpt>
      <trkpt lat="49.13166" lon="1.42616">
        <ele>24.165243148804</ele>
        <time>2013-09-22T08:55:05.000Z</time>
      </trkpt>
      <trkpt lat="49.13166" lon="1.42614">
        <ele>24.368043899536</ele>
        <time>2013-09-22T08:55:08.000Z</time>
      </trkpt>
      <trkpt lat="49.13166" lon="1.42612">
        <ele>24.509153366089</ele>
        <time>2013-09-22T08:55:11.000Z</time>
      </trkpt>
      <trkpt lat="49.13164" lon="1.42605">
        <ele>24.665878295898</ele>
        <time>2013-09-22T08:55:13.000Z</time>
      </trkpt>
      <trkpt lat="49.13162" lon="1.42596">
        <ele>24.934015274048</ele>
        <time>2013-09-22T08:55:16.000Z</time>
      </trkpt>
      <trkpt lat="49.1316" lon="1.42591">
        <ele>25.276285171509</ele>
        <time>2013-09-22T08:55:18.000Z</time>
      </trkpt>
      <trkpt lat="49.13158" lon="1.42586">
        <ele>25.677087783814</ele>
        <time>2013-09-22T08:55:20.000Z</time>
      </trkpt>
      <trkpt lat="49.13155" lon="1.4258">
        <ele>26.203567504883</ele>
        <time>2013-09-22T08:55:23.000Z</time>
      </trkpt>
      <trkpt lat="49.13151" lon="1.42573">
        <ele>26.859195709229</ele>
        <time>2013-09-22T08:55:26.000Z</time>
      </trkpt>
      <trkpt lat="49.13147" lon="1.42567">
        <ele>27.572820663452</ele>
        <time>2013-09-22T08:55:28.000Z</time>
      </trkpt>
      <trkpt lat="49.13144" lon="1.4256">
        <ele>28.395502090454</ele>
        <time>2013-09-22T08:55:30.000Z</time>
      </trkpt>
      <trkpt lat="49.13139" lon="1.42552">
        <ele>29.402013778686</ele>
        <time>2013-09-22T08:55:33.000Z</time>
      </trkpt>
      <trkpt lat="49.13136" lon="1.42546">
        <ele>30.441888809204</ele>
        <time>2013-09-22T08:55:36.000Z</time>
      </trkpt>
      <trkpt lat="49.13133" lon="1.42544">
        <ele>31.361394882202</ele>
        <time>2013-09-22T08:55:38.000Z</time>
      </trkpt>
      <trkpt lat="49.13129" lon="1.42541">
        <ele>32.231872558594</ele>
        <time>2013-09-22T08:55:41.000Z</time>
      </trkpt>
      <trkpt lat="49.13126" lon="1.42539">
        <ele>33.021556854248</ele>
        <time>2013-09-22T08:55:44.000Z</time>
      </trkpt>
      <trkpt lat="49.13122" lon="1.42537">
        <ele>33.652626037598</ele>
        <time>2013-09-22T08:55:46.000Z</time>
      </trkpt>
      <trkpt lat="49.13119" lon="1.42536">
        <ele>34.183086395264</ele>
        <time>2013-09-22T08:55:48.000Z</time>
      </trkpt>
      <trkpt lat="49.13116" lon="1.42533">
        <ele>34.750293731689</ele>
        <time>2013-09-22T08:55:51.000Z</time>
      </trkpt>
      <trkpt lat="49.13112" lon="1.42529">
        <ele>35.344104766846</ele>
        <time>2013-09-22T08:55:54.000Z</time>
      </trkpt>
      <trkpt lat="49.13108" lon="1.42528">
        <ele>35.928821563721</ele>
        <time>2013-09-22T08:55:56.000Z</time>
      </trkpt>
      <trkpt lat="49.13104" lon="1.42527">
        <ele>36.503967285156</ele>
        <time>2013-09-22T08:55:59.000Z</time>
      </trkpt>
      <trkpt lat="49.13101" lon="1.42527">
        <ele>37.069213867188</ele>
        <time>2013-09-22T08:56:01.000Z</time>
      </trkpt>
      <trkpt lat="49.13095" lon="1.42527">
        <ele>37.616737365723</ele>
        <time>2013-09-22T08:56:04.000Z</time>
      </trkpt>
      <trkpt lat="49.13092" lon="1.42527">
        <ele>38.053161621094</ele>
        <time>2013-09-22T08:56:06.000Z</time>
      </trkpt>
      <trkpt lat="49.13087" lon="1.42525">
        <ele>38.5354347229</ele>
        <time>2013-09-22T08:56:09.000Z</time>
      </trkpt>
      <trkpt lat="49.13084" lon="1.42524">
        <ele>39.020610809326</ele>
        <time>2013-09-22T08:56:11.000Z</time>
      </trkpt>
      <trkpt lat="49.13081" lon="1.42522">
        <ele>39.555549621582</ele>
        <time>2013-09-22T08:56:13.000Z</time>
      </trkpt>
      <trkpt lat="49.13077" lon="1.42522">
        <ele>40.115615844727</ele>
        <time>2013-09-22T08:56:16.000Z</time>
      </trkpt>
      <trkpt lat="49.13074" lon="1.4252">
        <ele>40.769077301025</ele>
        <time>2013-09-22T08:56:19.000Z</time>
      </trkpt>
      <trkpt lat="49.13073" lon="1.4252">
        <ele>41.333068847656</ele>
        <time>2013-09-22T08:56:21.000Z</time>
      </trkpt>
      <trkpt lat="49.13068" lon="1.42517">
        <ele>42.022621154785</ele>
        <time>2013-09-22T08:56:24.000Z</time>
      </trkpt>
      <trkpt lat="49.13063" lon="1.42516">
        <ele>42.760322570801</ele>
        <time>2013-09-22T08:56:27.000Z</time>
      </trkpt>
      <trkpt lat="49.1306" lon="1.42515">
        <ele>43.508750915527</ele>
        <time>2013-09-22T08:56:30.000Z</time>
      </trkpt>
      <trkpt lat="49.13057" lon="1.42512">
        <ele>44.315402984619</ele>
        <time>2013-09-22T08:56:33.000Z</time>
      </trkpt>
      <trkpt lat="49.13053" lon="1.42511">
        <ele>45.261966705322</ele>
        <time>2013-09-22T08:56:36.000Z</time>
      </trkpt>
      <trkpt lat="49.13051" lon="1.42509">
        <ele>46.058536529541</ele>
        <time>2013-09-22T08:56:38.000Z</time>
      </trkpt>
      <trkpt lat="49.13048" lon="1.42509">
        <ele>46.823219299316</ele>
        <time>2013-09-22T08:56:41.000Z</time>
      </trkpt>
      <trkpt lat="49.13041" lon="1.42509">
        <ele>47.70524597168</ele>
        <time>2013-09-22T08:56:44.000Z</time>
      </trkpt>
      <trkpt lat="49.13037" lon="1.42508">
        <ele>48.53076171875</ele>
        <time>2013-09-22T08:56:47.000Z</time>
      </trkpt>
      <trkpt lat="49.13033" lon="1.42508">
        <ele>49.335102081299</ele>
        <time>2013-09-22T08:56:50.000Z</time>
      </trkpt>
      <trkpt lat="49.1303" lon="1.42508">
        <ele>50.165004730225</ele>
        <time>2013-09-22T08:56:52.000Z</time>
      </trkpt>
      <trkpt lat="49.13027" lon="1.42508">
        <ele>50.9635887146</ele>
        <time>2013-09-22T08:56:54.000Z</time>
      </trkpt>
      <trkpt lat="49.13023" lon="1.42507">
        <ele>51.655590057373</ele>
        <time>2013-09-22T08:56:57.000Z</time>
      </trkpt>
      <trkpt lat="49.13018" lon="1.42508">
        <ele>52.363868713379</ele>
        <time>2013-09-22T08:57:00.000Z</time>
      </trkpt>
      <trkpt lat="49.13013" lon="1.42507">
        <ele>53.123222351074</ele>
        <time>2013-09-22T08:57:03.000Z</time>
      </trkpt>
      <trkpt lat="49.13009" lon="1.42507">
        <ele>53.90497970581</ele>
        <time>2013-09-22T08:57:06.000Z</time>
      </trkpt>
      <trkpt lat="49.13004" lon="1.42506">
        <ele>54.802165985107</ele>
        <time>2013-09-22T08:57:09.000Z</time>
      </trkpt>
      <trkpt lat="49.13002" lon="1.42506">
        <ele>55.641052246094</ele>
        <time>2013-09-22T08:57:12.000Z</time>
      </trkpt>
      <trkpt lat="49.12997" lon="1.42508">
        <ele>56.394630432129</ele>
        <time>2013-09-22T08:57:15.000Z</time>
      </trkpt>
      <trkpt lat="49.12995" lon="1.42509">
        <ele>56.944610595703</ele>
        <time>2013-09-22T08:57:17.000Z</time>
      </trkpt>
      <trkpt lat="49.12994" lon="1.42508">
        <ele>57.430400848389</ele>
        <time>2013-09-22T08:57:19.000Z</time>
      </trkpt>
      <trkpt lat="49.12991" lon="1.42509">
        <ele>57.76216506958</ele>
        <time>2013-09-22T08:57:21.000Z</time>
      </trkpt>
      <trkpt lat="49.12986" lon="1.4251">
        <ele>58.095947265625</ele>
        <time>2013-09-22T08:57:24.000Z</time>
      </trkpt>
      <trkpt lat="49.12982" lon="1.42512">
        <ele>58.393524169922</ele>
        <time>2013-09-22T08:57:27.000Z</time>
      </trkpt>
      <trkpt lat="49.12978" lon="1.42513">
        <ele>58.735321044922</ele>
        <time>2013-09-22T08:57:30.000Z</time>
      </trkpt>
      <trkpt lat="49.12976" lon="1.42513">
        <ele>59.089294433594</ele>
        <time>2013-09-22T08:57:32.000Z</time>
      </trkpt>
      <trkpt lat="49.12972" lon="1.42513">
        <ele>59.477020263672</ele>
        <time>2013-09-22T08:57:35.000Z</time>
      </trkpt>
      <trkpt lat="49.12969" lon="1.42515">
        <ele>59.803649902344</ele>
        <time>2013-09-22T08:57:37.000Z</time>
      </trkpt>
      <trkpt lat="49.12965" lon="1.42515">
        <ele>60.216156005859</ele>
        <time>2013-09-22T08:57:41.000Z</time>
      </trkpt>
      <trkpt lat="49.12959" lon="1.42516">
        <ele>60.692749023438</ele>
        <time>2013-09-22T08:57:44.000Z</time>
      </trkpt>
      <trkpt lat="49.12958" lon="1.42515">
        <ele>61.199676513672</ele>
        <time>2013-09-22T08:57:46.000Z</time>
      </trkpt>
      <trkpt lat="49.12957" lon="1.42516">
        <ele>61.609191894531</ele>
        <time>2013-09-22T08:57:49.000Z</time>
      </trkpt>
      <trkpt lat="49.12955" lon="1.42518">
        <ele>61.8916015625</ele>
        <time>2013-09-22T08:57:52.000Z</time>
      </trkpt>
      <trkpt lat="49.12951" lon="1.42521">
        <ele>62.060363769531</ele>
        <time>2013-09-22T08:57:56.000Z</time>
      </trkpt>
      <trkpt lat="49.12951" lon="1.42522">
        <ele>62.068908691406</ele>
        <time>2013-09-22T08:57:58.000Z</time>
      </trkpt>
      <trkpt lat="49.12947" lon="1.42525">
        <ele>61.909118652344</ele>
        <time>2013-09-22T08:58:00.000Z</time>
      </trkpt>
      <trkpt lat="49.12943" lon="1.42527">
        <ele>61.824737548828</ele>
        <time>2013-09-22T08:58:03.000Z</time>
      </trkpt>
      <trkpt lat="49.12938" lon="1.42528">
        <ele>61.889892578125</ele>
        <time>2013-09-22T08:58:06.000Z</time>
      </trkpt>
      <trkpt lat="49.12934" lon="1.42529">
        <ele>62.051391601562</ele>
        <time>2013-09-22T08:58:09.000Z</time>
      </trkpt>
      <trkpt lat="49.12931" lon="1.42531">
        <ele>62.247924804688</ele>
        <time>2013-09-22T08:58:11.000Z</time>
      </trkpt>
      <trkpt lat="49.12926" lon="1.42533">
        <ele>62.557464599609</ele>
        <time>2013-09-22T08:58:14.000Z</time>
      </trkpt>
      <trkpt lat="49.12923" lon="1.42534">
        <ele>62.835174560547</ele>
        <time>2013-09-22T08:58:16.000Z</time>
      </trkpt>
      <trkpt lat="49.1292" lon="1.42535">
        <ele>63.075927734375</ele>
        <time>2013-09-22T08:58:18.000Z</time>
      </trkpt>
      <trkpt lat="49.12918" lon="1.42537">
        <ele>63.226745605469</ele>
        <time>2013-09-22T08:58:21.000Z</time>
      </trkpt>
      <trkpt lat="49.12914" lon="1.42539">
        <ele>63.347785949707</ele>
        <time>2013-09-22T08:58:24.000Z</time>
      </trkpt>
      <trkpt lat="49.12911" lon="1.42541">
        <ele>63.406116485596</ele>
        <time>2013-09-22T08:58:27.000Z</time>
      </trkpt>
      <trkpt lat="49.12909" lon="1.42542">
        <ele>63.418529510498</ele>
        <time>2013-09-22T08:58:29.000Z</time>
      </trkpt>
      <trkpt lat="49.12907" lon="1.42543">
        <ele>63.379386901855</ele>
        <time>2013-09-22T08:58:31.000Z</time>
      </trkpt>
      <trkpt lat="49.12903" lon="1.42546">
        <ele>63.281379699707</ele>
        <time>2013-09-22T08:58:34.000Z</time>
      </trkpt>
      <trkpt lat="49.12899" lon="1.42548">
        <ele>63.194232940674</ele>
        <time>2013-09-22T08:58:37.000Z</time>
      </trkpt>
      <trkpt lat="49.12898" lon="1.42549">
        <ele>63.130809783935</ele>
        <time>2013-09-22T08:58:39.000Z</time>
      </trkpt>
      <trkpt lat="49.12893" lon="1.42551">
        <ele>63.106880187988</ele>
        <time>2013-09-22T08:58:42.000Z</time>
      </trkpt>
      <trkpt lat="49.12887" lon="1.42552">
        <ele>63.167633056641</ele>
        <time>2013-09-22T08:58:45.000Z</time>
      </trkpt>
      <trkpt lat="49.12884" lon="1.42553">
        <ele>63.342720031738</ele>
        <time>2013-09-22T08:58:47.000Z</time>
      </trkpt>
      <trkpt lat="49.1288" lon="1.42555">
        <ele>63.548633575439</ele>
        <time>2013-09-22T08:58:50.000Z</time>
      </trkpt>
      <trkpt lat="49.12875" lon="1.42555">
        <ele>63.852703094482</ele>
        <time>2013-09-22T08:58:52.000Z</time>
      </trkpt>
      <trkpt lat="49.1287" lon="1.42558">
        <ele>64.135391235352</ele>
        <time>2013-09-22T08:58:55.000Z</time>
      </trkpt>
      <trkpt lat="49.12868" lon="1.42559">
        <ele>64.372131347656</ele>
        <time>2013-09-22T08:58:57.000Z</time>
      </trkpt>
      <trkpt lat="49.12863" lon="1.4256">
        <ele>64.662696838379</ele>
        <time>2013-09-22T08:58:59.000Z</time>
      </trkpt>
      <trkpt lat="49.12857" lon="1.4256">
        <ele>65.085792541504</ele>
        <time>2013-09-22T08:59:01.000Z</time>
      </trkpt>
      <trkpt lat="49.12849" lon="1.42559">
        <ele>65.621398925781</ele>
        <time>2013-09-22T08:59:04.000Z</time>
      </trkpt>
      <trkpt lat="49.12845" lon="1.42561">
        <ele>66.201522827148</ele>
        <time>2013-09-22T08:59:07.000Z</time>
      </trkpt>
      <trkpt lat="49.12841" lon="1.42563">
        <ele>66.836952209473</ele>
        <time>2013-09-22T08:59:10.000Z</time>
      </trkpt>
      <trkpt lat="49.12837" lon="1.42565">
        <ele>67.374496459961</ele>
        <time>2013-09-22T08:59:13.000Z</time>
      </trkpt>
      <trkpt lat="49.12836" lon="1.42567">
        <ele>67.741317749023</ele>
        <time>2013-09-22T08:59:16.000Z</time>
      </trkpt>
      <trkpt lat="49.12832" lon="1.42568">
        <ele>67.958419799805</ele>
        <time>2013-09-22T08:59:18.000Z</time>
      </trkpt>
      <trkpt lat="49.1283" lon="1.4257">
        <ele>68.157905578613</ele>
        <time>2013-09-22T08:59:20.000Z</time>
      </trkpt>
      <trkpt lat="49.12827" lon="1.42571">
        <ele>68.383415222168</ele>
        <time>2013-09-22T08:59:22.000Z</time>
      </trkpt>
      <trkpt lat="49.12822" lon="1.42572">
        <ele>68.787940979004</ele>
        <time>2013-09-22T08:59:25.000Z</time>
      </trkpt>
      <trkpt lat="49.1282" lon="1.42572">
        <ele>69.238296508789</ele>
        <time>2013-09-22T08:59:28.000Z</time>
      </trkpt>
      <trkpt lat="49.1282" lon="1.42574">
        <ele>69.55973815918</ele>
        <time>2013-09-22T08:59:30.000Z</time>
      </trkpt>
      <trkpt lat="49.12819" lon="1.42573">
        <ele>69.906517028809</ele>
        <time>2013-09-22T08:59:36.000Z</time>
      </trkpt>
      <trkpt lat="49.1282" lon="1.42572">
        <ele>70.160171508789</ele>
        <time>2013-09-22T08:59:39.000Z</time>
      </trkpt>
      <trkpt lat="49.12819" lon="1.4257">
        <ele>70.29948425293</ele>
        <time>2013-09-22T08:59:42.000Z</time>
      </trkpt>
      <trkpt lat="49.12818" lon="1.42567">
        <ele>70.541641235352</ele>
        <time>2013-09-22T08:59:45.000Z</time>
      </trkpt>
      <trkpt lat="49.12818" lon="1.42564">
        <ele>70.927742004395</ele>
        <time>2013-09-22T08:59:47.000Z</time>
      </trkpt>
      <trkpt lat="49.12816" lon="1.42562">
        <ele>71.368408203125</ele>
        <time>2013-09-22T08:59:49.000Z</time>
      </trkpt>
      <trkpt lat="49.12815" lon="1.42557">
        <ele>71.989486694336</ele>
        <time>2013-09-22T08:59:52.000Z</time>
      </trkpt>
      <trkpt lat="49.12815" lon="1.42553">
        <ele>72.644088745117</ele>
        <time>2013-09-22T08:59:54.000Z</time>
      </trkpt>
      <trkpt lat="49.12814" lon="1.4255">
        <ele>73.274147033691</ele>
        <time>2013-09-22T08:59:56.000Z</time>
      </trkpt>
      <trkpt lat="49.12812" lon="1.42546">
        <ele>73.992286682129</ele>
        <time>2013-09-22T08:59:59.000Z</time>
      </trkpt>
      <trkpt lat="49.12812" lon="1.42541">
        <ele>74.733596801758</ele>
        <time>2013-09-22T09:00:01.000Z</time>
      </trkpt>
      <trkpt lat="49.12811" lon="1.42536">
        <ele>75.470291137695</ele>
        <time>2013-09-22T09:00:04.000Z</time>
      </trkpt>
      <trkpt lat="49.12809" lon="1.42532">
        <ele>76.25732421875</ele>
        <time>2013-09-22T09:00:07.000Z</time>
      </trkpt>
      <trkpt lat="49.12808" lon="1.42529">
        <ele>77.070274353027</ele>
        <time>2013-09-22T09:00:10.000Z</time>
      </trkpt>
      <trkpt lat="49.12804" lon="1.42522">
        <ele>78.025650024414</ele>
        <time>2013-09-22T09:00:13.000Z</time>
      </trkpt>
      <trkpt lat="49.12801" lon="1.4252">
        <ele>79.016128540039</ele>
        <time>2013-09-22T09:00:15.000Z</time>
      </trkpt>
      <trkpt lat="49.12798" lon="1.42517">
        <ele>79.992698669434</ele>
        <time>2013-09-22T09:00:17.000Z</time>
      </trkpt>
      <trkpt lat="49.12794" lon="1.42517">
        <ele>80.973594665527</ele>
        <time>2013-09-22T09:00:20.000Z</time>
      </trkpt>
      <trkpt lat="49.12791" lon="1.42519">
        <ele>81.87907409668</ele>
        <time>2013-09-22T09:00:22.000Z</time>
      </trkpt>
      <trkpt lat="49.12788" lon="1.4252">
        <ele>82.51252746582</ele>
        <time>2013-09-22T09:00:24.000Z</time>
      </trkpt>
      <trkpt lat="49.12785" lon="1.42521">
        <ele>83.070938110352</ele>
        <time>2013-09-22T09:00:27.000Z</time>
      </trkpt>
      <trkpt lat="49.12782" lon="1.42524">
        <ele>83.496627807617</ele>
        <time>2013-09-22T09:00:29.000Z</time>
      </trkpt>
      <trkpt lat="49.1278" lon="1.42525">
        <ele>83.790023803711</ele>
        <time>2013-09-22T09:00:31.000Z</time>
      </trkpt>
      <trkpt lat="49.12775" lon="1.42529">
        <ele>84.123413085938</ele>
        <time>2013-09-22T09:00:34.000Z</time>
      </trkpt>
      <trkpt lat="49.12773" lon="1.42534">
        <ele>84.360122680664</ele>
        <time>2013-09-22T09:00:37.000Z</time>
      </trkpt>
      <trkpt lat="49.1277" lon="1.42541">
        <ele>84.402931213379</ele>
        <time>2013-09-22T09:00:40.000Z</time>
      </trkpt>
      <trkpt lat="49.12767" lon="1.42546">
        <ele>84.447891235352</ele>
        <time>2013-09-22T09:00:43.000Z</time>
      </trkpt>
      <trkpt lat="49.12762" lon="1.42546">
        <ele>84.586090087891</ele>
        <time>2013-09-22T09:00:45.000Z</time>
      </trkpt>
      <trkpt lat="49.12759" lon="1.42549">
        <ele>84.696899414062</ele>
        <time>2013-09-22T09:00:47.000Z</time>
      </trkpt>
      <trkpt lat="49.12755" lon="1.42555">
        <ele>84.883102416992</ele>
        <time>2013-09-22T09:00:50.000Z</time>
      </trkpt>
      <trkpt lat="49.12753" lon="1.42564">
        <ele>85.003463745117</ele>
        <time>2013-09-22T09:00:53.000Z</time>
      </trkpt>
      <trkpt lat="49.12752" lon="1.42567">
        <ele>85.062850952148</ele>
        <time>2013-09-22T09:00:55.000Z</time>
      </trkpt>
      <trkpt lat="49.12751" lon="1.4257">
        <ele>84.915946960449</ele>
        <time>2013-09-22T09:00:58.000Z</time>
      </trkpt>
      <trkpt lat="49.12749" lon="1.42576">
        <ele>84.648338317871</ele>
        <time>2013-09-22T09:01:01.000Z</time>
      </trkpt>
      <trkpt lat="49.12748" lon="1.42578">
        <ele>84.335243225098</ele>
        <time>2013-09-22T09:01:03.000Z</time>
      </trkpt>
      <trkpt lat="49.12746" lon="1.42584">
        <ele>84.057876586914</ele>
        <time>2013-09-22T09:01:06.000Z</time>
      </trkpt>
      <trkpt lat="49.12746" lon="1.42592">
        <ele>83.444198608398</ele>
        <time>2013-09-22T09:01:09.000Z</time>
      </trkpt>
      <trkpt lat="49.12744" lon="1.42597">
        <ele>82.741287231445</ele>
        <time>2013-09-22T09:01:12.000Z</time>
      </trkpt>
      <trkpt lat="49.12743" lon="1.42599">
        <ele>82.010696411133</ele>
        <time>2013-09-22T09:01:14.000Z</time>
      </trkpt>
      <trkpt lat="49.12741" lon="1.426">
        <ele>81.326324462891</ele>
        <time>2013-09-22T09:01:16.000Z</time>
      </trkpt>
      <trkpt lat="49.12736" lon="1.42605">
        <ele>80.67512512207</ele>
        <time>2013-09-22T09:01:19.000Z</time>
      </trkpt>
      <trkpt lat="49.12732" lon="1.42612">
        <ele>80.189140319824</ele>
        <time>2013-09-22T09:01:22.000Z</time>
      </trkpt>
      <trkpt lat="49.12725" lon="1.42624">
        <ele>79.530349731445</ele>
        <time>2013-09-22T09:01:25.000Z</time>
      </trkpt>
      <trkpt lat="49.12722" lon="1.42636">
        <ele>78.534957885742</ele>
        <time>2013-09-22T09:01:27.000Z</time>
      </trkpt>
      <trkpt lat="49.12717" lon="1.42649">
        <ele>77.088493347168</ele>
        <time>2013-09-22T09:01:29.000Z</time>
      </trkpt>
      <trkpt lat="49.1271" lon="1.42668">
        <ele>75.152503967285</ele>
        <time>2013-09-22T09:01:32.000Z</time>
      </trkpt>
      <trkpt lat="49.12705" lon="1.42675">
        <ele>73.204711914062</ele>
        <time>2013-09-22T09:01:34.000Z</time>
      </trkpt>
      <trkpt lat="49.12698" lon="1.42683">
        <ele>71.423988342285</ele>
        <time>2013-09-22T09:01:37.000Z</time>
      </trkpt>
      <trkpt lat="49.12698" lon="1.42689">
        <ele>69.783279418945</ele>
        <time>2013-09-22T09:01:40.000Z</time>
      </trkpt>
      <trkpt lat="49.12699" lon="1.42687">
        <ele>68.635154724121</ele>
        <time>2013-09-22T09:01:42.000Z</time>
      </trkpt>
      <trkpt lat="49.12695" lon="1.4269">
        <ele>68.049545288086</ele>
        <time>2013-09-22T09:01:59.000Z</time>
      </trkpt>
      <trkpt lat="49.12694" lon="1.42688">
        <ele>67.826530456543</ele>
        <time>2013-09-22T09:02:18.000Z</time>
      </trkpt>
      <trkpt lat="49.12692" lon="1.4269">
        <ele>67.74568939209</ele>
        <time>2013-09-22T09:02:21.000Z</time>
      </trkpt>
      <trkpt lat="49.12691" lon="1.42699">
        <ele>67.486946105957</ele>
        <time>2013-09-22T09:02:24.000Z</time>
      </trkpt>
      <trkpt lat="49.1269" lon="1.42712">
        <ele>66.513656616211</ele>
        <time>2013-09-22T09:02:26.000Z</time>
      </trkpt>
      <trkpt lat="49.12687" lon="1.42729">
        <ele>64.756462097168</ele>
        <time>2013-09-22T09:02:28.000Z</time>
      </trkpt>
      <trkpt lat="49.12677" lon="1.42752">
        <ele>62.042957305908</ele>
        <time>2013-09-22T09:02:31.000Z</time>
      </trkpt>
      <trkpt lat="49.12671" lon="1.42772">
        <ele>58.821022033691</ele>
        <time>2013-09-22T09:02:34.000Z</time>
      </trkpt>
      <trkpt lat="49.12669" lon="1.42786">
        <ele>55.589977264404</ele>
        <time>2013-09-22T09:02:36.000Z</time>
      </trkpt>
      <trkpt lat="49.12673" lon="1.42812">
        <ele>51.882202148438</ele>
        <time>2013-09-22T09:02:39.000Z</time>
      </trkpt>
      <trkpt lat="49.12674" lon="1.42831">
        <ele>48.239238739014</ele>
        <time>2013-09-22T09:02:42.000Z</time>
      </trkpt>
      <trkpt lat="49.12661" lon="1.42842">
        <ele>45.325214385986</ele>
        <time>2013-09-22T09:02:45.000Z</time>
      </trkpt>
      <trkpt lat="49.12655" lon="1.4284">
        <ele>43.147663116455</ele>
        <time>2013-09-22T09:02:48.000Z</time>
      </trkpt>
      <trkpt lat="49.12653" lon="1.42843">
        <ele>41.393653869629</ele>
        <time>2013-09-22T09:02:51.000Z</time>
      </trkpt>
      <trkpt lat="49.12651" lon="1.42844">
        <ele>40.753326416016</ele>
        <time>2013-09-22T09:02:53.000Z</time>
      </trkpt>
      <trkpt lat="49.12643" lon="1.42846">
        <ele>40.973743438721</ele>
        <time>2013-09-22T09:02:56.000Z</time>
      </trkpt>
      <trkpt lat="49.12635" lon="1.42846">
        <ele>41.475875854492</ele>
        <time>2013-09-22T09:02:58.000Z</time>
      </trkpt>
      <trkpt lat="49.12625" lon="1.42844">
        <ele>42.041999816895</ele>
        <time>2013-09-22T09:03:01.000Z</time>
      </trkpt>
      <trkpt lat="49.12614" lon="1.42844">
        <ele>42.892204284668</ele>
        <time>2013-09-22T09:03:04.000Z</time>
      </trkpt>
      <trkpt lat="49.12608" lon="1.42846">
        <ele>43.859672546387</ele>
        <time>2013-09-22T09:03:06.000Z</time>
      </trkpt>
      <trkpt lat="49.12597" lon="1.42846">
        <ele>44.949108123779</ele>
        <time>2013-09-22T09:03:09.000Z</time>
      </trkpt>
      <trkpt lat="49.12591" lon="1.42846">
        <ele>45.953491210938</ele>
        <time>2013-09-22T09:03:11.000Z</time>
      </trkpt>
      <trkpt lat="49.12582" lon="1.42847">
        <ele>46.851959228516</ele>
        <time>2013-09-22T09:03:14.000Z</time>
      </trkpt>
      <trkpt lat="49.12575" lon="1.4285">
        <ele>47.654006958008</ele>
        <time>2013-09-22T09:03:17.000Z</time>
      </trkpt>
      <trkpt lat="49.12568" lon="1.4285">
        <ele>48.63111114502</ele>
        <time>2013-09-22T09:03:20.000Z</time>
      </trkpt>
      <trkpt lat="49.1256" lon="1.42851">
        <ele>49.604404449463</ele>
        <time>2013-09-22T09:03:23.000Z</time>
      </trkpt>
      <trkpt lat="49.12553" lon="1.42854">
        <ele>50.606597900391</ele>
        <time>2013-09-22T09:03:26.000Z</time>
      </trkpt>
      <trkpt lat="49.12548" lon="1.42854">
        <ele>51.571094512939</ele>
        <time>2013-09-22T09:03:28.000Z</time>
      </trkpt>
      <trkpt lat="49.12543" lon="1.42856">
        <ele>52.516571044922</ele>
        <time>2013-09-22T09:03:30.000Z</time>
      </trkpt>
      <trkpt lat="49.12539" lon="1.42856">
        <ele>53.323585510254</ele>
        <time>2013-09-22T09:03:33.000Z</time>
      </trkpt>
      <trkpt lat="49.12535" lon="1.42857">
        <ele>54.000495910645</ele>
        <time>2013-09-22T09:03:35.000Z</time>
      </trkpt>
      <trkpt lat="49.12529" lon="1.42859">
        <ele>54.640083312988</ele>
        <time>2013-09-22T09:03:38.000Z</time>
      </trkpt>
      <trkpt lat="49.12518" lon="1.42863">
        <ele>55.304615020752</ele>
        <time>2013-09-22T09:03:41.000Z</time>
      </trkpt>
      <trkpt lat="49.12508" lon="1.42865">
        <ele>56.0546875</ele>
        <time>2013-09-22T09:03:44.000Z</time>
      </trkpt>
      <trkpt lat="49.12502" lon="1.42869">
        <ele>56.669452667236</ele>
        <time>2013-09-22T09:03:47.000Z</time>
      </trkpt>
      <trkpt lat="49.12497" lon="1.42873">
        <ele>57.074699401855</ele>
        <time>2013-09-22T09:03:49.000Z</time>
      </trkpt>
      <trkpt lat="49.12491" lon="1.42877">
        <ele>57.20516204834</ele>
        <time>2013-09-22T09:03:52.000Z</time>
      </trkpt>
      <trkpt lat="49.12484" lon="1.42881">
        <ele>57.054340362549</ele>
        <time>2013-09-22T09:03:55.000Z</time>
      </trkpt>
      <trkpt lat="49.1248" lon="1.42883">
        <ele>56.640827178955</ele>
        <time>2013-09-22T09:03:57.000Z</time>
      </trkpt>
      <trkpt lat="49.12476" lon="1.42884">
        <ele>56.179664611816</ele>
        <time>2013-09-22T09:04:00.000Z</time>
      </trkpt>
      <trkpt lat="49.12465" lon="1.42885">
        <ele>55.90665435791</ele>
        <time>2013-09-22T09:04:03.000Z</time>
      </trkpt>
      <trkpt lat="49.12458" lon="1.42887">
        <ele>55.825866699219</ele>
        <time>2013-09-22T09:04:06.000Z</time>
      </trkpt>
      <trkpt lat="49.12449" lon="1.42891">
        <ele>55.775932312012</ele>
        <time>2013-09-22T09:04:09.000Z</time>
      </trkpt>
      <trkpt lat="49.12444" lon="1.42897">
        <ele>55.546802520752</ele>
        <time>2013-09-22T09:04:12.000Z</time>
      </trkpt>
      <trkpt lat="49.12439" lon="1.429">
        <ele>55.264579772949</ele>
        <time>2013-09-22T09:04:15.000Z</time>
      </trkpt>
      <trkpt lat="49.12431" lon="1.42905">
        <ele>54.785930633545</ele>
        <time>2013-09-22T09:04:18.000Z</time>
      </trkpt>
      <trkpt lat="49.12425" lon="1.42912">
        <ele>54.026496887207</ele>
        <time>2013-09-22T09:04:21.000Z</time>
      </trkpt>
      <trkpt lat="49.12421" lon="1.42915">
        <ele>53.322437286377</ele>
        <time>2013-09-22T09:04:24.000Z</time>
      </trkpt>
      <trkpt lat="49.12411" lon="1.42918">
        <ele>52.736400604248</ele>
        <time>2013-09-22T09:04:27.000Z</time>
      </trkpt>
      <trkpt lat="49.12407" lon="1.42922">
        <ele>52.090576171875</ele>
        <time>2013-09-22T09:04:29.000Z</time>
      </trkpt>
      <trkpt lat="49.12398" lon="1.42926">
        <ele>51.351329803467</ele>
        <time>2013-09-22T09:04:32.000Z</time>
      </trkpt>
      <trkpt lat="49.12386" lon="1.42929">
        <ele>50.698822021484</ele>
        <time>2013-09-22T09:04:35.000Z</time>
      </trkpt>
      <trkpt lat="49.12377" lon="1.42933">
        <ele>49.937007904053</ele>
        <time>2013-09-22T09:04:37.000Z</time>
      </trkpt>
      <trkpt lat="49.12366" lon="1.42937">
        <ele>49.127628326416</ele>
        <time>2013-09-22T09:04:39.000Z</time>
      </trkpt>
      <trkpt lat="49.12352" lon="1.42942">
        <ele>48.267082214355</ele>
        <time>2013-09-22T09:04:42.000Z</time>
      </trkpt>
      <trkpt lat="49.12339" lon="1.42947">
        <ele>47.440269470215</ele>
        <time>2013-09-22T09:04:45.000Z</time>
      </trkpt>
      <trkpt lat="49.1233" lon="1.42948">
        <ele>46.765098571777</ele>
        <time>2013-09-22T09:04:47.000Z</time>
      </trkpt>
      <trkpt lat="49.12318" lon="1.4295">
        <ele>46.371913909912</ele>
        <time>2013-09-22T09:04:50.000Z</time>
      </trkpt>
      <trkpt lat="49.12304" lon="1.42953">
        <ele>46.270511627197</ele>
        <time>2013-09-22T09:04:53.000Z</time>
      </trkpt>
      <trkpt lat="49.12296" lon="1.42955">
        <ele>46.428493499756</ele>
        <time>2013-09-22T09:04:55.000Z</time>
      </trkpt>
      <trkpt lat="49.12286" lon="1.42956">
        <ele>46.844230651855</ele>
        <time>2013-09-22T09:04:58.000Z</time>
      </trkpt>
      <trkpt lat="49.1228" lon="1.42958">
        <ele>47.285732269287</ele>
        <time>2013-09-22T09:05:00.000Z</time>
      </trkpt>
      <trkpt lat="49.12274" lon="1.42959">
        <ele>47.655197143555</ele>
        <time>2013-09-22T09:05:02.000Z</time>
      </trkpt>
      <trkpt lat="49.12265" lon="1.4296">
        <ele>47.960819244385</ele>
        <time>2013-09-22T09:05:05.000Z</time>
      </trkpt>
      <trkpt lat="49.12257" lon="1.42963">
        <ele>48.234443664551</ele>
        <time>2013-09-22T09:05:08.000Z</time>
      </trkpt>
      <trkpt lat="49.12251" lon="1.42964">
        <ele>48.450687408447</ele>
        <time>2013-09-22T09:05:10.000Z</time>
      </trkpt>
      <trkpt lat="49.12243" lon="1.42966">
        <ele>48.698184967041</ele>
        <time>2013-09-22T09:05:13.000Z</time>
      </trkpt>
      <trkpt lat="49.12238" lon="1.42967">
        <ele>48.91349029541</ele>
        <time>2013-09-22T09:05:15.000Z</time>
      </trkpt>
      <trkpt lat="49.12233" lon="1.42969">
        <ele>49.081535339355</ele>
        <time>2013-09-22T09:05:17.000Z</time>
      </trkpt>
      <trkpt lat="49.12225" lon="1.42971">
        <ele>49.270202636719</ele>
        <time>2013-09-22T09:05:20.000Z</time>
      </trkpt>
      <trkpt lat="49.12222" lon="1.42972">
        <ele>49.408958435059</ele>
        <time>2013-09-22T09:05:22.000Z</time>
      </trkpt>
      <trkpt lat="49.12217" lon="1.42974">
        <ele>49.498161315918</ele>
        <time>2013-09-22T09:05:25.000Z</time>
      </trkpt>
      <trkpt lat="49.12212" lon="1.42974">
        <ele>49.646743774414</ele>
        <time>2013-09-22T09:05:28.000Z</time>
      </trkpt>
      <trkpt lat="49.1221" lon="1.42973">
        <ele>49.825695037842</ele>
        <time>2013-09-22T09:05:30.000Z</time>
      </trkpt>
      <trkpt lat="49.12211" lon="1.42969">
        <ele>50.11311340332</ele>
        <time>2013-09-22T09:05:33.000Z</time>
      </trkpt>
      <trkpt lat="49.12216" lon="1.42965">
        <ele>50.499744415283</ele>
        <time>2013-09-22T09:05:36.000Z</time>
      </trkpt>
      <trkpt lat="49.12219" lon="1.4296">
        <ele>51.015190124512</ele>
        <time>2013-09-22T09:05:39.000Z</time>
      </trkpt>
      <trkpt lat="49.12221" lon="1.42957">
        <ele>51.547393798828</ele>
        <time>2013-09-22T09:05:41.000Z</time>
      </trkpt>
      <trkpt lat="49.12223" lon="1.42952">
        <ele>52.172649383545</ele>
        <time>2013-09-22T09:05:44.000Z</time>
      </trkpt>
      <trkpt lat="49.12226" lon="1.42949">
        <ele>52.734931945801</ele>
        <time>2013-09-22T09:05:46.000Z</time>
      </trkpt>
      <trkpt lat="49.12229" lon="1.42944">
        <ele>53.364379882812</ele>
        <time>2013-09-22T09:05:49.000Z</time>
      </trkpt>
      <trkpt lat="49.12227" lon="1.42942">
        <ele>53.955768585205</ele>
        <time>2013-09-22T09:05:52.000Z</time>
      </trkpt>
      <trkpt lat="49.12219" lon="1.4295">
        <ele>54.260589599609</ele>
        <time>2013-09-22T09:05:55.000Z</time>
      </trkpt>
      <trkpt lat="49.12216" lon="1.42954">
        <ele>54.319438934326</ele>
        <time>2013-09-22T09:05:58.000Z</time>
      </trkpt>
      <trkpt lat="49.12214" lon="1.42956">
        <ele>54.250617980957</ele>
        <time>2013-09-22T09:06:00.000Z</time>
      </trkpt>
      <trkpt lat="49.12212" lon="1.42957">
        <ele>54.016784667969</ele>
        <time>2013-09-22T09:06:03.000Z</time>
      </trkpt>
      <trkpt lat="49.12207" lon="1.42958">
        <ele>53.718494415283</ele>
        <time>2013-09-22T09:06:06.000Z</time>
      </trkpt>
      <trkpt lat="49.12201" lon="1.42958">
        <ele>53.724811553955</ele>
        <time>2013-09-22T09:06:09.000Z</time>
      </trkpt>
      <trkpt lat="49.12196" lon="1.42957">
        <ele>53.929088592529</ele>
        <time>2013-09-22T09:06:12.000Z</time>
      </trkpt>
      <trkpt lat="49.12194" lon="1.42956">
        <ele>54.266357421875</ele>
        <time>2013-09-22T09:06:15.000Z</time>
      </trkpt>
      <trkpt lat="49.12191" lon="1.42956">
        <ele>54.664081573486</ele>
        <time>2013-09-22T09:06:17.000Z</time>
      </trkpt>
      <trkpt lat="49.12188" lon="1.42956">
        <ele>55.092735290527</ele>
        <time>2013-09-22T09:06:20.000Z</time>
      </trkpt>
      <trkpt lat="49.12186" lon="1.42956">
        <ele>55.428050994873</ele>
        <time>2013-09-22T09:06:22.000Z</time>
      </trkpt>
      <trkpt lat="49.12183" lon="1.42955">
        <ele>55.746459960938</ele>
        <time>2013-09-22T09:06:25.000Z</time>
      </trkpt>
      <trkpt lat="49.12179" lon="1.42954">
        <ele>56.076160430908</ele>
        <time>2013-09-22T09:06:28.000Z</time>
      </trkpt>
      <trkpt lat="49.12175" lon="1.42953">
        <ele>56.451587677002</ele>
        <time>2013-09-22T09:06:30.000Z</time>
      </trkpt>
      <trkpt lat="49.12171" lon="1.42953">
        <ele>56.86474609375</ele>
        <time>2013-09-22T09:06:33.000Z</time>
      </trkpt>
      <trkpt lat="49.12167" lon="1.42952">
        <ele>57.332221984863</ele>
        <time>2013-09-22T09:06:36.000Z</time>
      </trkpt>
      <trkpt lat="49.12163" lon="1.42953">
        <ele>57.811817169189</ele>
        <time>2013-09-22T09:06:39.000Z</time>
      </trkpt>
      <trkpt lat="49.1216" lon="1.42953">
        <ele>58.236625671387</ele>
        <time>2013-09-22T09:06:41.000Z</time>
      </trkpt>
      <trkpt lat="49.12156" lon="1.42955">
        <ele>58.608661651611</ele>
        <time>2013-09-22T09:06:44.000Z</time>
      </trkpt>
      <trkpt lat="49.12153" lon="1.42957">
        <ele>58.897968292236</ele>
        <time>2013-09-22T09:06:46.000Z</time>
      </trkpt>
      <trkpt lat="49.12148" lon="1.42959">
        <ele>59.112449645996</ele>
        <time>2013-09-22T09:06:49.000Z</time>
      </trkpt>
      <trkpt lat="49.12143" lon="1.4296">
        <ele>59.335754394531</ele>
        <time>2013-09-22T09:06:52.000Z</time>
      </trkpt>
      <trkpt lat="49.12141" lon="1.42962">
        <ele>59.496238708496</ele>
        <time>2013-09-22T09:06:54.000Z</time>
      </trkpt>
      <trkpt lat="49.12139" lon="1.42962">
        <ele>59.651172637939</ele>
        <time>2013-09-22T09:06:57.000Z</time>
      </trkpt>
      <trkpt lat="49.12134" lon="1.42965">
        <ele>59.812297821045</ele>
        <time>2013-09-22T09:07:00.000Z</time>
      </trkpt>
      <trkpt lat="49.12132" lon="1.42967">
        <ele>59.944396972656</ele>
        <time>2013-09-22T09:07:02.000Z</time>
      </trkpt>
      <trkpt lat="49.12129" lon="1.4297">
        <ele>59.917755126953</ele>
        <time>2013-09-22T09:07:05.000Z</time>
      </trkpt>
      <trkpt lat="49.12124" lon="1.42971">
        <ele>59.954486846924</ele>
        <time>2013-09-22T09:07:08.000Z</time>
      </trkpt>
      <trkpt lat="49.1212" lon="1.42974">
        <ele>59.950416564941</ele>
        <time>2013-09-22T09:07:11.000Z</time>
      </trkpt>
      <trkpt lat="49.12115" lon="1.42977">
        <ele>59.916515350342</ele>
        <time>2013-09-22T09:07:14.000Z</time>
      </trkpt>
      <trkpt lat="49.12112" lon="1.42979">
        <ele>59.889549255371</ele>
        <time>2013-09-22T09:07:16.000Z</time>
      </trkpt>
      <trkpt lat="49.12111" lon="1.42981">
        <ele>59.897216796875</ele>
        <time>2013-09-22T09:07:19.000Z</time>
      </trkpt>
      <trkpt lat="49.12105" lon="1.42984">
        <ele>59.860126495361</ele>
        <time>2013-09-22T09:07:22.000Z</time>
      </trkpt>
      <trkpt lat="49.12099" lon="1.42986">
        <ele>59.859039306641</ele>
        <time>2013-09-22T09:07:25.000Z</time>
      </trkpt>
      <trkpt lat="49.12096" lon="1.42988">
        <ele>59.858665466309</ele>
        <time>2013-09-22T09:07:27.000Z</time>
      </trkpt>
      <trkpt lat="49.12091" lon="1.42991">
        <ele>59.905040740967</ele>
        <time>2013-09-22T09:07:30.000Z</time>
      </trkpt>
      <trkpt lat="49.12087" lon="1.42992">
        <ele>60.013153076172</ele>
        <time>2013-09-22T09:07:32.000Z</time>
      </trkpt>
      <trkpt lat="49.1208" lon="1.42994">
        <ele>60.205677032471</ele>
        <time>2013-09-22T09:07:35.000Z</time>
      </trkpt>
      <trkpt lat="49.12075" lon="1.42994">
        <ele>60.428325653076</ele>
        <time>2013-09-22T09:07:38.000Z</time>
      </trkpt>
      <trkpt lat="49.1207" lon="1.42994">
        <ele>60.78589630127</ele>
        <time>2013-09-22T09:07:40.000Z</time>
      </trkpt>
      <trkpt lat="49.12066" lon="1.42994">
        <ele>61.19995880127</ele>
        <time>2013-09-22T09:07:42.000Z</time>
      </trkpt>
      <trkpt lat="49.12061" lon="1.42994">
        <ele>61.651439666748</ele>
        <time>2013-09-22T09:07:44.000Z</time>
      </trkpt>
      <trkpt lat="49.12057" lon="1.42994">
        <ele>62.078540802002</ele>
        <time>2013-09-22T09:07:46.000Z</time>
      </trkpt>
      <trkpt lat="49.1205" lon="1.42995">
        <ele>62.507617950439</ele>
        <time>2013-09-22T09:07:49.000Z</time>
      </trkpt>
      <trkpt lat="49.12044" lon="1.42996">
        <ele>62.89803314209</ele>
        <time>2013-09-22T09:07:52.000Z</time>
      </trkpt>
      <trkpt lat="49.12039" lon="1.42997">
        <ele>63.232769012451</ele>
        <time>2013-09-22T09:07:55.000Z</time>
      </trkpt>
      <trkpt lat="49.12036" lon="1.42998">
        <ele>63.538459777832</ele>
        <time>2013-09-22T09:07:58.000Z</time>
      </trkpt>
      <trkpt lat="49.12031" lon="1.42999">
        <ele>63.827098846435</ele>
        <time>2013-09-22T09:08:01.000Z</time>
      </trkpt>
      <trkpt lat="49.12028" lon="1.42999">
        <ele>64.078918457031</ele>
        <time>2013-09-22T09:08:03.000Z</time>
      </trkpt>
      <trkpt lat="49.12023" lon="1.43002">
        <ele>64.237411499023</ele>
        <time>2013-09-22T09:08:06.000Z</time>
      </trkpt>
      <trkpt lat="49.12019" lon="1.43003">
        <ele>64.349945068359</ele>
        <time>2013-09-22T09:08:08.000Z</time>
      </trkpt>
      <trkpt lat="49.12017" lon="1.43005">
        <ele>64.404304504395</ele>
        <time>2013-09-22T09:08:10.000Z</time>
      </trkpt>
      <trkpt lat="49.12012" lon="1.43006">
        <ele>64.449844360352</ele>
        <time>2013-09-22T09:08:13.000Z</time>
      </trkpt>
      <trkpt lat="49.12008" lon="1.43007">
        <ele>64.484046936035</ele>
        <time>2013-09-22T09:08:16.000Z</time>
      </trkpt>
      <trkpt lat="49.12003" lon="1.43008">
        <ele>64.561416625977</ele>
        <time>2013-09-22T09:08:19.000Z</time>
      </trkpt>
      <trkpt lat="49.12" lon="1.43008">
        <ele>64.698020935059</ele>
        <time>2013-09-22T09:08:21.000Z</time>
      </trkpt>
      <trkpt lat="49.11998" lon="1.43008">
        <ele>64.85799407959</ele>
        <time>2013-09-22T09:08:23.000Z</time>
      </trkpt>
      <trkpt lat="49.11995" lon="1.43009">
        <ele>64.969848632812</ele>
        <time>2013-09-22T09:08:25.000Z</time>
      </trkpt>
      <trkpt lat="49.11993" lon="1.43009">
        <ele>65.042251586914</ele>
        <time>2013-09-22T09:08:27.000Z</time>
      </trkpt>
      <trkpt lat="49.11986" lon="1.43011">
        <ele>65.081153869629</ele>
        <time>2013-09-22T09:08:30.000Z</time>
      </trkpt>
      <trkpt lat="49.11984" lon="1.43011">
        <ele>65.060974121094</ele>
        <time>2013-09-22T09:08:32.000Z</time>
      </trkpt>
      <trkpt lat="49.11978" lon="1.43012">
        <ele>65.04426574707</ele>
        <time>2013-09-22T09:08:35.000Z</time>
      </trkpt>
      <trkpt lat="49.11975" lon="1.43012">
        <ele>65.053955078125</ele>
        <time>2013-09-22T09:08:37.000Z</time>
      </trkpt>
      <trkpt lat="49.1197" lon="1.43012">
        <ele>65.110794067383</ele>
        <time>2013-09-22T09:08:40.000Z</time>
      </trkpt>
      <trkpt lat="49.11964" lon="1.43014">
        <ele>65.139991760254</ele>
        <time>2013-09-22T09:08:43.000Z</time>
      </trkpt>
      <trkpt lat="49.11961" lon="1.43014">
        <ele>65.201194763184</ele>
        <time>2013-09-22T09:08:45.000Z</time>
      </trkpt>
      <trkpt lat="49.11956" lon="1.43013">
        <ele>65.342826843262</ele>
        <time>2013-09-22T09:08:48.000Z</time>
      </trkpt>
      <trkpt lat="49.11955" lon="1.43012">
        <ele>65.497528076172</ele>
        <time>2013-09-22T09:08:50.000Z</time>
      </trkpt>
      <trkpt lat="49.11949" lon="1.43012">
        <ele>65.668785095215</ele>
        <time>2013-09-22T09:08:53.000Z</time>
      </trkpt>
      <trkpt lat="49.11943" lon="1.43014">
        <ele>65.824401855469</ele>
        <time>2013-09-22T09:08:56.000Z</time>
      </trkpt>
      <trkpt lat="49.1194" lon="1.43015">
        <ele>65.980163574219</ele>
        <time>2013-09-22T09:08:59.000Z</time>
      </trkpt>
      <trkpt lat="49.11937" lon="1.43016">
        <ele>66.000839233398</ele>
        <time>2013-09-22T09:09:01.000Z</time>
      </trkpt>
      <trkpt lat="49.11931" lon="1.43018">
        <ele>65.949691772461</ele>
        <time>2013-09-22T09:09:04.000Z</time>
      </trkpt>
      <trkpt lat="49.11927" lon="1.43019">
        <ele>65.867538452148</ele>
        <time>2013-09-22T09:09:06.000Z</time>
      </trkpt>
      <trkpt lat="49.11923" lon="1.43018">
        <ele>65.90453338623</ele>
        <time>2013-09-22T09:09:09.000Z</time>
      </trkpt>
      <trkpt lat="49.11922" lon="1.43017">
        <ele>65.935653686523</ele>
        <time>2013-09-22T09:09:12.000Z</time>
      </trkpt>
      <trkpt lat="49.11919" lon="1.43018">
        <ele>66.016288757324</ele>
        <time>2013-09-22T09:09:14.000Z</time>
      </trkpt>
      <trkpt lat="49.11917" lon="1.43017">
        <ele>66.167617797852</ele>
        <time>2013-09-22T09:09:17.000Z</time>
      </trkpt>
      <trkpt lat="49.11914" lon="1.43016">
        <ele>66.354858398438</ele>
        <time>2013-09-22T09:09:19.000Z</time>
      </trkpt>
      <trkpt lat="49.11909" lon="1.43016">
        <ele>66.506889343262</ele>
        <time>2013-09-22T09:09:22.000Z</time>
      </trkpt>
      <trkpt lat="49.11903" lon="1.43015">
        <ele>66.689628601074</ele>
        <time>2013-09-22T09:09:25.000Z</time>
      </trkpt>
      <trkpt lat="49.11898" lon="1.43016">
        <ele>66.848754882812</ele>
        <time>2013-09-22T09:09:27.000Z</time>
      </trkpt>
      <trkpt lat="49.11895" lon="1.43017">
        <ele>66.957809448242</ele>
        <time>2013-09-22T09:09:29.000Z</time>
      </trkpt>
      <trkpt lat="49.1189" lon="1.43019">
        <ele>66.940078735352</ele>
        <time>2013-09-22T09:09:32.000Z</time>
      </trkpt>
      <trkpt lat="49.11885" lon="1.43019">
        <ele>66.906356811523</ele>
        <time>2013-09-22T09:09:35.000Z</time>
      </trkpt>
      <trkpt lat="49.11882" lon="1.43019">
        <ele>66.857574462891</ele>
        <time>2013-09-22T09:09:37.000Z</time>
      </trkpt>
      <trkpt lat="49.11876" lon="1.43016">
        <ele>66.931816101074</ele>
        <time>2013-09-22T09:09:40.000Z</time>
      </trkpt>
      <trkpt lat="49.11871" lon="1.43015">
        <ele>67.098854064941</ele>
        <time>2013-09-22T09:09:42.000Z</time>
      </trkpt>
      <trkpt lat="49.11867" lon="1.43014">
        <ele>67.384582519531</ele>
        <time>2013-09-22T09:09:44.000Z</time>
      </trkpt>
      <trkpt lat="49.11863" lon="1.43012">
        <ele>67.726463317871</ele>
        <time>2013-09-22T09:09:46.000Z</time>
      </trkpt>
      <trkpt lat="49.11858" lon="1.4301">
        <ele>68.117599487305</ele>
        <time>2013-09-22T09:09:49.000Z</time>
      </trkpt>
      <trkpt lat="49.11852" lon="1.4301">
        <ele>68.430519104004</ele>
        <time>2013-09-22T09:09:52.000Z</time>
      </trkpt>
      <trkpt lat="49.11847" lon="1.43009">
        <ele>68.706436157227</ele>
        <time>2013-09-22T09:09:55.000Z</time>
      </trkpt>
      <trkpt lat="49.11841" lon="1.43011">
        <ele>68.90941619873</ele>
        <time>2013-09-22T09:09:57.000Z</time>
      </trkpt>
      <trkpt lat="49.11833" lon="1.43012">
        <ele>69.0205078125</ele>
        <time>2013-09-22T09:10:00.000Z</time>
      </trkpt>
      <trkpt lat="49.11828" lon="1.43013">
        <ele>68.929557800293</ele>
        <time>2013-09-22T09:10:02.000Z</time>
      </trkpt>
      <trkpt lat="49.11821" lon="1.4301">
        <ele>68.782325744629</ele>
        <time>2013-09-22T09:10:05.000Z</time>
      </trkpt>
      <trkpt lat="49.11816" lon="1.43006">
        <ele>68.661026000977</ele>
        <time>2013-09-22T09:10:07.000Z</time>
      </trkpt>
      <trkpt lat="49.11808" lon="1.43001">
        <ele>68.60164642334</ele>
        <time>2013-09-22T09:10:09.000Z</time>
      </trkpt>
      <trkpt lat="49.11799" lon="1.42994">
        <ele>68.594535827637</ele>
        <time>2013-09-22T09:10:12.000Z</time>
      </trkpt>
      <trkpt lat="49.1179" lon="1.42987">
        <ele>68.735221862793</ele>
        <time>2013-09-22T09:10:15.000Z</time>
      </trkpt>
      <trkpt lat="49.1178" lon="1.42983">
        <ele>68.83528137207</ele>
        <time>2013-09-22T09:10:18.000Z</time>
      </trkpt>
      <trkpt lat="49.11769" lon="1.42985">
        <ele>68.61994934082</ele>
        <time>2013-09-22T09:10:21.000Z</time>
      </trkpt>
      <trkpt lat="49.11761" lon="1.42979">
        <ele>68.387939453125</ele>
        <time>2013-09-22T09:10:23.000Z</time>
      </trkpt>
      <trkpt lat="49.11755" lon="1.42971">
        <ele>68.178466796875</ele>
        <time>2013-09-22T09:10:26.000Z</time>
      </trkpt>
      <trkpt lat="49.11752" lon="1.42966">
        <ele>68.014549255371</ele>
        <time>2013-09-22T09:10:28.000Z</time>
      </trkpt>
      <trkpt lat="49.11749" lon="1.42962">
        <ele>67.985496520996</ele>
        <time>2013-09-22T09:10:30.000Z</time>
      </trkpt>
      <trkpt lat="49.11745" lon="1.42952">
        <ele>68.460723876953</ele>
        <time>2013-09-22T09:10:33.000Z</time>
      </trkpt>
      <trkpt lat="49.11744" lon="1.42945">
        <ele>69.080978393555</ele>
        <time>2013-09-22T09:10:35.000Z</time>
      </trkpt>
      <trkpt lat="49.11744" lon="1.42941">
        <ele>69.741371154785</ele>
        <time>2013-09-22T09:10:37.000Z</time>
      </trkpt>
      <trkpt lat="49.11743" lon="1.42931">
        <ele>70.55460357666</ele>
        <time>2013-09-22T09:10:40.000Z</time>
      </trkpt>
      <trkpt lat="49.11742" lon="1.42921">
        <ele>71.538803100586</ele>
        <time>2013-09-22T09:10:43.000Z</time>
      </trkpt>
      <trkpt lat="49.11739" lon="1.42913">
        <ele>72.432762145996</ele>
        <time>2013-09-22T09:10:45.000Z</time>
      </trkpt>
      <trkpt lat="49.11738" lon="1.42906">
        <ele>73.315078735352</ele>
        <time>2013-09-22T09:10:47.000Z</time>
      </trkpt>
      <trkpt lat="49.11737" lon="1.42896">
        <ele>74.287704467773</ele>
        <time>2013-09-22T09:10:50.000Z</time>
      </trkpt>
      <trkpt lat="49.11734" lon="1.42887">
        <ele>75.219009399414</ele>
        <time>2013-09-22T09:10:53.000Z</time>
      </trkpt>
      <trkpt lat="49.11734" lon="1.4288">
        <ele>76.047470092773</ele>
        <time>2013-09-22T09:10:55.000Z</time>
      </trkpt>
      <trkpt lat="49.11732" lon="1.42876">
        <ele>76.791625976562</ele>
        <time>2013-09-22T09:10:57.000Z</time>
      </trkpt>
      <trkpt lat="49.1173" lon="1.42871">
        <ele>77.46989440918</ele>
        <time>2013-09-22T09:10:59.000Z</time>
      </trkpt>
      <trkpt lat="49.11727" lon="1.42866">
        <ele>78.05143737793</ele>
        <time>2013-09-22T09:11:02.000Z</time>
      </trkpt>
      <trkpt lat="49.11723" lon="1.42863">
        <ele>78.485092163086</ele>
        <time>2013-09-22T09:11:04.000Z</time>
      </trkpt>
      <trkpt lat="49.11718" lon="1.42861">
        <ele>78.802619934082</ele>
        <time>2013-09-22T09:11:07.000Z</time>
      </trkpt>
      <trkpt lat="49.11711" lon="1.4286">
        <ele>79.009086608887</ele>
        <time>2013-09-22T09:11:10.000Z</time>
      </trkpt>
      <trkpt lat="49.11703" lon="1.42863">
        <ele>79.05712890625</ele>
        <time>2013-09-22T09:11:13.000Z</time>
      </trkpt>
      <trkpt lat="49.11697" lon="1.42864">
        <ele>78.959266662598</ele>
        <time>2013-09-22T09:11:15.000Z</time>
      </trkpt>
      <trkpt lat="49.11694" lon="1.42865">
        <ele>78.799827575684</ele>
        <time>2013-09-22T09:11:18.000Z</time>
      </trkpt>
      <trkpt lat="49.11686" lon="1.42867">
        <ele>78.530258178711</ele>
        <time>2013-09-22T09:11:21.000Z</time>
      </trkpt>
      <trkpt lat="49.11679" lon="1.4287">
        <ele>78.233856201172</ele>
        <time>2013-09-22T09:11:24.000Z</time>
      </trkpt>
      <trkpt lat="49.11674" lon="1.42871">
        <ele>77.978233337402</ele>
        <time>2013-09-22T09:11:26.000Z</time>
      </trkpt>
      <trkpt lat="49.1167" lon="1.42872">
        <ele>77.728927612305</ele>
        <time>2013-09-22T09:11:28.000Z</time>
      </trkpt>
      <trkpt lat="49.11665" lon="1.42875">
        <ele>77.481369018555</ele>
        <time>2013-09-22T09:11:30.000Z</time>
      </trkpt>
      <trkpt lat="49.11663" lon="1.42877">
        <ele>77.330581665039</ele>
        <time>2013-09-22T09:11:32.000Z</time>
      </trkpt>
      <trkpt lat="49.11656" lon="1.42881">
        <ele>77.304931640625</ele>
        <time>2013-09-22T09:11:35.000Z</time>
      </trkpt>
      <trkpt lat="49.11652" lon="1.42882">
        <ele>77.368667602539</ele>
        <time>2013-09-22T09:11:37.000Z</time>
      </trkpt>
      <trkpt lat="49.11648" lon="1.42883">
        <ele>77.537796020508</ele>
        <time>2013-09-22T09:11:39.000Z</time>
      </trkpt>
      <trkpt lat="49.11642" lon="1.42887">
        <ele>77.789772033691</ele>
        <time>2013-09-22T09:11:42.000Z</time>
      </trkpt>
      <trkpt lat="49.11636" lon="1.42893">
        <ele>78.070983886719</ele>
        <time>2013-09-22T09:11:45.000Z</time>
      </trkpt>
      <trkpt lat="49.11629" lon="1.42896">
        <ele>78.357269287109</ele>
        <time>2013-09-22T09:11:48.000Z</time>
      </trkpt>
      <trkpt lat="49.11623" lon="1.42899">
        <ele>78.669540405273</ele>
        <time>2013-09-22T09:11:51.000Z</time>
      </trkpt>
      <trkpt lat="49.11621" lon="1.42901">
        <ele>78.922805786133</ele>
        <time>2013-09-22T09:11:54.000Z</time>
      </trkpt>
      <trkpt lat="49.11619" lon="1.42902">
        <ele>79.149002075195</ele>
        <time>2013-09-22T09:11:57.000Z</time>
      </trkpt>
      <trkpt lat="49.11613" lon="1.42904">
        <ele>79.421646118164</ele>
        <time>2013-09-22T09:12:00.000Z</time>
      </trkpt>
      <trkpt lat="49.1161" lon="1.42904">
        <ele>79.689064025879</ele>
        <time>2013-09-22T09:12:02.000Z</time>
      </trkpt>
      <trkpt lat="49.11604" lon="1.42905">
        <ele>79.980537414551</ele>
        <time>2013-09-22T09:12:05.000Z</time>
      </trkpt>
      <trkpt lat="49.11599" lon="1.42902">
        <ele>80.373916625977</ele>
        <time>2013-09-22T09:12:08.000Z</time>
      </trkpt>
      <trkpt lat="49.11596" lon="1.42899">
        <ele>80.838020324707</ele>
        <time>2013-09-22T09:12:11.000Z</time>
      </trkpt>
      <trkpt lat="49.11593" lon="1.42896">
        <ele>81.300193786621</ele>
        <time>2013-09-22T09:12:13.000Z</time>
      </trkpt>
      <trkpt lat="49.1159" lon="1.4289">
        <ele>81.849159240723</ele>
        <time>2013-09-22T09:12:16.000Z</time>
      </trkpt>
      <trkpt lat="49.11587" lon="1.42882">
        <ele>82.43187713623</ele>
        <time>2013-09-22T09:12:19.000Z</time>
      </trkpt>
      <trkpt lat="49.11586" lon="1.42877">
        <ele>82.996429443359</ele>
        <time>2013-09-22T09:12:21.000Z</time>
      </trkpt>
      <trkpt lat="49.11584" lon="1.42872">
        <ele>83.559432983398</ele>
        <time>2013-09-22T09:12:23.000Z</time>
      </trkpt>
      <trkpt lat="49.11579" lon="1.4287">
        <ele>84.107650756836</ele>
        <time>2013-09-22T09:12:26.000Z</time>
      </trkpt>
      <trkpt lat="49.11573" lon="1.42871">
        <ele>84.536094665527</ele>
        <time>2013-09-22T09:12:29.000Z</time>
      </trkpt>
      <trkpt lat="49.11568" lon="1.42874">
        <ele>84.82878112793</ele>
        <time>2013-09-22T09:12:31.000Z</time>
      </trkpt>
      <trkpt lat="49.11562" lon="1.42878">
        <ele>85.033737182617</ele>
        <time>2013-09-22T09:12:34.000Z</time>
      </trkpt>
      <trkpt lat="49.11559" lon="1.42882">
        <ele>85.122985839844</ele>
        <time>2013-09-22T09:12:36.000Z</time>
      </trkpt>
      <trkpt lat="49.11557" lon="1.42883">
        <ele>85.136917114258</ele>
        <time>2013-09-22T09:12:38.000Z</time>
      </trkpt>
      <trkpt lat="49.11552" lon="1.42886">
        <ele>85.12035369873</ele>
        <time>2013-09-22T09:12:41.000Z</time>
      </trkpt>
      <trkpt lat="49.11546" lon="1.42891">
        <ele>85.093620300293</ele>
        <time>2013-09-22T09:12:44.000Z</time>
      </trkpt>
      <trkpt lat="49.11543" lon="1.42893">
        <ele>85.067535400391</ele>
        <time>2013-09-22T09:12:47.000Z</time>
      </trkpt>
      <trkpt lat="49.11536" lon="1.42895">
        <ele>85.083374023438</ele>
        <time>2013-09-22T09:12:49.000Z</time>
      </trkpt>
      <trkpt lat="49.11531" lon="1.42898">
        <ele>85.100997924805</ele>
        <time>2013-09-22T09:12:51.000Z</time>
      </trkpt>
      <trkpt lat="49.11522" lon="1.42904">
        <ele>85.107810974121</ele>
        <time>2013-09-22T09:12:54.000Z</time>
      </trkpt>
      <trkpt lat="49.11515" lon="1.42909">
        <ele>85.101028442383</ele>
        <time>2013-09-22T09:12:57.000Z</time>
      </trkpt>
      <trkpt lat="49.11509" lon="1.42915">
        <ele>85.053489685059</ele>
        <time>2013-09-22T09:13:00.000Z</time>
      </trkpt>
      <trkpt lat="49.11504" lon="1.42918">
        <ele>84.984519958496</ele>
        <time>2013-09-22T09:13:02.000Z</time>
      </trkpt>
      <trkpt lat="49.11497" lon="1.42922">
        <ele>84.908378601074</ele>
        <time>2013-09-22T09:13:04.000Z</time>
      </trkpt>
      <trkpt lat="49.11486" lon="1.42928">
        <ele>84.770889282227</ele>
        <time>2013-09-22T09:13:07.000Z</time>
      </trkpt>
      <trkpt lat="49.11477" lon="1.42932">
        <ele>84.602798461914</ele>
        <time>2013-09-22T09:13:09.000Z</time>
      </trkpt>
      <trkpt lat="49.11468" lon="1.42938">
        <ele>84.411758422852</ele>
        <time>2013-09-22T09:13:11.000Z</time>
      </trkpt>
      <trkpt lat="49.11461" lon="1.42943">
        <ele>84.164611816406</ele>
        <time>2013-09-22T09:13:13.000Z</time>
      </trkpt>
      <trkpt lat="49.11451" lon="1.42952">
        <ele>83.837921142578</ele>
        <time>2013-09-22T09:13:16.000Z</time>
      </trkpt>
      <trkpt lat="49.11443" lon="1.42958">
        <ele>83.520660400391</ele>
        <time>2013-09-22T09:13:18.000Z</time>
      </trkpt>
      <trkpt lat="49.11429" lon="1.42966">
        <ele>83.16162109375</ele>
        <time>2013-09-22T09:13:21.000Z</time>
      </trkpt>
      <trkpt lat="49.11418" lon="1.42972">
        <ele>82.796600341797</ele>
        <time>2013-09-22T09:13:24.000Z</time>
      </trkpt>
      <trkpt lat="49.11407" lon="1.42976">
        <ele>82.473876953125</ele>
        <time>2013-09-22T09:13:27.000Z</time>
      </trkpt>
      <trkpt lat="49.11402" lon="1.42979">
        <ele>82.221572875977</ele>
        <time>2013-09-22T09:13:29.000Z</time>
      </trkpt>
      <trkpt lat="49.11395" lon="1.42983">
        <ele>82.006134033203</ele>
        <time>2013-09-22T09:13:32.000Z</time>
      </trkpt>
      <trkpt lat="49.11386" lon="1.42987">
        <ele>81.860939025879</ele>
        <time>2013-09-22T09:13:35.000Z</time>
      </trkpt>
      <trkpt lat="49.11378" lon="1.4299">
        <ele>81.75764465332</ele>
        <time>2013-09-22T09:13:37.000Z</time>
      </trkpt>
      <trkpt lat="49.11368" lon="1.42997">
        <ele>81.595596313477</ele>
        <time>2013-09-22T09:13:40.000Z</time>
      </trkpt>
      <trkpt lat="49.11357" lon="1.43005">
        <ele>81.323272705078</ele>
        <time>2013-09-22T09:13:43.000Z</time>
      </trkpt>
      <trkpt lat="49.11345" lon="1.43013">
        <ele>80.922775268555</ele>
        <time>2013-09-22T09:13:46.000Z</time>
      </trkpt>
      <trkpt lat="49.11337" lon="1.4302">
        <ele>80.416580200195</ele>
        <time>2013-09-22T09:13:48.000Z</time>
      </trkpt>
      <trkpt lat="49.11329" lon="1.43027">
        <ele>79.851524353027</ele>
        <time>2013-09-22T09:13:50.000Z</time>
      </trkpt>
      <trkpt lat="49.1132" lon="1.43031">
        <ele>79.443382263184</ele>
        <time>2013-09-22T09:13:53.000Z</time>
      </trkpt>
      <trkpt lat="49.11313" lon="1.43032">
        <ele>79.268226623535</ele>
        <time>2013-09-22T09:13:55.000Z</time>
      </trkpt>
      <trkpt lat="49.11304" lon="1.43031">
        <ele>79.405654907227</ele>
        <time>2013-09-22T09:13:58.000Z</time>
      </trkpt>
      <trkpt lat="49.11295" lon="1.43037">
        <ele>79.770401000977</ele>
        <time>2013-09-22T09:14:01.000Z</time>
      </trkpt>
      <trkpt lat="49.1129" lon="1.4304">
        <ele>80.288452148438</ele>
        <time>2013-09-22T09:14:03.000Z</time>
      </trkpt>
      <trkpt lat="49.11285" lon="1.43042">
        <ele>80.780532836914</ele>
        <time>2013-09-22T09:14:05.000Z</time>
      </trkpt>
      <trkpt lat="49.11283" lon="1.43048">
        <ele>81.166137695312</ele>
        <time>2013-09-22T09:14:07.000Z</time>
      </trkpt>
      <trkpt lat="49.1128" lon="1.43065">
        <ele>81.330062866211</ele>
        <time>2013-09-22T09:14:10.000Z</time>
      </trkpt>
      <trkpt lat="49.11278" lon="1.43082">
        <ele>81.340309143066</ele>
        <time>2013-09-22T09:14:12.000Z</time>
      </trkpt>
      <trkpt lat="49.11274" lon="1.43123">
        <ele>80.954124450684</ele>
        <time>2013-09-22T09:14:15.000Z</time>
      </trkpt>
      <trkpt lat="49.11273" lon="1.43165">
        <ele>80.124160766602</ele>
        <time>2013-09-22T09:14:18.000Z</time>
      </trkpt>
      <trkpt lat="49.11287" lon="1.43196">
        <ele>77.876350402832</ele>
        <time>2013-09-22T09:14:21.000Z</time>
      </trkpt>
      <trkpt lat="49.11315" lon="1.43201">
        <ele>74.49479675293</ele>
        <time>2013-09-22T09:14:24.000Z</time>
      </trkpt>
      <trkpt lat="49.11333" lon="1.43192">
        <ele>70.691482543945</ele>
        <time>2013-09-22T09:14:26.000Z</time>
      </trkpt>
      <trkpt lat="49.1135" lon="1.43186">
        <ele>67.32014465332</ele>
        <time>2013-09-22T09:14:28.000Z</time>
      </trkpt>
      <trkpt lat="49.11366" lon="1.43197">
        <ele>64.038726806641</ele>
        <time>2013-09-22T09:14:31.000Z</time>
      </trkpt>
      <trkpt lat="49.11369" lon="1.43213">
        <ele>61.775291442871</ele>
        <time>2013-09-22T09:14:34.000Z</time>
      </trkpt>
      <trkpt lat="49.11363" lon="1.43225">
        <ele>60.4345703125</ele>
        <time>2013-09-22T09:14:37.000Z</time>
      </trkpt>
      <trkpt lat="49.11351" lon="1.43232">
        <ele>59.42333984375</ele>
        <time>2013-09-22T09:14:40.000Z</time>
      </trkpt>
      <trkpt lat="49.11336" lon="1.43243">
        <ele>58.078002929688</ele>
        <time>2013-09-22T09:14:43.000Z</time>
      </trkpt>
      <trkpt lat="49.1133" lon="1.43248">
        <ele>57.005420684814</ele>
        <time>2013-09-22T09:14:46.000Z</time>
      </trkpt>
      <trkpt lat="49.11327" lon="1.4325">
        <ele>56.407104492188</ele>
        <time>2013-09-22T09:14:48.000Z</time>
      </trkpt>
      <trkpt lat="49.11326" lon="1.43251">
        <ele>56.123497009277</ele>
        <time>2013-09-22T09:14:51.000Z</time>
      </trkpt>
      <trkpt lat="49.11318" lon="1.43257">
        <ele>56.125465393066</ele>
        <time>2013-09-22T09:14:54.000Z</time>
      </trkpt>
      <trkpt lat="49.11314" lon="1.43263">
        <ele>56.363574981689</ele>
        <time>2013-09-22T09:14:56.000Z</time>
      </trkpt>
      <trkpt lat="49.11308" lon="1.43273">
        <ele>56.638465881348</ele>
        <time>2013-09-22T09:15:00.000Z</time>
      </trkpt>
      <trkpt lat="49.11305" lon="1.43274">
        <ele>56.891929626465</ele>
        <time>2013-09-22T09:15:02.000Z</time>
      </trkpt>
      <trkpt lat="49.11303" lon="1.43273">
        <ele>57.166877746582</ele>
        <time>2013-09-22T09:15:04.000Z</time>
      </trkpt>
      <trkpt lat="49.11294" lon="1.43281">
        <ele>57.377319335938</ele>
        <time>2013-09-22T09:15:14.000Z</time>
      </trkpt>
      <trkpt lat="49.11285" lon="1.43286">
        <ele>57.703308105469</ele>
        <time>2013-09-22T09:15:17.000Z</time>
      </trkpt>
      <trkpt lat="49.11274" lon="1.43289">
        <ele>58.178661346435</ele>
        <time>2013-09-22T09:15:21.000Z</time>
      </trkpt>
      <trkpt lat="49.11266" lon="1.43292">
        <ele>58.721336364746</ele>
        <time>2013-09-22T09:15:24.000Z</time>
      </trkpt>
      <trkpt lat="49.11264" lon="1.43293">
        <ele>59.222747802734</ele>
        <time>2013-09-22T09:15:26.000Z</time>
      </trkpt>
      <trkpt lat="49.11255" lon="1.43295">
        <ele>59.797782897949</ele>
        <time>2013-09-22T09:15:29.000Z</time>
      </trkpt>
      <trkpt lat="49.11249" lon="1.43295">
        <ele>60.361003875732</ele>
        <time>2013-09-22T09:15:31.000Z</time>
      </trkpt>
      <trkpt lat="49.11238" lon="1.43298">
        <ele>60.71138381958</ele>
        <time>2013-09-22T09:15:34.000Z</time>
      </trkpt>
      <trkpt lat="49.11226" lon="1.43301">
        <ele>60.892547607422</ele>
        <time>2013-09-22T09:15:37.000Z</time>
      </trkpt>
      <trkpt lat="49.11212" lon="1.43305">
        <ele>60.979114532471</ele>
        <time>2013-09-22T09:15:40.000Z</time>
      </trkpt>
      <trkpt lat="49.11198" lon="1.43308">
        <ele>60.871391296387</ele>
        <time>2013-09-22T09:15:43.000Z</time>
      </trkpt>
      <trkpt lat="49.11189" lon="1.43308">
        <ele>60.657112121582</ele>
        <time>2013-09-22T09:15:45.000Z</time>
      </trkpt>
      <trkpt lat="49.11179" lon="1.4331">
        <ele>60.489875793457</ele>
        <time>2013-09-22T09:15:47.000Z</time>
      </trkpt>
      <trkpt lat="49.11165" lon="1.4331">
        <ele>60.387805938721</ele>
        <time>2013-09-22T09:15:50.000Z</time>
      </trkpt>
      <trkpt lat="49.11156" lon="1.43311">
        <ele>60.292041778564</ele>
        <time>2013-09-22T09:15:52.000Z</time>
      </trkpt>
      <trkpt lat="49.11144" lon="1.43311">
        <ele>60.228008270264</ele>
        <time>2013-09-22T09:15:55.000Z</time>
      </trkpt>
      <trkpt lat="49.11134" lon="1.4331">
        <ele>60.151592254639</ele>
        <time>2013-09-22T09:15:58.000Z</time>
      </trkpt>
      <trkpt lat="49.11127" lon="1.4331">
        <ele>60.06729888916</ele>
        <time>2013-09-22T09:16:00.000Z</time>
      </trkpt>
      <trkpt lat="49.1112" lon="1.43313">
        <ele>59.858509063721</ele>
        <time>2013-09-22T09:16:02.000Z</time>
      </trkpt>
      <trkpt lat="49.1111" lon="1.43322">
        <ele>59.479064941406</ele>
        <time>2013-09-22T09:16:05.000Z</time>
      </trkpt>
      <trkpt lat="49.11106" lon="1.43324">
        <ele>59.055335998535</ele>
        <time>2013-09-22T09:16:08.000Z</time>
      </trkpt>
      <trkpt lat="49.11095" lon="1.43328">
        <ele>58.555793762207</ele>
        <time>2013-09-22T09:16:11.000Z</time>
      </trkpt>
      <trkpt lat="49.11086" lon="1.43331">
        <ele>58.011543273926</ele>
        <time>2013-09-22T09:16:15.000Z</time>
      </trkpt>
      <trkpt lat="49.11091" lon="1.43338">
        <ele>57.419860839844</ele>
        <time>2013-09-22T09:16:34.000Z</time>
      </trkpt>
      <trkpt lat="49.11084" lon="1.43339">
        <ele>57.066326141357</ele>
        <time>2013-09-22T09:16:37.000Z</time>
      </trkpt>
      <trkpt lat="49.11077" lon="1.4334">
        <ele>56.874126434326</ele>
        <time>2013-09-22T09:16:40.000Z</time>
      </trkpt>
      <trkpt lat="49.11068" lon="1.4334">
        <ele>56.912406921387</ele>
        <time>2013-09-22T09:16:43.000Z</time>
      </trkpt>
      <trkpt lat="49.11061" lon="1.43339">
        <ele>57.134544372559</ele>
        <time>2013-09-22T09:16:46.000Z</time>
      </trkpt>
      <trkpt lat="49.11057" lon="1.43339">
        <ele>57.58984375</ele>
        <time>2013-09-22T09:16:48.000Z</time>
      </trkpt>
      <trkpt lat="49.11053" lon="1.43339">
        <ele>58.125469207764</ele>
        <time>2013-09-22T09:16:50.000Z</time>
      </trkpt>
      <trkpt lat="49.11048" lon="1.43339">
        <ele>58.641212463379</ele>
        <time>2013-09-22T09:16:52.000Z</time>
      </trkpt>
      <trkpt lat="49.1104" lon="1.43339">
        <ele>59.146606445312</ele>
        <time>2013-09-22T09:16:55.000Z</time>
      </trkpt>
      <trkpt lat="49.11036" lon="1.43339">
        <ele>59.600303649902</ele>
        <time>2013-09-22T09:16:58.000Z</time>
      </trkpt>
      <trkpt lat="49.1103" lon="1.43338">
        <ele>60.09317779541</ele>
        <time>2013-09-22T09:17:00.000Z</time>
      </trkpt>
      <trkpt lat="49.11024" lon="1.43335">
        <ele>60.649433135986</ele>
        <time>2013-09-22T09:17:03.000Z</time>
      </trkpt>
      <trkpt lat="49.1102" lon="1.43334">
        <ele>61.19746017456</ele>
        <time>2013-09-22T09:17:05.000Z</time>
      </trkpt>
      <trkpt lat="49.11017" lon="1.43333">
        <ele>61.679920196533</ele>
        <time>2013-09-22T09:17:07.000Z</time>
      </trkpt>
      <trkpt lat="49.11011" lon="1.43331">
        <ele>62.232860565185</ele>
        <time>2013-09-22T09:17:10.000Z</time>
      </trkpt>
      <trkpt lat="49.11007" lon="1.43328">
        <ele>62.798515319824</ele>
        <time>2013-09-22T09:17:13.000Z</time>
      </trkpt>
      <trkpt lat="49.11003" lon="1.43325">
        <ele>63.319557189941</ele>
        <time>2013-09-22T09:17:15.000Z</time>
      </trkpt>
      <trkpt lat="49.10999" lon="1.43321">
        <ele>63.929466247559</ele>
        <time>2013-09-22T09:17:18.000Z</time>
      </trkpt>
      <trkpt lat="49.10997" lon="1.43318">
        <ele>64.620750427246</ele>
        <time>2013-09-22T09:17:20.000Z</time>
      </trkpt>
      <trkpt lat="49.10994" lon="1.43315">
        <ele>65.296730041504</ele>
        <time>2013-09-22T09:17:22.000Z</time>
      </trkpt>
      <trkpt lat="49.10992" lon="1.43314">
        <ele>65.960983276367</ele>
        <time>2013-09-22T09:17:25.000Z</time>
      </trkpt>
      <trkpt lat="49.10987" lon="1.43313">
        <ele>66.669921875</ele>
        <time>2013-09-22T09:17:28.000Z</time>
      </trkpt>
      <trkpt lat="49.10978" lon="1.43317">
        <ele>67.46630859375</ele>
        <time>2013-09-22T09:17:34.000Z</time>
      </trkpt>
      <trkpt lat="49.10976" lon="1.43318">
        <ele>68.151123046875</ele>
        <time>2013-09-22T09:17:37.000Z</time>
      </trkpt>
      <trkpt lat="49.10967" lon="1.43325">
        <ele>68.87646484375</ele>
        <time>2013-09-22T09:17:40.000Z</time>
      </trkpt>
      <trkpt lat="49.10964" lon="1.43329">
        <ele>69.4990234375</ele>
        <time>2013-09-22T09:17:42.000Z</time>
      </trkpt>
      <trkpt lat="49.10961" lon="1.43332">
        <ele>70.042236328125</ele>
        <time>2013-09-22T09:17:45.000Z</time>
      </trkpt>
      <trkpt lat="49.10954" lon="1.4334">
        <ele>70.420974731445</ele>
        <time>2013-09-22T09:17:51.000Z</time>
      </trkpt>
      <trkpt lat="49.10949" lon="1.43344">
        <ele>70.8134765625</ele>
        <time>2013-09-22T09:17:54.000Z</time>
      </trkpt>
      <trkpt lat="49.10944" lon="1.43348">
        <ele>71.116851806641</ele>
        <time>2013-09-22T09:17:56.000Z</time>
      </trkpt>
      <trkpt lat="49.10937" lon="1.43353">
        <ele>71.521438598633</ele>
        <time>2013-09-22T09:17:59.000Z</time>
      </trkpt>
      <trkpt lat="49.1093" lon="1.43357">
        <ele>71.954444885254</ele>
        <time>2013-09-22T09:18:02.000Z</time>
      </trkpt>
      <trkpt lat="49.10926" lon="1.43361">
        <ele>72.33487701416</ele>
        <time>2013-09-22T09:18:04.000Z</time>
      </trkpt>
      <trkpt lat="49.1092" lon="1.43365">
        <ele>72.735786437988</ele>
        <time>2013-09-22T09:18:07.000Z</time>
      </trkpt>
      <trkpt lat="49.10912" lon="1.4337">
        <ele>72.98477935791</ele>
        <time>2013-09-22T09:18:10.000Z</time>
      </trkpt>
      <trkpt lat="49.10905" lon="1.43375">
        <ele>72.987770080566</ele>
        <time>2013-09-22T09:18:12.000Z</time>
      </trkpt>
      <trkpt lat="49.10897" lon="1.4338">
        <ele>72.790199279785</ele>
        <time>2013-09-22T09:18:14.000Z</time>
      </trkpt>
      <trkpt lat="49.10885" lon="1.43387">
        <ele>72.378112792969</ele>
        <time>2013-09-22T09:18:17.000Z</time>
      </trkpt>
      <trkpt lat="49.1087" lon="1.43396">
        <ele>71.687644958496</ele>
        <time>2013-09-22T09:18:20.000Z</time>
      </trkpt>
      <trkpt lat="49.10855" lon="1.43402">
        <ele>70.959785461426</ele>
        <time>2013-09-22T09:18:23.000Z</time>
      </trkpt>
      <trkpt lat="49.10847" lon="1.43403">
        <ele>70.35327911377</ele>
        <time>2013-09-22T09:18:26.000Z</time>
      </trkpt>
      <trkpt lat="49.10842" lon="1.43415">
        <ele>69.582862854004</ele>
        <time>2013-09-22T09:18:39.000Z</time>
      </trkpt>
      <trkpt lat="49.10857" lon="1.43497">
        <ele>67.169456481934</ele>
        <time>2013-09-22T09:18:46.000Z</time>
      </trkpt>
      <trkpt lat="49.10868" lon="1.43515">
        <ele>64.42163848877</ele>
        <time>2013-09-22T09:18:48.000Z</time>
      </trkpt>
      <trkpt lat="49.10876" lon="1.43545">
        <ele>60.989463806152</ele>
        <time>2013-09-22T09:18:51.000Z</time>
      </trkpt>
      <trkpt lat="49.10879" lon="1.43559">
        <ele>57.228782653809</ele>
        <time>2013-09-22T09:18:53.000Z</time>
      </trkpt>
      <trkpt lat="49.1088" lon="1.43566">
        <ele>53.566246032715</ele>
        <time>2013-09-22T09:18:56.000Z</time>
      </trkpt>
      <trkpt lat="49.10876" lon="1.4357">
        <ele>51.677551269531</ele>
        <time>2013-09-22T09:19:24.000Z</time>
      </trkpt>
      <trkpt lat="49.10876" lon="1.43585">
        <ele>49.997982025146</ele>
        <time>2013-09-22T09:19:27.000Z</time>
      </trkpt>
      <trkpt lat="49.10877" lon="1.43582">
        <ele>49.1474609375</ele>
        <time>2013-09-22T09:19:41.000Z</time>
      </trkpt>
      <trkpt lat="49.1088" lon="1.4358">
        <ele>48.649436950684</ele>
        <time>2013-09-22T09:19:44.000Z</time>
      </trkpt>
      <trkpt lat="49.10888" lon="1.43583">
        <ele>48.172954559326</ele>
        <time>2013-09-22T09:19:51.000Z</time>
      </trkpt>
      <trkpt lat="49.10896" lon="1.43595">
        <ele>47.522151947021</ele>
        <time>2013-09-22T09:20:09.000Z</time>
      </trkpt>
      <trkpt lat="49.10888" lon="1.43642">
        <ele>46.63489151001</ele>
        <time>2013-09-22T09:20:14.000Z</time>
      </trkpt>
      <trkpt lat="49.1088" lon="1.43665">
        <ele>45.429065704346</ele>
        <time>2013-09-22T09:20:16.000Z</time>
      </trkpt>
      <trkpt lat="49.10885" lon="1.43704">
        <ele>43.64575958252</ele>
        <time>2013-09-22T09:20:19.000Z</time>
      </trkpt>
      <trkpt lat="49.10889" lon="1.43723">
        <ele>41.738189697266</ele>
        <time>2013-09-22T09:20:21.000Z</time>
      </trkpt>
      <trkpt lat="49.10891" lon="1.43735">
        <ele>39.897022247314</ele>
        <time>2013-09-22T09:20:24.000Z</time>
      </trkpt>
      <trkpt lat="49.10894" lon="1.43741">
        <ele>38.536338806152</ele>
        <time>2013-09-22T09:20:27.000Z</time>
      </trkpt>
      <trkpt lat="49.10897" lon="1.43757">
        <ele>37.243034362793</ele>
        <time>2013-09-22T09:20:32.000Z</time>
      </trkpt>
      <trkpt lat="49.10888" lon="1.43768">
        <ele>36.365264892578</ele>
        <time>2013-09-22T09:20:35.000Z</time>
      </trkpt>
      <trkpt lat="49.10847" lon="1.4379">
        <ele>35.443717956543</ele>
        <time>2013-09-22T09:20:45.000Z</time>
      </trkpt>
      <trkpt lat="49.10812" lon="1.43783">
        <ele>34.757797241211</ele>
        <time>2013-09-22T09:20:49.000Z</time>
      </trkpt>
      <trkpt lat="49.10798" lon="1.43772">
        <ele>34.280857086182</ele>
        <time>2013-09-22T09:20:51.000Z</time>
      </trkpt>
      <trkpt lat="49.10785" lon="1.4376">
        <ele>34.135932922363</ele>
        <time>2013-09-22T09:20:54.000Z</time>
      </trkpt>
      <trkpt lat="49.10772" lon="1.43751">
        <ele>34.21395111084</ele>
        <time>2013-09-22T09:20:57.000Z</time>
      </trkpt>
      <trkpt lat="49.10765" lon="1.43745">
        <ele>34.704322814941</ele>
        <time>2013-09-22T09:20:59.000Z</time>
      </trkpt>
      <trkpt lat="49.10758" lon="1.43741">
        <ele>35.167301177979</ele>
        <time>2013-09-22T09:21:01.000Z</time>
      </trkpt>
      <trkpt lat="49.10753" lon="1.4374">
        <ele>35.530452728271</ele>
        <time>2013-09-22T09:21:04.000Z</time>
      </trkpt>
      <trkpt lat="49.10744" lon="1.43743">
        <ele>35.761196136475</ele>
        <time>2013-09-22T09:21:08.000Z</time>
      </trkpt>
      <trkpt lat="49.1074" lon="1.43747">
        <ele>35.899711608887</ele>
        <time>2013-09-22T09:21:11.000Z</time>
      </trkpt>
      <trkpt lat="49.10721" lon="1.43764">
        <ele>35.958118438721</ele>
        <time>2013-09-22T09:21:15.000Z</time>
      </trkpt>
      <trkpt lat="49.10712" lon="1.43772">
        <ele>35.969673156738</ele>
        <time>2013-09-22T09:21:18.000Z</time>
      </trkpt>
      <trkpt lat="49.107" lon="1.4378">
        <ele>35.992622375488</ele>
        <time>2013-09-22T09:21:21.000Z</time>
      </trkpt>
      <trkpt lat="49.1069" lon="1.43787">
        <ele>36.026203155518</ele>
        <time>2013-09-22T09:21:24.000Z</time>
      </trkpt>
      <trkpt lat="49.10674" lon="1.43799">
        <ele>36.077655792236</ele>
        <time>2013-09-22T09:21:27.000Z</time>
      </trkpt>
      <trkpt lat="49.10667" lon="1.43815">
        <ele>35.944923400879</ele>
        <time>2013-09-22T09:21:29.000Z</time>
      </trkpt>
      <trkpt lat="49.10667" lon="1.43826">
        <ele>35.653034210205</ele>
        <time>2013-09-22T09:21:32.000Z</time>
      </trkpt>
      <trkpt lat="49.1066" lon="1.43839">
        <ele>35.258182525635</ele>
        <time>2013-09-22T09:21:36.000Z</time>
      </trkpt>
      <trkpt lat="49.1065" lon="1.43844">
        <ele>34.926109313965</ele>
        <time>2013-09-22T09:21:39.000Z</time>
      </trkpt>
      <trkpt lat="49.10641" lon="1.43849">
        <ele>34.64164352417</ele>
        <time>2013-09-22T09:21:41.000Z</time>
      </trkpt>
      <trkpt lat="49.10629" lon="1.43854">
        <ele>34.599906921387</ele>
        <time>2013-09-22T09:21:44.000Z</time>
      </trkpt>
      <trkpt lat="49.10618" lon="1.43862">
        <ele>34.748428344727</ele>
        <time>2013-09-22T09:21:47.000Z</time>
      </trkpt>
      <trkpt lat="49.10611" lon="1.43867">
        <ele>34.974559783935</ele>
        <time>2013-09-22T09:21:50.000Z</time>
      </trkpt>
      <trkpt lat="49.10606" lon="1.43871">
        <ele>35.142723083496</ele>
        <time>2013-09-22T09:21:52.000Z</time>
      </trkpt>
      <trkpt lat="49.10598" lon="1.43877">
        <ele>35.271636962891</ele>
        <time>2013-09-22T09:21:55.000Z</time>
      </trkpt>
      <trkpt lat="49.10588" lon="1.43885">
        <ele>35.328437805176</ele>
        <time>2013-09-22T09:21:58.000Z</time>
      </trkpt>
      <trkpt lat="49.10579" lon="1.4389">
        <ele>35.383880615234</ele>
        <time>2013-09-22T09:22:01.000Z</time>
      </trkpt>
      <trkpt lat="49.10571" lon="1.43894">
        <ele>35.456516265869</ele>
        <time>2013-09-22T09:22:03.000Z</time>
      </trkpt>
      <trkpt lat="49.10562" lon="1.43901">
        <ele>35.510673522949</ele>
        <time>2013-09-22T09:22:06.000Z</time>
      </trkpt>
      <trkpt lat="49.10555" lon="1.43907">
        <ele>35.519180297852</ele>
        <time>2013-09-22T09:22:09.000Z</time>
      </trkpt>
      <trkpt lat="49.10551" lon="1.4391">
        <ele>35.512722015381</ele>
        <time>2013-09-22T09:22:11.000Z</time>
      </trkpt>
      <trkpt lat="49.10549" lon="1.43913">
        <ele>35.423782348633</ele>
        <time>2013-09-22T09:22:14.000Z</time>
      </trkpt>
      <trkpt lat="49.10548" lon="1.43925">
        <ele>35.220054626465</ele>
        <time>2013-09-22T09:22:17.000Z</time>
      </trkpt>
      <trkpt lat="49.10553" lon="1.43939">
        <ele>34.923271179199</ele>
        <time>2013-09-22T09:22:20.000Z</time>
      </trkpt>
      <trkpt lat="49.10558" lon="1.43952">
        <ele>34.55611038208</ele>
        <time>2013-09-22T09:22:22.000Z</time>
      </trkpt>
      <trkpt lat="49.1056" lon="1.43963">
        <ele>34.125328063965</ele>
        <time>2013-09-22T09:22:24.000Z</time>
      </trkpt>
      <trkpt lat="49.10558" lon="1.43973">
        <ele>33.708999633789</ele>
        <time>2013-09-22T09:22:27.000Z</time>
      </trkpt>
      <trkpt lat="49.10545" lon="1.43983">
        <ele>33.427806854248</ele>
        <time>2013-09-22T09:22:30.000Z</time>
      </trkpt>
      <trkpt lat="49.10538" lon="1.43996">
        <ele>33.255088806152</ele>
        <time>2013-09-22T09:22:32.000Z</time>
      </trkpt>
      <trkpt lat="49.10534" lon="1.4402">
        <ele>33.070495605469</ele>
        <time>2013-09-22T09:22:35.000Z</time>
      </trkpt>
      <trkpt lat="49.10535" lon="1.44044">
        <ele>32.773399353027</ele>
        <time>2013-09-22T09:22:38.000Z</time>
      </trkpt>
      <trkpt lat="49.10538" lon="1.44061">
        <ele>32.367176055908</ele>
        <time>2013-09-22T09:22:40.000Z</time>
      </trkpt>
      <trkpt lat="49.1054" lon="1.44079">
        <ele>31.764165878296</ele>
        <time>2013-09-22T09:22:42.000Z</time>
      </trkpt>
      <trkpt lat="49.10553" lon="1.44101">
        <ele>30.931179046631</ele>
        <time>2013-09-22T09:22:45.000Z</time>
      </trkpt>
      <trkpt lat="49.10563" lon="1.44114">
        <ele>30.087976455689</ele>
        <time>2013-09-22T09:22:47.000Z</time>
      </trkpt>
      <trkpt lat="49.10571" lon="1.44127">
        <ele>29.328033447266</ele>
        <time>2013-09-22T09:22:49.000Z</time>
      </trkpt>
      <trkpt lat="49.10581" lon="1.44149">
        <ele>28.589687347412</ele>
        <time>2013-09-22T09:22:52.000Z</time>
      </trkpt>
      <trkpt lat="49.10585" lon="1.44165">
        <ele>27.942638397217</ele>
        <time>2013-09-22T09:22:54.000Z</time>
      </trkpt>
      <trkpt lat="49.10592" lon="1.44188">
        <ele>27.458459854126</ele>
        <time>2013-09-22T09:22:57.000Z</time>
      </trkpt>
      <trkpt lat="49.10594" lon="1.44204">
        <ele>27.063446044922</ele>
        <time>2013-09-22T09:22:59.000Z</time>
      </trkpt>
      <trkpt lat="49.10596" lon="1.44221">
        <ele>26.742977142334</ele>
        <time>2013-09-22T09:23:01.000Z</time>
      </trkpt>
      <trkpt lat="49.10592" lon="1.44244">
        <ele>26.499267578125</ele>
        <time>2013-09-22T09:23:04.000Z</time>
      </trkpt>
      <trkpt lat="49.10586" lon="1.44259">
        <ele>26.258373260498</ele>
        <time>2013-09-22T09:23:06.000Z</time>
      </trkpt>
      <trkpt lat="49.10579" lon="1.44276">
        <ele>26.01859664917</ele>
        <time>2013-09-22T09:23:09.000Z</time>
      </trkpt>
      <trkpt lat="49.10579" lon="1.44275">
        <ele>25.826162338257</ele>
        <time>2013-09-22T09:23:12.000Z</time>
      </trkpt>
      <trkpt lat="49.10579" lon="1.44271">
        <ele>25.688205718994</ele>
        <time>2013-09-22T09:23:14.000Z</time>
      </trkpt>
      <trkpt lat="49.10581" lon="1.44265">
        <ele>25.617481231689</ele>
        <time>2013-09-22T09:23:17.000Z</time>
      </trkpt>
      <trkpt lat="49.10614" lon="1.44267">
        <ele>25.593585968018</ele>
        <time>2013-09-22T09:23:22.000Z</time>
      </trkpt>
      <trkpt lat="49.10628" lon="1.44269">
        <ele>25.635028839111</ele>
        <time>2013-09-22T09:23:24.000Z</time>
      </trkpt>
      <trkpt lat="49.10649" lon="1.44267">
        <ele>25.682367324829</ele>
        <time>2013-09-22T09:23:27.000Z</time>
      </trkpt>
      <trkpt lat="49.10661" lon="1.44261">
        <ele>25.731777191162</ele>
        <time>2013-09-22T09:23:29.000Z</time>
      </trkpt>
      <trkpt lat="49.10675" lon="1.44249">
        <ele>25.808460235596</ele>
        <time>2013-09-22T09:23:32.000Z</time>
      </trkpt>
      <trkpt lat="49.10683" lon="1.44242">
        <ele>25.910543441773</ele>
        <time>2013-09-22T09:23:34.000Z</time>
      </trkpt>
      <trkpt lat="49.10692" lon="1.44236">
        <ele>26.026138305664</ele>
        <time>2013-09-22T09:23:36.000Z</time>
      </trkpt>
      <trkpt lat="49.10705" lon="1.44226">
        <ele>26.141363143921</ele>
        <time>2013-09-22T09:23:39.000Z</time>
      </trkpt>
      <trkpt lat="49.10717" lon="1.44216">
        <ele>26.243118286133</ele>
        <time>2013-09-22T09:23:43.000Z</time>
      </trkpt>
      <trkpt lat="49.10725" lon="1.44211">
        <ele>26.297582626343</ele>
        <time>2013-09-22T09:23:44.000Z</time>
      </trkpt>
      <trkpt lat="49.10736" lon="1.44206">
        <ele>26.339466094971</ele>
        <time>2013-09-22T09:23:47.000Z</time>
      </trkpt>
      <trkpt lat="49.10743" lon="1.44203">
        <ele>26.367874145508</ele>
        <time>2013-09-22T09:23:49.000Z</time>
      </trkpt>
      <trkpt lat="49.10748" lon="1.44205">
        <ele>26.392467498779</ele>
        <time>2013-09-22T09:23:52.000Z</time>
      </trkpt>
      <trkpt lat="49.10757" lon="1.44221">
        <ele>26.417072296143</ele>
        <time>2013-09-22T09:23:55.000Z</time>
      </trkpt>
      <trkpt lat="49.10758" lon="1.44225">
        <ele>26.444452285767</ele>
        <time>2013-09-22T09:23:57.000Z</time>
      </trkpt>
      <trkpt lat="49.1076" lon="1.44229">
        <ele>26.459506988525</ele>
        <time>2013-09-22T09:24:00.000Z</time>
      </trkpt>
      <trkpt lat="49.10764" lon="1.44237">
        <ele>26.468570709229</ele>
        <time>2013-09-22T09:24:03.000Z</time>
      </trkpt>
      <trkpt lat="49.1077" lon="1.44251">
        <ele>26.433282852173</ele>
        <time>2013-09-22T09:24:06.000Z</time>
      </trkpt>
      <trkpt lat="49.10774" lon="1.44263">
        <ele>26.303363800049</ele>
        <time>2013-09-22T09:24:08.000Z</time>
      </trkpt>
      <trkpt lat="49.10778" lon="1.44275">
        <ele>26.085887908936</ele>
        <time>2013-09-22T09:24:10.000Z</time>
      </trkpt>
      <trkpt lat="49.10781" lon="1.44285">
        <ele>25.795690536499</ele>
        <time>2013-09-22T09:24:12.000Z</time>
      </trkpt>
      <trkpt lat="49.10787" lon="1.44301">
        <ele>25.392456054688</ele>
        <time>2013-09-22T09:24:15.000Z</time>
      </trkpt>
      <trkpt lat="49.10795" lon="1.44314">
        <ele>24.907836914062</ele>
        <time>2013-09-22T09:24:18.000Z</time>
      </trkpt>
      <trkpt lat="49.10799" lon="1.44322">
        <ele>24.436218261719</ele>
        <time>2013-09-22T09:24:20.000Z</time>
      </trkpt>
      <trkpt lat="49.10804" lon="1.44328">
        <ele>23.992309570312</ele>
        <time>2013-09-22T09:24:23.000Z</time>
      </trkpt>
      <trkpt lat="49.10809" lon="1.44338">
        <ele>23.551935195923</ele>
        <time>2013-09-22T09:24:26.000Z</time>
      </trkpt>
      <trkpt lat="49.10814" lon="1.44354">
        <ele>23.161853790283</ele>
        <time>2013-09-22T09:24:29.000Z</time>
      </trkpt>
      <trkpt lat="49.10816" lon="1.44363">
        <ele>22.846904754639</ele>
        <time>2013-09-22T09:24:31.000Z</time>
      </trkpt>
      <trkpt lat="49.10818" lon="1.44375">
        <ele>22.557622909546</ele>
        <time>2013-09-22T09:24:36.000Z</time>
      </trkpt>
      <trkpt lat="49.10822" lon="1.44386">
        <ele>22.274993896484</ele>
        <time>2013-09-22T09:24:38.000Z</time>
      </trkpt>
      <trkpt lat="49.10826" lon="1.44399">
        <ele>22.01025390625</ele>
        <time>2013-09-22T09:24:40.000Z</time>
      </trkpt>
      <trkpt lat="49.10835" lon="1.44426">
        <ele>21.732837677002</ele>
        <time>2013-09-22T09:24:43.000Z</time>
      </trkpt>
      <trkpt lat="49.10841" lon="1.44441">
        <ele>21.514266967773</ele>
        <time>2013-09-22T09:24:45.000Z</time>
      </trkpt>
      <trkpt lat="49.10849" lon="1.44461">
        <ele>21.358354568481</ele>
        <time>2013-09-22T09:24:48.000Z</time>
      </trkpt>
      <trkpt lat="49.10856" lon="1.4448">
        <ele>21.256759643555</ele>
        <time>2013-09-22T09:24:51.000Z</time>
      </trkpt>
      <trkpt lat="49.10859" lon="1.44493">
        <ele>21.223827362061</ele>
        <time>2013-09-22T09:24:53.000Z</time>
      </trkpt>
      <trkpt lat="49.10866" lon="1.44512">
        <ele>21.220699310303</ele>
        <time>2013-09-22T09:24:56.000Z</time>
      </trkpt>
      <trkpt lat="49.10869" lon="1.44525">
        <ele>21.152318954468</ele>
        <time>2013-09-22T09:24:58.000Z</time>
      </trkpt>
      <trkpt lat="49.10875" lon="1.44537">
        <ele>21.016002655029</ele>
        <time>2013-09-22T09:25:00.000Z</time>
      </trkpt>
      <trkpt lat="49.1088" lon="1.44558">
        <ele>20.800037384033</ele>
        <time>2013-09-22T09:25:03.000Z</time>
      </trkpt>
      <trkpt lat="49.10886" lon="1.44579">
        <ele>20.492889404297</ele>
        <time>2013-09-22T09:25:06.000Z</time>
      </trkpt>
      <trkpt lat="49.10892" lon="1.44591">
        <ele>20.192422866821</ele>
        <time>2013-09-22T09:25:08.000Z</time>
      </trkpt>
      <trkpt lat="49.10893" lon="1.44603">
        <ele>19.923717498779</ele>
        <time>2013-09-22T09:25:10.000Z</time>
      </trkpt>
      <trkpt lat="49.10901" lon="1.44618">
        <ele>19.668237686157</ele>
        <time>2013-09-22T09:25:13.000Z</time>
      </trkpt>
      <trkpt lat="49.10907" lon="1.44629">
        <ele>19.461355209351</ele>
        <time>2013-09-22T09:25:15.000Z</time>
      </trkpt>
      <trkpt lat="49.10916" lon="1.44649">
        <ele>19.306018829346</ele>
        <time>2013-09-22T09:25:18.000Z</time>
      </trkpt>
      <trkpt lat="49.10925" lon="1.44668">
        <ele>19.192129135132</ele>
        <time>2013-09-22T09:25:21.000Z</time>
      </trkpt>
      <trkpt lat="49.1093" lon="1.44681">
        <ele>19.087387084961</ele>
        <time>2013-09-22T09:25:23.000Z</time>
      </trkpt>
      <trkpt lat="49.10938" lon="1.44699">
        <ele>19.009021759033</ele>
        <time>2013-09-22T09:25:26.000Z</time>
      </trkpt>
      <trkpt lat="49.10945" lon="1.44717">
        <ele>18.936223983765</ele>
        <time>2013-09-22T09:25:29.000Z</time>
      </trkpt>
      <trkpt lat="49.10952" lon="1.44733">
        <ele>18.865789413452</ele>
        <time>2013-09-22T09:25:32.000Z</time>
      </trkpt>
      <trkpt lat="49.10959" lon="1.44748">
        <ele>18.767068862915</ele>
        <time>2013-09-22T09:25:35.000Z</time>
      </trkpt>
      <trkpt lat="49.10964" lon="1.44758">
        <ele>18.678852081299</ele>
        <time>2013-09-22T09:25:37.000Z</time>
      </trkpt>
      <trkpt lat="49.10969" lon="1.44769">
        <ele>18.619485855102</ele>
        <time>2013-09-22T09:25:39.000Z</time>
      </trkpt>
      <trkpt lat="49.10976" lon="1.44781">
        <ele>18.591674804688</ele>
        <time>2013-09-22T09:25:42.000Z</time>
      </trkpt>
      <trkpt lat="49.1098" lon="1.44779">
        <ele>18.577280044556</ele>
        <time>2013-09-22T09:25:44.000Z</time>
      </trkpt>
      <trkpt lat="49.10984" lon="1.44769">
        <ele>18.561614990234</ele>
        <time>2013-09-22T09:25:46.000Z</time>
      </trkpt>
      <trkpt lat="49.10991" lon="1.44749">
        <ele>18.480308532715</ele>
        <time>2013-09-22T09:25:49.000Z</time>
      </trkpt>
      <trkpt lat="49.10997" lon="1.44724">
        <ele>18.425333023071</ele>
        <time>2013-09-22T09:25:52.000Z</time>
      </trkpt>
      <trkpt lat="49.11004" lon="1.44698">
        <ele>18.412563323975</ele>
        <time>2013-09-22T09:25:55.000Z</time>
      </trkpt>
      <trkpt lat="49.1101" lon="1.44672">
        <ele>18.458782196045</ele>
        <time>2013-09-22T09:25:58.000Z</time>
      </trkpt>
      <trkpt lat="49.11015" lon="1.44656">
        <ele>18.558284759521</ele>
        <time>2013-09-22T09:26:00.000Z</time>
      </trkpt>
      <trkpt lat="49.11023" lon="1.4463">
        <ele>18.743169784546</ele>
        <time>2013-09-22T09:26:03.000Z</time>
      </trkpt>
      <trkpt lat="49.11029" lon="1.44605">
        <ele>18.901866912842</ele>
        <time>2013-09-22T09:26:06.000Z</time>
      </trkpt>
      <trkpt lat="49.11037" lon="1.44582">
        <ele>19.007684707642</ele>
        <time>2013-09-22T09:26:09.000Z</time>
      </trkpt>
      <trkpt lat="49.11041" lon="1.44569">
        <ele>19.065191268921</ele>
        <time>2013-09-22T09:26:11.000Z</time>
      </trkpt>
      <trkpt lat="49.11045" lon="1.4455">
        <ele>19.107585906982</ele>
        <time>2013-09-22T09:26:14.000Z</time>
      </trkpt>
      <trkpt lat="49.11049" lon="1.44536">
        <ele>19.129388809204</ele>
        <time>2013-09-22T09:26:16.000Z</time>
      </trkpt>
      <trkpt lat="49.11054" lon="1.44522">
        <ele>19.140893936157</ele>
        <time>2013-09-22T09:26:18.000Z</time>
      </trkpt>
      <trkpt lat="49.11061" lon="1.44513">
        <ele>19.146524429321</ele>
        <time>2013-09-22T09:26:20.000Z</time>
      </trkpt>
      <trkpt lat="49.11074" lon="1.44514">
        <ele>19.116443634033</ele>
        <time>2013-09-22T09:26:23.000Z</time>
      </trkpt>
      <trkpt lat="49.11081" lon="1.44524">
        <ele>19.039665222168</ele>
        <time>2013-09-22T09:26:25.000Z</time>
      </trkpt>
      <trkpt lat="49.1109" lon="1.44541">
        <ele>18.908548355102</ele>
        <time>2013-09-22T09:26:28.000Z</time>
      </trkpt>
      <trkpt lat="49.11098" lon="1.44559">
        <ele>18.73042678833</ele>
        <time>2013-09-22T09:26:31.000Z</time>
      </trkpt>
      <trkpt lat="49.11106" lon="1.44578">
        <ele>18.512454986572</ele>
        <time>2013-09-22T09:26:34.000Z</time>
      </trkpt>
      <trkpt lat="49.11111" lon="1.44592">
        <ele>18.314609527588</ele>
        <time>2013-09-22T09:26:36.000Z</time>
      </trkpt>
      <trkpt lat="49.11116" lon="1.44605">
        <ele>18.143712997436</ele>
        <time>2013-09-22T09:26:38.000Z</time>
      </trkpt>
      <trkpt lat="49.11121" lon="1.44618">
        <ele>18.004892349243</ele>
        <time>2013-09-22T09:26:40.000Z</time>
      </trkpt>
      <trkpt lat="49.11127" lon="1.4463">
        <ele>17.888628005981</ele>
        <time>2013-09-22T09:26:42.000Z</time>
      </trkpt>
      <trkpt lat="49.11131" lon="1.44642">
        <ele>17.795526504517</ele>
        <time>2013-09-22T09:26:44.000Z</time>
      </trkpt>
      <trkpt lat="49.11136" lon="1.4466">
        <ele>17.685638427734</ele>
        <time>2013-09-22T09:26:47.000Z</time>
      </trkpt>
      <trkpt lat="49.1114" lon="1.44675">
        <ele>17.570795059204</ele>
        <time>2013-09-22T09:26:50.000Z</time>
      </trkpt>
      <trkpt lat="49.11142" lon="1.44684">
        <ele>17.467758178711</ele>
        <time>2013-09-22T09:26:52.000Z</time>
      </trkpt>
      <trkpt lat="49.11145" lon="1.44702">
        <ele>17.377016067505</ele>
        <time>2013-09-22T09:26:55.000Z</time>
      </trkpt>
      <trkpt lat="49.1115" lon="1.4472">
        <ele>17.298847198486</ele>
        <time>2013-09-22T09:26:58.000Z</time>
      </trkpt>
      <trkpt lat="49.11153" lon="1.44732">
        <ele>17.2490234375</ele>
        <time>2013-09-22T09:27:00.000Z</time>
      </trkpt>
      <trkpt lat="49.11157" lon="1.44752">
        <ele>17.210327148438</ele>
        <time>2013-09-22T09:27:03.000Z</time>
      </trkpt>
      <trkpt lat="49.1116" lon="1.44765">
        <ele>17.199035644531</ele>
        <time>2013-09-22T09:27:05.000Z</time>
      </trkpt>
      <trkpt lat="49.11163" lon="1.4478">
        <ele>17.22540473938</ele>
        <time>2013-09-22T09:27:07.000Z</time>
      </trkpt>
      <trkpt lat="49.11168" lon="1.44804">
        <ele>17.308860778809</ele>
        <time>2013-09-22T09:27:10.000Z</time>
      </trkpt>
      <trkpt lat="49.11171" lon="1.4482">
        <ele>17.417339324951</ele>
        <time>2013-09-22T09:27:12.000Z</time>
      </trkpt>
      <trkpt lat="49.11174" lon="1.44835">
        <ele>17.538846969604</ele>
        <time>2013-09-22T09:27:14.000Z</time>
      </trkpt>
      <trkpt lat="49.11178" lon="1.44853">
        <ele>17.576084136963</ele>
        <time>2013-09-22T09:27:17.000Z</time>
      </trkpt>
      <trkpt lat="49.11182" lon="1.44871">
        <ele>17.528694152832</ele>
        <time>2013-09-22T09:27:20.000Z</time>
      </trkpt>
      <trkpt lat="49.11186" lon="1.44885">
        <ele>17.39831161499</ele>
        <time>2013-09-22T09:27:22.000Z</time>
      </trkpt>
      <trkpt lat="49.11193" lon="1.44904">
        <ele>17.205268859863</ele>
        <time>2013-09-22T09:27:25.000Z</time>
      </trkpt>
      <trkpt lat="49.11197" lon="1.44918">
        <ele>16.987464904785</ele>
        <time>2013-09-22T09:27:27.000Z</time>
      </trkpt>
      <trkpt lat="49.11202" lon="1.44932">
        <ele>16.854846954346</ele>
        <time>2013-09-22T09:27:29.000Z</time>
      </trkpt>
      <trkpt lat="49.11209" lon="1.44953">
        <ele>16.808963775635</ele>
        <time>2013-09-22T09:27:32.000Z</time>
      </trkpt>
      <trkpt lat="49.11217" lon="1.44973">
        <ele>16.827558517456</ele>
        <time>2013-09-22T09:27:35.000Z</time>
      </trkpt>
      <trkpt lat="49.11224" lon="1.44994">
        <ele>16.925689697266</ele>
        <time>2013-09-22T09:27:38.000Z</time>
      </trkpt>
      <trkpt lat="49.11227" lon="1.45009">
        <ele>17.072937011719</ele>
        <time>2013-09-22T09:27:41.000Z</time>
      </trkpt>
      <trkpt lat="49.11226" lon="1.45019">
        <ele>17.224761962891</ele>
        <time>2013-09-22T09:27:44.000Z</time>
      </trkpt>
      <trkpt lat="49.11229" lon="1.45034">
        <ele>17.372802734375</ele>
        <time>2013-09-22T09:27:47.000Z</time>
      </trkpt>
      <trkpt lat="49.11236" lon="1.45041">
        <ele>17.492431640625</ele>
        <time>2013-09-22T09:27:49.000Z</time>
      </trkpt>
      <trkpt lat="49.11242" lon="1.45054">
        <ele>17.596649169922</ele>
        <time>2013-09-22T09:27:52.000Z</time>
      </trkpt>
      <trkpt lat="49.11239" lon="1.45063">
        <ele>17.695587158203</ele>
        <time>2013-09-22T09:27:54.000Z</time>
      </trkpt>
      <trkpt lat="49.11232" lon="1.45076">
        <ele>17.815246582031</ele>
        <time>2013-09-22T09:27:57.000Z</time>
      </trkpt>
      <trkpt lat="49.11228" lon="1.45084">
        <ele>17.937252044678</ele>
        <time>2013-09-22T09:27:59.000Z</time>
      </trkpt>
      <trkpt lat="49.11222" lon="1.45092">
        <ele>18.080471038818</ele>
        <time>2013-09-22T09:28:02.000Z</time>
      </trkpt>
      <trkpt lat="49.11218" lon="1.45097">
        <ele>18.218872070312</ele>
        <time>2013-09-22T09:28:04.000Z</time>
      </trkpt>
      <trkpt lat="49.11212" lon="1.45105">
        <ele>18.358406066894</ele>
        <time>2013-09-22T09:28:07.000Z</time>
      </trkpt>
      <trkpt lat="49.11207" lon="1.45111">
        <ele>18.472316741943</ele>
        <time>2013-09-22T09:28:09.000Z</time>
      </trkpt>
      <trkpt lat="49.11201" lon="1.45119">
        <ele>18.585018157959</ele>
        <time>2013-09-22T09:28:12.000Z</time>
      </trkpt>
      <trkpt lat="49.11197" lon="1.45123">
        <ele>18.696765899658</ele>
        <time>2013-09-22T09:28:14.000Z</time>
      </trkpt>
      <trkpt lat="49.11192" lon="1.45131">
        <ele>18.828130722046</ele>
        <time>2013-09-22T09:28:17.000Z</time>
      </trkpt>
      <trkpt lat="49.11192" lon="1.45144">
        <ele>18.955099105835</ele>
        <time>2013-09-22T09:28:20.000Z</time>
      </trkpt>
      <trkpt lat="49.11197" lon="1.45157">
        <ele>19.05632019043</ele>
        <time>2013-09-22T09:28:23.000Z</time>
      </trkpt>
      <trkpt lat="49.112" lon="1.45164">
        <ele>19.124164581299</ele>
        <time>2013-09-22T09:28:25.000Z</time>
      </trkpt>
      <trkpt lat="49.1121" lon="1.4517">
        <ele>19.11763381958</ele>
        <time>2013-09-22T09:28:28.000Z</time>
      </trkpt>
      <trkpt lat="49.11222" lon="1.45158">
        <ele>19.026508331299</ele>
        <time>2013-09-22T09:28:31.000Z</time>
      </trkpt>
      <trkpt lat="49.11235" lon="1.45141">
        <ele>18.84373664856</ele>
        <time>2013-09-22T09:28:34.000Z</time>
      </trkpt>
      <trkpt lat="49.11245" lon="1.45129">
        <ele>18.621570587158</ele>
        <time>2013-09-22T09:28:36.000Z</time>
      </trkpt>
      <trkpt lat="49.11256" lon="1.45115">
        <ele>18.342966079712</ele>
        <time>2013-09-22T09:28:38.000Z</time>
      </trkpt>
      <trkpt lat="49.11271" lon="1.45096">
        <ele>18.009674072266</ele>
        <time>2013-09-22T09:28:41.000Z</time>
      </trkpt>
      <trkpt lat="49.11282" lon="1.45093">
        <ele>17.645477294922</ele>
        <time>2013-09-22T09:28:43.000Z</time>
      </trkpt>
      <trkpt lat="49.11297" lon="1.45106">
        <ele>17.246061325073</ele>
        <time>2013-09-22T09:28:46.000Z</time>
      </trkpt>
      <trkpt lat="49.11309" lon="1.45129">
        <ele>16.8017578125</ele>
        <time>2013-09-22T09:28:49.000Z</time>
      </trkpt>
      <trkpt lat="49.1132" lon="1.45153">
        <ele>16.3447265625</ele>
        <time>2013-09-22T09:28:52.000Z</time>
      </trkpt>
      <trkpt lat="49.11327" lon="1.45168">
        <ele>15.949392318726</ele>
        <time>2013-09-22T09:28:54.000Z</time>
      </trkpt>
      <trkpt lat="49.11333" lon="1.45182">
        <ele>15.655720710754</ele>
        <time>2013-09-22T09:28:56.000Z</time>
      </trkpt>
      <trkpt lat="49.11342" lon="1.452">
        <ele>15.506353378296</ele>
        <time>2013-09-22T09:28:59.000Z</time>
      </trkpt>
      <trkpt lat="49.11352" lon="1.45213">
        <ele>15.438679695129</ele>
        <time>2013-09-22T09:29:02.000Z</time>
      </trkpt>
      <trkpt lat="49.11357" lon="1.45222">
        <ele>15.431390762329</ele>
        <time>2013-09-22T09:29:04.000Z</time>
      </trkpt>
      <trkpt lat="49.11364" lon="1.45232">
        <ele>15.449716567993</ele>
        <time>2013-09-22T09:29:06.000Z</time>
      </trkpt>
      <trkpt lat="49.11369" lon="1.45244">
        <ele>15.423275947571</ele>
        <time>2013-09-22T09:29:09.000Z</time>
      </trkpt>
      <trkpt lat="49.11378" lon="1.45262">
        <ele>15.285923957825</ele>
        <time>2013-09-22T09:29:12.000Z</time>
      </trkpt>
      <trkpt lat="49.11387" lon="1.45276">
        <ele>15.064926147461</ele>
        <time>2013-09-22T09:29:15.000Z</time>
      </trkpt>
      <trkpt lat="49.11391" lon="1.45283">
        <ele>14.813817977905</ele>
        <time>2013-09-22T09:29:17.000Z</time>
      </trkpt>
      <trkpt lat="49.11398" lon="1.45297">
        <ele>14.521293640137</ele>
        <time>2013-09-22T09:29:20.000Z</time>
      </trkpt>
      <trkpt lat="49.11406" lon="1.45312">
        <ele>14.17578125</ele>
        <time>2013-09-22T09:29:23.000Z</time>
      </trkpt>
      <trkpt lat="49.11412" lon="1.45327">
        <ele>13.8515625</ele>
        <time>2013-09-22T09:29:26.000Z</time>
      </trkpt>
      <trkpt lat="49.11416" lon="1.45341">
        <ele>13.57014465332</ele>
        <time>2013-09-22T09:29:29.000Z</time>
      </trkpt>
      <trkpt lat="49.11424" lon="1.45358">
        <ele>13.316934585571</ele>
        <time>2013-09-22T09:29:32.000Z</time>
      </trkpt>
      <trkpt lat="49.11433" lon="1.45377">
        <ele>13.119512557983</ele>
        <time>2013-09-22T09:29:35.000Z</time>
      </trkpt>
      <trkpt lat="49.11442" lon="1.45394">
        <ele>13.003446578979</ele>
        <time>2013-09-22T09:29:38.000Z</time>
      </trkpt>
      <trkpt lat="49.11447" lon="1.45404">
        <ele>12.943585395813</ele>
        <time>2013-09-22T09:29:40.000Z</time>
      </trkpt>
      <trkpt lat="49.11457" lon="1.4542">
        <ele>12.941409111023</ele>
        <time>2013-09-22T09:29:43.000Z</time>
      </trkpt>
      <trkpt lat="49.11462" lon="1.4543">
        <ele>12.953994750977</ele>
        <time>2013-09-22T09:29:45.000Z</time>
      </trkpt>
      <trkpt lat="49.11467" lon="1.45438">
        <ele>12.973291397095</ele>
        <time>2013-09-22T09:29:47.000Z</time>
      </trkpt>
      <trkpt lat="49.11475" lon="1.45451">
        <ele>12.989356994629</ele>
        <time>2013-09-22T09:29:50.000Z</time>
      </trkpt>
      <trkpt lat="49.1148" lon="1.45459">
        <ele>13</ele>
        <time>2013-09-22T09:29:52.000Z</time>
      </trkpt>
      <trkpt lat="49.115" lon="1.45503">
        <ele>13.006341934204</ele>
        <time>2013-09-22T09:30:03.000Z</time>
      </trkpt>
      <trkpt lat="49.11507" lon="1.45516">
        <ele>13.042556762695</ele>
        <time>2013-09-22T09:30:06.000Z</time>
      </trkpt>
      <trkpt lat="49.11514" lon="1.45532">
        <ele>13.106573104858</ele>
        <time>2013-09-22T09:30:09.000Z</time>
      </trkpt>
      <trkpt lat="49.11522" lon="1.45548">
        <ele>13.192446708679</ele>
        <time>2013-09-22T09:30:12.000Z</time>
      </trkpt>
      <trkpt lat="49.11528" lon="1.4556">
        <ele>13.287282943726</ele>
        <time>2013-09-22T09:30:14.000Z</time>
      </trkpt>
      <trkpt lat="49.11535" lon="1.45571">
        <ele>13.380876541138</ele>
        <time>2013-09-22T09:30:16.000Z</time>
      </trkpt>
      <trkpt lat="49.11544" lon="1.45588">
        <ele>13.41756439209</ele>
        <time>2013-09-22T09:30:19.000Z</time>
      </trkpt>
      <trkpt lat="49.11549" lon="1.45601">
        <ele>13.344555854797</ele>
        <time>2013-09-22T09:30:21.000Z</time>
      </trkpt>
      <trkpt lat="49.11555" lon="1.45613">
        <ele>13.161862373352</ele>
        <time>2013-09-22T09:30:23.000Z</time>
      </trkpt>
      <trkpt lat="49.11559" lon="1.45623">
        <ele>12.896745681763</ele>
        <time>2013-09-22T09:30:25.000Z</time>
      </trkpt>
      <trkpt lat="49.11557" lon="1.45631">
        <ele>12.591412544251</ele>
        <time>2013-09-22T09:30:27.000Z</time>
      </trkpt>
      <trkpt lat="49.11552" lon="1.45639">
        <ele>12.293713569641</ele>
        <time>2013-09-22T09:30:30.000Z</time>
      </trkpt>
      <trkpt lat="49.11545" lon="1.45652">
        <ele>12.051162719727</ele>
        <time>2013-09-22T09:30:33.000Z</time>
      </trkpt>
      <trkpt lat="49.11538" lon="1.45664">
        <ele>11.885611534119</ele>
        <time>2013-09-22T09:30:36.000Z</time>
      </trkpt>
      <trkpt lat="49.11531" lon="1.45675">
        <ele>11.809162139893</ele>
        <time>2013-09-22T09:30:39.000Z</time>
      </trkpt>
      <trkpt lat="49.11527" lon="1.45681">
        <ele>11.788462638855</ele>
        <time>2013-09-22T09:30:41.000Z</time>
      </trkpt>
      <trkpt lat="49.11523" lon="1.45685">
        <ele>11.805987358093</ele>
        <time>2013-09-22T09:30:43.000Z</time>
      </trkpt>
      <trkpt lat="49.11515" lon="1.45692">
        <ele>11.886058807373</ele>
        <time>2013-09-22T09:30:46.000Z</time>
      </trkpt>
      <trkpt lat="49.1151" lon="1.45698">
        <ele>11.998718261719</ele>
        <time>2013-09-22T09:30:48.000Z</time>
      </trkpt>
      <trkpt lat="49.11506" lon="1.45704">
        <ele>12.115173339844</ele>
        <time>2013-09-22T09:30:50.000Z</time>
      </trkpt>
      <trkpt lat="49.11498" lon="1.45714">
        <ele>12.231120109558</ele>
        <time>2013-09-22T09:30:53.000Z</time>
      </trkpt>
      <trkpt lat="49.11489" lon="1.45727">
        <ele>12.312377929688</ele>
        <time>2013-09-22T09:30:56.000Z</time>
      </trkpt>
      <trkpt lat="49.11484" lon="1.45736">
        <ele>12.349942207336</ele>
        <time>2013-09-22T09:30:58.000Z</time>
      </trkpt>
      <trkpt lat="49.11476" lon="1.4575">
        <ele>12.357367515564</ele>
        <time>2013-09-22T09:31:01.000Z</time>
      </trkpt>
      <trkpt lat="49.1147" lon="1.45767">
        <ele>12.352931976318</ele>
        <time>2013-09-22T09:31:04.000Z</time>
      </trkpt>
      <trkpt lat="49.11466" lon="1.45779">
        <ele>12.349746704102</ele>
        <time>2013-09-22T09:31:06.000Z</time>
      </trkpt>
      <trkpt lat="49.11462" lon="1.4579">
        <ele>12.397232055664</ele>
        <time>2013-09-22T09:31:09.000Z</time>
      </trkpt>
      <trkpt lat="49.11453" lon="1.45803">
        <ele>12.544172286987</ele>
        <time>2013-09-22T09:31:12.000Z</time>
      </trkpt>
      <trkpt lat="49.11442" lon="1.4581">
        <ele>12.83913898468</ele>
        <time>2013-09-22T09:31:16.000Z</time>
      </trkpt>
      <trkpt lat="49.11431" lon="1.4582">
        <ele>13.299489021301</ele>
        <time>2013-09-22T09:31:21.000Z</time>
      </trkpt>
      <trkpt lat="49.11421" lon="1.45836">
        <ele>13.937314033508</ele>
        <time>2013-09-22T09:31:24.000Z</time>
      </trkpt>
      <trkpt lat="49.11417" lon="1.45843">
        <ele>14.5634765625</ele>
        <time>2013-09-22T09:31:27.000Z</time>
      </trkpt>
      <trkpt lat="49.11402" lon="1.45888">
        <ele>14.898646354675</ele>
        <time>2013-09-22T09:31:32.000Z</time>
      </trkpt>
      <trkpt lat="49.11391" lon="1.45902">
        <ele>15.05505657196</ele>
        <time>2013-09-22T09:31:35.000Z</time>
      </trkpt>
      <trkpt lat="49.11386" lon="1.45907">
        <ele>15.030812263489</ele>
        <time>2013-09-22T09:31:38.000Z</time>
      </trkpt>
      <trkpt lat="49.11382" lon="1.45912">
        <ele>14.803039550781</ele>
        <time>2013-09-22T09:31:41.000Z</time>
      </trkpt>
      <trkpt lat="49.11376" lon="1.45922">
        <ele>14.545208930969</ele>
        <time>2013-09-22T09:31:45.000Z</time>
      </trkpt>
      <trkpt lat="49.11374" lon="1.45925">
        <ele>14.492448806763</ele>
        <time>2013-09-22T09:31:48.000Z</time>
      </trkpt>
      <trkpt lat="49.11367" lon="1.45937">
        <ele>14.506960868835</ele>
        <time>2013-09-22T09:31:51.000Z</time>
      </trkpt>
      <trkpt lat="49.11365" lon="1.4595">
        <ele>14.555529594421</ele>
        <time>2013-09-22T09:31:53.000Z</time>
      </trkpt>
      <trkpt lat="49.11362" lon="1.45967">
        <ele>14.662699699402</ele>
        <time>2013-09-22T09:31:56.000Z</time>
      </trkpt>
      <trkpt lat="49.1136" lon="1.45974">
        <ele>14.809802055359</ele>
        <time>2013-09-22T09:31:59.000Z</time>
      </trkpt>
      <trkpt lat="49.11353" lon="1.45988">
        <ele>15.099401473999</ele>
        <time>2013-09-22T09:32:02.000Z</time>
      </trkpt>
      <trkpt lat="49.11347" lon="1.45999">
        <ele>15.513509750366</ele>
        <time>2013-09-22T09:32:05.000Z</time>
      </trkpt>
      <trkpt lat="49.11341" lon="1.46015">
        <ele>15.87579536438</ele>
        <time>2013-09-22T09:32:08.000Z</time>
      </trkpt>
      <trkpt lat="49.11335" lon="1.46031">
        <ele>16.15100479126</ele>
        <time>2013-09-22T09:32:11.000Z</time>
      </trkpt>
      <trkpt lat="49.1133" lon="1.46041">
        <ele>16.332782745361</ele>
        <time>2013-09-22T09:32:13.000Z</time>
      </trkpt>
      <trkpt lat="49.11326" lon="1.46049">
        <ele>16.32130241394</ele>
        <time>2013-09-22T09:32:15.000Z</time>
      </trkpt>
      <trkpt lat="49.11321" lon="1.4606">
        <ele>16.104690551758</ele>
        <time>2013-09-22T09:32:18.000Z</time>
      </trkpt>
      <trkpt lat="49.11317" lon="1.46069">
        <ele>15.881204605102</ele>
        <time>2013-09-22T09:32:20.000Z</time>
      </trkpt>
      <trkpt lat="49.11309" lon="1.46088">
        <ele>15.66010093689</ele>
        <time>2013-09-22T09:32:23.000Z</time>
      </trkpt>
      <trkpt lat="49.11299" lon="1.46103">
        <ele>15.489224433899</ele>
        <time>2013-09-22T09:32:26.000Z</time>
      </trkpt>
      <trkpt lat="49.11292" lon="1.46113">
        <ele>15.397275924683</ele>
        <time>2013-09-22T09:32:28.000Z</time>
      </trkpt>
      <trkpt lat="49.11282" lon="1.46129">
        <ele>15.402760505676</ele>
        <time>2013-09-22T09:32:31.000Z</time>
      </trkpt>
      <trkpt lat="49.11278" lon="1.46141">
        <ele>15.459463119507</ele>
        <time>2013-09-22T09:32:33.000Z</time>
      </trkpt>
      <trkpt lat="49.11271" lon="1.46157">
        <ele>15.593243598938</ele>
        <time>2013-09-22T09:32:36.000Z</time>
      </trkpt>
      <trkpt lat="49.11266" lon="1.46165">
        <ele>15.807629585266</ele>
        <time>2013-09-22T09:32:38.000Z</time>
      </trkpt>
      <trkpt lat="49.11257" lon="1.4618">
        <ele>16.021175384521</ele>
        <time>2013-09-22T09:32:41.000Z</time>
      </trkpt>
      <trkpt lat="49.11252" lon="1.46193">
        <ele>16.138093948364</ele>
        <time>2013-09-22T09:32:43.000Z</time>
      </trkpt>
      <trkpt lat="49.11243" lon="1.46211">
        <ele>16.114643096924</ele>
        <time>2013-09-22T09:32:46.000Z</time>
      </trkpt>
      <trkpt lat="49.11234" lon="1.46226">
        <ele>15.969990730286</ele>
        <time>2013-09-22T09:32:49.000Z</time>
      </trkpt>
      <trkpt lat="49.11226" lon="1.46251">
        <ele>15.652216911316</ele>
        <time>2013-09-22T09:32:52.000Z</time>
      </trkpt>
      <trkpt lat="49.11221" lon="1.46263">
        <ele>15.33599281311</ele>
        <time>2013-09-22T09:32:54.000Z</time>
      </trkpt>
      <trkpt lat="49.11214" lon="1.4628">
        <ele>15.129318237305</ele>
        <time>2013-09-22T09:32:57.000Z</time>
      </trkpt>
      <trkpt lat="49.11209" lon="1.4629">
        <ele>15.102790832519</ele>
        <time>2013-09-22T09:32:59.000Z</time>
      </trkpt>
      <trkpt lat="49.112" lon="1.46303">
        <ele>15.255798339844</ele>
        <time>2013-09-22T09:33:02.000Z</time>
      </trkpt>
      <trkpt lat="49.11191" lon="1.46315">
        <ele>15.611267089844</ele>
        <time>2013-09-22T09:33:05.000Z</time>
      </trkpt>
      <trkpt lat="49.11184" lon="1.46324">
        <ele>16.009582519531</ele>
        <time>2013-09-22T09:33:07.000Z</time>
      </trkpt>
      <trkpt lat="49.11174" lon="1.46341">
        <ele>16.389545440674</ele>
        <time>2013-09-22T09:33:10.000Z</time>
      </trkpt>
      <trkpt lat="49.11165" lon="1.46357">
        <ele>16.606143951416</ele>
        <time>2013-09-22T09:33:13.000Z</time>
      </trkpt>
      <trkpt lat="49.11158" lon="1.46366">
        <ele>16.585285186768</ele>
        <time>2013-09-22T09:33:15.000Z</time>
      </trkpt>
      <trkpt lat="49.11148" lon="1.4638">
        <ele>16.296070098877</ele>
        <time>2013-09-22T09:33:18.000Z</time>
      </trkpt>
      <trkpt lat="49.11142" lon="1.4639">
        <ele>15.820231437683</ele>
        <time>2013-09-22T09:33:20.000Z</time>
      </trkpt>
      <trkpt lat="49.11132" lon="1.46408">
        <ele>15.153650283813</ele>
        <time>2013-09-22T09:33:23.000Z</time>
      </trkpt>
      <trkpt lat="49.11123" lon="1.46423">
        <ele>14.524496078491</ele>
        <time>2013-09-22T09:33:26.000Z</time>
      </trkpt>
      <trkpt lat="49.11115" lon="1.46437">
        <ele>14.014715194702</ele>
        <time>2013-09-22T09:33:29.000Z</time>
      </trkpt>
      <trkpt lat="49.11106" lon="1.46451">
        <ele>13.681915283203</ele>
        <time>2013-09-22T09:33:32.000Z</time>
      </trkpt>
      <trkpt lat="49.11102" lon="1.46463">
        <ele>13.463821411133</ele>
        <time>2013-09-22T09:33:34.000Z</time>
      </trkpt>
      <trkpt lat="49.11095" lon="1.46483">
        <ele>13.415249824524</ele>
        <time>2013-09-22T09:33:37.000Z</time>
      </trkpt>
      <trkpt lat="49.1109" lon="1.46505">
        <ele>13.419469833374</ele>
        <time>2013-09-22T09:33:40.000Z</time>
      </trkpt>
      <trkpt lat="49.11084" lon="1.46522">
        <ele>13.332081794739</ele>
        <time>2013-09-22T09:33:43.000Z</time>
      </trkpt>
      <trkpt lat="49.11079" lon="1.46532">
        <ele>13.14831829071</ele>
        <time>2013-09-22T09:33:45.000Z</time>
      </trkpt>
      <trkpt lat="49.11073" lon="1.46544">
        <ele>12.869860649109</ele>
        <time>2013-09-22T09:33:47.000Z</time>
      </trkpt>
      <trkpt lat="49.11064" lon="1.46559">
        <ele>12.487642288208</ele>
        <time>2013-09-22T09:33:50.000Z</time>
      </trkpt>
      <trkpt lat="49.11056" lon="1.46573">
        <ele>12.063672065735</ele>
        <time>2013-09-22T09:33:53.000Z</time>
      </trkpt>
      <trkpt lat="49.11051" lon="1.46583">
        <ele>11.719225883484</ele>
        <time>2013-09-22T09:33:55.000Z</time>
      </trkpt>
      <trkpt lat="49.11041" lon="1.46599">
        <ele>11.528038978577</ele>
        <time>2013-09-22T09:33:58.000Z</time>
      </trkpt>
      <trkpt lat="49.11032" lon="1.46615">
        <ele>11.493490219116</ele>
        <time>2013-09-22T09:34:01.000Z</time>
      </trkpt>
      <trkpt lat="49.11023" lon="1.46631">
        <ele>11.605905532837</ele>
        <time>2013-09-22T09:34:04.000Z</time>
      </trkpt>
      <trkpt lat="49.11018" lon="1.4664">
        <ele>11.815582275391</ele>
        <time>2013-09-22T09:34:06.000Z</time>
      </trkpt>
      <trkpt lat="49.11012" lon="1.46649">
        <ele>12.091796875</ele>
        <time>2013-09-22T09:34:08.000Z</time>
      </trkpt>
      <trkpt lat="49.11006" lon="1.46658">
        <ele>12.34375</ele>
        <time>2013-09-22T09:34:10.000Z</time>
      </trkpt>
      <trkpt lat="49.10998" lon="1.46673">
        <ele>12.547560691833</ele>
        <time>2013-09-22T09:34:13.000Z</time>
      </trkpt>
      <trkpt lat="49.10992" lon="1.46683">
        <ele>12.665210723877</ele>
        <time>2013-09-22T09:34:15.000Z</time>
      </trkpt>
      <trkpt lat="49.10984" lon="1.46692">
        <ele>12.732317924499</ele>
        <time>2013-09-22T09:34:18.000Z</time>
      </trkpt>
      <trkpt lat="49.10978" lon="1.46698">
        <ele>12.762818336487</ele>
        <time>2013-09-22T09:34:20.000Z</time>
      </trkpt>
      <trkpt lat="49.10971" lon="1.46704">
        <ele>12.762102127075</ele>
        <time>2013-09-22T09:34:22.000Z</time>
      </trkpt>
      <trkpt lat="49.10965" lon="1.46712">
        <ele>12.744253158569</ele>
        <time>2013-09-22T09:34:24.000Z</time>
      </trkpt>
      <trkpt lat="49.10953" lon="1.46725">
        <ele>12.785611152649</ele>
        <time>2013-09-22T09:34:27.000Z</time>
      </trkpt>
      <trkpt lat="49.10946" lon="1.46733">
        <ele>12.865293502808</ele>
        <time>2013-09-22T09:34:29.000Z</time>
      </trkpt>
      <trkpt lat="49.10938" lon="1.46739">
        <ele>12.983630180359</ele>
        <time>2013-09-22T09:34:31.000Z</time>
      </trkpt>
      <trkpt lat="49.10926" lon="1.46753">
        <ele>13.138475418091</ele>
        <time>2013-09-22T09:34:34.000Z</time>
      </trkpt>
      <trkpt lat="49.10918" lon="1.46763">
        <ele>13.245742797852</ele>
        <time>2013-09-22T09:34:36.000Z</time>
      </trkpt>
      <trkpt lat="49.10909" lon="1.46781">
        <ele>13.204584121704</ele>
        <time>2013-09-22T09:34:39.000Z</time>
      </trkpt>
      <trkpt lat="49.10904" lon="1.468">
        <ele>13.00936126709</ele>
        <time>2013-09-22T09:34:42.000Z</time>
      </trkpt>
      <trkpt lat="49.109" lon="1.46812">
        <ele>12.710020065308</ele>
        <time>2013-09-22T09:34:44.000Z</time>
      </trkpt>
      <trkpt lat="49.10891" lon="1.46825">
        <ele>12.36927986145</ele>
        <time>2013-09-22T09:34:47.000Z</time>
      </trkpt>
      <trkpt lat="49.10881" lon="1.46829">
        <ele>12.152437210083</ele>
        <time>2013-09-22T09:34:49.000Z</time>
      </trkpt>
      <trkpt lat="49.10875" lon="1.46836">
        <ele>12.095308303833</ele>
        <time>2013-09-22T09:34:51.000Z</time>
      </trkpt>
      <trkpt lat="49.10868" lon="1.46845">
        <ele>12.195368766785</ele>
        <time>2013-09-22T09:34:54.000Z</time>
      </trkpt>
      <trkpt lat="49.10858" lon="1.46858">
        <ele>12.374982833862</ele>
        <time>2013-09-22T09:34:56.000Z</time>
      </trkpt>
      <trkpt lat="49.10845" lon="1.46863">
        <ele>12.618366241455</ele>
        <time>2013-09-22T09:34:59.000Z</time>
      </trkpt>
      <trkpt lat="49.10836" lon="1.46864">
        <ele>12.851961135864</ele>
        <time>2013-09-22T09:35:01.000Z</time>
      </trkpt>
      <trkpt lat="49.10825" lon="1.46866">
        <ele>13.133722305298</ele>
        <time>2013-09-22T09:35:04.000Z</time>
      </trkpt>
      <trkpt lat="49.10819" lon="1.46875">
        <ele>13.36688041687</ele>
        <time>2013-09-22T09:35:07.000Z</time>
      </trkpt>
      <trkpt lat="49.1082" lon="1.46878">
        <ele>13.539525985718</ele>
        <time>2013-09-22T09:35:16.000Z</time>
      </trkpt>
      <trkpt lat="49.1082" lon="1.46876">
        <ele>13.662574768066</ele>
        <time>2013-09-22T09:35:23.000Z</time>
      </trkpt>
      <trkpt lat="49.1082" lon="1.46873">
        <ele>13.73885345459</ele>
        <time>2013-09-22T09:35:37.000Z</time>
      </trkpt>
      <trkpt lat="49.1082" lon="1.46873">
        <ele>13.73885345459</ele>
        <time>2013-09-22T09:35:57.000Z</time>
      </trkpt>
      <trkpt lat="49.10819" lon="1.46874">
        <ele>13.72504901886</ele>
        <time>2013-09-22T09:35:58.000Z</time>
      </trkpt>
      <trkpt lat="49.10819" lon="1.46874">
        <ele>13.72504901886</ele>
        <time>2013-09-22T09:36:18.000Z</time>
      </trkpt>
      <trkpt lat="49.10821" lon="1.46877">
        <ele>13.689030647278</ele>
        <time>2013-09-22T09:36:24.000Z</time>
      </trkpt>
      <trkpt lat="49.10823" lon="1.46877">
        <ele>13.662200927734</ele>
        <time>2013-09-22T09:36:26.000Z</time>
      </trkpt>
      <trkpt lat="49.10822" lon="1.46878">
        <ele>13.619094848633</ele>
        <time>2013-09-22T09:36:30.000Z</time>
      </trkpt>
      <trkpt lat="49.10822" lon="1.46878">
        <ele>13.619094848633</ele>
        <time>2013-09-22T09:36:50.000Z</time>
      </trkpt>
      <trkpt lat="49.10822" lon="1.46877">
        <ele>13.571195602417</ele>
        <time>2013-09-22T09:37:01.000Z</time>
      </trkpt>
      <trkpt lat="49.10824" lon="1.46875">
        <ele>13.509968757629</ele>
        <time>2013-09-22T09:37:21.000Z</time>
      </trkpt>
      <trkpt lat="49.1082" lon="1.46879">
        <ele>13.502599716187</ele>
        <time>2013-09-22T09:37:24.000Z</time>
      </trkpt>
      <trkpt lat="49.10813" lon="1.46884">
        <ele>13.56263256073</ele>
        <time>2013-09-22T09:37:27.000Z</time>
      </trkpt>
      <trkpt lat="49.10803" lon="1.46891">
        <ele>13.69154548645</ele>
        <time>2013-09-22T09:37:30.000Z</time>
      </trkpt>
      <trkpt lat="49.10793" lon="1.469">
        <ele>13.867589950562</ele>
        <time>2013-09-22T09:37:33.000Z</time>
      </trkpt>
      <trkpt lat="49.10781" lon="1.46909">
        <ele>14.151414871216</ele>
        <time>2013-09-22T09:37:36.000Z</time>
      </trkpt>
      <trkpt lat="49.1077" lon="1.46919">
        <ele>14.519457817078</ele>
        <time>2013-09-22T09:37:39.000Z</time>
      </trkpt>
      <trkpt lat="49.10758" lon="1.46928">
        <ele>14.884126663208</ele>
        <time>2013-09-22T09:37:42.000Z</time>
      </trkpt>
      <trkpt lat="49.1075" lon="1.46935">
        <ele>15.164037704468</ele>
        <time>2013-09-22T09:37:44.000Z</time>
      </trkpt>
      <trkpt lat="49.10738" lon="1.46945">
        <ele>15.313242912293</ele>
        <time>2013-09-22T09:37:47.000Z</time>
      </trkpt>
      <trkpt lat="49.1073" lon="1.46952">
        <ele>15.336840629578</ele>
        <time>2013-09-22T09:37:49.000Z</time>
      </trkpt>
      <trkpt lat="49.10719" lon="1.46964">
        <ele>15.224740982056</ele>
        <time>2013-09-22T09:37:52.000Z</time>
      </trkpt>
      <trkpt lat="49.10707" lon="1.46977">
        <ele>15.071444511414</ele>
        <time>2013-09-22T09:37:55.000Z</time>
      </trkpt>
      <trkpt lat="49.10693" lon="1.46984">
        <ele>15.064944267273</ele>
        <time>2013-09-22T09:37:58.000Z</time>
      </trkpt>
      <trkpt lat="49.10682" lon="1.46989">
        <ele>15.246116638184</ele>
        <time>2013-09-22T09:38:01.000Z</time>
      </trkpt>
      <trkpt lat="49.1067" lon="1.46993">
        <ele>15.619832038879</ele>
        <time>2013-09-22T09:38:04.000Z</time>
      </trkpt>
      <trkpt lat="49.10657" lon="1.46998">
        <ele>16.082498550415</ele>
        <time>2013-09-22T09:38:07.000Z</time>
      </trkpt>
      <trkpt lat="49.10646" lon="1.47005">
        <ele>16.49461555481</ele>
        <time>2013-09-22T09:38:10.000Z</time>
      </trkpt>
      <trkpt lat="49.10639" lon="1.4701">
        <ele>16.731010437012</ele>
        <time>2013-09-22T09:38:12.000Z</time>
      </trkpt>
      <trkpt lat="49.1063" lon="1.47019">
        <ele>16.770975112915</ele>
        <time>2013-09-22T09:38:15.000Z</time>
      </trkpt>
      <trkpt lat="49.10621" lon="1.47026">
        <ele>16.599948883057</ele>
        <time>2013-09-22T09:38:18.000Z</time>
      </trkpt>
      <trkpt lat="49.10613" lon="1.47031">
        <ele>16.36828994751</ele>
        <time>2013-09-22T09:38:21.000Z</time>
      </trkpt>
      <trkpt lat="49.10608" lon="1.47032">
        <ele>16.209411621094</ele>
        <time>2013-09-22T09:38:23.000Z</time>
      </trkpt>
      <trkpt lat="49.10598" lon="1.47034">
        <ele>16.140476226807</ele>
        <time>2013-09-22T09:38:26.000Z</time>
      </trkpt>
      <trkpt lat="49.10596" lon="1.47035">
        <ele>16.153652191162</ele>
        <time>2013-09-22T09:38:28.000Z</time>
      </trkpt>
      <trkpt lat="49.10587" lon="1.47034">
        <ele>16.277118682861</ele>
        <time>2013-09-22T09:38:31.000Z</time>
      </trkpt>
      <trkpt lat="49.10581" lon="1.47034">
        <ele>16.422002792358</ele>
        <time>2013-09-22T09:38:33.000Z</time>
      </trkpt>
      <trkpt lat="49.10571" lon="1.47038">
        <ele>16.515390396118</ele>
        <time>2013-09-22T09:38:36.000Z</time>
      </trkpt>
      <trkpt lat="49.10558" lon="1.47043">
        <ele>16.519521713257</ele>
        <time>2013-09-22T09:38:39.000Z</time>
      </trkpt>
      <trkpt lat="49.10551" lon="1.47047">
        <ele>16.4996509552</ele>
        <time>2013-09-22T09:38:41.000Z</time>
      </trkpt>
      <trkpt lat="49.10542" lon="1.47052">
        <ele>16.404418945312</ele>
        <time>2013-09-22T09:38:44.000Z</time>
      </trkpt>
      <trkpt lat="49.10533" lon="1.47058">
        <ele>16.299144744873</ele>
        <time>2013-09-22T09:38:46.000Z</time>
      </trkpt>
      <trkpt lat="49.10516" lon="1.47069">
        <ele>16.281427383423</ele>
        <time>2013-09-22T09:38:49.000Z</time>
      </trkpt>
      <trkpt lat="49.10495" lon="1.47082">
        <ele>16.398324966431</ele>
        <time>2013-09-22T09:38:52.000Z</time>
      </trkpt>
      <trkpt lat="49.10476" lon="1.47093">
        <ele>16.346292495727</ele>
        <time>2013-09-22T09:38:55.000Z</time>
      </trkpt>
      <trkpt lat="49.10458" lon="1.47106">
        <ele>16.11047744751</ele>
        <time>2013-09-22T09:38:58.000Z</time>
      </trkpt>
      <trkpt lat="49.10446" lon="1.47114">
        <ele>15.773455619812</ele>
        <time>2013-09-22T09:39:00.000Z</time>
      </trkpt>
      <trkpt lat="49.10429" lon="1.47124">
        <ele>15.283361434937</ele>
        <time>2013-09-22T09:39:03.000Z</time>
      </trkpt>
      <trkpt lat="49.10417" lon="1.47131">
        <ele>14.644205093384</ele>
        <time>2013-09-22T09:39:05.000Z</time>
      </trkpt>
      <trkpt lat="49.10401" lon="1.47138">
        <ele>14.207670211792</ele>
        <time>2013-09-22T09:39:08.000Z</time>
      </trkpt>
      <trkpt lat="49.10392" lon="1.47141">
        <ele>13.998161315918</ele>
        <time>2013-09-22T09:39:10.000Z</time>
      </trkpt>
      <trkpt lat="49.10382" lon="1.47144">
        <ele>13.91459941864</ele>
        <time>2013-09-22T09:39:12.000Z</time>
      </trkpt>
      <trkpt lat="49.10374" lon="1.4715">
        <ele>13.947161674499</ele>
        <time>2013-09-22T09:39:14.000Z</time>
      </trkpt>
      <trkpt lat="49.10361" lon="1.47157">
        <ele>14.069854736328</ele>
        <time>2013-09-22T09:39:17.000Z</time>
      </trkpt>
      <trkpt lat="49.10352" lon="1.47162">
        <ele>14.19818687439</ele>
        <time>2013-09-22T09:39:19.000Z</time>
      </trkpt>
      <trkpt lat="49.10341" lon="1.47172">
        <ele>14.304751396179</ele>
        <time>2013-09-22T09:39:22.000Z</time>
      </trkpt>
      <trkpt lat="49.10333" lon="1.4718">
        <ele>14.359089851379</ele>
        <time>2013-09-22T09:39:24.000Z</time>
      </trkpt>
      <trkpt lat="49.1032" lon="1.47191">
        <ele>14.44189453125</ele>
        <time>2013-09-22T09:39:27.000Z</time>
      </trkpt>
      <trkpt lat="49.10308" lon="1.47197">
        <ele>14.577394485474</ele>
        <time>2013-09-22T09:39:30.000Z</time>
      </trkpt>
      <trkpt lat="49.10298" lon="1.47206">
        <ele>14.729688644409</ele>
        <time>2013-09-22T09:39:33.000Z</time>
      </trkpt>
      <trkpt lat="49.10291" lon="1.4721">
        <ele>14.9243516922</ele>
        <time>2013-09-22T09:39:35.000Z</time>
      </trkpt>
      <trkpt lat="49.10284" lon="1.47215">
        <ele>15.19463634491</ele>
        <time>2013-09-22T09:39:37.000Z</time>
      </trkpt>
      <trkpt lat="49.10273" lon="1.47224">
        <ele>15.504104614258</ele>
        <time>2013-09-22T09:39:40.000Z</time>
      </trkpt>
      <trkpt lat="49.10262" lon="1.47234">
        <ele>15.819562911987</ele>
        <time>2013-09-22T09:39:43.000Z</time>
      </trkpt>
      <trkpt lat="49.10254" lon="1.4724">
        <ele>16.168783187866</ele>
        <time>2013-09-22T09:39:45.000Z</time>
      </trkpt>
      <trkpt lat="49.10247" lon="1.47246">
        <ele>16.524055480957</ele>
        <time>2013-09-22T09:39:47.000Z</time>
      </trkpt>
      <trkpt lat="49.10237" lon="1.47253">
        <ele>16.857481002808</ele>
        <time>2013-09-22T09:39:50.000Z</time>
      </trkpt>
      <trkpt lat="49.10228" lon="1.47259">
        <ele>17.118072509766</ele>
        <time>2013-09-22T09:39:53.000Z</time>
      </trkpt>
      <trkpt lat="49.10221" lon="1.47262">
        <ele>17.315319061279</ele>
        <time>2013-09-22T09:39:55.000Z</time>
      </trkpt>
      <trkpt lat="49.10211" lon="1.4727">
        <ele>17.428646087646</ele>
        <time>2013-09-22T09:39:58.000Z</time>
      </trkpt>
      <trkpt lat="49.10202" lon="1.4728">
        <ele>17.457675933838</ele>
        <time>2013-09-22T09:40:01.000Z</time>
      </trkpt>
      <trkpt lat="49.10192" lon="1.47291">
        <ele>17.420240402222</ele>
        <time>2013-09-22T09:40:04.000Z</time>
      </trkpt>
      <trkpt lat="49.10184" lon="1.473">
        <ele>17.344598770142</ele>
        <time>2013-09-22T09:40:06.000Z</time>
      </trkpt>
      <trkpt lat="49.10173" lon="1.47314">
        <ele>17.193588256836</ele>
        <time>2013-09-22T09:40:09.000Z</time>
      </trkpt>
      <trkpt lat="49.10165" lon="1.47322">
        <ele>17.038822174072</ele>
        <time>2013-09-22T09:40:11.000Z</time>
      </trkpt>
      <trkpt lat="49.10156" lon="1.47333">
        <ele>16.840337753296</ele>
        <time>2013-09-22T09:40:14.000Z</time>
      </trkpt>
      <trkpt lat="49.1015" lon="1.47337">
        <ele>16.677242279053</ele>
        <time>2013-09-22T09:40:16.000Z</time>
      </trkpt>
      <trkpt lat="49.10143" lon="1.47342">
        <ele>16.527278900146</ele>
        <time>2013-09-22T09:40:18.000Z</time>
      </trkpt>
      <trkpt lat="49.10138" lon="1.47349">
        <ele>16.387880325317</ele>
        <time>2013-09-22T09:40:20.000Z</time>
      </trkpt>
      <trkpt lat="49.10131" lon="1.47358">
        <ele>16.211065292358</ele>
        <time>2013-09-22T09:40:23.000Z</time>
      </trkpt>
      <trkpt lat="49.10129" lon="1.47362">
        <ele>16.082006454468</ele>
        <time>2013-09-22T09:40:25.000Z</time>
      </trkpt>
      <trkpt lat="49.10124" lon="1.47367">
        <ele>15.952763557434</ele>
        <time>2013-09-22T09:40:27.000Z</time>
      </trkpt>
      <trkpt lat="49.10117" lon="1.47374">
        <ele>15.848680496216</ele>
        <time>2013-09-22T09:40:30.000Z</time>
      </trkpt>
      <trkpt lat="49.1011" lon="1.47379">
        <ele>15.789332389832</ele>
        <time>2013-09-22T09:40:32.000Z</time>
      </trkpt>
      <trkpt lat="49.10105" lon="1.47387">
        <ele>15.773611068726</ele>
        <time>2013-09-22T09:40:34.000Z</time>
      </trkpt>
      <trkpt lat="49.10098" lon="1.474">
        <ele>15.756162643433</ele>
        <time>2013-09-22T09:40:37.000Z</time>
      </trkpt>
      <trkpt lat="49.1009" lon="1.47413">
        <ele>15.743197441101</ele>
        <time>2013-09-22T09:40:40.000Z</time>
      </trkpt>
      <trkpt lat="49.10082" lon="1.47425">
        <ele>15.755887031555</ele>
        <time>2013-09-22T09:40:43.000Z</time>
      </trkpt>
      <trkpt lat="49.10075" lon="1.47432">
        <ele>15.761297225952</ele>
        <time>2013-09-22T09:40:45.000Z</time>
      </trkpt>
      <trkpt lat="49.10069" lon="1.4744">
        <ele>15.794425964356</ele>
        <time>2013-09-22T09:40:47.000Z</time>
      </trkpt>
      <trkpt lat="49.10059" lon="1.47452">
        <ele>15.927678108215</ele>
        <time>2013-09-22T09:40:50.000Z</time>
      </trkpt>
      <trkpt lat="49.10051" lon="1.47463">
        <ele>16.150671005249</ele>
        <time>2013-09-22T09:40:53.000Z</time>
      </trkpt>
      <trkpt lat="49.10044" lon="1.4747">
        <ele>16.440118789673</ele>
        <time>2013-09-22T09:40:55.000Z</time>
      </trkpt>
      <trkpt lat="49.10034" lon="1.4748">
        <ele>16.91427230835</ele>
        <time>2013-09-22T09:40:58.000Z</time>
      </trkpt>
      <trkpt lat="49.1002" lon="1.47495">
        <ele>17.701257705689</ele>
        <time>2013-09-22T09:41:01.000Z</time>
      </trkpt>
      <trkpt lat="49.10005" lon="1.47512">
        <ele>18.712333679199</ele>
        <time>2013-09-22T09:41:04.000Z</time>
      </trkpt>
      <trkpt lat="49.09993" lon="1.4753">
        <ele>19.627679824829</ele>
        <time>2013-09-22T09:41:07.000Z</time>
      </trkpt>
      <trkpt lat="49.09985" lon="1.47543">
        <ele>20.362670898438</ele>
        <time>2013-09-22T09:41:09.000Z</time>
      </trkpt>
      <trkpt lat="49.09977" lon="1.47558">
        <ele>20.834440231323</ele>
        <time>2013-09-22T09:41:11.000Z</time>
      </trkpt>
      <trkpt lat="49.09965" lon="1.47579">
        <ele>20.892330169678</ele>
        <time>2013-09-22T09:41:14.000Z</time>
      </trkpt>
      <trkpt lat="49.09953" lon="1.47601">
        <ele>20.468605041504</ele>
        <time>2013-09-22T09:41:17.000Z</time>
      </trkpt>
      <trkpt lat="49.09945" lon="1.47616">
        <ele>19.921058654785</ele>
        <time>2013-09-22T09:41:19.000Z</time>
      </trkpt>
      <trkpt lat="49.09939" lon="1.4763">
        <ele>19.351629257202</ele>
        <time>2013-09-22T09:41:21.000Z</time>
      </trkpt>
      <trkpt lat="49.09928" lon="1.47651">
        <ele>18.718822479248</ele>
        <time>2013-09-22T09:41:24.000Z</time>
      </trkpt>
      <trkpt lat="49.09922" lon="1.47665">
        <ele>18.092681884766</ele>
        <time>2013-09-22T09:41:26.000Z</time>
      </trkpt>
      <trkpt lat="49.09912" lon="1.47683">
        <ele>17.504962921143</ele>
        <time>2013-09-22T09:41:29.000Z</time>
      </trkpt>
      <trkpt lat="49.09905" lon="1.47694">
        <ele>16.986583709717</ele>
        <time>2013-09-22T09:41:31.000Z</time>
      </trkpt>
      <trkpt lat="49.09896" lon="1.47711">
        <ele>16.464992523193</ele>
        <time>2013-09-22T09:41:34.000Z</time>
      </trkpt>
      <trkpt lat="49.09886" lon="1.47727">
        <ele>16.001474380493</ele>
        <time>2013-09-22T09:41:37.000Z</time>
      </trkpt>
      <trkpt lat="49.09876" lon="1.47745">
        <ele>15.528422355652</ele>
        <time>2013-09-22T09:41:40.000Z</time>
      </trkpt>
      <trkpt lat="49.09868" lon="1.47764">
        <ele>15.177795410156</ele>
        <time>2013-09-22T09:41:43.000Z</time>
      </trkpt>
      <trkpt lat="49.09859" lon="1.47782">
        <ele>14.903697013855</ele>
        <time>2013-09-22T09:41:46.000Z</time>
      </trkpt>
      <trkpt lat="49.09854" lon="1.47794">
        <ele>14.746777534485</ele>
        <time>2013-09-22T09:41:48.000Z</time>
      </trkpt>
      <trkpt lat="49.09845" lon="1.47809">
        <ele>14.699475288391</ele>
        <time>2013-09-22T09:41:51.000Z</time>
      </trkpt>
      <trkpt lat="49.09837" lon="1.4782">
        <ele>14.768585205078</ele>
        <time>2013-09-22T09:41:53.000Z</time>
      </trkpt>
      <trkpt lat="49.09826" lon="1.47838">
        <ele>14.882283210754</ele>
        <time>2013-09-22T09:41:56.000Z</time>
      </trkpt>
      <trkpt lat="49.09818" lon="1.47859">
        <ele>14.950482368469</ele>
        <time>2013-09-22T09:41:59.000Z</time>
      </trkpt>
      <trkpt lat="49.0981" lon="1.47876">
        <ele>14.997975349426</ele>
        <time>2013-09-22T09:42:02.000Z</time>
      </trkpt>
      <trkpt lat="49.09805" lon="1.47887">
        <ele>15.016047477722</ele>
        <time>2013-09-22T09:42:04.000Z</time>
      </trkpt>
      <trkpt lat="49.09797" lon="1.47906">
        <ele>14.996485710144</ele>
        <time>2013-09-22T09:42:07.000Z</time>
      </trkpt>
      <trkpt lat="49.09792" lon="1.47919">
        <ele>14.948469161987</ele>
        <time>2013-09-22T09:42:09.000Z</time>
      </trkpt>
      <trkpt lat="49.09784" lon="1.47936">
        <ele>14.905860900879</ele>
        <time>2013-09-22T09:42:12.000Z</time>
      </trkpt>
      <trkpt lat="49.09777" lon="1.47954">
        <ele>14.843106269836</ele>
        <time>2013-09-22T09:42:15.000Z</time>
      </trkpt>
      <trkpt lat="49.09769" lon="1.47974">
        <ele>14.766591072082</ele>
        <time>2013-09-22T09:42:18.000Z</time>
      </trkpt>
      <trkpt lat="49.09763" lon="1.47988">
        <ele>14.684924125671</ele>
        <time>2013-09-22T09:42:20.000Z</time>
      </trkpt>
      <trkpt lat="49.09758" lon="1.48002">
        <ele>14.59379863739</ele>
        <time>2013-09-22T09:42:22.000Z</time>
      </trkpt>
      <trkpt lat="49.09754" lon="1.48017">
        <ele>14.512896537781</ele>
        <time>2013-09-22T09:42:24.000Z</time>
      </trkpt>
      <trkpt lat="49.09747" lon="1.48035">
        <ele>14.447778701782</ele>
        <time>2013-09-22T09:42:27.000Z</time>
      </trkpt>
      <trkpt lat="49.0974" lon="1.48053">
        <ele>14.383836746216</ele>
        <time>2013-09-22T09:42:30.000Z</time>
      </trkpt>
      <trkpt lat="49.09736" lon="1.48065">
        <ele>14.318148612976</ele>
        <time>2013-09-22T09:42:32.000Z</time>
      </trkpt>
      <trkpt lat="49.09726" lon="1.48084">
        <ele>14.31024646759</ele>
        <time>2013-09-22T09:42:35.000Z</time>
      </trkpt>
      <trkpt lat="49.09722" lon="1.48098">
        <ele>14.300996780396</ele>
        <time>2013-09-22T09:42:37.000Z</time>
      </trkpt>
      <trkpt lat="49.09713" lon="1.48119">
        <ele>14.309976577759</ele>
        <time>2013-09-22T09:42:40.000Z</time>
      </trkpt>
      <trkpt lat="49.09707" lon="1.48132">
        <ele>14.337249755859</ele>
        <time>2013-09-22T09:42:42.000Z</time>
      </trkpt>
      <trkpt lat="49.09702" lon="1.48147">
        <ele>14.373413085938</ele>
        <time>2013-09-22T09:42:44.000Z</time>
      </trkpt>
      <trkpt lat="49.09693" lon="1.48167">
        <ele>14.374478340149</ele>
        <time>2013-09-22T09:42:47.000Z</time>
      </trkpt>
      <trkpt lat="49.09684" lon="1.48189">
        <ele>14.364151000977</ele>
        <time>2013-09-22T09:42:50.000Z</time>
      </trkpt>
      <trkpt lat="49.09674" lon="1.48211">
        <ele>14.301134109497</ele>
        <time>2013-09-22T09:42:53.000Z</time>
      </trkpt>
      <trkpt lat="49.09669" lon="1.48226">
        <ele>14.177881240845</ele>
        <time>2013-09-22T09:42:55.000Z</time>
      </trkpt>
      <trkpt lat="49.09661" lon="1.4825">
        <ele>13.980653762817</ele>
        <time>2013-09-22T09:42:58.000Z</time>
      </trkpt>
      <trkpt lat="49.09653" lon="1.48273">
        <ele>13.912790298462</ele>
        <time>2013-09-22T09:43:01.000Z</time>
      </trkpt>
      <trkpt lat="49.09649" lon="1.48286">
        <ele>13.93638420105</ele>
        <time>2013-09-22T09:43:03.000Z</time>
      </trkpt>
      <trkpt lat="49.09643" lon="1.48307">
        <ele>14.111630439758</ele>
        <time>2013-09-22T09:43:06.000Z</time>
      </trkpt>
      <trkpt lat="49.09637" lon="1.48325">
        <ele>14.432958602905</ele>
        <time>2013-09-22T09:43:09.000Z</time>
      </trkpt>
      <trkpt lat="49.09631" lon="1.48343">
        <ele>14.874443054199</ele>
        <time>2013-09-22T09:43:12.000Z</time>
      </trkpt>
      <trkpt lat="49.09625" lon="1.48361">
        <ele>15.190382003784</ele>
        <time>2013-09-22T09:43:15.000Z</time>
      </trkpt>
      <trkpt lat="49.09619" lon="1.48374">
        <ele>15.484483718872</ele>
        <time>2013-09-22T09:43:18.000Z</time>
      </trkpt>
      <trkpt lat="49.09613" lon="1.48374">
        <ele>15.749377250671</ele>
        <time>2013-09-22T09:43:21.000Z</time>
      </trkpt>
      <trkpt lat="49.09608" lon="1.48373">
        <ele>15.983985900879</ele>
        <time>2013-09-22T09:43:24.000Z</time>
      </trkpt>
      <trkpt lat="49.09604" lon="1.48372">
        <ele>16.226486206055</ele>
        <time>2013-09-22T09:43:27.000Z</time>
      </trkpt>
      <trkpt lat="49.096" lon="1.48373">
        <ele>16.501865386963</ele>
        <time>2013-09-22T09:43:33.000Z</time>
      </trkpt>
      <trkpt lat="49.09587" lon="1.48392">
        <ele>16.877674102783</ele>
        <time>2013-09-22T09:43:37.000Z</time>
      </trkpt>
      <trkpt lat="49.09583" lon="1.48408">
        <ele>17.228015899658</ele>
        <time>2013-09-22T09:43:40.000Z</time>
      </trkpt>
      <trkpt lat="49.09581" lon="1.48425">
        <ele>17.487461090088</ele>
        <time>2013-09-22T09:43:43.000Z</time>
      </trkpt>
      <trkpt lat="49.09578" lon="1.48437">
        <ele>17.64864730835</ele>
        <time>2013-09-22T09:43:45.000Z</time>
      </trkpt>
      <trkpt lat="49.09575" lon="1.48451">
        <ele>17.72406578064</ele>
        <time>2013-09-22T09:43:47.000Z</time>
      </trkpt>
      <trkpt lat="49.09568" lon="1.48475">
        <ele>17.607162475586</ele>
        <time>2013-09-22T09:43:50.000Z</time>
      </trkpt>
      <trkpt lat="49.09562" lon="1.48495">
        <ele>17.432680130005</ele>
        <time>2013-09-22T09:43:53.000Z</time>
      </trkpt>
      <trkpt lat="49.09556" lon="1.48508">
        <ele>17.316883087158</ele>
        <time>2013-09-22T09:43:55.000Z</time>
      </trkpt>
      <trkpt lat="49.09549" lon="1.48526">
        <ele>17.291818618774</ele>
        <time>2013-09-22T09:43:58.000Z</time>
      </trkpt>
      <trkpt lat="49.09538" lon="1.48541">
        <ele>17.399127960205</ele>
        <time>2013-09-22T09:44:01.000Z</time>
      </trkpt>
      <trkpt lat="49.09526" lon="1.48554">
        <ele>17.674076080322</ele>
        <time>2013-09-22T09:44:04.000Z</time>
      </trkpt>
      <trkpt lat="49.09517" lon="1.48565">
        <ele>18.058126449585</ele>
        <time>2013-09-22T09:44:07.000Z</time>
      </trkpt>
      <trkpt lat="49.09507" lon="1.48574">
        <ele>18.529325485229</ele>
        <time>2013-09-22T09:44:10.000Z</time>
      </trkpt>
      <trkpt lat="49.09501" lon="1.48581">
        <ele>19.019996643066</ele>
        <time>2013-09-22T09:44:12.000Z</time>
      </trkpt>
      <trkpt lat="49.09492" lon="1.48592">
        <ele>19.40549659729</ele>
        <time>2013-09-22T09:44:15.000Z</time>
      </trkpt>
      <trkpt lat="49.09485" lon="1.48601">
        <ele>19.638675689697</ele>
        <time>2013-09-22T09:44:18.000Z</time>
      </trkpt>
      <trkpt lat="49.09481" lon="1.48608">
        <ele>19.744546890259</ele>
        <time>2013-09-22T09:44:20.000Z</time>
      </trkpt>
      <trkpt lat="49.09476" lon="1.48624">
        <ele>19.640657424927</ele>
        <time>2013-09-22T09:44:23.000Z</time>
      </trkpt>
      <trkpt lat="49.09481" lon="1.48645">
        <ele>19.305969238281</ele>
        <time>2013-09-22T09:44:26.000Z</time>
      </trkpt>
      <trkpt lat="49.09484" lon="1.48655">
        <ele>18.892730712891</ele>
        <time>2013-09-22T09:44:28.000Z</time>
      </trkpt>
      <trkpt lat="49.09489" lon="1.48662">
        <ele>18.431732177734</ele>
        <time>2013-09-22T09:44:31.000Z</time>
      </trkpt>
      <trkpt lat="49.09492" lon="1.48666">
        <ele>17.962371826172</ele>
        <time>2013-09-22T09:44:33.000Z</time>
      </trkpt>
      <trkpt lat="49.09492" lon="1.48667">
        <ele>17.572443008423</ele>
        <time>2013-09-22T09:44:35.000Z</time>
      </trkpt>
      <trkpt lat="49.09497" lon="1.48677">
        <ele>17.239421844482</ele>
        <time>2013-09-22T09:44:38.000Z</time>
      </trkpt>
      <trkpt lat="49.09499" lon="1.48682">
        <ele>16.932800292969</ele>
        <time>2013-09-22T09:44:40.000Z</time>
      </trkpt>
      <trkpt lat="49.09501" lon="1.48688">
        <ele>16.627502441406</ele>
        <time>2013-09-22T09:44:42.000Z</time>
      </trkpt>
      <trkpt lat="49.09505" lon="1.48697">
        <ele>16.228008270264</ele>
        <time>2013-09-22T09:44:45.000Z</time>
      </trkpt>
      <trkpt lat="49.09509" lon="1.48701">
        <ele>15.763931274414</ele>
        <time>2013-09-22T09:44:47.000Z</time>
      </trkpt>
      <trkpt lat="49.09515" lon="1.48708">
        <ele>15.280413627624</ele>
        <time>2013-09-22T09:44:50.000Z</time>
      </trkpt>
      <trkpt lat="49.09521" lon="1.48717">
        <ele>14.728387832642</ele>
        <time>2013-09-22T09:44:53.000Z</time>
      </trkpt>
      <trkpt lat="49.09526" lon="1.48723">
        <ele>14.155908584595</ele>
        <time>2013-09-22T09:44:55.000Z</time>
      </trkpt>
      <trkpt lat="49.09534" lon="1.48734">
        <ele>13.572874069214</ele>
        <time>2013-09-22T09:44:58.000Z</time>
      </trkpt>
      <trkpt lat="49.09542" lon="1.48743">
        <ele>12.946490287781</ele>
        <time>2013-09-22T09:45:01.000Z</time>
      </trkpt>
      <trkpt lat="49.0955" lon="1.48754">
        <ele>12.343490600586</ele>
        <time>2013-09-22T09:45:04.000Z</time>
      </trkpt>
      <trkpt lat="49.0956" lon="1.48768">
        <ele>11.784297943115</ele>
        <time>2013-09-22T09:45:07.000Z</time>
      </trkpt>
      <trkpt lat="49.09568" lon="1.48776">
        <ele>11.269639015198</ele>
        <time>2013-09-22T09:45:09.000Z</time>
      </trkpt>
      <trkpt lat="49.09579" lon="1.48791">
        <ele>10.827829360962</ele>
        <time>2013-09-22T09:45:12.000Z</time>
      </trkpt>
      <trkpt lat="49.09591" lon="1.48808">
        <ele>10.511884689331</ele>
        <time>2013-09-22T09:45:15.000Z</time>
      </trkpt>
      <trkpt lat="49.09599" lon="1.48819">
        <ele>10.342397689819</ele>
        <time>2013-09-22T09:45:17.000Z</time>
      </trkpt>
      <trkpt lat="49.09611" lon="1.48835">
        <ele>10.345609664917</ele>
        <time>2013-09-22T09:45:20.000Z</time>
      </trkpt>
      <trkpt lat="49.09623" lon="1.48852">
        <ele>10.602375984192</ele>
        <time>2013-09-22T09:45:23.000Z</time>
      </trkpt>
      <trkpt lat="49.09634" lon="1.4887">
        <ele>11.124110221863</ele>
        <time>2013-09-22T09:45:26.000Z</time>
      </trkpt>
      <trkpt lat="49.09645" lon="1.4889">
        <ele>11.83856010437</ele>
        <time>2013-09-22T09:45:29.000Z</time>
      </trkpt>
      <trkpt lat="49.09657" lon="1.4891">
        <ele>12.704599380493</ele>
        <time>2013-09-22T09:45:32.000Z</time>
      </trkpt>
      <trkpt lat="49.09665" lon="1.48933">
        <ele>13.593786239624</ele>
        <time>2013-09-22T09:45:35.000Z</time>
      </trkpt>
      <trkpt lat="49.09673" lon="1.48942">
        <ele>14.38747215271</ele>
        <time>2013-09-22T09:45:37.000Z</time>
      </trkpt>
      <trkpt lat="49.09681" lon="1.48952">
        <ele>15.105596542358</ele>
        <time>2013-09-22T09:45:40.000Z</time>
      </trkpt>
      <trkpt lat="49.09679" lon="1.4895">
        <ele>15.595428466797</ele>
        <time>2013-09-22T09:45:42.000Z</time>
      </trkpt>
      <trkpt lat="49.09676" lon="1.48945">
        <ele>15.854451179504</ele>
        <time>2013-09-22T09:45:45.000Z</time>
      </trkpt>
      <trkpt lat="49.09679" lon="1.48951">
        <ele>16.053874969482</ele>
        <time>2013-09-22T09:45:48.000Z</time>
      </trkpt>
      <trkpt lat="49.09683" lon="1.4896">
        <ele>16.211334228516</ele>
        <time>2013-09-22T09:45:50.000Z</time>
      </trkpt>
      <trkpt lat="49.09698" lon="1.48967">
        <ele>16.427307128906</ele>
        <time>2013-09-22T09:45:53.000Z</time>
      </trkpt>
      <trkpt lat="49.09714" lon="1.48955">
        <ele>16.867160797119</ele>
        <time>2013-09-22T09:45:56.000Z</time>
      </trkpt>
      <trkpt lat="49.09726" lon="1.48948">
        <ele>17.504066467285</ele>
        <time>2013-09-22T09:45:58.000Z</time>
      </trkpt>
      <trkpt lat="49.09748" lon="1.48939">
        <ele>18.384296417236</ele>
        <time>2013-09-22T09:46:01.000Z</time>
      </trkpt>
      <trkpt lat="49.09771" lon="1.48929">
        <ele>19.2008934021</ele>
        <time>2013-09-22T09:46:04.000Z</time>
      </trkpt>
      <trkpt lat="49.09787" lon="1.48922">
        <ele>19.81494140625</ele>
        <time>2013-09-22T09:46:06.000Z</time>
      </trkpt>
      <trkpt lat="49.09809" lon="1.48916">
        <ele>20.204843521118</ele>
        <time>2013-09-22T09:46:09.000Z</time>
      </trkpt>
      <trkpt lat="49.09819" lon="1.48901">
        <ele>20.432155609131</ele>
        <time>2013-09-22T09:46:11.000Z</time>
      </trkpt>
      <trkpt lat="49.09827" lon="1.48883">
        <ele>20.393798828125</ele>
        <time>2013-09-22T09:46:13.000Z</time>
      </trkpt>
      <trkpt lat="49.09838" lon="1.48855">
        <ele>20.403406143189</ele>
        <time>2013-09-22T09:46:16.000Z</time>
      </trkpt>
      <trkpt lat="49.09844" lon="1.48837">
        <ele>20.451147079468</ele>
        <time>2013-09-22T09:46:18.000Z</time>
      </trkpt>
      <trkpt lat="49.09849" lon="1.48824">
        <ele>20.467350006104</ele>
        <time>2013-09-22T09:46:20.000Z</time>
      </trkpt>
      <trkpt lat="49.09852" lon="1.48805">
        <ele>20.384214401245</ele>
        <time>2013-09-22T09:46:22.000Z</time>
      </trkpt>
      <trkpt lat="49.09853" lon="1.4878">
        <ele>20.150667190552</ele>
        <time>2013-09-22T09:46:25.000Z</time>
      </trkpt>
      <trkpt lat="49.09858" lon="1.48762">
        <ele>19.796825408936</ele>
        <time>2013-09-22T09:46:28.000Z</time>
      </trkpt>
      <trkpt lat="49.09863" lon="1.48751">
        <ele>19.404022216797</ele>
        <time>2013-09-22T09:46:30.000Z</time>
      </trkpt>
      <trkpt lat="49.09867" lon="1.48736">
        <ele>19.051054000854</ele>
        <time>2013-09-22T09:46:33.000Z</time>
      </trkpt>
      <trkpt lat="49.09871" lon="1.48723">
        <ele>18.790691375732</ele>
        <time>2013-09-22T09:46:36.000Z</time>
      </trkpt>
      <trkpt lat="49.09875" lon="1.48723">
        <ele>18.679872512817</ele>
        <time>2013-09-22T09:46:38.000Z</time>
      </trkpt>
      <trkpt lat="49.09876" lon="1.48725">
        <ele>18.658315658569</ele>
        <time>2013-09-22T09:46:41.000Z</time>
      </trkpt>
      <trkpt lat="49.09876" lon="1.48725">
        <ele>18.658315658569</ele>
        <time>2013-09-22T09:47:01.000Z</time>
      </trkpt>
      <trkpt lat="49.09889" lon="1.48726">
        <ele>18.740093231201</ele>
        <time>2013-09-22T09:48:20.000Z</time>
      </trkpt>
      <trkpt lat="49.09894" lon="1.48711">
        <ele>18.8577003479</ele>
        <time>2013-09-22T09:48:31.000Z</time>
      </trkpt>
      <trkpt lat="49.09894" lon="1.48711">
        <ele>18.8577003479</ele>
        <time>2013-09-22T09:48:51.000Z</time>
      </trkpt>
      <trkpt lat="49.09887" lon="1.48721">
        <ele>18.956224441528</ele>
        <time>2013-09-22T09:49:27.000Z</time>
      </trkpt>
      <trkpt lat="49.09887" lon="1.48721">
        <ele>18.956224441528</ele>
        <time>2013-09-22T09:49:47.000Z</time>
      </trkpt>
    </trkseg>
  </trk>
</gpx>